<?xml version='1.0' encoding='UTF-8'?><gpx version="1.1" creator="JPX - https://github.com/jenetics/jpx" xmlns="http://www.topografix.com/GPX/1/1"><trk><trkseg><trkpt lat="43.91712837583964" lon="12.137214282818734"><ele>269.0</ele><time>2026-04-05T07:21:15.167Z</time></trkpt><trkpt lat="43.91716638382879" lon="12.137135717206398"><ele>269.0</ele><time>2026-04-05T07:21:18.167Z</time></trkpt><trkpt lat="43.91709447138657" lon="12.137166386930627"><ele>269.0</ele><time>2026-04-05T07:21:21.999Z</time></trkpt><trkpt lat="43.91705320265311" lon="12.137248570473721"><ele>269.0</ele><time>2026-04-05T07:21:24.999Z</time></trkpt><trkpt lat="43.91703502688306" lon="12.137342955194283"><ele>269.0</ele><time>2026-04-05T07:21:29.999Z</time></trkpt><trkpt lat="43.916979827563694" lon="12.137481565752292"><ele>269.0</ele><time>2026-04-05T07:21:35Z</time></trkpt><trkpt lat="43.91697056558083" lon="12.137374817524822"><ele>269.0</ele><time>2026-04-05T07:21:38Z</time></trkpt><trkpt lat="43.917011811295666" lon="12.137278055875951"><ele>269.0</ele><time>2026-04-05T07:21:40Z</time></trkpt><trkpt lat="43.917075478525916" lon="12.137181610951776"><ele>269.0</ele><time>2026-04-05T07:21:42Z</time></trkpt><trkpt lat="43.91714986259253" lon="12.137056372437998"><ele>269.0</ele><time>2026-04-05T07:21:44Z</time></trkpt><trkpt lat="43.91718768346842" lon="12.136974297233817"><ele>269.0</ele><time>2026-04-05T07:21:45Z</time></trkpt><trkpt lat="43.91722338156945" lon="12.136885369358541"><ele>269.0</ele><time>2026-04-05T07:21:46Z</time></trkpt><trkpt lat="43.91725231589713" lon="12.136792314116818"><ele>269.0</ele><time>2026-04-05T07:21:47Z</time></trkpt><trkpt lat="43.917286896073804" lon="12.136715264692606"><ele>269.0</ele><time>2026-04-05T07:21:48Z</time></trkpt><trkpt lat="43.917319299890096" lon="12.136632639242404"><ele>269.0</ele><time>2026-04-05T07:21:49Z</time></trkpt><trkpt lat="43.917371601130384" lon="12.13649083559949"><ele>269.0</ele><time>2026-04-05T07:21:51Z</time></trkpt><trkpt lat="43.9173981391898" lon="12.136354860625028"><ele>269.0</ele><time>2026-04-05T07:21:53Z</time></trkpt><trkpt lat="43.91741078705052" lon="12.136213841572877"><ele>269.6666666666667</ele><time>2026-04-05T07:21:55Z</time></trkpt><trkpt lat="43.917371801925626" lon="12.136111354148753"><ele>270.33333333333337</ele><time>2026-04-05T07:21:57Z</time></trkpt><trkpt lat="43.91729470004002" lon="12.136101281504413"><ele>271.0</ele><time>2026-04-05T07:22:00Z</time></trkpt><trkpt lat="43.91724754684099" lon="12.136217906026157"><ele>271.6666666666667</ele><time>2026-04-05T07:22:02Z</time></trkpt><trkpt lat="43.91720835385623" lon="12.136363836864774"><ele>272.3333333333333</ele><time>2026-04-05T07:22:04Z</time></trkpt><trkpt lat="43.91717842332352" lon="12.13644532251269"><ele>273.0</ele><time>2026-04-05T07:22:05Z</time></trkpt><trkpt lat="43.91714075884386" lon="12.136519214212685"><ele>272.42857142857144</ele><time>2026-04-05T07:22:06Z</time></trkpt><trkpt lat="43.91709980739263" lon="12.13659016796852"><ele>271.8571428571429</ele><time>2026-04-05T07:22:07Z</time></trkpt><trkpt lat="43.91705690403258" lon="12.136670080417256"><ele>271.2857142857143</ele><time>2026-04-05T07:22:08Z</time></trkpt><trkpt lat="43.91701135711455" lon="12.136749322782984"><ele>270.7142857142857</ele><time>2026-04-05T07:22:09Z</time></trkpt><trkpt lat="43.916964812863924" lon="12.1368254727956"><ele>270.14285714285717</ele><time>2026-04-05T07:22:10Z</time></trkpt><trkpt lat="43.91691208560919" lon="12.136897830613114"><ele>269.57142857142856</ele><time>2026-04-05T07:22:11Z</time></trkpt><trkpt lat="43.916853678350186" lon="12.136968657722893"><ele>269.0</ele><time>2026-04-05T07:22:12Z</time></trkpt><trkpt lat="43.91678718208114" lon="12.137036515825125"><ele>263.4</ele><time>2026-04-05T07:22:13Z</time></trkpt><trkpt lat="43.91669467956876" lon="12.137077655027289"><ele>257.79999999999995</ele><time>2026-04-05T07:22:14Z</time></trkpt><trkpt lat="43.9166066677876" lon="12.13712033213043"><ele>252.20000000000002</ele><time>2026-04-05T07:22:15Z</time></trkpt><trkpt lat="43.91651407344052" lon="12.137163179083943"><ele>246.60000000000002</ele><time>2026-04-05T07:22:16Z</time></trkpt><trkpt lat="43.9164213253626" lon="12.1372254708859"><ele>241.0</ele><time>2026-04-05T07:22:17Z</time></trkpt><trkpt lat="43.91633200090601" lon="12.13725353936599"><ele>241.0</ele><time>2026-04-05T07:22:18Z</time></trkpt><trkpt lat="43.916254865647566" lon="12.137315686332474"><ele>241.00000000000003</ele><time>2026-04-05T07:22:19Z</time></trkpt><trkpt lat="43.916180870793255" lon="12.137370458072514"><ele>241.00000000000003</ele><time>2026-04-05T07:22:20Z</time></trkpt><trkpt lat="43.916153988359206" lon="12.137504667374536"><ele>241.0</ele><time>2026-04-05T07:22:21Z</time></trkpt><trkpt lat="43.916130745573355" lon="12.137660518388058"><ele>241.0</ele><time>2026-04-05T07:22:22Z</time></trkpt><trkpt lat="43.91608158837188" lon="12.137831723898906"><ele>242.4</ele><time>2026-04-05T07:22:23Z</time></trkpt><trkpt lat="43.9160245995264" lon="12.137961279769499"><ele>243.8</ele><time>2026-04-05T07:22:24Z</time></trkpt><trkpt lat="43.91594410016248" lon="12.138057801353884"><ele>245.20000000000002</ele><time>2026-04-05T07:22:25Z</time></trkpt><trkpt lat="43.91584099296238" lon="12.138133899593155"><ele>246.60000000000002</ele><time>2026-04-05T07:22:26Z</time></trkpt><trkpt lat="43.915742668753" lon="12.138214144638317"><ele>248.0</ele><time>2026-04-05T07:22:27Z</time></trkpt><trkpt lat="43.91567170071709" lon="12.138275724816006"><ele>245.0</ele><time>2026-04-05T07:22:28Z</time></trkpt><trkpt lat="43.915603817943115" lon="12.138368066533307"><ele>242.0</ele><time>2026-04-05T07:22:30Z</time></trkpt><trkpt lat="43.91555174523166" lon="12.138438971512034"><ele>239.0</ele><time>2026-04-05T07:22:32Z</time></trkpt><trkpt lat="43.91542689815133" lon="12.138376745903983"><ele>236.0</ele><time>2026-04-05T07:22:34Z</time></trkpt><trkpt lat="43.915340793010266" lon="12.1383252684226"><ele>233.0</ele><time>2026-04-05T07:22:35Z</time></trkpt><trkpt lat="43.91525031778112" lon="12.1382654774837"><ele>233.2</ele><time>2026-04-05T07:22:36Z</time></trkpt><trkpt lat="43.915162945048245" lon="12.138197642989807"><ele>233.4</ele><time>2026-04-05T07:22:37Z</time></trkpt><trkpt lat="43.91509805681667" lon="12.138086033127067"><ele>233.59999999999997</ele><time>2026-04-05T07:22:38Z</time></trkpt><trkpt lat="43.91505144954512" lon="12.137956015212067"><ele>233.79999999999998</ele><time>2026-04-05T07:22:39Z</time></trkpt><trkpt lat="43.915055293227766" lon="12.137811409806355"><ele>234.0</ele><time>2026-04-05T07:22:40Z</time></trkpt><trkpt lat="43.9150633488786" lon="12.137648947053851"><ele>234.0</ele><time>2026-04-05T07:22:41Z</time></trkpt><trkpt lat="43.915060444846354" lon="12.137498207154877"><ele>233.99999999999997</ele><time>2026-04-05T07:22:42Z</time></trkpt><trkpt lat="43.9150758137794" lon="12.137350235232505"><ele>233.99999999999997</ele><time>2026-04-05T07:22:43Z</time></trkpt><trkpt lat="43.91508753195507" lon="12.137191215959039"><ele>234.0</ele><time>2026-04-05T07:22:44Z</time></trkpt><trkpt lat="43.91510027549633" lon="12.137029318585817"><ele>234.0</ele><time>2026-04-05T07:22:45Z</time></trkpt><trkpt lat="43.91511020317395" lon="12.136862234454364"><ele>234.0</ele><time>2026-04-05T07:22:46Z</time></trkpt><trkpt lat="43.91511644162246" lon="12.136695651908099"><ele>234.0</ele><time>2026-04-05T07:22:47Z</time></trkpt><trkpt lat="43.91512007813816" lon="12.136526052680546"><ele>234.0</ele><time>2026-04-05T07:22:48Z</time></trkpt><trkpt lat="43.91511987960321" lon="12.13635101210068"><ele>234.0</ele><time>2026-04-05T07:22:49Z</time></trkpt><trkpt lat="43.91511991630441" lon="12.136175174670642"><ele>234.75</ele><time>2026-04-05T07:22:50Z</time></trkpt><trkpt lat="43.91511065921335" lon="12.1359964491455"><ele>235.5</ele><time>2026-04-05T07:22:51Z</time></trkpt><trkpt lat="43.91508776648139" lon="12.13581145681658"><ele>236.25</ele><time>2026-04-05T07:22:52Z</time></trkpt><trkpt lat="43.91504652503413" lon="12.13561106094039"><ele>237.0</ele><time>2026-04-05T07:22:53Z</time></trkpt><trkpt lat="43.91500424429326" lon="12.13540762652665"><ele>237.0</ele><time>2026-04-05T07:22:54Z</time></trkpt><trkpt lat="43.91496578921215" lon="12.13519786689546"><ele>237.0</ele><time>2026-04-05T07:22:55Z</time></trkpt><trkpt lat="43.91492964511049" lon="12.134979515714367"><ele>237.0</ele><time>2026-04-05T07:22:56Z</time></trkpt><trkpt lat="43.91489863655844" lon="12.134758243593515"><ele>241.0</ele><time>2026-04-05T07:22:57Z</time></trkpt><trkpt lat="43.91487223234579" lon="12.13454275442856"><ele>245.0</ele><time>2026-04-05T07:22:58Z</time></trkpt><trkpt lat="43.91484102624273" lon="12.134324564180188"><ele>249.0</ele><time>2026-04-05T07:22:59Z</time></trkpt><trkpt lat="43.91480994341824" lon="12.134097027582362"><ele>251.66666666666669</ele><time>2026-04-05T07:23:00Z</time></trkpt><trkpt lat="43.914792273905825" lon="12.133861802595186"><ele>254.33333333333334</ele><time>2026-04-05T07:23:01Z</time></trkpt><trkpt lat="43.91473004490938" lon="12.13362435618952"><ele>257.0</ele><time>2026-04-05T07:23:02Z</time></trkpt><trkpt lat="43.91465835704029" lon="12.133383092355265"><ele>259.0</ele><time>2026-04-05T07:23:03Z</time></trkpt><trkpt lat="43.914579035880124" lon="12.133139372737702"><ele>261.0</ele><time>2026-04-05T07:23:04Z</time></trkpt><trkpt lat="43.91450270311735" lon="12.132915464859913"><ele>263.0</ele><time>2026-04-05T07:23:05Z</time></trkpt><trkpt lat="43.91443509070389" lon="12.13271118951671"><ele>263.0</ele><time>2026-04-05T07:23:06Z</time></trkpt><trkpt lat="43.91440325599039" lon="12.132516622999878"><ele>263.0</ele><time>2026-04-05T07:23:07Z</time></trkpt><trkpt lat="43.91439665707318" lon="12.132338385714085"><ele>263.0</ele><time>2026-04-05T07:23:08Z</time></trkpt><trkpt lat="43.91439909353371" lon="12.13217594739882"><ele>263.0</ele><time>2026-04-05T07:23:09Z</time></trkpt><trkpt lat="43.914404600893675" lon="12.132035417600706"><ele>263.5</ele><time>2026-04-05T07:23:10Z</time></trkpt><trkpt lat="43.91441488288658" lon="12.13190502172071"><ele>264.0</ele><time>2026-04-05T07:23:11Z</time></trkpt><trkpt lat="43.91441905289241" lon="12.131783154652283"><ele>264.5</ele><time>2026-04-05T07:23:12Z</time></trkpt><trkpt lat="43.91442183357104" lon="12.131673245039241"><ele>265.0</ele><time>2026-04-05T07:23:13Z</time></trkpt><trkpt lat="43.91442570702465" lon="12.131581146804837"><ele>265.5</ele><time>2026-04-05T07:23:14Z</time></trkpt><trkpt lat="43.914427312517276" lon="12.13149179374194"><ele>266.0</ele><time>2026-04-05T07:23:15Z</time></trkpt><trkpt lat="43.914422922256" lon="12.131372566953178"><ele>268.6666666666667</ele><time>2026-04-05T07:23:16Z</time></trkpt><trkpt lat="43.91442861269375" lon="12.131208893426338"><ele>271.3333333333333</ele><time>2026-04-05T07:23:17Z</time></trkpt><trkpt lat="43.91444325614694" lon="12.130967749001439"><ele>274.0</ele><time>2026-04-05T07:23:18Z</time></trkpt><trkpt lat="43.91442826492919" lon="12.13065973213415"><ele>276.0</ele><time>2026-04-05T07:23:19Z</time></trkpt><trkpt lat="43.914444558795715" lon="12.130320642629014"><ele>278.0</ele><time>2026-04-05T07:23:20Z</time></trkpt><trkpt lat="43.91443407277509" lon="12.130038316431769"><ele>280.0</ele><time>2026-04-05T07:23:21Z</time></trkpt><trkpt lat="43.91442472258082" lon="12.129793224187441"><ele>284.3333333333333</ele><time>2026-04-05T07:23:22Z</time></trkpt><trkpt lat="43.91436914078464" lon="12.129575610670663"><ele>288.6666666666667</ele><time>2026-04-05T07:23:23Z</time></trkpt><trkpt lat="43.914284078284496" lon="12.129368752122478"><ele>293.0</ele><time>2026-04-05T07:23:24Z</time></trkpt><trkpt lat="43.91418776045875" lon="12.129163202265529"><ele>282.6666666666667</ele><time>2026-04-05T07:23:25Z</time></trkpt><trkpt lat="43.91408564432418" lon="12.128927689657427"><ele>272.3333333333333</ele><time>2026-04-05T07:23:26Z</time></trkpt><trkpt lat="43.91397673870436" lon="12.12871518139103"><ele>262.0</ele><time>2026-04-05T07:23:27Z</time></trkpt><trkpt lat="43.91383393786469" lon="12.128536002196505"><ele>262.0</ele><time>2026-04-05T07:23:28Z</time></trkpt><trkpt lat="43.913652276311694" lon="12.128342810881293"><ele>262.0</ele><time>2026-04-05T07:23:29Z</time></trkpt><trkpt lat="43.91345644237015" lon="12.128080499419076"><ele>257.0</ele><time>2026-04-05T07:23:30Z</time></trkpt><trkpt lat="43.91324158975096" lon="12.127782648752591"><ele>252.0</ele><time>2026-04-05T07:23:31Z</time></trkpt><trkpt lat="43.91301441199681" lon="12.127495358167092"><ele>260.5</ele><time>2026-04-05T07:23:32Z</time></trkpt><trkpt lat="43.91282867298107" lon="12.127219992120576"><ele>269.0</ele><time>2026-04-05T07:23:33Z</time></trkpt><trkpt lat="43.91267658607012" lon="12.126950934393935"><ele>257.5</ele><time>2026-04-05T07:23:34Z</time></trkpt><trkpt lat="43.91255323079346" lon="12.126646311107713"><ele>246.0</ele><time>2026-04-05T07:23:35Z</time></trkpt><trkpt lat="43.91242265352824" lon="12.12634444583688"><ele>246.0</ele><time>2026-04-05T07:23:36Z</time></trkpt><trkpt lat="43.912333927503816" lon="12.12607453036472"><ele>246.0</ele><time>2026-04-05T07:23:37Z</time></trkpt><trkpt lat="43.9123050951973" lon="12.125838203193007"><ele>246.0</ele><time>2026-04-05T07:23:38Z</time></trkpt><trkpt lat="43.91231005021444" lon="12.125598801017642"><ele>247.0</ele><time>2026-04-05T07:23:39Z</time></trkpt><trkpt lat="43.912355284391445" lon="12.125359852787613"><ele>248.0</ele><time>2026-04-05T07:23:40Z</time></trkpt><trkpt lat="43.91243417637623" lon="12.12509817989185"><ele>249.0</ele><time>2026-04-05T07:23:41Z</time></trkpt><trkpt lat="43.912531656925246" lon="12.124815263672161"><ele>250.33333333333331</ele><time>2026-04-05T07:23:42Z</time></trkpt><trkpt lat="43.91258808390853" lon="12.124539428508491"><ele>251.66666666666666</ele><time>2026-04-05T07:23:43Z</time></trkpt><trkpt lat="43.912606536668704" lon="12.124307467168247"><ele>253.0</ele><time>2026-04-05T07:23:44Z</time></trkpt><trkpt lat="43.91255074379456" lon="12.124103155506567"><ele>254.75</ele><time>2026-04-05T07:23:45Z</time></trkpt><trkpt lat="43.91247147621286" lon="12.123938072741957"><ele>256.5</ele><time>2026-04-05T07:23:46Z</time></trkpt><trkpt lat="43.912335009065195" lon="12.123879859283592"><ele>258.25</ele><time>2026-04-05T07:23:47Z</time></trkpt><trkpt lat="43.912201908413486" lon="12.1239367476849"><ele>260.0</ele><time>2026-04-05T07:23:48Z</time></trkpt><trkpt lat="43.91208135654204" lon="12.124052895768406"><ele>260.0</ele><time>2026-04-05T07:23:49Z</time></trkpt><trkpt lat="43.91192219740383" lon="12.124076839417656"><ele>260.0</ele><time>2026-04-05T07:23:50Z</time></trkpt><trkpt lat="43.91182661918337" lon="12.124040283549297"><ele>260.0</ele><time>2026-04-05T07:23:51Z</time></trkpt><trkpt lat="43.911734995360376" lon="12.123952027039762"><ele>260.0</ele><time>2026-04-05T07:23:52Z</time></trkpt><trkpt lat="43.91164118577307" lon="12.123788386314414"><ele>259.0</ele><time>2026-04-05T07:23:53Z</time></trkpt><trkpt lat="43.911484287195044" lon="12.123562148795235"><ele>258.0</ele><time>2026-04-05T07:23:54Z</time></trkpt><trkpt lat="43.91133735253811" lon="12.123291182241116"><ele>259.6666666666667</ele><time>2026-04-05T07:23:55Z</time></trkpt><trkpt lat="43.91121038081711" lon="12.1230411162044"><ele>261.33333333333337</ele><time>2026-04-05T07:23:56Z</time></trkpt><trkpt lat="43.91110611661392" lon="12.122817240178406"><ele>263.0</ele><time>2026-04-05T07:23:57Z</time></trkpt><trkpt lat="43.911022446475904" lon="12.122580752671928"><ele>260.6666666666667</ele><time>2026-04-05T07:23:58Z</time></trkpt><trkpt lat="43.91089468262284" lon="12.122324342106825"><ele>258.3333333333333</ele><time>2026-04-05T07:23:59Z</time></trkpt><trkpt lat="43.91075882421604" lon="12.122101897713396"><ele>256.0</ele><time>2026-04-05T07:24:00Z</time></trkpt><trkpt lat="43.91060860836283" lon="12.121912697201065"><ele>256.0</ele><time>2026-04-05T07:24:01Z</time></trkpt><trkpt lat="43.91045213305683" lon="12.121723375571069"><ele>256.0</ele><time>2026-04-05T07:24:02Z</time></trkpt><trkpt lat="43.91027783122634" lon="12.121513078914534"><ele>256.0</ele><time>2026-04-05T07:24:03Z</time></trkpt><trkpt lat="43.91012894818288" lon="12.121330448589362"><ele>256.3333333333333</ele><time>2026-04-05T07:24:04Z</time></trkpt><trkpt lat="43.90998662509062" lon="12.121137219745725"><ele>256.6666666666667</ele><time>2026-04-05T07:24:05Z</time></trkpt><trkpt lat="43.90985981118704" lon="12.12092133007042"><ele>257.0</ele><time>2026-04-05T07:24:06Z</time></trkpt><trkpt lat="43.909742782727996" lon="12.12068300354213"><ele>262.5</ele><time>2026-04-05T07:24:07Z</time></trkpt><trkpt lat="43.909626271012804" lon="12.120411430755217"><ele>268.0</ele><time>2026-04-05T07:24:08Z</time></trkpt><trkpt lat="43.90949013858397" lon="12.120099222220444"><ele>264.5</ele><time>2026-04-05T07:24:09Z</time></trkpt><trkpt lat="43.9093269687835" lon="12.119768998619403"><ele>261.0</ele><time>2026-04-05T07:24:10Z</time></trkpt><trkpt lat="43.90914328197236" lon="12.1194236586359"><ele>265.5</ele><time>2026-04-05T07:24:11Z</time></trkpt><trkpt lat="43.9089594267972" lon="12.11905860011926"><ele>270.0</ele><time>2026-04-05T07:24:12Z</time></trkpt><trkpt lat="43.9087998666363" lon="12.118726006589247"><ele>270.0</ele><time>2026-04-05T07:24:13Z</time></trkpt><trkpt lat="43.90866353990796" lon="12.118474110051"><ele>270.0</ele><time>2026-04-05T07:24:14Z</time></trkpt><trkpt lat="43.908554898893684" lon="12.118280188923432"><ele>270.0</ele><time>2026-04-05T07:24:15Z</time></trkpt><trkpt lat="43.90848067256083" lon="12.118102576974543"><ele>270.75</ele><time>2026-04-05T07:24:16Z</time></trkpt><trkpt lat="43.908424053149155" lon="12.117964818346877"><ele>271.5</ele><time>2026-04-05T07:24:17Z</time></trkpt><trkpt lat="43.908440295583176" lon="12.11782064225417"><ele>272.25</ele><time>2026-04-05T07:24:18Z</time></trkpt><trkpt lat="43.90851922768606" lon="12.117678758105837"><ele>273.0</ele><time>2026-04-05T07:24:19Z</time></trkpt><trkpt lat="43.908651969442175" lon="12.117523543609188"><ele>270.3333333333333</ele><time>2026-04-05T07:24:20Z</time></trkpt><trkpt lat="43.90880841086107" lon="12.117345192859643"><ele>267.66666666666663</ele><time>2026-04-05T07:24:21Z</time></trkpt><trkpt lat="43.908944539358394" lon="12.117193129137206"><ele>265.0</ele><time>2026-04-05T07:24:22Z</time></trkpt><trkpt lat="43.909008769547164" lon="12.117026340742589"><ele>265.0</ele><time>2026-04-05T07:24:23Z</time></trkpt><trkpt lat="43.90898873001223" lon="12.116841291896115"><ele>265.0</ele><time>2026-04-05T07:24:24Z</time></trkpt><trkpt lat="43.90894629751402" lon="12.116690371079581"><ele>265.0</ele><time>2026-04-05T07:24:25Z</time></trkpt><trkpt lat="43.908907783641894" lon="12.116599204343663"><ele>265.0</ele><time>2026-04-05T07:24:26Z</time></trkpt><trkpt lat="43.908784205847944" lon="12.116506960810847"><ele>265.0</ele><time>2026-04-05T07:24:28Z</time></trkpt><trkpt lat="43.90868269160638" lon="12.116516692846778"><ele>265.0</ele><time>2026-04-05T07:24:29Z</time></trkpt><trkpt lat="43.90846160381195" lon="12.116571192135092"><ele>265.0</ele><time>2026-04-05T07:24:30Z</time></trkpt><trkpt lat="43.90819117902736" lon="12.116727019743177"><ele>262.3333333333333</ele><time>2026-04-05T07:24:31Z</time></trkpt><trkpt lat="43.90800321723715" lon="12.11678113744035"><ele>259.6666666666667</ele><time>2026-04-05T07:24:32Z</time></trkpt><trkpt lat="43.907868834832115" lon="12.116718467161805"><ele>257.0</ele><time>2026-04-05T07:24:33Z</time></trkpt><trkpt lat="43.90781748023196" lon="12.116498406867194"><ele>265.33333333333337</ele><time>2026-04-05T07:24:34Z</time></trkpt><trkpt lat="43.907769347695435" lon="12.116252234167943"><ele>273.6666666666667</ele><time>2026-04-05T07:24:35Z</time></trkpt><trkpt lat="43.907706391835205" lon="12.115937162734847"><ele>282.0</ele><time>2026-04-05T07:24:36Z</time></trkpt><trkpt lat="43.907615859965986" lon="12.115618587065654"><ele>273.5</ele><time>2026-04-05T07:24:37Z</time></trkpt><trkpt lat="43.907533778184664" lon="12.11527053430029"><ele>265.0</ele><time>2026-04-05T07:24:38Z</time></trkpt><trkpt lat="43.90744078432362" lon="12.114968277867053"><ele>270.5</ele><time>2026-04-05T07:24:39Z</time></trkpt><trkpt lat="43.90733321393607" lon="12.114730270051908"><ele>276.0</ele><time>2026-04-05T07:24:40Z</time></trkpt><trkpt lat="43.90712334642365" lon="12.114414930175885"><ele>276.0</ele><time>2026-04-05T07:24:41Z</time></trkpt><trkpt lat="43.9069480205267" lon="12.114161417397021"><ele>276.0</ele><time>2026-04-05T07:24:42Z</time></trkpt><trkpt lat="43.90678281854035" lon="12.113900860552032"><ele>277.0</ele><time>2026-04-05T07:24:43Z</time></trkpt><trkpt lat="43.9066352866771" lon="12.11370580820219"><ele>278.0</ele><time>2026-04-05T07:24:44Z</time></trkpt><trkpt lat="43.906493745275604" lon="12.113523286769516"><ele>279.0</ele><time>2026-04-05T07:24:45Z</time></trkpt><trkpt lat="43.90632520768641" lon="12.113383107943287"><ele>279.0</ele><time>2026-04-05T07:24:46Z</time></trkpt><trkpt lat="43.90612721718775" lon="12.113290910057053"><ele>279.0</ele><time>2026-04-05T07:24:47Z</time></trkpt><trkpt lat="43.90592935525663" lon="12.113229926679185"><ele>279.0</ele><time>2026-04-05T07:24:48Z</time></trkpt><trkpt lat="43.90573878473356" lon="12.11317978720906"><ele>282.3333333333333</ele><time>2026-04-05T07:24:49Z</time></trkpt><trkpt lat="43.905527331064704" lon="12.113127115791237"><ele>285.66666666666663</ele><time>2026-04-05T07:24:50Z</time></trkpt><trkpt lat="43.90531132211198" lon="12.11307214060333"><ele>289.0</ele><time>2026-04-05T07:24:51Z</time></trkpt><trkpt lat="43.90509627651883" lon="12.11300654383392"><ele>282.0</ele><time>2026-04-05T07:24:52Z</time></trkpt><trkpt lat="43.904851142701574" lon="12.1129394737268"><ele>275.0</ele><time>2026-04-05T07:24:53Z</time></trkpt><trkpt lat="43.90460017351241" lon="12.112879529674668"><ele>275.0</ele><time>2026-04-05T07:24:54Z</time></trkpt><trkpt lat="43.90434274821539" lon="12.112856870202602"><ele>275.0</ele><time>2026-04-05T07:24:55Z</time></trkpt><trkpt lat="43.90413965661437" lon="12.112879649805201"><ele>275.0</ele><time>2026-04-05T07:24:56Z</time></trkpt><trkpt lat="43.903963974904116" lon="12.112924109658698"><ele>275.0</ele><time>2026-04-05T07:24:57Z</time></trkpt><trkpt lat="43.903822525563875" lon="12.112980642133715"><ele>275.0</ele><time>2026-04-05T07:24:58Z</time></trkpt><trkpt lat="43.903711849641546" lon="12.113044335554758"><ele>275.0</ele><time>2026-04-05T07:24:59Z</time></trkpt><trkpt lat="43.903643221693336" lon="12.113086478874669"><ele>275.0</ele><time>2026-04-05T07:25:00Z</time></trkpt><trkpt lat="43.9035475255443" lon="12.11315239548218"><ele>275.0</ele><time>2026-04-05T07:25:02Z</time></trkpt><trkpt lat="43.90347822181029" lon="12.11321622024404"><ele>275.0</ele><time>2026-04-05T07:25:05Z</time></trkpt><trkpt lat="43.9034365536829" lon="12.113314860958821"><ele>275.0</ele><time>2026-04-05T07:25:44Z</time></trkpt><trkpt lat="43.90332827489577" lon="12.113432613830561"><ele>275.0</ele><time>2026-04-05T07:25:46Z</time></trkpt><trkpt lat="43.90325798498809" lon="12.113511369768764"><ele>271.25</ele><time>2026-04-05T07:25:47Z</time></trkpt><trkpt lat="43.9031724206842" lon="12.113613152582053"><ele>267.5</ele><time>2026-04-05T07:25:48Z</time></trkpt><trkpt lat="43.90305908115232" lon="12.11370232327158"><ele>263.75</ele><time>2026-04-05T07:25:49Z</time></trkpt><trkpt lat="43.902955984210585" lon="12.113820654002685"><ele>260.0</ele><time>2026-04-05T07:25:50Z</time></trkpt><trkpt lat="43.90286182824922" lon="12.113926229927786"><ele>260.0</ele><time>2026-04-05T07:25:51Z</time></trkpt><trkpt lat="43.90276677746595" lon="12.114030449892258"><ele>260.0</ele><time>2026-04-05T07:25:52Z</time></trkpt><trkpt lat="43.902667678811355" lon="12.114111372067464"><ele>260.0</ele><time>2026-04-05T07:25:53Z</time></trkpt><trkpt lat="43.90256548233982" lon="12.114142213686444"><ele>260.0</ele><time>2026-04-05T07:25:54Z</time></trkpt><trkpt lat="43.902456125382855" lon="12.114137714432063"><ele>260.25</ele><time>2026-04-05T07:25:55Z</time></trkpt><trkpt lat="43.90235506840551" lon="12.114072951072252"><ele>260.5</ele><time>2026-04-05T07:25:56Z</time></trkpt><trkpt lat="43.902255093552554" lon="12.11396136362576"><ele>260.75</ele><time>2026-04-05T07:25:57Z</time></trkpt><trkpt lat="43.90215755850396" lon="12.113775171425303"><ele>261.0</ele><time>2026-04-05T07:25:58Z</time></trkpt><trkpt lat="43.90202995226759" lon="12.11351938492203"><ele>269.5</ele><time>2026-04-05T07:25:59Z</time></trkpt><trkpt lat="43.90189104121869" lon="12.11323529661538"><ele>278.0</ele><time>2026-04-05T07:26:00Z</time></trkpt><trkpt lat="43.90175532815586" lon="12.112962601420028"><ele>271.0</ele><time>2026-04-05T07:26:01Z</time></trkpt><trkpt lat="43.90161052185699" lon="12.112675359315231"><ele>264.0</ele><time>2026-04-05T07:26:02Z</time></trkpt><trkpt lat="43.90148264542583" lon="12.112423182081566"><ele>265.6666666666667</ele><time>2026-04-05T07:26:03Z</time></trkpt><trkpt lat="43.90137627649988" lon="12.112206679509269"><ele>267.33333333333337</ele><time>2026-04-05T07:26:04Z</time></trkpt><trkpt lat="43.90131352430343" lon="12.111993717835363"><ele>269.0</ele><time>2026-04-05T07:26:05Z</time></trkpt><trkpt lat="43.90131384943535" lon="12.11178992363182"><ele>265.6666666666667</ele><time>2026-04-05T07:26:06Z</time></trkpt><trkpt lat="43.90137962323351" lon="12.111572685789426"><ele>262.3333333333333</ele><time>2026-04-05T07:26:07Z</time></trkpt><trkpt lat="43.9014628007064" lon="12.11131932096604"><ele>259.0</ele><time>2026-04-05T07:26:08Z</time></trkpt><trkpt lat="43.90154842817309" lon="12.111128331036321"><ele>259.0</ele><time>2026-04-05T07:26:09Z</time></trkpt><trkpt lat="43.90156973844924" lon="12.110920995049213"><ele>259.0</ele><time>2026-04-05T07:26:10Z</time></trkpt><trkpt lat="43.90146637779937" lon="12.110705060439189"><ele>259.0</ele><time>2026-04-05T07:26:11Z</time></trkpt><trkpt lat="43.90134699088226" lon="12.110449633260014"><ele>257.0</ele><time>2026-04-05T07:26:12Z</time></trkpt><trkpt lat="43.901181321454956" lon="12.110189881714804"><ele>255.0</ele><time>2026-04-05T07:26:13Z</time></trkpt><trkpt lat="43.901008677074834" lon="12.109890570383085"><ele>252.0</ele><time>2026-04-05T07:26:14Z</time></trkpt><trkpt lat="43.900843830754575" lon="12.109565164867693"><ele>249.0</ele><time>2026-04-05T07:26:15Z</time></trkpt><trkpt lat="43.900744069240055" lon="12.109202123345767"><ele>255.5</ele><time>2026-04-05T07:26:16Z</time></trkpt><trkpt lat="43.900695484871015" lon="12.108849871494611"><ele>262.0</ele><time>2026-04-05T07:26:17Z</time></trkpt><trkpt lat="43.90070126754906" lon="12.108483048411669"><ele>263.0</ele><time>2026-04-05T07:26:18Z</time></trkpt><trkpt lat="43.90073866846958" lon="12.10809113475971"><ele>264.0</ele><time>2026-04-05T07:26:19Z</time></trkpt><trkpt lat="43.90077612720755" lon="12.107677527813356"><ele>260.0</ele><time>2026-04-05T07:26:20Z</time></trkpt><trkpt lat="43.90081347532033" lon="12.10726429806823"><ele>256.0</ele><time>2026-04-05T07:26:21Z</time></trkpt><trkpt lat="43.90083409390168" lon="12.106903732699942"><ele>262.5</ele><time>2026-04-05T07:26:22Z</time></trkpt><trkpt lat="43.900822811171466" lon="12.106541586641319"><ele>269.0</ele><time>2026-04-05T07:26:23Z</time></trkpt><trkpt lat="43.900827553682575" lon="12.106191342589806"><ele>269.0</ele><time>2026-04-05T07:26:24Z</time></trkpt><trkpt lat="43.90074049007677" lon="12.105828761797904"><ele>269.0</ele><time>2026-04-05T07:26:25Z</time></trkpt><trkpt lat="43.90061369193677" lon="12.10547938409271"><ele>277.5</ele><time>2026-04-05T07:26:26Z</time></trkpt><trkpt lat="43.900498434422865" lon="12.10510092708589"><ele>286.0</ele><time>2026-04-05T07:26:27Z</time></trkpt><trkpt lat="43.9003624581091" lon="12.104771650843338"><ele>292.0</ele><time>2026-04-05T07:26:28Z</time></trkpt><trkpt lat="43.90026135139631" lon="12.104424017626153"><ele>298.0</ele><time>2026-04-05T07:26:29Z</time></trkpt><trkpt lat="43.90020954072818" lon="12.104099664569821"><ele>301.0</ele><time>2026-04-05T07:26:30Z</time></trkpt><trkpt lat="43.90019519723423" lon="12.103734770598269"><ele>304.0</ele><time>2026-04-05T07:26:31Z</time></trkpt><trkpt lat="43.900183346523924" lon="12.103380683437193"><ele>301.66666666666663</ele><time>2026-04-05T07:26:32Z</time></trkpt><trkpt lat="43.900173447183725" lon="12.10308490151759"><ele>299.3333333333333</ele><time>2026-04-05T07:26:33Z</time></trkpt><trkpt lat="43.900187918892534" lon="12.102832228168202"><ele>297.0</ele><time>2026-04-05T07:26:34Z</time></trkpt><trkpt lat="43.900226889017794" lon="12.102696853127059"><ele>297.0</ele><time>2026-04-05T07:26:35Z</time></trkpt><trkpt lat="43.90030599897207" lon="12.10256339646443"><ele>297.0</ele><time>2026-04-05T07:26:36Z</time></trkpt><trkpt lat="43.90042873306836" lon="12.102472870661389"><ele>297.0</ele><time>2026-04-05T07:26:37Z</time></trkpt><trkpt lat="43.90059110169333" lon="12.102311201352995"><ele>294.3333333333333</ele><time>2026-04-05T07:26:38Z</time></trkpt><trkpt lat="43.900685128562465" lon="12.102056822649521"><ele>291.66666666666663</ele><time>2026-04-05T07:26:39Z</time></trkpt><trkpt lat="43.90063173485064" lon="12.10181858930925"><ele>289.0</ele><time>2026-04-05T07:26:40Z</time></trkpt><trkpt lat="43.90058028719199" lon="12.101660181177351"><ele>294.25</ele><time>2026-04-05T07:26:41Z</time></trkpt><trkpt lat="43.90057920174525" lon="12.10157080419213"><ele>299.5</ele><time>2026-04-05T07:26:42Z</time></trkpt><trkpt lat="43.90047732322841" lon="12.10146132125157"><ele>304.75</ele><time>2026-04-05T07:26:44Z</time></trkpt><trkpt lat="43.900415987858516" lon="12.1013043914585"><ele>310.0</ele><time>2026-04-05T07:26:45Z</time></trkpt><trkpt lat="43.90009422621887" lon="12.101392750399377"><ele>304.0</ele><time>2026-04-05T07:26:46Z</time></trkpt><trkpt lat="43.89999637871097" lon="12.101203260460204"><ele>298.0</ele><time>2026-04-05T07:26:47Z</time></trkpt><trkpt lat="43.89991554659827" lon="12.101060751054241"><ele>292.0</ele><time>2026-04-05T07:26:49Z</time></trkpt><trkpt lat="43.89963469870779" lon="12.10085956138123"><ele>297.5</ele><time>2026-04-05T07:26:50Z</time></trkpt><trkpt lat="43.899396103078374" lon="12.100482865709372"><ele>303.0</ele><time>2026-04-05T07:26:51Z</time></trkpt><trkpt lat="43.89941973469598" lon="12.10015757630457"><ele>304.3333333333333</ele><time>2026-04-05T07:26:52Z</time></trkpt><trkpt lat="43.899439999974035" lon="12.099904786179312"><ele>305.66666666666663</ele><time>2026-04-05T07:26:53Z</time></trkpt><trkpt lat="43.899419528147924" lon="12.099649205303692"><ele>307.0</ele><time>2026-04-05T07:26:54Z</time></trkpt><trkpt lat="43.899408979028" lon="12.099351783530077"><ele>307.0</ele><time>2026-04-05T07:26:55Z</time></trkpt><trkpt lat="43.89932509235508" lon="12.099115742300992"><ele>307.0</ele><time>2026-04-05T07:26:56Z</time></trkpt><trkpt lat="43.89918743294122" lon="12.098907120604556"><ele>307.0</ele><time>2026-04-05T07:26:57Z</time></trkpt><trkpt lat="43.89908891984214" lon="12.098636787675977"><ele>302.5</ele><time>2026-04-05T07:26:58Z</time></trkpt><trkpt lat="43.899004211890826" lon="12.09829119708703"><ele>298.0</ele><time>2026-04-05T07:26:59Z</time></trkpt><trkpt lat="43.898891048204995" lon="12.098048700032027"><ele>294.66666666666663</ele><time>2026-04-05T07:27:00Z</time></trkpt><trkpt lat="43.89873065267149" lon="12.09792661988512"><ele>291.3333333333333</ele><time>2026-04-05T07:27:01Z</time></trkpt><trkpt lat="43.898552326304355" lon="12.097756236760732"><ele>288.0</ele><time>2026-04-05T07:27:02Z</time></trkpt><trkpt lat="43.898416941941356" lon="12.097623927376409"><ele>288.0</ele><time>2026-04-05T07:27:03Z</time></trkpt><trkpt lat="43.89830842902114" lon="12.09748344932014"><ele>288.0</ele><time>2026-04-05T07:27:04Z</time></trkpt><trkpt lat="43.898254443708986" lon="12.097414523074479"><ele>288.0</ele><time>2026-04-05T07:27:05Z</time></trkpt><trkpt lat="43.89822682529242" lon="12.097299063232324"><ele>288.0</ele><time>2026-04-05T07:27:07Z</time></trkpt><trkpt lat="43.898174776894464" lon="12.09724420332409"><ele>288.0</ele><time>2026-04-05T07:28:09Z</time></trkpt><trkpt lat="43.898098567481455" lon="12.097040879571242"><ele>295.6666666666667</ele><time>2026-04-05T07:28:10Z</time></trkpt><trkpt lat="43.898045736666226" lon="12.096812852286735"><ele>303.33333333333337</ele><time>2026-04-05T07:28:11Z</time></trkpt><trkpt lat="43.89798384241363" lon="12.096587378762873"><ele>311.0</ele><time>2026-04-05T07:28:12Z</time></trkpt><trkpt lat="43.89797125422826" lon="12.096400086251132"><ele>312.0</ele><time>2026-04-05T07:28:13Z</time></trkpt><trkpt lat="43.897978280430216" lon="12.096212536039916"><ele>313.0</ele><time>2026-04-05T07:28:14Z</time></trkpt><trkpt lat="43.898012133864114" lon="12.09604390997759"><ele>314.0</ele><time>2026-04-05T07:28:15Z</time></trkpt><trkpt lat="43.89807326157629" lon="12.095908756447152"><ele>315.0</ele><time>2026-04-05T07:28:16Z</time></trkpt><trkpt lat="43.89810910361735" lon="12.095770621180028"><ele>318.0</ele><time>2026-04-05T07:28:17Z</time></trkpt><trkpt lat="43.898097227292226" lon="12.095635900305926"><ele>321.0</ele><time>2026-04-05T07:28:18Z</time></trkpt><trkpt lat="43.89803623493102" lon="12.095498904824439"><ele>324.0</ele><time>2026-04-05T07:28:19Z</time></trkpt><trkpt lat="43.89795662362023" lon="12.095447985318359"><ele>327.0</ele><time>2026-04-05T07:28:20Z</time></trkpt><trkpt lat="43.89784942083059" lon="12.095457633791627"><ele>330.0</ele><time>2026-04-05T07:28:21Z</time></trkpt><trkpt lat="43.89772488908412" lon="12.095486027976369"><ele>330.0</ele><time>2026-04-05T07:28:22Z</time></trkpt><trkpt lat="43.89762273063915" lon="12.095456932823716"><ele>330.0</ele><time>2026-04-05T07:28:23Z</time></trkpt><trkpt lat="43.897538466944795" lon="12.095407852830856"><ele>330.0</ele><time>2026-04-05T07:28:24Z</time></trkpt><trkpt lat="43.8974557576885" lon="12.095311167071708"><ele>330.0</ele><time>2026-04-05T07:28:25Z</time></trkpt><trkpt lat="43.897391000031796" lon="12.09521804536735"><ele>330.0</ele><time>2026-04-05T07:28:26Z</time></trkpt><trkpt lat="43.897368653337985" lon="12.09505005590374"><ele>331.0</ele><time>2026-04-05T07:28:27Z</time></trkpt><trkpt lat="43.89734791351399" lon="12.094884143562476"><ele>332.0</ele><time>2026-04-05T07:28:28Z</time></trkpt><trkpt lat="43.89732224543833" lon="12.094688423341486"><ele>333.0</ele><time>2026-04-05T07:28:29Z</time></trkpt><trkpt lat="43.89727130624872" lon="12.094528035660877"><ele>334.0</ele><time>2026-04-05T07:28:30Z</time></trkpt><trkpt lat="43.89720556619705" lon="12.094381697659541"><ele>334.0</ele><time>2026-04-05T07:28:31Z</time></trkpt><trkpt lat="43.89712230968754" lon="12.09424291087391"><ele>334.0</ele><time>2026-04-05T07:28:32Z</time></trkpt><trkpt lat="43.89706638791626" lon="12.094101266384206"><ele>334.0</ele><time>2026-04-05T07:28:33Z</time></trkpt><trkpt lat="43.89706257850377" lon="12.093948744434579"><ele>334.0</ele><time>2026-04-05T07:28:34Z</time></trkpt><trkpt lat="43.89709736970826" lon="12.09378049305045"><ele>333.5</ele><time>2026-04-05T07:28:35Z</time></trkpt><trkpt lat="43.89715388878117" lon="12.093586706558295"><ele>333.0</ele><time>2026-04-05T07:28:36Z</time></trkpt><trkpt lat="43.897173444544045" lon="12.093401462215274"><ele>332.5</ele><time>2026-04-05T07:28:37Z</time></trkpt><trkpt lat="43.8971517246977" lon="12.093262306865071"><ele>332.0</ele><time>2026-04-05T07:28:38Z</time></trkpt><trkpt lat="43.89705083216187" lon="12.093169715770326"><ele>332.0</ele><time>2026-04-05T07:28:39Z</time></trkpt><trkpt lat="43.89692016650472" lon="12.093106633349393"><ele>332.0</ele><time>2026-04-05T07:28:40Z</time></trkpt><trkpt lat="43.89678686558871" lon="12.093106500833954"><ele>332.0</ele><time>2026-04-05T07:28:41Z</time></trkpt><trkpt lat="43.89667120624187" lon="12.09318950621299"><ele>332.0</ele><time>2026-04-05T07:28:42Z</time></trkpt><trkpt lat="43.89656478761413" lon="12.09332176113267"><ele>326.33333333333337</ele><time>2026-04-05T07:28:43Z</time></trkpt><trkpt lat="43.89646520248876" lon="12.093553686192623"><ele>320.6666666666667</ele><time>2026-04-05T07:28:44Z</time></trkpt><trkpt lat="43.89629657921047" lon="12.093731176906344"><ele>315.0</ele><time>2026-04-05T07:28:45Z</time></trkpt><trkpt lat="43.896151537839444" lon="12.093781029618965"><ele>315.0</ele><time>2026-04-05T07:28:46Z</time></trkpt><trkpt lat="43.89598638090462" lon="12.093815186229323"><ele>315.0</ele><time>2026-04-05T07:28:47Z</time></trkpt><trkpt lat="43.89581534259736" lon="12.093769651103731"><ele>315.0</ele><time>2026-04-05T07:28:48Z</time></trkpt><trkpt lat="43.895682846868255" lon="12.09362008645029"><ele>321.3333333333333</ele><time>2026-04-05T07:28:49Z</time></trkpt><trkpt lat="43.89550136904573" lon="12.09343426769676"><ele>327.66666666666663</ele><time>2026-04-05T07:28:50Z</time></trkpt><trkpt lat="43.89531835247007" lon="12.093260213198453"><ele>334.0</ele><time>2026-04-05T07:28:51Z</time></trkpt><trkpt lat="43.89510099102727" lon="12.093075510268326"><ele>338.0</ele><time>2026-04-05T07:28:52Z</time></trkpt><trkpt lat="43.89486463842444" lon="12.092896851152085"><ele>342.0</ele><time>2026-04-05T07:28:53Z</time></trkpt><trkpt lat="43.89464570471669" lon="12.092746356109826"><ele>342.0</ele><time>2026-04-05T07:28:54Z</time></trkpt><trkpt lat="43.8943328410249" lon="12.092554717578437"><ele>342.0</ele><time>2026-04-05T07:28:55Z</time></trkpt><trkpt lat="43.89409133791678" lon="12.09240627433702"><ele>338.6666666666667</ele><time>2026-04-05T07:28:56Z</time></trkpt><trkpt lat="43.893899689723334" lon="12.09228792109123"><ele>335.33333333333337</ele><time>2026-04-05T07:28:57Z</time></trkpt><trkpt lat="43.89377818576671" lon="12.092197138481156"><ele>332.0</ele><time>2026-04-05T07:28:58Z</time></trkpt><trkpt lat="43.893697027123196" lon="12.09209720303029"><ele>332.0</ele><time>2026-04-05T07:28:59Z</time></trkpt><trkpt lat="43.89367684290188" lon="12.09196053606267"><ele>332.0</ele><time>2026-04-05T07:29:00Z</time></trkpt><trkpt lat="43.89373365084786" lon="12.091777961512628"><ele>332.0</ele><time>2026-04-05T07:29:01Z</time></trkpt><trkpt lat="43.89382303614333" lon="12.091592200015832"><ele>332.0</ele><time>2026-04-05T07:29:02Z</time></trkpt><trkpt lat="43.893936478624234" lon="12.091389329391486"><ele>331.0</ele><time>2026-04-05T07:29:03Z</time></trkpt><trkpt lat="43.89405747403212" lon="12.091129904992263"><ele>330.0</ele><time>2026-04-05T07:29:04Z</time></trkpt><trkpt lat="43.89416764210149" lon="12.090900028041997"><ele>329.0</ele><time>2026-04-05T07:29:05Z</time></trkpt><trkpt lat="43.894206604904944" lon="12.090613845090418"><ele>328.0</ele><time>2026-04-05T07:29:06Z</time></trkpt><trkpt lat="43.89423566492317" lon="12.090262025406908"><ele>327.0</ele><time>2026-04-05T07:29:07Z</time></trkpt><trkpt lat="43.89421802433227" lon="12.089931620342773"><ele>330.3333333333333</ele><time>2026-04-05T07:29:08Z</time></trkpt><trkpt lat="43.894194852585464" lon="12.089649535545721"><ele>333.66666666666663</ele><time>2026-04-05T07:29:09Z</time></trkpt><trkpt lat="43.89414002613906" lon="12.08944294131123"><ele>337.0</ele><time>2026-04-05T07:29:10Z</time></trkpt><trkpt lat="43.89406008454815" lon="12.089341065848764"><ele>337.0</ele><time>2026-04-05T07:29:11Z</time></trkpt><trkpt lat="43.89396522591569" lon="12.089284260487402"><ele>337.0</ele><time>2026-04-05T07:29:12Z</time></trkpt><trkpt lat="43.89386344839145" lon="12.089239082375327"><ele>337.0</ele><time>2026-04-05T07:29:13Z</time></trkpt><trkpt lat="43.89375578875102" lon="12.089236949357643"><ele>337.0</ele><time>2026-04-05T07:29:14Z</time></trkpt><trkpt lat="43.89361470751285" lon="12.08921540058399"><ele>337.0</ele><time>2026-04-05T07:29:15Z</time></trkpt><trkpt lat="43.893492035521774" lon="12.089202863068815"><ele>337.0</ele><time>2026-04-05T07:29:16Z</time></trkpt><trkpt lat="43.89310973754763" lon="12.089204034561572"><ele>339.0</ele><time>2026-04-05T07:29:17Z</time></trkpt><trkpt lat="43.89289721120315" lon="12.089236903362814"><ele>341.0</ele><time>2026-04-05T07:29:18Z</time></trkpt><trkpt lat="43.892660461170394" lon="12.089271454671406"><ele>341.0</ele><time>2026-04-05T07:29:19Z</time></trkpt><trkpt lat="43.89241639802198" lon="12.089291689533669"><ele>341.0</ele><time>2026-04-05T07:29:20Z</time></trkpt><trkpt lat="43.89221679373251" lon="12.089274312430074"><ele>341.0</ele><time>2026-04-05T07:29:21Z</time></trkpt><trkpt lat="43.892043160482416" lon="12.089166827884066"><ele>342.5</ele><time>2026-04-05T07:29:22Z</time></trkpt><trkpt lat="43.89199249059109" lon="12.088984574641382"><ele>344.0</ele><time>2026-04-05T07:29:23Z</time></trkpt><trkpt lat="43.892000362850425" lon="12.088866948358776"><ele>345.5</ele><time>2026-04-05T07:29:24Z</time></trkpt><trkpt lat="43.89201964135075" lon="12.088752189132807"><ele>347.0</ele><time>2026-04-05T07:29:25Z</time></trkpt><trkpt lat="43.892018158965314" lon="12.088527972015727"><ele>347.33333333333337</ele><time>2026-04-05T07:29:26Z</time></trkpt><trkpt lat="43.89187393956226" lon="12.088226367582607"><ele>347.6666666666667</ele><time>2026-04-05T07:29:27Z</time></trkpt><trkpt lat="43.891904601521624" lon="12.087980517196602"><ele>348.0</ele><time>2026-04-05T07:29:28Z</time></trkpt><trkpt lat="43.891944515233995" lon="12.087707570724692"><ele>348.0</ele><time>2026-04-05T07:29:29Z</time></trkpt><trkpt lat="43.891961411877055" lon="12.087430030242418"><ele>348.0</ele><time>2026-04-05T07:29:30Z</time></trkpt><trkpt lat="43.89200872485082" lon="12.087151085608784"><ele>348.0</ele><time>2026-04-05T07:29:31Z</time></trkpt><trkpt lat="43.891992380716324" lon="12.086874721433103"><ele>351.0</ele><time>2026-04-05T07:29:32Z</time></trkpt><trkpt lat="43.89199583431219" lon="12.08658990006841"><ele>354.0</ele><time>2026-04-05T07:29:33Z</time></trkpt><trkpt lat="43.89199807321531" lon="12.086300419121743"><ele>357.0</ele><time>2026-04-05T07:29:34Z</time></trkpt><trkpt lat="43.89200038922052" lon="12.086023375809297"><ele>358.6666666666667</ele><time>2026-04-05T07:29:35Z</time></trkpt><trkpt lat="43.89199249836502" lon="12.08575235306591"><ele>360.33333333333337</ele><time>2026-04-05T07:29:36Z</time></trkpt><trkpt lat="43.8919980780547" lon="12.085475185030376"><ele>362.0</ele><time>2026-04-05T07:29:37Z</time></trkpt><trkpt lat="43.892012332514085" lon="12.085186497487163"><ele>362.0</ele><time>2026-04-05T07:29:38Z</time></trkpt><trkpt lat="43.89206180430389" lon="12.08494016891745"><ele>362.0</ele><time>2026-04-05T07:29:39Z</time></trkpt><trkpt lat="43.892116999095904" lon="12.084690281224848"><ele>362.0</ele><time>2026-04-05T07:29:40Z</time></trkpt><trkpt lat="43.892166615594185" lon="12.084430891523215"><ele>358.0</ele><time>2026-04-05T07:29:41Z</time></trkpt><trkpt lat="43.892225286673096" lon="12.084178376043528"><ele>354.0</ele><time>2026-04-05T07:29:42Z</time></trkpt><trkpt lat="43.89227185904011" lon="12.083921995698786"><ele>350.0</ele><time>2026-04-05T07:29:43Z</time></trkpt><trkpt lat="43.8922951037281" lon="12.083666544360227"><ele>349.0</ele><time>2026-04-05T07:29:44Z</time></trkpt><trkpt lat="43.8922834309383" lon="12.083414964292462"><ele>348.0</ele><time>2026-04-05T07:29:45Z</time></trkpt><trkpt lat="43.89223629498621" lon="12.083151580302307"><ele>347.0</ele><time>2026-04-05T07:29:46Z</time></trkpt><trkpt lat="43.89217856252037" lon="12.082897450592798"><ele>346.5</ele><time>2026-04-05T07:29:47Z</time></trkpt><trkpt lat="43.89220026643112" lon="12.082699348278114"><ele>346.0</ele><time>2026-04-05T07:29:48Z</time></trkpt><trkpt lat="43.89226523181466" lon="12.082554757993671"><ele>345.5</ele><time>2026-04-05T07:29:49Z</time></trkpt><trkpt lat="43.89238055941798" lon="12.082451139546405"><ele>345.0</ele><time>2026-04-05T07:29:50Z</time></trkpt><trkpt lat="43.89253422446198" lon="12.082278442299911"><ele>348.6666666666667</ele><time>2026-04-05T07:29:51Z</time></trkpt><trkpt lat="43.8926254577107" lon="12.08206839316428"><ele>352.33333333333337</ele><time>2026-04-05T07:29:52Z</time></trkpt><trkpt lat="43.89263383025486" lon="12.081862674721938"><ele>356.0</ele><time>2026-04-05T07:29:53Z</time></trkpt><trkpt lat="43.892613228905354" lon="12.081658555386959"><ele>354.75</ele><time>2026-04-05T07:29:54Z</time></trkpt><trkpt lat="43.89256435283919" lon="12.081484219987725"><ele>353.5</ele><time>2026-04-05T07:29:55Z</time></trkpt><trkpt lat="43.89247155513829" lon="12.081364719859955"><ele>352.25</ele><time>2026-04-05T07:29:56Z</time></trkpt><trkpt lat="43.892349650155715" lon="12.081265856295945"><ele>351.0</ele><time>2026-04-05T07:29:57Z</time></trkpt><trkpt lat="43.89215365303326" lon="12.081227653335516"><ele>351.0</ele><time>2026-04-05T07:29:58Z</time></trkpt><trkpt lat="43.89196876862634" lon="12.081057213437026"><ele>351.0</ele><time>2026-04-05T07:29:59Z</time></trkpt><trkpt lat="43.89187115770343" lon="12.080828648397283"><ele>351.0</ele><time>2026-04-05T07:30:00Z</time></trkpt><trkpt lat="43.89182061714273" lon="12.080622510801124"><ele>342.5</ele><time>2026-04-05T07:30:01Z</time></trkpt><trkpt lat="43.89175320849141" lon="12.080360177026488"><ele>334.0</ele><time>2026-04-05T07:30:02Z</time></trkpt><trkpt lat="43.89164094810695" lon="12.080015795625979"><ele>341.0</ele><time>2026-04-05T07:30:03Z</time></trkpt><trkpt lat="43.89147223077662" lon="12.079778173751265"><ele>348.0</ele><time>2026-04-05T07:30:04Z</time></trkpt><trkpt lat="43.89125977046462" lon="12.079594814246793"><ele>348.0</ele><time>2026-04-05T07:30:05Z</time></trkpt><trkpt lat="43.8910351444331" lon="12.079375270684594"><ele>348.0</ele><time>2026-04-05T07:30:06Z</time></trkpt><trkpt lat="43.89082202826295" lon="12.07907324762909"><ele>342.0</ele><time>2026-04-05T07:30:07Z</time></trkpt><trkpt lat="43.89065992091345" lon="12.078809226827508"><ele>336.0</ele><time>2026-04-05T07:30:08Z</time></trkpt><trkpt lat="43.890480439784824" lon="12.078510969000206"><ele>345.0</ele><time>2026-04-05T07:30:09Z</time></trkpt><trkpt lat="43.89029692971341" lon="12.078205942825837"><ele>354.0</ele><time>2026-04-05T07:30:10Z</time></trkpt><trkpt lat="43.89010557794527" lon="12.07788969224562"><ele>342.5</ele><time>2026-04-05T07:30:11Z</time></trkpt><trkpt lat="43.88994013153512" lon="12.077595848569707"><ele>331.0</ele><time>2026-04-05T07:30:12Z</time></trkpt><trkpt lat="43.88980068899393" lon="12.077397373761837"><ele>331.0</ele><time>2026-04-05T07:30:13Z</time></trkpt><trkpt lat="43.88973204494783" lon="12.077241572035817"><ele>331.0</ele><time>2026-04-05T07:30:14Z</time></trkpt><trkpt lat="43.88973398410724" lon="12.076998403860406"><ele>331.0</ele><time>2026-04-05T07:30:15Z</time></trkpt><trkpt lat="43.88977718232192" lon="12.076818591541995"><ele>331.0</ele><time>2026-04-05T07:30:16Z</time></trkpt><trkpt lat="43.88984100490709" lon="12.07660906698474"><ele>328.66666666666663</ele><time>2026-04-05T07:30:17Z</time></trkpt><trkpt lat="43.88991450608289" lon="12.07637698778374"><ele>326.3333333333333</ele><time>2026-04-05T07:30:18Z</time></trkpt><trkpt lat="43.890012093682515" lon="12.076068737478359"><ele>324.0</ele><time>2026-04-05T07:30:19Z</time></trkpt><trkpt lat="43.89010326872495" lon="12.075781100862395"><ele>328.0</ele><time>2026-04-05T07:30:20Z</time></trkpt><trkpt lat="43.89018930270479" lon="12.075505455263277"><ele>332.0</ele><time>2026-04-05T07:30:21Z</time></trkpt><trkpt lat="43.890263979100155" lon="12.075260545208652"><ele>336.0</ele><time>2026-04-05T07:30:22Z</time></trkpt><trkpt lat="43.890332570185834" lon="12.074983848957416"><ele>340.0</ele><time>2026-04-05T07:30:23Z</time></trkpt><trkpt lat="43.89036879216283" lon="12.074697732617627"><ele>344.0</ele><time>2026-04-05T07:30:24Z</time></trkpt><trkpt lat="43.89044700353554" lon="12.074486670718104"><ele>348.0</ele><time>2026-04-05T07:30:25Z</time></trkpt><trkpt lat="43.89046981000197" lon="12.074194973591773"><ele>352.3333333333333</ele><time>2026-04-05T07:30:26Z</time></trkpt><trkpt lat="43.890441016796444" lon="12.073918978815602"><ele>356.66666666666663</ele><time>2026-04-05T07:30:27Z</time></trkpt><trkpt lat="43.89040935628874" lon="12.073611013803939"><ele>361.0</ele><time>2026-04-05T07:30:28Z</time></trkpt><trkpt lat="43.89036141640736" lon="12.073324279653649"><ele>365.0</ele><time>2026-04-05T07:30:29Z</time></trkpt><trkpt lat="43.89029098692696" lon="12.073031089005289"><ele>369.0</ele><time>2026-04-05T07:30:30Z</time></trkpt><trkpt lat="43.890199588169125" lon="12.072740463166145"><ele>375.5</ele><time>2026-04-05T07:30:31Z</time></trkpt><trkpt lat="43.8900972528318" lon="12.072405725379687"><ele>382.0</ele><time>2026-04-05T07:30:32Z</time></trkpt><trkpt lat="43.88995821777305" lon="12.072012570552419"><ele>367.5</ele><time>2026-04-05T07:30:33Z</time></trkpt><trkpt lat="43.88980947549416" lon="12.071608053171854"><ele>353.0</ele><time>2026-04-05T07:30:34Z</time></trkpt><trkpt lat="43.889573511446706" lon="12.071113762173114"><ele>361.0</ele><time>2026-04-05T07:30:35Z</time></trkpt><trkpt lat="43.88940827018513" lon="12.070677117491913"><ele>369.0</ele><time>2026-04-05T07:30:36Z</time></trkpt><trkpt lat="43.88924671440038" lon="12.070271415174831"><ele>351.0</ele><time>2026-04-05T07:30:37Z</time></trkpt><trkpt lat="43.88912145859361" lon="12.069892601157898"><ele>333.0</ele><time>2026-04-05T07:30:38Z</time></trkpt><trkpt lat="43.88903496032183" lon="12.069541423783788"><ele>333.0</ele><time>2026-04-05T07:30:39Z</time></trkpt><trkpt lat="43.889010442336755" lon="12.069203398580031"><ele>333.0</ele><time>2026-04-05T07:30:40Z</time></trkpt><trkpt lat="43.889025308484385" lon="12.06886054569905"><ele>332.0</ele><time>2026-04-05T07:30:41Z</time></trkpt><trkpt lat="43.88909286595318" lon="12.06850636471664"><ele>331.0</ele><time>2026-04-05T07:30:42Z</time></trkpt><trkpt lat="43.88917260047714" lon="12.068134198226453"><ele>333.5</ele><time>2026-04-05T07:30:43Z</time></trkpt><trkpt lat="43.889196362847876" lon="12.06776699321235"><ele>336.0</ele><time>2026-04-05T07:30:44Z</time></trkpt><trkpt lat="43.88917198442894" lon="12.067427652464515"><ele>336.0</ele><time>2026-04-05T07:30:45Z</time></trkpt><trkpt lat="43.88914240775378" lon="12.067119531558657"><ele>336.0</ele><time>2026-04-05T07:30:46Z</time></trkpt><trkpt lat="43.8891133389448" lon="12.066831223531178"><ele>336.0</ele><time>2026-04-05T07:30:47Z</time></trkpt><trkpt lat="43.889093341190616" lon="12.06658350483599"><ele>337.0</ele><time>2026-04-05T07:30:48Z</time></trkpt><trkpt lat="43.88907610592465" lon="12.066362653928955"><ele>338.0</ele><time>2026-04-05T07:30:49Z</time></trkpt><trkpt lat="43.88906381256606" lon="12.066158255279243"><ele>339.0</ele><time>2026-04-05T07:30:50Z</time></trkpt><trkpt lat="43.88905100692571" lon="12.065959923669723"><ele>338.75</ele><time>2026-04-05T07:30:51Z</time></trkpt><trkpt lat="43.88903882808893" lon="12.065775189506208"><ele>338.5</ele><time>2026-04-05T07:30:52Z</time></trkpt><trkpt lat="43.88902645966101" lon="12.065599665426413"><ele>338.25</ele><time>2026-04-05T07:30:53Z</time></trkpt><trkpt lat="43.88901758400641" lon="12.065442832190758"><ele>338.0</ele><time>2026-04-05T07:30:54Z</time></trkpt><trkpt lat="43.88901518926859" lon="12.06525299921688"><ele>338.0</ele><time>2026-04-05T07:30:55Z</time></trkpt><trkpt lat="43.88901892457246" lon="12.065025691113785"><ele>338.0</ele><time>2026-04-05T07:30:56Z</time></trkpt><trkpt lat="43.889025113243484" lon="12.06472647442049"><ele>338.0</ele><time>2026-04-05T07:30:57Z</time></trkpt><trkpt lat="43.889018113235366" lon="12.064370461806098"><ele>338.5</ele><time>2026-04-05T07:30:58Z</time></trkpt><trkpt lat="43.88898578164328" lon="12.063974310911956"><ele>339.0</ele><time>2026-04-05T07:30:59Z</time></trkpt><trkpt lat="43.88895007202261" lon="12.063641426066981"><ele>339.0</ele><time>2026-04-05T07:31:00Z</time></trkpt><trkpt lat="43.88900513762713" lon="12.063345285943756"><ele>339.0</ele><time>2026-04-05T07:31:01Z</time></trkpt><trkpt lat="43.88908947373043" lon="12.063035347181176"><ele>338.0</ele><time>2026-04-05T07:31:02Z</time></trkpt><trkpt lat="43.88915539236628" lon="12.062684266344712"><ele>337.0</ele><time>2026-04-05T07:31:03Z</time></trkpt><trkpt lat="43.88918588874682" lon="12.062334061009835"><ele>335.3333333333333</ele><time>2026-04-05T07:31:04Z</time></trkpt><trkpt lat="43.88919190469807" lon="12.062040039886384"><ele>333.6666666666667</ele><time>2026-04-05T07:31:05Z</time></trkpt><trkpt lat="43.88922121359311" lon="12.06177127539911"><ele>332.0</ele><time>2026-04-05T07:31:06Z</time></trkpt><trkpt lat="43.8893195089323" lon="12.061590645660472"><ele>336.33333333333337</ele><time>2026-04-05T07:31:07Z</time></trkpt><trkpt lat="43.88949455687675" lon="12.061476062163353"><ele>340.6666666666667</ele><time>2026-04-05T07:31:08Z</time></trkpt><trkpt lat="43.88966324283743" lon="12.061348267863442"><ele>345.0</ele><time>2026-04-05T07:31:09Z</time></trkpt><trkpt lat="43.889819277977026" lon="12.061144641891262"><ele>345.0</ele><time>2026-04-05T07:31:10Z</time></trkpt><trkpt lat="43.8899576662083" lon="12.060864818796821"><ele>345.0</ele><time>2026-04-05T07:31:11Z</time></trkpt><trkpt lat="43.89001669526188" lon="12.060576177434562"><ele>340.0</ele><time>2026-04-05T07:31:12Z</time></trkpt><trkpt lat="43.89004277352061" lon="12.060194608747684"><ele>335.0</ele><time>2026-04-05T07:31:13Z</time></trkpt><trkpt lat="43.89005524574945" lon="12.059807093342853"><ele>337.0</ele><time>2026-04-05T07:31:14Z</time></trkpt><trkpt lat="43.890268924721205" lon="12.059401243678128"><ele>339.0</ele><time>2026-04-05T07:31:15Z</time></trkpt><trkpt lat="43.890310637688614" lon="12.059006355029673"><ele>341.5</ele><time>2026-04-05T07:31:16Z</time></trkpt><trkpt lat="43.89032612155222" lon="12.058635745005665"><ele>344.0</ele><time>2026-04-05T07:31:17Z</time></trkpt><trkpt lat="43.89022196030919" lon="12.058238180852232"><ele>340.0</ele><time>2026-04-05T07:31:18Z</time></trkpt><trkpt lat="43.889920382804696" lon="12.057843780993233"><ele>336.0</ele><time>2026-04-05T07:31:19Z</time></trkpt><trkpt lat="43.889868962532326" lon="12.05738072506185"><ele>336.0</ele><time>2026-04-05T07:31:20Z</time></trkpt><trkpt lat="43.889844378280294" lon="12.057016779371752"><ele>336.0</ele><time>2026-04-05T07:31:21Z</time></trkpt><trkpt lat="43.88988520864124" lon="12.056661035726954"><ele>336.6666666666667</ele><time>2026-04-05T07:31:22Z</time></trkpt><trkpt lat="43.889914065885286" lon="12.056363327475625"><ele>337.33333333333337</ele><time>2026-04-05T07:31:23Z</time></trkpt><trkpt lat="43.889879931820815" lon="12.056102629284455"><ele>338.0</ele><time>2026-04-05T07:31:24Z</time></trkpt><trkpt lat="43.88977575238964" lon="12.05585251475514"><ele>340.0</ele><time>2026-04-05T07:31:25Z</time></trkpt><trkpt lat="43.889643806800095" lon="12.055550175076027"><ele>342.0</ele><time>2026-04-05T07:31:26Z</time></trkpt><trkpt lat="43.889562362058534" lon="12.055276602317292"><ele>342.0</ele><time>2026-04-05T07:31:27Z</time></trkpt><trkpt lat="43.88954677660201" lon="12.054990399396013"><ele>342.0</ele><time>2026-04-05T07:31:28Z</time></trkpt><trkpt lat="43.88958813441208" lon="12.05473814410444"><ele>342.0</ele><time>2026-04-05T07:31:29Z</time></trkpt><trkpt lat="43.88965158611354" lon="12.054511130372461"><ele>342.0</ele><time>2026-04-05T07:31:30Z</time></trkpt><trkpt lat="43.88972844868125" lon="12.054283770508865"><ele>342.0</ele><time>2026-04-05T07:31:31Z</time></trkpt><trkpt lat="43.88979845069817" lon="12.0541003544341"><ele>342.0</ele><time>2026-04-05T07:31:32Z</time></trkpt><trkpt lat="43.8899055950117" lon="12.053828621107622"><ele>358.0</ele><time>2026-04-05T07:31:33Z</time></trkpt><trkpt lat="43.89018250746478" lon="12.052882489846748"><ele>358.0</ele><time>2026-04-05T07:31:34Z</time></trkpt><trkpt lat="43.89037491767935" lon="12.052509942390012"><ele>358.0</ele><time>2026-04-05T07:31:35Z</time></trkpt><trkpt lat="43.8905376822775" lon="12.052142614166257"><ele>357.3333333333333</ele><time>2026-04-05T07:31:36Z</time></trkpt><trkpt lat="43.89064930845972" lon="12.051844528890257"><ele>356.6666666666667</ele><time>2026-04-05T07:31:37Z</time></trkpt><trkpt lat="43.89063866092784" lon="12.051598123011486"><ele>356.0</ele><time>2026-04-05T07:31:38Z</time></trkpt><trkpt lat="43.89059277331588" lon="12.051482361837957"><ele>355.33333333333337</ele><time>2026-04-05T07:31:39Z</time></trkpt><trkpt lat="43.890475422222806" lon="12.0512891623922"><ele>354.6666666666667</ele><time>2026-04-05T07:31:40Z</time></trkpt><trkpt lat="43.89040087456237" lon="12.051046073080293"><ele>354.0</ele><time>2026-04-05T07:31:41Z</time></trkpt><trkpt lat="43.89035557044374" lon="12.050784488242316"><ele>350.0</ele><time>2026-04-05T07:31:42Z</time></trkpt><trkpt lat="43.8903628735761" lon="12.050542266319047"><ele>346.0</ele><time>2026-04-05T07:31:43Z</time></trkpt><trkpt lat="43.89041017566745" lon="12.05028308482331"><ele>342.0</ele><time>2026-04-05T07:31:44Z</time></trkpt><trkpt lat="43.89047862139589" lon="12.050004134768185"><ele>338.0</ele><time>2026-04-05T07:31:45Z</time></trkpt><trkpt lat="43.89065121625535" lon="12.049670080883052"><ele>334.0</ele><time>2026-04-05T07:31:46Z</time></trkpt><trkpt lat="43.89079316570002" lon="12.049276055884526"><ele>342.0</ele><time>2026-04-05T07:31:47Z</time></trkpt><trkpt lat="43.89093615747" lon="12.048978133951238"><ele>350.0</ele><time>2026-04-05T07:31:48Z</time></trkpt><trkpt lat="43.89111356503697" lon="12.048734784674368"><ele>350.0</ele><time>2026-04-05T07:31:49Z</time></trkpt><trkpt lat="43.89126256286172" lon="12.04848722787276"><ele>350.0</ele><time>2026-04-05T07:31:50Z</time></trkpt><trkpt lat="43.89137734198194" lon="12.04825998286234"><ele>350.0</ele><time>2026-04-05T07:31:51Z</time></trkpt><trkpt lat="43.89154070244876" lon="12.048102332600097"><ele>348.0</ele><time>2026-04-05T07:31:52Z</time></trkpt><trkpt lat="43.891647051078095" lon="12.047903771687658"><ele>346.0</ele><time>2026-04-05T07:31:53Z</time></trkpt><trkpt lat="43.89180358247846" lon="12.047671654728115"><ele>344.0</ele><time>2026-04-05T07:31:54Z</time></trkpt><trkpt lat="43.89196989688191" lon="12.047450802345155"><ele>344.0</ele><time>2026-04-05T07:31:55Z</time></trkpt><trkpt lat="43.89217356498477" lon="12.047171891417229"><ele>344.0</ele><time>2026-04-05T07:31:56Z</time></trkpt><trkpt lat="43.89235886142177" lon="12.046961928235348"><ele>344.0</ele><time>2026-04-05T07:31:57Z</time></trkpt><trkpt lat="43.892542596923995" lon="12.04680328646428"><ele>344.0</ele><time>2026-04-05T07:31:58Z</time></trkpt><trkpt lat="43.8927391480052" lon="12.046571845126014"><ele>351.33333333333337</ele><time>2026-04-05T07:31:59Z</time></trkpt><trkpt lat="43.89278313942792" lon="12.046272083444823"><ele>358.6666666666667</ele><time>2026-04-05T07:32:00Z</time></trkpt><trkpt lat="43.892819958817064" lon="12.046056169478149"><ele>366.0</ele><time>2026-04-05T07:32:01Z</time></trkpt><trkpt lat="43.89285031079421" lon="12.04578608455431"><ele>366.0</ele><time>2026-04-05T07:32:02Z</time></trkpt><trkpt lat="43.89285045667712" lon="12.045508759514474"><ele>366.0</ele><time>2026-04-05T07:32:03Z</time></trkpt><trkpt lat="43.89273930602201" lon="12.04522709104906"><ele>366.0</ele><time>2026-04-05T07:32:04Z</time></trkpt><trkpt lat="43.89265438658612" lon="12.045074677804385"><ele>361.75</ele><time>2026-04-05T07:32:05Z</time></trkpt><trkpt lat="43.89260673450158" lon="12.044935590926698"><ele>357.5</ele><time>2026-04-05T07:32:06Z</time></trkpt><trkpt lat="43.892646904393274" lon="12.044784458275121"><ele>353.25</ele><time>2026-04-05T07:32:07Z</time></trkpt><trkpt lat="43.89278441702411" lon="12.044684168436621"><ele>349.0</ele><time>2026-04-05T07:32:09Z</time></trkpt><trkpt lat="43.89284887855378" lon="12.044500354088079"><ele>349.0</ele><time>2026-04-05T07:32:10Z</time></trkpt><trkpt lat="43.89303322974857" lon="12.044398359185086"><ele>349.0</ele><time>2026-04-05T07:32:11Z</time></trkpt><trkpt lat="43.89322687951468" lon="12.044245472737158"><ele>349.0</ele><time>2026-04-05T07:32:12Z</time></trkpt><trkpt lat="43.89333055424525" lon="12.044113453608045"><ele>350.4</ele><time>2026-04-05T07:32:13Z</time></trkpt><trkpt lat="43.893433919796095" lon="12.043968237277273"><ele>351.79999999999995</ele><time>2026-04-05T07:32:14Z</time></trkpt><trkpt lat="43.89351143794645" lon="12.04388180547408"><ele>353.20000000000005</ele><time>2026-04-05T07:32:15Z</time></trkpt><trkpt lat="43.89356935387715" lon="12.043807267516332"><ele>354.6</ele><time>2026-04-05T07:32:16Z</time></trkpt><trkpt lat="43.8934919898665" lon="12.043720804579648"><ele>356.0</ele><time>2026-04-05T07:32:19Z</time></trkpt><trkpt lat="43.89335215772291" lon="12.043628720626833"><ele>356.0</ele><time>2026-04-05T07:32:20Z</time></trkpt><trkpt lat="43.89326681330492" lon="12.043513879748568"><ele>356.0</ele><time>2026-04-05T07:32:21Z</time></trkpt><trkpt lat="43.892958332411354" lon="12.043194593093872"><ele>370.0</ele><time>2026-04-05T07:32:22Z</time></trkpt><trkpt lat="43.89263382220558" lon="12.042897055037102"><ele>384.0</ele><time>2026-04-05T07:32:23Z</time></trkpt><trkpt lat="43.892573528681645" lon="12.042697031542042"><ele>388.66666666666663</ele><time>2026-04-05T07:32:24Z</time></trkpt><trkpt lat="43.892533484731416" lon="12.042424921933463"><ele>393.3333333333333</ele><time>2026-04-05T07:32:25Z</time></trkpt><trkpt lat="43.89252116670828" lon="12.042189456164405"><ele>398.0</ele><time>2026-04-05T07:32:26Z</time></trkpt><trkpt lat="43.89248160915558" lon="12.042029772164046"><ele>398.0</ele><time>2026-04-05T07:32:27Z</time></trkpt><trkpt lat="43.89247828945244" lon="12.04184444876814"><ele>398.0</ele><time>2026-04-05T07:32:28Z</time></trkpt><trkpt lat="43.89247508963023" lon="12.041603665660462"><ele>398.0</ele><time>2026-04-05T07:32:29Z</time></trkpt><trkpt lat="43.89213679785004" lon="12.041588597209303"><ele>404.5</ele><time>2026-04-05T07:32:30Z</time></trkpt><trkpt lat="43.89210927601178" lon="12.041218041968833"><ele>411.0</ele><time>2026-04-05T07:32:31Z</time></trkpt><trkpt lat="43.89207856833472" lon="12.040856737052616"><ele>418.5</ele><time>2026-04-05T07:32:32Z</time></trkpt><trkpt lat="43.892028578037134" lon="12.040503665078674"><ele>426.0</ele><time>2026-04-05T07:32:33Z</time></trkpt><trkpt lat="43.891988779811165" lon="12.040210881593467"><ele>430.0</ele><time>2026-04-05T07:32:34Z</time></trkpt><trkpt lat="43.89177510382786" lon="12.039724221649392"><ele>434.0</ele><time>2026-04-05T07:32:35Z</time></trkpt><trkpt lat="43.89168007399952" lon="12.039386949908579"><ele>425.66666666666663</ele><time>2026-04-05T07:32:36Z</time></trkpt><trkpt lat="43.89153606636488" lon="12.039087081593332"><ele>417.33333333333337</ele><time>2026-04-05T07:32:37Z</time></trkpt><trkpt lat="43.89146613072961" lon="12.038870423817539"><ele>409.0</ele><time>2026-04-05T07:32:38Z</time></trkpt><trkpt lat="43.89127164979974" lon="12.038712093745538"><ele>409.0</ele><time>2026-04-05T07:32:39Z</time></trkpt><trkpt lat="43.891195627793316" lon="12.038494286496682"><ele>409.0</ele><time>2026-04-05T07:32:40Z</time></trkpt><trkpt lat="43.891118929865726" lon="12.038301848668132"><ele>409.0</ele><time>2026-04-05T07:32:41Z</time></trkpt><trkpt lat="43.89099283437266" lon="12.038207676197716"><ele>400.33333333333337</ele><time>2026-04-05T07:32:42Z</time></trkpt><trkpt lat="43.89080202484169" lon="12.038117149207535"><ele>391.6666666666667</ele><time>2026-04-05T07:32:43Z</time></trkpt><trkpt lat="43.8906829433492" lon="12.037965325112133"><ele>383.0</ele><time>2026-04-05T07:32:44Z</time></trkpt><trkpt lat="43.890585889019825" lon="12.03781232169505"><ele>383.0</ele><time>2026-04-05T07:32:45Z</time></trkpt><trkpt lat="43.890543885952226" lon="12.037629573926532"><ele>383.0</ele><time>2026-04-05T07:32:46Z</time></trkpt><trkpt lat="43.89053622805335" lon="12.03740292287386"><ele>383.0</ele><time>2026-04-05T07:32:47Z</time></trkpt><trkpt lat="43.89044554089942" lon="12.037100848370303"><ele>390.5</ele><time>2026-04-05T07:32:48Z</time></trkpt><trkpt lat="43.89035876587226" lon="12.036757686525712"><ele>398.0</ele><time>2026-04-05T07:32:49Z</time></trkpt><trkpt lat="43.89026309680867" lon="12.036415457711309"><ele>406.5</ele><time>2026-04-05T07:32:50Z</time></trkpt><trkpt lat="43.890174945146384" lon="12.036073200138006"><ele>415.0</ele><time>2026-04-05T07:32:51Z</time></trkpt><trkpt lat="43.89004525555746" lon="12.0357723219727"><ele>401.6666666666667</ele><time>2026-04-05T07:32:52Z</time></trkpt><trkpt lat="43.889931901794554" lon="12.035502131873944"><ele>388.33333333333337</ele><time>2026-04-05T07:32:53Z</time></trkpt><trkpt lat="43.889797171099445" lon="12.035257107611212"><ele>375.0</ele><time>2026-04-05T07:32:54Z</time></trkpt><trkpt lat="43.889643502341265" lon="12.035199438558054"><ele>375.0</ele><time>2026-04-05T07:32:55Z</time></trkpt><trkpt lat="43.889585971880095" lon="12.0351113310216"><ele>375.0</ele><time>2026-04-05T07:32:56Z</time></trkpt><trkpt lat="43.88950102093945" lon="12.034958668607318"><ele>375.0</ele><time>2026-04-05T07:32:57Z</time></trkpt><trkpt lat="43.8893652993311" lon="12.034876550910486"><ele>375.0</ele><time>2026-04-05T07:32:58Z</time></trkpt><trkpt lat="43.8893264845068" lon="12.034699775526153"><ele>370.75</ele><time>2026-04-05T07:32:59Z</time></trkpt><trkpt lat="43.88940675637587" lon="12.0345314922968"><ele>366.5</ele><time>2026-04-05T07:33:00Z</time></trkpt><trkpt lat="43.88949457943912" lon="12.034421344299163"><ele>362.25</ele><time>2026-04-05T07:33:01Z</time></trkpt><trkpt lat="43.88963938936006" lon="12.03435785795684"><ele>358.0</ele><time>2026-04-05T07:33:02Z</time></trkpt><trkpt lat="43.88979816473244" lon="12.034259876285121"><ele>361.5</ele><time>2026-04-05T07:33:03Z</time></trkpt><trkpt lat="43.889942091013026" lon="12.034135501131022"><ele>365.0</ele><time>2026-04-05T07:33:04Z</time></trkpt><trkpt lat="43.89005942196219" lon="12.034037740771161"><ele>368.5</ele><time>2026-04-05T07:33:05Z</time></trkpt><trkpt lat="43.89014960401905" lon="12.033931637163747"><ele>372.0</ele><time>2026-04-05T07:33:06Z</time></trkpt><trkpt lat="43.89019267689002" lon="12.033847230300974"><ele>372.0</ele><time>2026-04-05T07:33:07Z</time></trkpt><trkpt lat="43.89021575965802" lon="12.033754476927735"><ele>372.0</ele><time>2026-04-05T07:33:08Z</time></trkpt><trkpt lat="43.8901697689864" lon="12.03363003565545"><ele>372.0</ele><time>2026-04-05T07:33:10Z</time></trkpt><trkpt lat="43.89009777337536" lon="12.033602937405094"><ele>372.0</ele><time>2026-04-05T07:33:11Z</time></trkpt><trkpt lat="43.88990804755127" lon="12.033293722761261"><ele>375.6666666666667</ele><time>2026-04-05T07:33:14Z</time></trkpt><trkpt lat="43.88976332150908" lon="12.033157656037432"><ele>379.33333333333337</ele><time>2026-04-05T07:33:15Z</time></trkpt><trkpt lat="43.88952790453981" lon="12.032994163449091"><ele>383.0</ele><time>2026-04-05T07:33:16Z</time></trkpt><trkpt lat="43.88924568184274" lon="12.032773034095193"><ele>383.0</ele><time>2026-04-05T07:33:17Z</time></trkpt><trkpt lat="43.88900345955758" lon="12.032691119653538"><ele>383.0</ele><time>2026-04-05T07:33:18Z</time></trkpt><trkpt lat="43.88887609096805" lon="12.032468306325109"><ele>387.5</ele><time>2026-04-05T07:33:19Z</time></trkpt><trkpt lat="43.888654872080885" lon="12.032070742262045"><ele>392.0</ele><time>2026-04-05T07:33:20Z</time></trkpt><trkpt lat="43.88856174884573" lon="12.031641230437424"><ele>381.5</ele><time>2026-04-05T07:33:21Z</time></trkpt><trkpt lat="43.88842570490819" lon="12.031275796165158"><ele>371.0</ele><time>2026-04-05T07:33:22Z</time></trkpt><trkpt lat="43.88829748453037" lon="12.030959175258532"><ele>381.0</ele><time>2026-04-05T07:33:23Z</time></trkpt><trkpt lat="43.8881390173684" lon="12.030642263272474"><ele>391.0</ele><time>2026-04-05T07:33:24Z</time></trkpt><trkpt lat="43.88795558097074" lon="12.030331340452255"><ele>400.0</ele><time>2026-04-05T07:33:25Z</time></trkpt><trkpt lat="43.8877618637967" lon="12.029939537990122"><ele>409.0</ele><time>2026-04-05T07:33:26Z</time></trkpt><trkpt lat="43.887598891757484" lon="12.029558779774488"><ele>396.0</ele><time>2026-04-05T07:33:27Z</time></trkpt><trkpt lat="43.88747600521828" lon="12.029150578582339"><ele>383.0</ele><time>2026-04-05T07:33:28Z</time></trkpt><trkpt lat="43.88726979064171" lon="12.028649325199014"><ele>384.0</ele><time>2026-04-05T07:33:29Z</time></trkpt><trkpt lat="43.88712989054639" lon="12.028197718256035"><ele>385.0</ele><time>2026-04-05T07:33:30Z</time></trkpt><trkpt lat="43.887051626207914" lon="12.027864906187146"><ele>385.0</ele><time>2026-04-05T07:33:31Z</time></trkpt><trkpt lat="43.88694844511063" lon="12.027635384127908"><ele>385.0</ele><time>2026-04-05T07:33:32Z</time></trkpt><trkpt lat="43.88691258233342" lon="12.027445475572446"><ele>385.0</ele><time>2026-04-05T07:33:33Z</time></trkpt><trkpt lat="43.88676052769995" lon="12.027021405020301"><ele>364.0</ele><time>2026-04-05T07:33:35Z</time></trkpt><trkpt lat="43.886520818439244" lon="12.026886015895574"><ele>343.0</ele><time>2026-04-05T07:33:36Z</time></trkpt><trkpt lat="43.886323162362466" lon="12.026684242611816"><ele>344.66666666666663</ele><time>2026-04-05T07:33:37Z</time></trkpt><trkpt lat="43.886131960503825" lon="12.026569656366867"><ele>346.3333333333333</ele><time>2026-04-05T07:33:38Z</time></trkpt><trkpt lat="43.886074411884756" lon="12.02630135073088"><ele>348.0</ele><time>2026-04-05T07:33:39Z</time></trkpt><trkpt lat="43.885954215671866" lon="12.026098014277098"><ele>347.5</ele><time>2026-04-05T07:33:40Z</time></trkpt><trkpt lat="43.88597265340733" lon="12.025752484133307"><ele>347.0</ele><time>2026-04-05T07:33:41Z</time></trkpt><trkpt lat="43.885888426888435" lon="12.025423633285675"><ele>348.0</ele><time>2026-04-05T07:33:42Z</time></trkpt><trkpt lat="43.88583043630297" lon="12.02508931898915"><ele>349.0</ele><time>2026-04-05T07:33:43Z</time></trkpt><trkpt lat="43.885760807870355" lon="12.024828732115889"><ele>350.0</ele><time>2026-04-05T07:33:44Z</time></trkpt><trkpt lat="43.88566215819473" lon="12.024603351216005"><ele>350.0</ele><time>2026-04-05T07:33:45Z</time></trkpt><trkpt lat="43.885514357595625" lon="12.02435379649644"><ele>350.0</ele><time>2026-04-05T07:33:46Z</time></trkpt><trkpt lat="43.885360333555084" lon="12.024005719252582"><ele>348.0</ele><time>2026-04-05T07:33:47Z</time></trkpt><trkpt lat="43.88527275138262" lon="12.02369499367609"><ele>346.0</ele><time>2026-04-05T07:33:48Z</time></trkpt><trkpt lat="43.885187686928205" lon="12.023378161053294"><ele>347.5</ele><time>2026-04-05T07:33:49Z</time></trkpt><trkpt lat="43.88513594941335" lon="12.022971968173488"><ele>349.0</ele><time>2026-04-05T07:33:50Z</time></trkpt><trkpt lat="43.88516970284174" lon="12.02263644069001"><ele>349.3333333333333</ele><time>2026-04-05T07:33:51Z</time></trkpt><trkpt lat="43.885184474817805" lon="12.022375930674094"><ele>349.6666666666667</ele><time>2026-04-05T07:33:52Z</time></trkpt><trkpt lat="43.885193618471355" lon="12.0220999692019"><ele>350.0</ele><time>2026-04-05T07:33:53Z</time></trkpt><trkpt lat="43.885158138405075" lon="12.021924723130033"><ele>352.0</ele><time>2026-04-05T07:33:54Z</time></trkpt><trkpt lat="43.88505509067058" lon="12.021750831371593"><ele>354.0</ele><time>2026-04-05T07:33:55Z</time></trkpt><trkpt lat="43.88493244676423" lon="12.021707229442331"><ele>356.0</ele><time>2026-04-05T07:33:56Z</time></trkpt><trkpt lat="43.88474422500532" lon="12.021641276189156"><ele>356.33333333333337</ele><time>2026-04-05T07:33:57Z</time></trkpt><trkpt lat="43.88455664498282" lon="12.021565978451193"><ele>356.6666666666667</ele><time>2026-04-05T07:33:58Z</time></trkpt><trkpt lat="43.884371901357554" lon="12.021450015824358"><ele>357.0</ele><time>2026-04-05T07:33:59Z</time></trkpt><trkpt lat="43.884163682558025" lon="12.021243812819103"><ele>357.0</ele><time>2026-04-05T07:34:00Z</time></trkpt><trkpt lat="43.88396500220776" lon="12.021072913116342"><ele>357.0</ele><time>2026-04-05T07:34:01Z</time></trkpt><trkpt lat="43.88359958812564" lon="12.020720197622463"><ele>359.0</ele><time>2026-04-05T07:34:02Z</time></trkpt><trkpt lat="43.88325034230656" lon="12.02040360596767"><ele>361.0</ele><time>2026-04-05T07:34:03Z</time></trkpt><trkpt lat="43.883005591978886" lon="12.02011876257466"><ele>360.0</ele><time>2026-04-05T07:34:04Z</time></trkpt><trkpt lat="43.882754792272" lon="12.01974776352135"><ele>359.0</ele><time>2026-04-05T07:34:05Z</time></trkpt><trkpt lat="43.882614853453745" lon="12.019434309758513"><ele>361.0</ele><time>2026-04-05T07:34:06Z</time></trkpt><trkpt lat="43.88249760339984" lon="12.019150581910333"><ele>363.0</ele><time>2026-04-05T07:34:07Z</time></trkpt><trkpt lat="43.882364980500284" lon="12.018780468659056"><ele>363.0</ele><time>2026-04-05T07:34:08Z</time></trkpt><trkpt lat="43.88226452723101" lon="12.018414704090015"><ele>363.0</ele><time>2026-04-05T07:34:09Z</time></trkpt><trkpt lat="43.882179703413215" lon="12.018010391667643"><ele>361.5</ele><time>2026-04-05T07:34:10Z</time></trkpt><trkpt lat="43.882092131755144" lon="12.017573402103169"><ele>360.0</ele><time>2026-04-05T07:34:11Z</time></trkpt><trkpt lat="43.88200766655812" lon="12.017151147462977"><ele>358.5</ele><time>2026-04-05T07:34:12Z</time></trkpt><trkpt lat="43.881930720681424" lon="12.016754858221544"><ele>357.0</ele><time>2026-04-05T07:34:13Z</time></trkpt><trkpt lat="43.88186127776565" lon="12.016411613998539"><ele>356.6666666666667</ele><time>2026-04-05T07:34:14Z</time></trkpt><trkpt lat="43.88176885238986" lon="12.01613401401674"><ele>356.33333333333337</ele><time>2026-04-05T07:34:15Z</time></trkpt><trkpt lat="43.881674314200055" lon="12.015882272902187"><ele>356.0</ele><time>2026-04-05T07:34:16Z</time></trkpt><trkpt lat="43.88156266702084" lon="12.015624728461864"><ele>360.0</ele><time>2026-04-05T07:34:17Z</time></trkpt><trkpt lat="43.88150119207962" lon="12.01536332664189"><ele>364.0</ele><time>2026-04-05T07:34:18Z</time></trkpt><trkpt lat="43.8815032668034" lon="12.015108969390136"><ele>368.0</ele><time>2026-04-05T07:34:19Z</time></trkpt><trkpt lat="43.88153358892006" lon="12.014846202075688"><ele>372.5</ele><time>2026-04-05T07:34:20Z</time></trkpt><trkpt lat="43.881574232037984" lon="12.014531302982848"><ele>377.0</ele><time>2026-04-05T07:34:21Z</time></trkpt><trkpt lat="43.881617888735654" lon="12.014197656422512"><ele>380.33333333333337</ele><time>2026-04-05T07:34:22Z</time></trkpt><trkpt lat="43.88165790331151" lon="12.013890306091437"><ele>383.6666666666667</ele><time>2026-04-05T07:34:23Z</time></trkpt><trkpt lat="43.881689573046124" lon="12.013624911997217"><ele>387.0</ele><time>2026-04-05T07:34:24Z</time></trkpt><trkpt lat="43.88171286582754" lon="12.013397649937312"><ele>387.66666666666663</ele><time>2026-04-05T07:34:25Z</time></trkpt><trkpt lat="43.881739357564996" lon="12.013135639362929"><ele>388.3333333333333</ele><time>2026-04-05T07:34:26Z</time></trkpt><trkpt lat="43.88176585369113" lon="12.01286752743071"><ele>389.0</ele><time>2026-04-05T07:34:27Z</time></trkpt><trkpt lat="43.88178835629866" lon="12.012625682267217"><ele>382.5</ele><time>2026-04-05T07:34:28Z</time></trkpt><trkpt lat="43.8818059842578" lon="12.01241364625062"><ele>376.0</ele><time>2026-04-05T07:34:29Z</time></trkpt><trkpt lat="43.881835583398846" lon="12.01224631193827"><ele>369.5</ele><time>2026-04-05T07:34:30Z</time></trkpt><trkpt lat="43.88183082886208" lon="12.012094096631923"><ele>363.0</ele><time>2026-04-05T07:34:31Z</time></trkpt><trkpt lat="43.88191310515505" lon="12.012006522440013"><ele>363.0</ele><time>2026-04-05T07:34:32Z</time></trkpt><trkpt lat="43.88200882502396" lon="12.011982406449517"><ele>363.0</ele><time>2026-04-05T07:34:33Z</time></trkpt><trkpt lat="43.8821018426598" lon="12.011884170080428"><ele>363.0</ele><time>2026-04-05T07:34:34Z</time></trkpt><trkpt lat="43.88231367448844" lon="12.012045569665482"><ele>363.0</ele><time>2026-04-05T07:34:35Z</time></trkpt><trkpt lat="43.88256491143899" lon="12.011954863494147"><ele>363.0</ele><time>2026-04-05T07:34:36Z</time></trkpt><trkpt lat="43.88283885370575" lon="12.01184503364331"><ele>367.5</ele><time>2026-04-05T07:34:37Z</time></trkpt><trkpt lat="43.88306590388517" lon="12.01171904065989"><ele>372.0</ele><time>2026-04-05T07:34:38Z</time></trkpt><trkpt lat="43.88326356549165" lon="12.011521019212651"><ele>372.0</ele><time>2026-04-05T07:34:39Z</time></trkpt><trkpt lat="43.883400953463266" lon="12.011290932426467"><ele>372.0</ele><time>2026-04-05T07:34:40Z</time></trkpt><trkpt lat="43.883483260909664" lon="12.011031018082715"><ele>372.0</ele><time>2026-04-05T07:34:41Z</time></trkpt><trkpt lat="43.883496776844275" lon="12.010802914861621"><ele>374.0</ele><time>2026-04-05T07:34:42Z</time></trkpt><trkpt lat="43.88349644457278" lon="12.010557249313527"><ele>376.0</ele><time>2026-04-05T07:34:43Z</time></trkpt><trkpt lat="43.883465392669585" lon="12.010404708476953"><ele>378.0</ele><time>2026-04-05T07:34:44Z</time></trkpt><trkpt lat="43.883416074541046" lon="12.01030709686086"><ele>380.0</ele><time>2026-04-05T07:34:45Z</time></trkpt><trkpt lat="43.88331479711027" lon="12.010083553676694"><ele>383.0</ele><time>2026-04-05T07:34:46Z</time></trkpt><trkpt lat="43.88318919488782" lon="12.009764713191919"><ele>386.0</ele><time>2026-04-05T07:34:47Z</time></trkpt><trkpt lat="43.883111226184404" lon="12.0093585062295"><ele>387.5</ele><time>2026-04-05T07:34:48Z</time></trkpt><trkpt lat="43.88309390318095" lon="12.008984660155559"><ele>389.0</ele><time>2026-04-05T07:34:49Z</time></trkpt><trkpt lat="43.88306772814888" lon="12.00851844954163"><ele>392.0</ele><time>2026-04-05T07:34:50Z</time></trkpt><trkpt lat="43.88304334748614" lon="12.008090730973825"><ele>395.0</ele><time>2026-04-05T07:34:51Z</time></trkpt><trkpt lat="43.88298035989226" lon="12.007681516289669"><ele>397.0</ele><time>2026-04-05T07:34:52Z</time></trkpt><trkpt lat="43.882863991720036" lon="12.007373183307232"><ele>399.0</ele><time>2026-04-05T07:34:53Z</time></trkpt><trkpt lat="43.8827779666576" lon="12.007082911365364"><ele>399.0</ele><time>2026-04-05T07:34:54Z</time></trkpt><trkpt lat="43.88275570725786" lon="12.00679479058732"><ele>399.0</ele><time>2026-04-05T07:34:55Z</time></trkpt><trkpt lat="43.88274686215975" lon="12.006499225029636"><ele>399.0</ele><time>2026-04-05T07:34:56Z</time></trkpt><trkpt lat="43.88275832671925" lon="12.006202088223182"><ele>400.66666666666663</ele><time>2026-04-05T07:34:57Z</time></trkpt><trkpt lat="43.88276256172894" lon="12.005915736741755"><ele>402.3333333333333</ele><time>2026-04-05T07:34:58Z</time></trkpt><trkpt lat="43.882753254922136" lon="12.005659118699246"><ele>404.0</ele><time>2026-04-05T07:34:59Z</time></trkpt><trkpt lat="43.882692107460805" lon="12.005399600193899"><ele>404.25</ele><time>2026-04-05T07:35:00Z</time></trkpt><trkpt lat="43.882631009551496" lon="12.005170197664864"><ele>404.5</ele><time>2026-04-05T07:35:01Z</time></trkpt><trkpt lat="43.8825973391904" lon="12.004994745313216"><ele>404.75</ele><time>2026-04-05T07:35:02Z</time></trkpt><trkpt lat="43.88257429782269" lon="12.004850795880674"><ele>405.0</ele><time>2026-04-05T07:35:03Z</time></trkpt><trkpt lat="43.88257339234356" lon="12.004716324614801"><ele>403.4</ele><time>2026-04-05T07:35:04Z</time></trkpt><trkpt lat="43.882595371804236" lon="12.004590667747888"><ele>401.8</ele><time>2026-04-05T07:35:05Z</time></trkpt><trkpt lat="43.88266646090643" lon="12.004484228293297"><ele>400.20000000000005</ele><time>2026-04-05T07:35:06Z</time></trkpt><trkpt lat="43.88275245143902" lon="12.004378759573852"><ele>398.6</ele><time>2026-04-05T07:35:07Z</time></trkpt><trkpt lat="43.88285554512662" lon="12.004290398383889"><ele>397.0</ele><time>2026-04-05T07:35:08Z</time></trkpt><trkpt lat="43.88296425330724" lon="12.004198462335145"><ele>395.5</ele><time>2026-04-05T07:35:09Z</time></trkpt><trkpt lat="43.88307038587741" lon="12.004114460818746"><ele>394.0</ele><time>2026-04-05T07:35:10Z</time></trkpt><trkpt lat="43.883164646345236" lon="12.004037628262653"><ele>392.5</ele><time>2026-04-05T07:35:11Z</time></trkpt><trkpt lat="43.883274763193114" lon="12.003996410991606"><ele>391.0</ele><time>2026-04-05T07:35:12Z</time></trkpt><trkpt lat="43.88336983238048" lon="12.003884424157155"><ele>395.0</ele><time>2026-04-05T07:35:13Z</time></trkpt><trkpt lat="43.88345703703899" lon="12.003691341228768"><ele>399.0</ele><time>2026-04-05T07:35:14Z</time></trkpt><trkpt lat="43.88351413229357" lon="12.003431392084503"><ele>403.0</ele><time>2026-04-05T07:35:15Z</time></trkpt><trkpt lat="43.88356649732762" lon="12.003149293611907"><ele>403.0</ele><time>2026-04-05T07:35:16Z</time></trkpt><trkpt lat="43.88361101588306" lon="12.002837054628298"><ele>403.0</ele><time>2026-04-05T07:35:17Z</time></trkpt><trkpt lat="43.88366915838776" lon="12.002515488464551"><ele>401.0</ele><time>2026-04-05T07:35:18Z</time></trkpt><trkpt lat="43.88372793036252" lon="12.00224855866358"><ele>399.0</ele><time>2026-04-05T07:35:19Z</time></trkpt><trkpt lat="43.8838128180118" lon="12.002037913108431"><ele>397.0</ele><time>2026-04-05T07:35:20Z</time></trkpt><trkpt lat="43.8839351753836" lon="12.001869514564087"><ele>397.0</ele><time>2026-04-05T07:35:21Z</time></trkpt><trkpt lat="43.8840368140401" lon="12.001679481017545"><ele>397.0</ele><time>2026-04-05T07:35:22Z</time></trkpt><trkpt lat="43.884055549858275" lon="12.001501130114391"><ele>397.0</ele><time>2026-04-05T07:35:23Z</time></trkpt><trkpt lat="43.884004710995974" lon="12.00131151602274"><ele>397.0</ele><time>2026-04-05T07:35:24Z</time></trkpt><trkpt lat="43.88390912527153" lon="12.00108775656923"><ele>401.5</ele><time>2026-04-05T07:35:25Z</time></trkpt><trkpt lat="43.88378375298408" lon="12.000831611017773"><ele>406.0</ele><time>2026-04-05T07:35:26Z</time></trkpt><trkpt lat="43.883639205096664" lon="12.000539644001842"><ele>406.0</ele><time>2026-04-05T07:35:27Z</time></trkpt><trkpt lat="43.88351983324684" lon="12.000225656648166"><ele>406.0</ele><time>2026-04-05T07:35:28Z</time></trkpt><trkpt lat="43.88335783242297" lon="11.999884897716221"><ele>401.0</ele><time>2026-04-05T07:35:29Z</time></trkpt><trkpt lat="43.88323707348956" lon="11.999554432159004"><ele>396.0</ele><time>2026-04-05T07:35:30Z</time></trkpt><trkpt lat="43.8831805133139" lon="11.999248572979235"><ele>397.66666666666663</ele><time>2026-04-05T07:35:31Z</time></trkpt><trkpt lat="43.883208051573824" lon="11.998965094956851"><ele>399.3333333333333</ele><time>2026-04-05T07:35:32Z</time></trkpt><trkpt lat="43.883272746214764" lon="11.998700114971703"><ele>401.0</ele><time>2026-04-05T07:35:33Z</time></trkpt><trkpt lat="43.88339019779389" lon="11.998437348866062"><ele>407.5</ele><time>2026-04-05T07:35:34Z</time></trkpt><trkpt lat="43.88353531641314" lon="11.998136872410022"><ele>414.0</ele><time>2026-04-05T07:35:35Z</time></trkpt><trkpt lat="43.883686995442744" lon="11.997819056871279"><ele>414.0</ele><time>2026-04-05T07:35:36Z</time></trkpt><trkpt lat="43.88383820043171" lon="11.997540107755018"><ele>414.0</ele><time>2026-04-05T07:35:37Z</time></trkpt><trkpt lat="43.883930878507954" lon="11.997283542641792"><ele>412.66666666666663</ele><time>2026-04-05T07:35:38Z</time></trkpt><trkpt lat="43.883943036615925" lon="11.99702038570677"><ele>411.3333333333333</ele><time>2026-04-05T07:35:39Z</time></trkpt><trkpt lat="43.883909638553426" lon="11.99677704136786"><ele>410.0</ele><time>2026-04-05T07:35:40Z</time></trkpt><trkpt lat="43.88384464846997" lon="11.99650706193791"><ele>410.0</ele><time>2026-04-05T07:35:41Z</time></trkpt><trkpt lat="43.88379026231009" lon="11.9962624871917"><ele>410.0</ele><time>2026-04-05T07:35:42Z</time></trkpt><trkpt lat="43.88370210649706" lon="11.996089822984022"><ele>410.0</ele><time>2026-04-05T07:35:43Z</time></trkpt><trkpt lat="43.88355605732144" lon="11.9960159694663"><ele>407.3333333333333</ele><time>2026-04-05T07:35:44Z</time></trkpt><trkpt lat="43.8834016941979" lon="11.996010050315192"><ele>404.66666666666663</ele><time>2026-04-05T07:35:45Z</time></trkpt><trkpt lat="43.883260002009905" lon="11.996054260987739"><ele>402.0</ele><time>2026-04-05T07:35:46Z</time></trkpt><trkpt lat="43.883093049175166" lon="11.996119655015516"><ele>402.0</ele><time>2026-04-05T07:35:47Z</time></trkpt><trkpt lat="43.88284225227526" lon="11.99622975924031"><ele>402.0</ele><time>2026-04-05T07:35:48Z</time></trkpt><trkpt lat="43.88263020301932" lon="11.996323226660394"><ele>403.5</ele><time>2026-04-05T07:35:49Z</time></trkpt><trkpt lat="43.88235020066851" lon="11.996417948811137"><ele>405.0</ele><time>2026-04-05T07:35:50Z</time></trkpt><trkpt lat="43.8820675756014" lon="11.996446007358832"><ele>405.0</ele><time>2026-04-05T07:35:51Z</time></trkpt><trkpt lat="43.88181811505997" lon="11.996440445435496"><ele>405.0</ele><time>2026-04-05T07:35:52Z</time></trkpt><trkpt lat="43.88153710395224" lon="11.996433477118066"><ele>412.5</ele><time>2026-04-05T07:35:53Z</time></trkpt><trkpt lat="43.881242941379504" lon="11.996423507725597"><ele>420.0</ele><time>2026-04-05T07:35:54Z</time></trkpt><trkpt lat="43.88093586675599" lon="11.996368546669828"><ele>418.5</ele><time>2026-04-05T07:35:55Z</time></trkpt><trkpt lat="43.88069830049689" lon="11.996322478081622"><ele>417.0</ele><time>2026-04-05T07:35:56Z</time></trkpt><trkpt lat="43.88045761905605" lon="11.996278645877377"><ele>417.0</ele><time>2026-04-05T07:35:57Z</time></trkpt><trkpt lat="43.88024881955782" lon="11.996236813884469"><ele>417.0</ele><time>2026-04-05T07:35:58Z</time></trkpt><trkpt lat="43.88003449610819" lon="11.996193661544801"><ele>417.0</ele><time>2026-04-05T07:35:59Z</time></trkpt><trkpt lat="43.87982169295444" lon="11.996142488451264"><ele>416.33333333333337</ele><time>2026-04-05T07:36:00Z</time></trkpt><trkpt lat="43.87964293133266" lon="11.99602934723437"><ele>415.6666666666667</ele><time>2026-04-05T07:36:01Z</time></trkpt><trkpt lat="43.879503395404626" lon="11.995843911587194"><ele>415.0</ele><time>2026-04-05T07:36:02Z</time></trkpt><trkpt lat="43.879376580056466" lon="11.995681633269703"><ele>418.33333333333337</ele><time>2026-04-05T07:36:03Z</time></trkpt><trkpt lat="43.8792410315944" lon="11.99550817973007"><ele>421.66666666666663</ele><time>2026-04-05T07:36:04Z</time></trkpt><trkpt lat="43.87908392523294" lon="11.995314340591205"><ele>425.0</ele><time>2026-04-05T07:36:05Z</time></trkpt><trkpt lat="43.87889219564441" lon="11.99511433827332"><ele>428.0</ele><time>2026-04-05T07:36:06Z</time></trkpt><trkpt lat="43.87866721313779" lon="11.994931111030859"><ele>431.0</ele><time>2026-04-05T07:36:07Z</time></trkpt><trkpt lat="43.87841588353505" lon="11.994762054401901"><ele>431.0</ele><time>2026-04-05T07:36:08Z</time></trkpt><trkpt lat="43.878195980605255" lon="11.994600572090242"><ele>431.0</ele><time>2026-04-05T07:36:09Z</time></trkpt><trkpt lat="43.87803121520038" lon="11.99440117170896"><ele>446.0</ele><time>2026-04-05T07:36:10Z</time></trkpt><trkpt lat="43.87790687902496" lon="11.99416043101586"><ele>461.0</ele><time>2026-04-05T07:36:11Z</time></trkpt><trkpt lat="43.87777273141843" lon="11.993885124896014"><ele>461.0</ele><time>2026-04-05T07:36:12Z</time></trkpt><trkpt lat="43.87762833552539" lon="11.993569504700492"><ele>461.0</ele><time>2026-04-05T07:36:13Z</time></trkpt><trkpt lat="43.877480386918045" lon="11.993320103773831"><ele>457.0</ele><time>2026-04-05T07:36:14Z</time></trkpt><trkpt lat="43.87730472559451" lon="11.993146599495512"><ele>453.0</ele><time>2026-04-05T07:36:15Z</time></trkpt><trkpt lat="43.87712834195716" lon="11.992955948701812"><ele>449.0</ele><time>2026-04-05T07:36:16Z</time></trkpt><trkpt lat="43.8769600137521" lon="11.992694234100918"><ele>444.0</ele><time>2026-04-05T07:36:17Z</time></trkpt><trkpt lat="43.87680882538295" lon="11.992412023309964"><ele>439.0</ele><time>2026-04-05T07:36:18Z</time></trkpt><trkpt lat="43.87666922031601" lon="11.992140392234633"><ele>439.0</ele><time>2026-04-05T07:36:19Z</time></trkpt><trkpt lat="43.87657234854622" lon="11.991833414530506"><ele>439.0</ele><time>2026-04-05T07:36:20Z</time></trkpt><trkpt lat="43.876485369419015" lon="11.991493765555342"><ele>449.0</ele><time>2026-04-05T07:36:21Z</time></trkpt><trkpt lat="43.87642516008856" lon="11.991104594568002"><ele>459.0</ele><time>2026-04-05T07:36:22Z</time></trkpt><trkpt lat="43.87634249774858" lon="11.990724773549303"><ele>463.5</ele><time>2026-04-05T07:36:23Z</time></trkpt><trkpt lat="43.87624846710416" lon="11.990348720919965"><ele>468.0</ele><time>2026-04-05T07:36:24Z</time></trkpt><trkpt lat="43.87612292648938" lon="11.990008638523786"><ele>463.0</ele><time>2026-04-05T07:36:25Z</time></trkpt><trkpt lat="43.875930844936235" lon="11.989704860063245"><ele>458.0</ele><time>2026-04-05T07:36:26Z</time></trkpt><trkpt lat="43.875688410949564" lon="11.989396182189598"><ele>461.0</ele><time>2026-04-05T07:36:27Z</time></trkpt><trkpt lat="43.8754434137776" lon="11.989112533536009"><ele>464.0</ele><time>2026-04-05T07:36:28Z</time></trkpt><trkpt lat="43.87518945371813" lon="11.988842648692632"><ele>464.0</ele><time>2026-04-05T07:36:29Z</time></trkpt><trkpt lat="43.874924261944265" lon="11.988526803932904"><ele>464.0</ele><time>2026-04-05T07:36:30Z</time></trkpt><trkpt lat="43.874709692976836" lon="11.988269634880758"><ele>464.0</ele><time>2026-04-05T07:36:31Z</time></trkpt><trkpt lat="43.8745655983734" lon="11.9880486504835"><ele>464.0</ele><time>2026-04-05T07:36:32Z</time></trkpt><trkpt lat="43.874491060668184" lon="11.98782413709373"><ele>464.0</ele><time>2026-04-05T07:36:33Z</time></trkpt><trkpt lat="43.87444936805234" lon="11.987592421214478"><ele>466.66666666666663</ele><time>2026-04-05T07:36:34Z</time></trkpt><trkpt lat="43.87446340075596" lon="11.987362415362524"><ele>469.33333333333337</ele><time>2026-04-05T07:36:35Z</time></trkpt><trkpt lat="43.87451653277618" lon="11.987126694261487"><ele>472.0</ele><time>2026-04-05T07:36:36Z</time></trkpt><trkpt lat="43.8745443558204" lon="11.986857183130452"><ele>474.6666666666667</ele><time>2026-04-05T07:36:37Z</time></trkpt><trkpt lat="43.87448462931541" lon="11.986602234295509"><ele>477.33333333333337</ele><time>2026-04-05T07:36:38Z</time></trkpt><trkpt lat="43.87436918674356" lon="11.98638451454689"><ele>480.0</ele><time>2026-04-05T07:36:39Z</time></trkpt><trkpt lat="43.87421440563438" lon="11.986169170509497"><ele>477.5</ele><time>2026-04-05T07:36:40Z</time></trkpt><trkpt lat="43.874041348240034" lon="11.985920973868101"><ele>475.0</ele><time>2026-04-05T07:36:41Z</time></trkpt><trkpt lat="43.87386875376208" lon="11.985620094298673"><ele>475.0</ele><time>2026-04-05T07:36:42Z</time></trkpt><trkpt lat="43.87371428339712" lon="11.985304646618195"><ele>475.0</ele><time>2026-04-05T07:36:43Z</time></trkpt><trkpt lat="43.873539589951044" lon="11.984957526658256"><ele>471.5</ele><time>2026-04-05T07:36:44Z</time></trkpt><trkpt lat="43.87335233921954" lon="11.984636571886648"><ele>468.0</ele><time>2026-04-05T07:36:45Z</time></trkpt><trkpt lat="43.87315745141265" lon="11.984325051098953"><ele>476.5</ele><time>2026-04-05T07:36:46Z</time></trkpt><trkpt lat="43.872921981516704" lon="11.98410935096988"><ele>485.0</ele><time>2026-04-05T07:36:47Z</time></trkpt><trkpt lat="43.87265798137088" lon="11.983895610430498"><ele>473.0</ele><time>2026-04-05T07:36:48Z</time></trkpt><trkpt lat="43.872453618707375" lon="11.983622575412264"><ele>461.0</ele><time>2026-04-05T07:36:49Z</time></trkpt><trkpt lat="43.87238603774829" lon="11.983403360580057"><ele>465.3333333333333</ele><time>2026-04-05T07:36:50Z</time></trkpt><trkpt lat="43.872376236998925" lon="11.98313330025631"><ele>469.66666666666663</ele><time>2026-04-05T07:36:51Z</time></trkpt><trkpt lat="43.87250363650006" lon="11.983004288909346"><ele>474.0</ele><time>2026-04-05T07:36:53Z</time></trkpt><trkpt lat="43.87258089219714" lon="11.9827878188606"><ele>473.66666666666663</ele><time>2026-04-05T07:36:54Z</time></trkpt><trkpt lat="43.87264781906046" lon="11.982474552221783"><ele>473.3333333333333</ele><time>2026-04-05T07:36:55Z</time></trkpt><trkpt lat="43.872660017933356" lon="11.982249075493293"><ele>473.0</ele><time>2026-04-05T07:36:56Z</time></trkpt><trkpt lat="43.87258060974235" lon="11.982045088880401"><ele>473.0</ele><time>2026-04-05T07:36:57Z</time></trkpt><trkpt lat="43.87247657136599" lon="11.981878886182589"><ele>473.0</ele><time>2026-04-05T07:36:58Z</time></trkpt><trkpt lat="43.87231395639292" lon="11.981730472906488"><ele>473.0</ele><time>2026-04-05T07:36:59Z</time></trkpt><trkpt lat="43.8720910636627" lon="11.98156115828371"><ele>473.5</ele><time>2026-04-05T07:37:00Z</time></trkpt><trkpt lat="43.87179589911805" lon="11.981349404633153"><ele>474.0</ele><time>2026-04-05T07:37:01Z</time></trkpt><trkpt lat="43.87151615304642" lon="11.981160573781809"><ele>468.0</ele><time>2026-04-05T07:37:02Z</time></trkpt><trkpt lat="43.87125831266524" lon="11.981017840896458"><ele>462.0</ele><time>2026-04-05T07:37:03Z</time></trkpt><trkpt lat="43.87104893537116" lon="11.980885184091752"><ele>461.75</ele><time>2026-04-05T07:37:04Z</time></trkpt><trkpt lat="43.87096823552057" lon="11.980692851711467"><ele>461.5</ele><time>2026-04-05T07:37:05Z</time></trkpt><trkpt lat="43.870972615774036" lon="11.980561234829409"><ele>461.25</ele><time>2026-04-05T07:37:06Z</time></trkpt><trkpt lat="43.87094119453281" lon="11.980320920867678"><ele>461.0</ele><time>2026-04-05T07:37:07Z</time></trkpt><trkpt lat="43.87088502644275" lon="11.980034808051974"><ele>463.0</ele><time>2026-04-05T07:37:08Z</time></trkpt><trkpt lat="43.870757406309245" lon="11.979689816505322"><ele>465.0</ele><time>2026-04-05T07:37:09Z</time></trkpt><trkpt lat="43.87058904318142" lon="11.97939780786185"><ele>467.5</ele><time>2026-04-05T07:37:10Z</time></trkpt><trkpt lat="43.87043876442913" lon="11.979130258995303"><ele>470.0</ele><time>2026-04-05T07:37:11Z</time></trkpt><trkpt lat="43.87025590225834" lon="11.978951566412643"><ele>468.0</ele><time>2026-04-05T07:37:12Z</time></trkpt><trkpt lat="43.87008953243727" lon="11.978850323206462"><ele>466.0</ele><time>2026-04-05T07:37:13Z</time></trkpt><trkpt lat="43.869912263823025" lon="11.978801505091077"><ele>464.0</ele><time>2026-04-05T07:37:14Z</time></trkpt><trkpt lat="43.86975201615797" lon="11.978819374227731"><ele>464.0</ele><time>2026-04-05T07:37:15Z</time></trkpt><trkpt lat="43.86955242647642" lon="11.978841629555312"><ele>464.0</ele><time>2026-04-05T07:37:16Z</time></trkpt><trkpt lat="43.86934882683018" lon="11.97885488437584"><ele>464.0</ele><time>2026-04-05T07:37:17Z</time></trkpt><trkpt lat="43.869189529087876" lon="11.978892348166209"><ele>464.66666666666663</ele><time>2026-04-05T07:37:18Z</time></trkpt><trkpt lat="43.86902448982503" lon="11.978894957059051"><ele>465.33333333333337</ele><time>2026-04-05T07:37:19Z</time></trkpt><trkpt lat="43.86886958843113" lon="11.97892776878899"><ele>466.0</ele><time>2026-04-05T07:37:20Z</time></trkpt><trkpt lat="43.86871705769211" lon="11.978952346461421"><ele>466.0</ele><time>2026-04-05T07:37:21Z</time></trkpt><trkpt lat="43.86856460456866" lon="11.978976054369271"><ele>466.0</ele><time>2026-04-05T07:37:22Z</time></trkpt><trkpt lat="43.86841579161361" lon="11.979001018235836"><ele>466.0</ele><time>2026-04-05T07:37:23Z</time></trkpt><trkpt lat="43.8682805113903" lon="11.97902555897375"><ele>466.0</ele><time>2026-04-05T07:37:24Z</time></trkpt><trkpt lat="43.86815057819653" lon="11.979049751581517"><ele>466.25</ele><time>2026-04-05T07:37:25Z</time></trkpt><trkpt lat="43.86801330302512" lon="11.97907565534831"><ele>466.5</ele><time>2026-04-05T07:37:26Z</time></trkpt><trkpt lat="43.867870968440585" lon="11.979102858594954"><ele>466.75</ele><time>2026-04-05T07:37:27Z</time></trkpt><trkpt lat="43.86774151520555" lon="11.979115752980553"><ele>467.0</ele><time>2026-04-05T07:37:28Z</time></trkpt><trkpt lat="43.867606873417884" lon="11.979131511342871"><ele>466.5</ele><time>2026-04-05T07:37:29Z</time></trkpt><trkpt lat="43.86746478054937" lon="11.979142832049355"><ele>466.0</ele><time>2026-04-05T07:37:30Z</time></trkpt><trkpt lat="43.867319406627225" lon="11.979136789140767"><ele>465.5</ele><time>2026-04-05T07:37:31Z</time></trkpt><trkpt lat="43.86717401823988" lon="11.97910718891288"><ele>465.0</ele><time>2026-04-05T07:37:32Z</time></trkpt><trkpt lat="43.867038478168176" lon="11.979028374751849"><ele>465.0</ele><time>2026-04-05T07:37:33Z</time></trkpt><trkpt lat="43.86691088620131" lon="11.978949896400936"><ele>465.0</ele><time>2026-04-05T07:37:34Z</time></trkpt><trkpt lat="43.86679652323525" lon="11.978863186785802"><ele>465.0</ele><time>2026-04-05T07:37:35Z</time></trkpt><trkpt lat="43.86667989832327" lon="11.97878768975592"><ele>465.0</ele><time>2026-04-05T07:37:36Z</time></trkpt><trkpt lat="43.866573313848754" lon="11.978687279553098"><ele>464.5</ele><time>2026-04-05T07:37:37Z</time></trkpt><trkpt lat="43.86646220986813" lon="11.978584322330073"><ele>464.0</ele><time>2026-04-05T07:37:38Z</time></trkpt><trkpt lat="43.866351808906295" lon="11.978478229832003"><ele>463.5</ele><time>2026-04-05T07:37:39Z</time></trkpt><trkpt lat="43.866244648999945" lon="11.978383961055869"><ele>463.0</ele><time>2026-04-05T07:37:40Z</time></trkpt><trkpt lat="43.86614412036961" lon="11.978294318225045"><ele>463.75</ele><time>2026-04-05T07:37:41Z</time></trkpt><trkpt lat="43.86603950551985" lon="11.978200099144344"><ele>464.5</ele><time>2026-04-05T07:37:42Z</time></trkpt><trkpt lat="43.86593382603337" lon="11.9781047441318"><ele>465.25</ele><time>2026-04-05T07:37:43Z</time></trkpt><trkpt lat="43.865829723385175" lon="11.978009492640128"><ele>466.0</ele><time>2026-04-05T07:37:44Z</time></trkpt><trkpt lat="43.865725987540564" lon="11.977920317526658"><ele>466.0</ele><time>2026-04-05T07:37:45Z</time></trkpt><trkpt lat="43.86561686146707" lon="11.977826127037062"><ele>466.0</ele><time>2026-04-05T07:37:46Z</time></trkpt><trkpt lat="43.86551040309972" lon="11.977728423660967"><ele>466.0</ele><time>2026-04-05T07:37:47Z</time></trkpt><trkpt lat="43.86541020417291" lon="11.977638209414236"><ele>466.0</ele><time>2026-04-05T07:37:48Z</time></trkpt><trkpt lat="43.865309984374214" lon="11.977551760080477"><ele>465.5</ele><time>2026-04-05T07:37:49Z</time></trkpt><trkpt lat="43.865211477850906" lon="11.97746796799992"><ele>465.0</ele><time>2026-04-05T07:37:50Z</time></trkpt><trkpt lat="43.86510932083509" lon="11.977393605410763"><ele>464.5</ele><time>2026-04-05T07:37:51Z</time></trkpt><trkpt lat="43.864996510642854" lon="11.977333709187002"><ele>464.0</ele><time>2026-04-05T07:37:52Z</time></trkpt><trkpt lat="43.86487935351082" lon="11.977307013808872"><ele>464.0</ele><time>2026-04-05T07:37:52.999Z</time></trkpt><trkpt lat="43.86476504894413" lon="11.97730011589423"><ele>464.0</ele><time>2026-04-05T07:37:53.999Z</time></trkpt><trkpt lat="43.864658150650385" lon="11.977300571737679"><ele>464.0</ele><time>2026-04-05T07:37:54.999Z</time></trkpt><trkpt lat="43.86455671197744" lon="11.977301418051697"><ele>464.0</ele><time>2026-04-05T07:37:55.999Z</time></trkpt><trkpt lat="43.864457943888304" lon="11.977299766220067"><ele>464.0</ele><time>2026-04-05T07:37:57Z</time></trkpt><trkpt lat="43.86435578206725" lon="11.977299095956292"><ele>463.6</ele><time>2026-04-05T07:37:58Z</time></trkpt><trkpt lat="43.86424715823082" lon="11.977300017188798"><ele>463.2</ele><time>2026-04-05T07:37:59Z</time></trkpt><trkpt lat="43.86414445633302" lon="11.977298708615132"><ele>462.80000000000007</ele><time>2026-04-05T07:38:00Z</time></trkpt><trkpt lat="43.86404323980205" lon="11.977297835616149"><ele>462.40000000000003</ele><time>2026-04-05T07:38:01Z</time></trkpt><trkpt lat="43.86393570925423" lon="11.977293673834362"><ele>462.0</ele><time>2026-04-05T07:38:02Z</time></trkpt><trkpt lat="43.86382605254585" lon="11.97728954359181"><ele>462.0</ele><time>2026-04-05T07:38:03Z</time></trkpt><trkpt lat="43.86372452889419" lon="11.977285671869765"><ele>462.00000000000006</ele><time>2026-04-05T07:38:04Z</time></trkpt><trkpt lat="43.86362579567047" lon="11.97728138795539"><ele>462.00000000000006</ele><time>2026-04-05T07:38:05Z</time></trkpt><trkpt lat="43.86352667680841" lon="11.977275499599966"><ele>462.0</ele><time>2026-04-05T07:38:06Z</time></trkpt><trkpt lat="43.86342308637218" lon="11.977273273000991"><ele>462.0</ele><time>2026-04-05T07:38:07Z</time></trkpt><trkpt lat="43.863311602466275" lon="11.977271392689206"><ele>461.8</ele><time>2026-04-05T07:38:08Z</time></trkpt><trkpt lat="43.86320364426262" lon="11.9772678823773"><ele>461.6</ele><time>2026-04-05T07:38:09Z</time></trkpt><trkpt lat="43.86310246986159" lon="11.977265722839858"><ele>461.40000000000003</ele><time>2026-04-05T07:38:10Z</time></trkpt><trkpt lat="43.86300074181598" lon="11.977259001070518"><ele>461.20000000000005</ele><time>2026-04-05T07:38:11Z</time></trkpt><trkpt lat="43.862886700553524" lon="11.977252888412163"><ele>461.0</ele><time>2026-04-05T07:38:12Z</time></trkpt><trkpt lat="43.862768038519306" lon="11.977250243092906"><ele>461.0</ele><time>2026-04-05T07:38:13Z</time></trkpt><trkpt lat="43.86266570924572" lon="11.977262667460494"><ele>461.0</ele><time>2026-04-05T07:38:14Z</time></trkpt><trkpt lat="43.86254912724149" lon="11.977256758708927"><ele>461.0</ele><time>2026-04-05T07:38:15Z</time></trkpt><trkpt lat="43.8624326721266" lon="11.977255775861142"><ele>461.0</ele><time>2026-04-05T07:38:16Z</time></trkpt><trkpt lat="43.86230967440632" lon="11.977253821728489"><ele>461.0</ele><time>2026-04-05T07:38:17Z</time></trkpt><trkpt lat="43.86218690825094" lon="11.977250492009334"><ele>461.0</ele><time>2026-04-05T07:38:18Z</time></trkpt><trkpt lat="43.86206851469782" lon="11.97725137584368"><ele>461.0</ele><time>2026-04-05T07:38:19Z</time></trkpt><trkpt lat="43.86195997453309" lon="11.977247156947293"><ele>461.0</ele><time>2026-04-05T07:38:20Z</time></trkpt><trkpt lat="43.861853157504726" lon="11.977242749535009"><ele>460.6</ele><time>2026-04-05T07:38:21Z</time></trkpt><trkpt lat="43.861742437839425" lon="11.977236793331736"><ele>460.20000000000005</ele><time>2026-04-05T07:38:22Z</time></trkpt><trkpt lat="43.86163643375239" lon="11.977232220201882"><ele>459.79999999999995</ele><time>2026-04-05T07:38:23Z</time></trkpt><trkpt lat="43.86153225596394" lon="11.977232808468615"><ele>459.4</ele><time>2026-04-05T07:38:24Z</time></trkpt><trkpt lat="43.86142591277192" lon="11.977231537780932"><ele>459.0</ele><time>2026-04-05T07:38:25Z</time></trkpt><trkpt lat="43.86131622614333" lon="11.97723068329703"><ele>459.0</ele><time>2026-04-05T07:38:26Z</time></trkpt><trkpt lat="43.86120585670378" lon="11.977232288013742"><ele>459.0</ele><time>2026-04-05T07:38:27Z</time></trkpt><trkpt lat="43.86110715604191" lon="11.977229971345922"><ele>459.0</ele><time>2026-04-05T07:38:28Z</time></trkpt><trkpt lat="43.86101761356231" lon="11.977229625953846"><ele>459.0</ele><time>2026-04-05T07:38:29.001Z</time></trkpt><trkpt lat="43.86093182822084" lon="11.977225785539181"><ele>459.0</ele><time>2026-04-05T07:38:30.001Z</time></trkpt><trkpt lat="43.860851512038664" lon="11.97722996072407"><ele>460.0</ele><time>2026-04-05T07:38:31.001Z</time></trkpt><trkpt lat="43.86076608376322" lon="11.977229722129957"><ele>461.0</ele><time>2026-04-05T07:38:32.001Z</time></trkpt><trkpt lat="43.86067511089463" lon="11.977232281689847"><ele>462.0</ele><time>2026-04-05T07:38:33.001Z</time></trkpt><trkpt lat="43.860574798113134" lon="11.977235289349863"><ele>463.0</ele><time>2026-04-05T07:38:34.001Z</time></trkpt><trkpt lat="43.86047252723794" lon="11.977236628241526"><ele>464.0</ele><time>2026-04-05T07:38:35.001Z</time></trkpt><trkpt lat="43.860364772167515" lon="11.977231724234914"><ele>464.0</ele><time>2026-04-05T07:38:36.001Z</time></trkpt><trkpt lat="43.860247568043654" lon="11.977227914571579"><ele>464.0</ele><time>2026-04-05T07:38:37.001Z</time></trkpt><trkpt lat="43.86012712908753" lon="11.977227251514991"><ele>464.0</ele><time>2026-04-05T07:38:38.001Z</time></trkpt><trkpt lat="43.860001745572234" lon="11.977229473865238"><ele>464.0</ele><time>2026-04-05T07:38:39.001Z</time></trkpt><trkpt lat="43.85987718413374" lon="11.977232962224418"><ele>463.79999999999995</ele><time>2026-04-05T07:38:40.001Z</time></trkpt><trkpt lat="43.85976723520963" lon="11.977230249064624"><ele>463.59999999999997</ele><time>2026-04-05T07:38:41.001Z</time></trkpt><trkpt lat="43.8596623236784" lon="11.97723186553457"><ele>463.4</ele><time>2026-04-05T07:38:42.001Z</time></trkpt><trkpt lat="43.859565986997374" lon="11.977231486973704"><ele>463.2</ele><time>2026-04-05T07:38:43.001Z</time></trkpt><trkpt lat="43.85946305945222" lon="11.977224387820437"><ele>463.0</ele><time>2026-04-05T07:38:44.001Z</time></trkpt><trkpt lat="43.859354594858026" lon="11.977227639514473"><ele>463.2</ele><time>2026-04-05T07:38:45.001Z</time></trkpt><trkpt lat="43.85924451538045" lon="11.977225425063196"><ele>463.4</ele><time>2026-04-05T07:38:46.001Z</time></trkpt><trkpt lat="43.85914107104675" lon="11.977223144560481"><ele>463.59999999999997</ele><time>2026-04-05T07:38:47.001Z</time></trkpt><trkpt lat="43.85904390420511" lon="11.977220567819698"><ele>463.79999999999995</ele><time>2026-04-05T07:38:48.001Z</time></trkpt><trkpt lat="43.85895963466099" lon="11.977217382058708"><ele>464.0</ele><time>2026-04-05T07:38:49.001Z</time></trkpt><trkpt lat="43.85888881751292" lon="11.977218665684896"><ele>464.0</ele><time>2026-04-05T07:38:50.001Z</time></trkpt><trkpt lat="43.8587737837878" lon="11.977214255682497"><ele>464.0</ele><time>2026-04-05T07:38:52.001Z</time></trkpt><trkpt lat="43.8586822038913" lon="11.977217032577688"><ele>464.0</ele><time>2026-04-05T07:38:54.001Z</time></trkpt><trkpt lat="43.858589121016735" lon="11.977216769389546"><ele>464.0</ele><time>2026-04-05T07:38:56.001Z</time></trkpt><trkpt lat="43.858502861412" lon="11.977212171018593"><ele>464.0</ele><time>2026-04-05T07:38:58.001Z</time></trkpt><trkpt lat="43.858420143778034" lon="11.977216256873815"><ele>464.3333333333333</ele><time>2026-04-05T07:39:00.001Z</time></trkpt><trkpt lat="43.858309696388964" lon="11.977214316789349"><ele>464.66666666666663</ele><time>2026-04-05T07:39:02.001Z</time></trkpt><trkpt lat="43.858244595889026" lon="11.977211582173993"><ele>465.0</ele><time>2026-04-05T07:39:03.001Z</time></trkpt><trkpt lat="43.85817954754064" lon="11.977203939280875"><ele>465.33333333333337</ele><time>2026-04-05T07:39:04.001Z</time></trkpt><trkpt lat="43.85811571509435" lon="11.977195807203087"><ele>465.6666666666667</ele><time>2026-04-05T07:39:05.001Z</time></trkpt><trkpt lat="43.85799708849597" lon="11.977175735135736"><ele>466.0</ele><time>2026-04-05T07:39:07.001Z</time></trkpt><trkpt lat="43.85787031100648" lon="11.977137363027195"><ele>466.00000000000006</ele><time>2026-04-05T07:39:09.001Z</time></trkpt><trkpt lat="43.857801844510455" lon="11.97712573427155"><ele>466.0</ele><time>2026-04-05T07:39:10.001Z</time></trkpt><trkpt lat="43.85773802661718" lon="11.977115429216035"><ele>466.0</ele><time>2026-04-05T07:39:11.001Z</time></trkpt><trkpt lat="43.85767401903825" lon="11.977099653470757"><ele>466.0</ele><time>2026-04-05T07:39:12.001Z</time></trkpt><trkpt lat="43.85760387625718" lon="11.977081481569218"><ele>466.00000000000006</ele><time>2026-04-05T07:39:13Z</time></trkpt><trkpt lat="43.85753347789183" lon="11.97706478084112"><ele>466.0</ele><time>2026-04-05T07:39:14Z</time></trkpt><trkpt lat="43.85740896248558" lon="11.977030083137251"><ele>466.00000000000006</ele><time>2026-04-05T07:39:16Z</time></trkpt><trkpt lat="43.857337753534225" lon="11.977014079589962"><ele>466.0</ele><time>2026-04-05T07:39:17Z</time></trkpt><trkpt lat="43.85725716458633" lon="11.97699162128783"><ele>466.0</ele><time>2026-04-05T07:39:18Z</time></trkpt><trkpt lat="43.85716647083054" lon="11.976967129046898"><ele>466.0</ele><time>2026-04-05T07:39:19Z</time></trkpt><trkpt lat="43.85706646529969" lon="11.97694239391308"><ele>466.00000000000006</ele><time>2026-04-05T07:39:20Z</time></trkpt><trkpt lat="43.85697204532041" lon="11.97692050257356"><ele>466.0</ele><time>2026-04-05T07:39:21Z</time></trkpt><trkpt lat="43.85688729599078" lon="11.976894721174645"><ele>466.00000000000006</ele><time>2026-04-05T07:39:22Z</time></trkpt><trkpt lat="43.856809646954034" lon="11.976875391774042"><ele>466.0</ele><time>2026-04-05T07:39:23Z</time></trkpt><trkpt lat="43.85674241790849" lon="11.976838437546098"><ele>466.0</ele><time>2026-04-05T07:39:24Z</time></trkpt><trkpt lat="43.8566781971443" lon="11.976821903232773"><ele>466.0</ele><time>2026-04-05T07:39:25Z</time></trkpt><trkpt lat="43.85656006574549" lon="11.976791489024341"><ele>466.00000000000006</ele><time>2026-04-05T07:39:27Z</time></trkpt><trkpt lat="43.85649347975511" lon="11.976774379063825"><ele>466.0</ele><time>2026-04-05T07:39:28Z</time></trkpt><trkpt lat="43.85642554387377" lon="11.976779923062429"><ele>466.20000000000005</ele><time>2026-04-05T07:39:29Z</time></trkpt><trkpt lat="43.8563657742169" lon="11.97674226867083"><ele>466.40000000000003</ele><time>2026-04-05T07:39:30Z</time></trkpt><trkpt lat="43.85625706597821" lon="11.976714934951259"><ele>466.6</ele><time>2026-04-05T07:39:32Z</time></trkpt><trkpt lat="43.856168976792716" lon="11.976714643145751"><ele>466.8</ele><time>2026-04-05T07:39:33Z</time></trkpt><trkpt lat="43.85605963660905" lon="11.97668623117228"><ele>467.0</ele><time>2026-04-05T07:39:34Z</time></trkpt><trkpt lat="43.85595225460001" lon="11.976654779054625"><ele>467.0</ele><time>2026-04-05T07:39:35Z</time></trkpt><trkpt lat="43.85583153848387" lon="11.976624040278528"><ele>467.0</ele><time>2026-04-05T07:39:36Z</time></trkpt><trkpt lat="43.85570620395832" lon="11.97658700349919"><ele>467.0</ele><time>2026-04-05T07:39:37Z</time></trkpt><trkpt lat="43.85558878216169" lon="11.976558202202888"><ele>467.0</ele><time>2026-04-05T07:39:38Z</time></trkpt><trkpt lat="43.85547777125951" lon="11.976525613774271"><ele>467.0</ele><time>2026-04-05T07:39:39Z</time></trkpt><trkpt lat="43.85537619766943" lon="11.97649670999785"><ele>467.00000000000006</ele><time>2026-04-05T07:39:40Z</time></trkpt><trkpt lat="43.855277579015244" lon="11.976470476414818"><ele>467.00000000000006</ele><time>2026-04-05T07:39:41Z</time></trkpt><trkpt lat="43.85518976206152" lon="11.97644648978834"><ele>467.0</ele><time>2026-04-05T07:39:42Z</time></trkpt><trkpt lat="43.85510400252181" lon="11.97642726628378"><ele>467.0</ele><time>2026-04-05T07:39:43Z</time></trkpt><trkpt lat="43.85501365716192" lon="11.976408642213618"><ele>466.8</ele><time>2026-04-05T07:39:44Z</time></trkpt><trkpt lat="43.854914305952924" lon="11.976382917029174"><ele>466.6</ele><time>2026-04-05T07:39:45Z</time></trkpt><trkpt lat="43.85481280212724" lon="11.976348712101547"><ele>466.40000000000003</ele><time>2026-04-05T07:39:46Z</time></trkpt><trkpt lat="43.854700618239136" lon="11.976327763791403"><ele>466.20000000000005</ele><time>2026-04-05T07:39:47Z</time></trkpt><trkpt lat="43.85458536965402" lon="11.976293019479112"><ele>466.0</ele><time>2026-04-05T07:39:48Z</time></trkpt><trkpt lat="43.85447309718274" lon="11.976263650319227"><ele>466.00000000000006</ele><time>2026-04-05T07:39:49Z</time></trkpt><trkpt lat="43.85437498884207" lon="11.97623494713892"><ele>466.0</ele><time>2026-04-05T07:39:50Z</time></trkpt><trkpt lat="43.854288061368884" lon="11.97621231278246"><ele>466.0</ele><time>2026-04-05T07:39:51Z</time></trkpt><trkpt lat="43.85421017236856" lon="11.97619182771296"><ele>466.0</ele><time>2026-04-05T07:39:52Z</time></trkpt><trkpt lat="43.85413850684023" lon="11.976173974797407"><ele>466.00000000000006</ele><time>2026-04-05T07:39:53Z</time></trkpt><trkpt lat="43.854072874033015" lon="11.976160678222007"><ele>466.0</ele><time>2026-04-05T07:39:54Z</time></trkpt><trkpt lat="43.85400710045011" lon="11.976146791726007"><ele>465.4</ele><time>2026-04-05T07:39:55Z</time></trkpt><trkpt lat="43.85393499239622" lon="11.976129021443763"><ele>464.8</ele><time>2026-04-05T07:39:56Z</time></trkpt><trkpt lat="43.8538495812503" lon="11.976108497286484"><ele>464.19999999999993</ele><time>2026-04-05T07:39:57Z</time></trkpt><trkpt lat="43.85375179012982" lon="11.976079993470565"><ele>463.59999999999997</ele><time>2026-04-05T07:39:58Z</time></trkpt><trkpt lat="43.85364707568712" lon="11.976053614025558"><ele>463.0</ele><time>2026-04-05T07:39:59Z</time></trkpt><trkpt lat="43.853547962461455" lon="11.976026263125325"><ele>463.0</ele><time>2026-04-05T07:40:00Z</time></trkpt><trkpt lat="43.85344626877253" lon="11.976000751390087"><ele>462.99999999999994</ele><time>2026-04-05T07:40:01Z</time></trkpt><trkpt lat="43.8533456180383" lon="11.975945913094364"><ele>462.99999999999994</ele><time>2026-04-05T07:40:02Z</time></trkpt><trkpt lat="43.85323982342191" lon="11.975916888418938"><ele>463.0</ele><time>2026-04-05T07:40:03.001Z</time></trkpt><trkpt lat="43.853131725561006" lon="11.975887360735262"><ele>463.0</ele><time>2026-04-05T07:40:04.001Z</time></trkpt><trkpt lat="43.85301555925407" lon="11.975877080141299"><ele>463.79999999999995</ele><time>2026-04-05T07:40:05.001Z</time></trkpt><trkpt lat="43.85290043926549" lon="11.97584164485687"><ele>464.59999999999997</ele><time>2026-04-05T07:40:06.001Z</time></trkpt><trkpt lat="43.85278707359008" lon="11.975807925258128"><ele>465.40000000000003</ele><time>2026-04-05T07:40:07.001Z</time></trkpt><trkpt lat="43.852681209741036" lon="11.975775649319736"><ele>466.20000000000005</ele><time>2026-04-05T07:40:08.001Z</time></trkpt><trkpt lat="43.852584678088704" lon="11.975741258923676"><ele>467.0</ele><time>2026-04-05T07:40:09.001Z</time></trkpt><trkpt lat="43.85248996229652" lon="11.975713311898689"><ele>467.20000000000005</ele><time>2026-04-05T07:40:10.001Z</time></trkpt><trkpt lat="43.852395297085316" lon="11.975685159841964"><ele>467.40000000000003</ele><time>2026-04-05T07:40:11.001Z</time></trkpt><trkpt lat="43.852303208452724" lon="11.975658536473311"><ele>467.59999999999997</ele><time>2026-04-05T07:40:12.001Z</time></trkpt><trkpt lat="43.85220575700289" lon="11.975631558752982"><ele>467.79999999999995</ele><time>2026-04-05T07:40:13.001Z</time></trkpt><trkpt lat="43.85211291058736" lon="11.975602733374961"><ele>468.0</ele><time>2026-04-05T07:40:14.001Z</time></trkpt><trkpt lat="43.85202688652971" lon="11.975577264308034"><ele>468.0</ele><time>2026-04-05T07:40:15.001Z</time></trkpt><trkpt lat="43.85195428809483" lon="11.97555935887084"><ele>468.0</ele><time>2026-04-05T07:40:16.001Z</time></trkpt><trkpt lat="43.85188581018333" lon="11.975540213236934"><ele>468.0</ele><time>2026-04-05T07:40:24.001Z</time></trkpt><trkpt lat="43.851780983641305" lon="11.975522541894971"><ele>468.0</ele><time>2026-04-05T07:40:26.001Z</time></trkpt><trkpt lat="43.8517026581987" lon="11.97550615563643"><ele>468.0</ele><time>2026-04-05T07:40:27.001Z</time></trkpt><trkpt lat="43.85161588940119" lon="11.975484293930528"><ele>468.0</ele><time>2026-04-05T07:40:28.001Z</time></trkpt><trkpt lat="43.85152437293912" lon="11.975461201657852"><ele>467.4</ele><time>2026-04-05T07:40:29.001Z</time></trkpt><trkpt lat="43.85145372620616" lon="11.975422829351663"><ele>466.79999999999995</ele><time>2026-04-05T07:40:30.001Z</time></trkpt><trkpt lat="43.851367619521824" lon="11.975609178251279"><ele>466.2</ele><time>2026-04-05T07:40:32.001Z</time></trkpt><trkpt lat="43.8513594390531" lon="11.97572421288311"><ele>465.6</ele><time>2026-04-05T07:40:33.001Z</time></trkpt><trkpt lat="43.85135793478549" lon="11.97586473206535"><ele>465.0</ele><time>2026-04-05T07:40:34.001Z</time></trkpt><trkpt lat="43.85134674178247" lon="11.976010992279779"><ele>464.75</ele><time>2026-04-05T07:40:35.001Z</time></trkpt><trkpt lat="43.85132905189862" lon="11.976158571954421"><ele>464.5</ele><time>2026-04-05T07:40:36.001Z</time></trkpt><trkpt lat="43.85130405856404" lon="11.97632059415191"><ele>464.25</ele><time>2026-04-05T07:40:37.001Z</time></trkpt><trkpt lat="43.851278196465024" lon="11.97648714182344"><ele>464.0</ele><time>2026-04-05T07:40:38.001Z</time></trkpt><trkpt lat="43.85126236280421" lon="11.976644803990803"><ele>464.4</ele><time>2026-04-05T07:40:39.001Z</time></trkpt><trkpt lat="43.85126462232967" lon="11.976787361277282"><ele>464.79999999999995</ele><time>2026-04-05T07:40:40.001Z</time></trkpt><trkpt lat="43.85128373618258" lon="11.976932069925176"><ele>465.20000000000005</ele><time>2026-04-05T07:40:41.001Z</time></trkpt><trkpt lat="43.8513236239934" lon="11.97708478414931"><ele>465.6</ele><time>2026-04-05T07:40:42.001Z</time></trkpt><trkpt lat="43.851379372585484" lon="11.977227538246655"><ele>466.0</ele><time>2026-04-05T07:40:43.001Z</time></trkpt><trkpt lat="43.85144636434852" lon="11.97734256964902"><ele>466.0</ele><time>2026-04-05T07:40:44.001Z</time></trkpt><trkpt lat="43.85152735731243" lon="11.977437844316809"><ele>466.0</ele><time>2026-04-05T07:40:45.001Z</time></trkpt><trkpt lat="43.85163019550509" lon="11.977524349825147"><ele>466.0</ele><time>2026-04-05T07:40:46.001Z</time></trkpt><trkpt lat="43.85175799245484" lon="11.977599112389484"><ele>466.0</ele><time>2026-04-05T07:40:47.001Z</time></trkpt><trkpt lat="43.85189655062953" lon="11.977660361554411"><ele>467.6666666666667</ele><time>2026-04-05T07:40:48.001Z</time></trkpt><trkpt lat="43.852061028690414" lon="11.977712701571276"><ele>469.33333333333337</ele><time>2026-04-05T07:40:49.001Z</time></trkpt><trkpt lat="43.852235508342105" lon="11.97776801620782"><ele>471.0</ele><time>2026-04-05T07:40:50.001Z</time></trkpt><trkpt lat="43.852390311350874" lon="11.97781876562862"><ele>471.0</ele><time>2026-04-05T07:40:51.001Z</time></trkpt><trkpt lat="43.85253816225325" lon="11.977865311691406"><ele>471.0</ele><time>2026-04-05T07:40:52.001Z</time></trkpt><trkpt lat="43.85269880468534" lon="11.977918561145357"><ele>471.0</ele><time>2026-04-05T07:40:53.001Z</time></trkpt><trkpt lat="43.852866069429915" lon="11.977970404552897"><ele>469.66666666666663</ele><time>2026-04-05T07:40:54.001Z</time></trkpt><trkpt lat="43.853035003157416" lon="11.978022608239199"><ele>468.3333333333333</ele><time>2026-04-05T07:40:55.001Z</time></trkpt><trkpt lat="43.85319138628624" lon="11.978072887191372"><ele>467.0</ele><time>2026-04-05T07:40:56Z</time></trkpt><trkpt lat="43.853346135114165" lon="11.978123317462991"><ele>466.3333333333333</ele><time>2026-04-05T07:40:57Z</time></trkpt><trkpt lat="43.85350593390643" lon="11.978182561387655"><ele>465.66666666666663</ele><time>2026-04-05T07:40:58Z</time></trkpt><trkpt lat="43.85366834696687" lon="11.978242902618375"><ele>465.0</ele><time>2026-04-05T07:40:59Z</time></trkpt><trkpt lat="43.85383344508136" lon="11.978304812796571"><ele>466.66666666666663</ele><time>2026-04-05T07:41:00Z</time></trkpt><trkpt lat="43.854010863438354" lon="11.978369433050462"><ele>468.3333333333333</ele><time>2026-04-05T07:41:01Z</time></trkpt><trkpt lat="43.854194688553456" lon="11.978444853422396"><ele>470.0</ele><time>2026-04-05T07:41:02Z</time></trkpt><trkpt lat="43.85437998917978" lon="11.978518202543746"><ele>470.0</ele><time>2026-04-05T07:41:03Z</time></trkpt><trkpt lat="43.854570300814736" lon="11.978596393608528"><ele>470.0</ele><time>2026-04-05T07:41:04Z</time></trkpt><trkpt lat="43.85476435494279" lon="11.978678553676708"><ele>470.0</ele><time>2026-04-05T07:41:05Z</time></trkpt><trkpt lat="43.85495185524806" lon="11.978739125111453"><ele>469.66666666666663</ele><time>2026-04-05T07:41:06Z</time></trkpt><trkpt lat="43.85513519084029" lon="11.978781226258254"><ele>469.33333333333337</ele><time>2026-04-05T07:41:07Z</time></trkpt><trkpt lat="43.85532998548419" lon="11.978818027240758"><ele>469.0</ele><time>2026-04-05T07:41:08Z</time></trkpt><trkpt lat="43.85553184868201" lon="11.978854489804371"><ele>469.0</ele><time>2026-04-05T07:41:09Z</time></trkpt><trkpt lat="43.85573786352151" lon="11.978895028036174"><ele>469.0</ele><time>2026-04-05T07:41:10Z</time></trkpt><trkpt lat="43.85594888119623" lon="11.978930248794216"><ele>469.0</ele><time>2026-04-05T07:41:11Z</time></trkpt><trkpt lat="43.85615023620579" lon="11.978961441880069"><ele>467.6666666666667</ele><time>2026-04-05T07:41:12Z</time></trkpt><trkpt lat="43.85634223995077" lon="11.978992307897999"><ele>466.33333333333337</ele><time>2026-04-05T07:41:13Z</time></trkpt><trkpt lat="43.85652752058216" lon="11.979025273521248"><ele>465.0</ele><time>2026-04-05T07:41:14Z</time></trkpt><trkpt lat="43.856695910234556" lon="11.979071384349162"><ele>465.0</ele><time>2026-04-05T07:41:15Z</time></trkpt><trkpt lat="43.85684420091186" lon="11.97913895017936"><ele>465.0</ele><time>2026-04-05T07:41:16Z</time></trkpt><trkpt lat="43.85698235057007" lon="11.979246298895625"><ele>465.0</ele><time>2026-04-05T07:41:17Z</time></trkpt><trkpt lat="43.857118830648126" lon="11.979395705580268"><ele>467.33333333333337</ele><time>2026-04-05T07:41:18Z</time></trkpt><trkpt lat="43.85724994584942" lon="11.979547427058447"><ele>469.6666666666667</ele><time>2026-04-05T07:41:19Z</time></trkpt><trkpt lat="43.85739671463497" lon="11.979625281406552"><ele>472.0</ele><time>2026-04-05T07:41:20Z</time></trkpt><trkpt lat="43.85758214927933" lon="11.979672229297968"><ele>470.25</ele><time>2026-04-05T07:41:21Z</time></trkpt><trkpt lat="43.85775928302468" lon="11.979697008258363"><ele>468.5</ele><time>2026-04-05T07:41:22Z</time></trkpt><trkpt lat="43.85790463993566" lon="11.979725626298318"><ele>466.75</ele><time>2026-04-05T07:41:23Z</time></trkpt><trkpt lat="43.85801456006338" lon="11.979779778941237"><ele>465.0</ele><time>2026-04-05T07:41:24Z</time></trkpt><trkpt lat="43.858053725989095" lon="11.97993437240063"><ele>465.75</ele><time>2026-04-05T07:41:25Z</time></trkpt><trkpt lat="43.85808266845614" lon="11.980063785062796"><ele>466.5</ele><time>2026-04-05T07:41:26Z</time></trkpt><trkpt lat="43.85800630606965" lon="11.9802223097704"><ele>467.25</ele><time>2026-04-05T07:41:27Z</time></trkpt><trkpt lat="43.8579699073892" lon="11.980463620360753"><ele>468.0</ele><time>2026-04-05T07:41:28Z</time></trkpt><trkpt lat="43.85796769230528" lon="11.980730783163468"><ele>474.0</ele><time>2026-04-05T07:41:29Z</time></trkpt><trkpt lat="43.85803362882682" lon="11.981001758460856"><ele>480.0</ele><time>2026-04-05T07:41:30Z</time></trkpt><trkpt lat="43.85812272316682" lon="11.981299755085937"><ele>486.0</ele><time>2026-04-05T07:41:31Z</time></trkpt><trkpt lat="43.8582120768508" lon="11.98159868590924"><ele>484.66666666666663</ele><time>2026-04-05T07:41:32Z</time></trkpt><trkpt lat="43.858285076585965" lon="11.981857292608135"><ele>483.3333333333333</ele><time>2026-04-05T07:41:33Z</time></trkpt><trkpt lat="43.85844792644586" lon="11.982024756643291"><ele>482.0</ele><time>2026-04-05T07:41:34Z</time></trkpt><trkpt lat="43.85861088285938" lon="11.982192457833834"><ele>482.0</ele><time>2026-04-05T07:41:35Z</time></trkpt><trkpt lat="43.85880668783981" lon="11.982392308442266"><ele>482.0</ele><time>2026-04-05T07:41:36Z</time></trkpt><trkpt lat="43.85903735398055" lon="11.982674288637487"><ele>484.0</ele><time>2026-04-05T07:41:37Z</time></trkpt><trkpt lat="43.85924170808471" lon="11.982980116845647"><ele>486.0</ele><time>2026-04-05T07:41:38Z</time></trkpt><trkpt lat="43.85947217101756" lon="11.98332122990573"><ele>492.0</ele><time>2026-04-05T07:41:39Z</time></trkpt><trkpt lat="43.85968623324284" lon="11.98364620331956"><ele>498.0</ele><time>2026-04-05T07:41:40Z</time></trkpt><trkpt lat="43.859851483167446" lon="11.98395066316816"><ele>505.0</ele><time>2026-04-05T07:41:41Z</time></trkpt><trkpt lat="43.859985212855015" lon="11.984268915006954"><ele>512.0</ele><time>2026-04-05T07:41:42Z</time></trkpt><trkpt lat="43.86010782666165" lon="11.984585202406741"><ele>506.5</ele><time>2026-04-05T07:41:43Z</time></trkpt><trkpt lat="43.860214659485415" lon="11.984891060913181"><ele>501.0</ele><time>2026-04-05T07:41:44Z</time></trkpt><trkpt lat="43.8602818591984" lon="11.985185871946948"><ele>501.0</ele><time>2026-04-05T07:41:45Z</time></trkpt><trkpt lat="43.860316085424806" lon="11.985469477479096"><ele>501.0</ele><time>2026-04-05T07:41:46Z</time></trkpt><trkpt lat="43.860323061943696" lon="11.985789284951629"><ele>501.0</ele><time>2026-04-05T07:41:47Z</time></trkpt><trkpt lat="43.86032667415004" lon="11.986126452960129"><ele>503.66666666666663</ele><time>2026-04-05T07:41:48Z</time></trkpt><trkpt lat="43.8603311575806" lon="11.986430755814233"><ele>506.3333333333333</ele><time>2026-04-05T07:41:49Z</time></trkpt><trkpt lat="43.86036660361835" lon="11.98670763627156"><ele>509.0</ele><time>2026-04-05T07:41:50Z</time></trkpt><trkpt lat="43.86044043779257" lon="11.986933881408882"><ele>510.66666666666663</ele><time>2026-04-05T07:41:51Z</time></trkpt><trkpt lat="43.86058623019413" lon="11.987115156907402"><ele>512.3333333333334</ele><time>2026-04-05T07:41:52Z</time></trkpt><trkpt lat="43.86076711433536" lon="11.987305838688348"><ele>514.0</ele><time>2026-04-05T07:41:53Z</time></trkpt><trkpt lat="43.86094910901218" lon="11.987512399970669"><ele>516.0</ele><time>2026-04-05T07:41:54Z</time></trkpt><trkpt lat="43.861115691194136" lon="11.987699526426285"><ele>518.0</ele><time>2026-04-05T07:41:55Z</time></trkpt><trkpt lat="43.861265909028816" lon="11.987871471656666"><ele>520.0</ele><time>2026-04-05T07:41:56Z</time></trkpt><trkpt lat="43.8614058737145" lon="11.988038941554658"><ele>520.0</ele><time>2026-04-05T07:41:57Z</time></trkpt><trkpt lat="43.86154572281671" lon="11.988203845343044"><ele>520.0</ele><time>2026-04-05T07:41:58Z</time></trkpt><trkpt lat="43.86169846305579" lon="11.988375874971032"><ele>520.0</ele><time>2026-04-05T07:41:59Z</time></trkpt><trkpt lat="43.86185547193223" lon="11.988552481473956"><ele>520.0</ele><time>2026-04-05T07:42:00Z</time></trkpt><trkpt lat="43.86201542290703" lon="11.988734420814952"><ele>520.0</ele><time>2026-04-05T07:42:01Z</time></trkpt><trkpt lat="43.86217608616512" lon="11.98890166383372"><ele>520.0</ele><time>2026-04-05T07:42:02Z</time></trkpt><trkpt lat="43.86231382906887" lon="11.989061868480777"><ele>521.0</ele><time>2026-04-05T07:42:03Z</time></trkpt><trkpt lat="43.862432130568244" lon="11.989240714571478"><ele>522.0</ele><time>2026-04-05T07:42:04Z</time></trkpt><trkpt lat="43.8625209515056" lon="11.989431837406691"><ele>523.0</ele><time>2026-04-05T07:42:05Z</time></trkpt><trkpt lat="43.86254705694534" lon="11.989643156980659"><ele>523.0</ele><time>2026-04-05T07:42:06Z</time></trkpt><trkpt lat="43.86253861466403" lon="11.98986622719974"><ele>523.0</ele><time>2026-04-05T07:42:07Z</time></trkpt><trkpt lat="43.86247249705157" lon="11.990101981744834"><ele>523.0</ele><time>2026-04-05T07:42:08Z</time></trkpt><trkpt lat="43.86237086106767" lon="11.990312910305896"><ele>524.0</ele><time>2026-04-05T07:42:09.001Z</time></trkpt><trkpt lat="43.86226290684859" lon="11.99050996816378"><ele>525.0</ele><time>2026-04-05T07:42:10.001Z</time></trkpt><trkpt lat="43.86215422510237" lon="11.990704024223346"><ele>526.0</ele><time>2026-04-05T07:42:11.001Z</time></trkpt><trkpt lat="43.862045367221484" lon="11.990896477505984"><ele>526.3333333333334</ele><time>2026-04-05T07:42:12.001Z</time></trkpt><trkpt lat="43.861939310187154" lon="11.991083939420447"><ele>526.6666666666666</ele><time>2026-04-05T07:42:13.001Z</time></trkpt><trkpt lat="43.86183241833768" lon="11.99127060558857"><ele>527.0</ele><time>2026-04-05T07:42:14.001Z</time></trkpt><trkpt lat="43.861724280657185" lon="11.991455523402834"><ele>529.3333333333333</ele><time>2026-04-05T07:42:15.001Z</time></trkpt><trkpt lat="43.8616168701226" lon="11.991644275093824"><ele>531.6666666666666</ele><time>2026-04-05T07:42:16.001Z</time></trkpt><trkpt lat="43.86151560036863" lon="11.991823578572685"><ele>534.0</ele><time>2026-04-05T07:42:17.001Z</time></trkpt><trkpt lat="43.861427285417726" lon="11.991983002714296"><ele>535.0</ele><time>2026-04-05T07:42:18.001Z</time></trkpt><trkpt lat="43.86134450841388" lon="11.992133937645592"><ele>536.0</ele><time>2026-04-05T07:42:19.001Z</time></trkpt><trkpt lat="43.86126018447991" lon="11.992284305232777"><ele>537.0</ele><time>2026-04-05T07:42:20.001Z</time></trkpt><trkpt lat="43.86117283066031" lon="11.992439430777473"><ele>538.0</ele><time>2026-04-05T07:42:21.001Z</time></trkpt><trkpt lat="43.861084665394166" lon="11.992595602054045"><ele>539.5</ele><time>2026-04-05T07:42:22.001Z</time></trkpt><trkpt lat="43.860996612137114" lon="11.992755956478733"><ele>541.0</ele><time>2026-04-05T07:42:23.001Z</time></trkpt><trkpt lat="43.86090808047813" lon="11.992915760873784"><ele>542.5</ele><time>2026-04-05T07:42:24.001Z</time></trkpt><trkpt lat="43.860817453125286" lon="11.993079784115775"><ele>544.0</ele><time>2026-04-05T07:42:25.001Z</time></trkpt><trkpt lat="43.86072187259371" lon="11.993242678966151"><ele>546.25</ele><time>2026-04-05T07:42:26.001Z</time></trkpt><trkpt lat="43.86063781653582" lon="11.993387419521886"><ele>548.5</ele><time>2026-04-05T07:42:27.001Z</time></trkpt><trkpt lat="43.86056175447847" lon="11.99352923026613"><ele>550.75</ele><time>2026-04-05T07:42:28.001Z</time></trkpt><trkpt lat="43.86048176039042" lon="11.993671073926674"><ele>553.0</ele><time>2026-04-05T07:42:29.001Z</time></trkpt><trkpt lat="43.86040116296559" lon="11.993812897408183"><ele>553.0</ele><time>2026-04-05T07:42:30.001Z</time></trkpt><trkpt lat="43.860322369817816" lon="11.99395275648768"><ele>553.0</ele><time>2026-04-05T07:42:31.001Z</time></trkpt><trkpt lat="43.86024499236948" lon="11.994085030444987"><ele>553.0</ele><time>2026-04-05T07:42:32.001Z</time></trkpt><trkpt lat="43.86017783678474" lon="11.994204487519799"><ele>553.0</ele><time>2026-04-05T07:42:33.001Z</time></trkpt><trkpt lat="43.86011171386895" lon="11.994322787233502"><ele>553.0</ele><time>2026-04-05T07:42:34Z</time></trkpt><trkpt lat="43.860040036219296" lon="11.99444571742169"><ele>553.0</ele><time>2026-04-05T07:42:35Z</time></trkpt><trkpt lat="43.859960543669295" lon="11.994563273322077"><ele>553.0</ele><time>2026-04-05T07:42:36Z</time></trkpt><trkpt lat="43.859873155209236" lon="11.994676803882463"><ele>553.0</ele><time>2026-04-05T07:42:37Z</time></trkpt><trkpt lat="43.859779159613026" lon="11.994783489176674"><ele>553.0</ele><time>2026-04-05T07:42:38Z</time></trkpt><trkpt lat="43.85967814615117" lon="11.994883404237349"><ele>553.0</ele><time>2026-04-05T07:42:39Z</time></trkpt><trkpt lat="43.859573114396525" lon="11.99497342959799"><ele>553.0</ele><time>2026-04-05T07:42:40Z</time></trkpt><trkpt lat="43.85946289073027" lon="11.995052433851216"><ele>553.0</ele><time>2026-04-05T07:42:41Z</time></trkpt><trkpt lat="43.8593489075829" lon="11.995123787014663"><ele>554.75</ele><time>2026-04-05T07:42:42Z</time></trkpt><trkpt lat="43.85923057144976" lon="11.995186782229759"><ele>556.5</ele><time>2026-04-05T07:42:43Z</time></trkpt><trkpt lat="43.859106830484" lon="11.995245416665513"><ele>558.25</ele><time>2026-04-05T07:42:44Z</time></trkpt><trkpt lat="43.85898188340412" lon="11.995300978472406"><ele>560.0</ele><time>2026-04-05T07:42:45Z</time></trkpt><trkpt lat="43.85885510131087" lon="11.995355237761633"><ele>560.0</ele><time>2026-04-05T07:42:46Z</time></trkpt><trkpt lat="43.858724374468736" lon="11.995406669035475"><ele>560.0</ele><time>2026-04-05T07:42:47Z</time></trkpt><trkpt lat="43.858591084808744" lon="11.995465081288492"><ele>560.0</ele><time>2026-04-05T07:42:48Z</time></trkpt><trkpt lat="43.85846228641453" lon="11.995519586671573"><ele>560.0</ele><time>2026-04-05T07:42:49Z</time></trkpt><trkpt lat="43.85833166615367" lon="11.99557383762241"><ele>562.5</ele><time>2026-04-05T07:42:50Z</time></trkpt><trkpt lat="43.858199852719984" lon="11.995629129556974"><ele>565.0</ele><time>2026-04-05T07:42:51Z</time></trkpt><trkpt lat="43.85806530860771" lon="11.995683701822115"><ele>567.5</ele><time>2026-04-05T07:42:52Z</time></trkpt><trkpt lat="43.85792732565613" lon="11.995740444864081"><ele>570.0</ele><time>2026-04-05T07:42:53Z</time></trkpt><trkpt lat="43.85778706937911" lon="11.995796427351799"><ele>569.0</ele><time>2026-04-05T07:42:54Z</time></trkpt><trkpt lat="43.8576438478054" lon="11.995853396780044"><ele>568.0</ele><time>2026-04-05T07:42:55Z</time></trkpt><trkpt lat="43.857501612085194" lon="11.995912267903558"><ele>567.0</ele><time>2026-04-05T07:42:56Z</time></trkpt><trkpt lat="43.857367903916554" lon="11.99596897007064"><ele>566.0</ele><time>2026-04-05T07:42:57Z</time></trkpt><trkpt lat="43.85723509450125" lon="11.996027395225841"><ele>569.0</ele><time>2026-04-05T07:42:58Z</time></trkpt><trkpt lat="43.85709991106761" lon="11.996087897557135"><ele>572.0</ele><time>2026-04-05T07:42:59Z</time></trkpt><trkpt lat="43.856968816726436" lon="11.996148582364443"><ele>575.0</ele><time>2026-04-05T07:43:00Z</time></trkpt><trkpt lat="43.85684341354697" lon="11.996221370939672"><ele>578.0</ele><time>2026-04-05T07:43:01Z</time></trkpt><trkpt lat="43.85672597504554" lon="11.996318516971314"><ele>579.25</ele><time>2026-04-05T07:43:02Z</time></trkpt><trkpt lat="43.856618847631715" lon="11.996438861140643"><ele>580.5</ele><time>2026-04-05T07:43:03Z</time></trkpt><trkpt lat="43.85652914375958" lon="11.996588451244163"><ele>581.75</ele><time>2026-04-05T07:43:04Z</time></trkpt><trkpt lat="43.85645031452144" lon="11.996747238418001"><ele>583.0</ele><time>2026-04-05T07:43:05Z</time></trkpt><trkpt lat="43.85637583142416" lon="11.9969137164081"><ele>583.75</ele><time>2026-04-05T07:43:06Z</time></trkpt><trkpt lat="43.856304158793584" lon="11.9970864662217"><ele>584.5</ele><time>2026-04-05T07:43:07Z</time></trkpt><trkpt lat="43.85623660528742" lon="11.997254961078177"><ele>585.25</ele><time>2026-04-05T07:43:08Z</time></trkpt><trkpt lat="43.85616915585615" lon="11.997419642196668"><ele>586.0</ele><time>2026-04-05T07:43:09Z</time></trkpt><trkpt lat="43.85610381407932" lon="11.997581909415294"><ele>586.5</ele><time>2026-04-05T07:43:10Z</time></trkpt><trkpt lat="43.85603866116038" lon="11.997741099393535"><ele>587.0</ele><time>2026-04-05T07:43:11Z</time></trkpt><trkpt lat="43.85597347795126" lon="11.997897738375105"><ele>587.5</ele><time>2026-04-05T07:43:12Z</time></trkpt><trkpt lat="43.855912133804445" lon="11.99805131728571"><ele>588.0</ele><time>2026-04-05T07:43:13Z</time></trkpt><trkpt lat="43.85586010227913" lon="11.998192450894063"><ele>591.25</ele><time>2026-04-05T07:43:14Z</time></trkpt><trkpt lat="43.85582237698652" lon="11.998337401618578"><ele>594.5</ele><time>2026-04-05T07:43:15Z</time></trkpt><trkpt lat="43.855800426567896" lon="11.998487287845451"><ele>597.75</ele><time>2026-04-05T07:43:16Z</time></trkpt><trkpt lat="43.8557903526976" lon="11.998647302126955"><ele>601.0</ele><time>2026-04-05T07:43:17Z</time></trkpt><trkpt lat="43.85580059993727" lon="11.998815705662857"><ele>601.0</ele><time>2026-04-05T07:43:18Z</time></trkpt><trkpt lat="43.8558403988266" lon="11.998980187047302"><ele>601.0</ele><time>2026-04-05T07:43:19Z</time></trkpt><trkpt lat="43.85590211855169" lon="11.999137363420509"><ele>601.0</ele><time>2026-04-05T07:43:20Z</time></trkpt><trkpt lat="43.85597478835663" lon="11.999293020026622"><ele>601.0</ele><time>2026-04-05T07:43:21Z</time></trkpt><trkpt lat="43.85605195686036" lon="11.999447421038681"><ele>600.75</ele><time>2026-04-05T07:43:22Z</time></trkpt><trkpt lat="43.8561279085658" lon="11.999605718296143"><ele>600.5</ele><time>2026-04-05T07:43:23Z</time></trkpt><trkpt lat="43.85620549756546" lon="11.999764832468982"><ele>600.25</ele><time>2026-04-05T07:43:24Z</time></trkpt><trkpt lat="43.8562823556338" lon="11.999926710808362"><ele>600.0</ele><time>2026-04-05T07:43:25Z</time></trkpt><trkpt lat="43.85635617618637" lon="12.000086473451274"><ele>600.0</ele><time>2026-04-05T07:43:26Z</time></trkpt><trkpt lat="43.85643207855211" lon="12.000247317222248"><ele>600.0</ele><time>2026-04-05T07:43:27Z</time></trkpt><trkpt lat="43.856503678669384" lon="12.000399440702875"><ele>600.0</ele><time>2026-04-05T07:43:28Z</time></trkpt><trkpt lat="43.856575089258435" lon="12.000549485194473"><ele>600.0</ele><time>2026-04-05T07:43:29Z</time></trkpt><trkpt lat="43.856644660582866" lon="12.000699129720438"><ele>600.25</ele><time>2026-04-05T07:43:30Z</time></trkpt><trkpt lat="43.85671521891519" lon="12.000846591082313"><ele>600.5</ele><time>2026-04-05T07:43:31Z</time></trkpt><trkpt lat="43.856788146372224" lon="12.00098750320558"><ele>600.75</ele><time>2026-04-05T07:43:32Z</time></trkpt><trkpt lat="43.856865450385925" lon="12.001126196345572"><ele>601.0</ele><time>2026-04-05T07:43:33Z</time></trkpt><trkpt lat="43.85694623788996" lon="12.001259727252366"><ele>601.0</ele><time>2026-04-05T07:43:34Z</time></trkpt><trkpt lat="43.857019993195564" lon="12.00137657980181"><ele>601.0</ele><time>2026-04-05T07:43:35Z</time></trkpt><trkpt lat="43.857087614939395" lon="12.001486227261758"><ele>601.0</ele><time>2026-04-05T07:43:36Z</time></trkpt><trkpt lat="43.85714687827278" lon="12.001580653601131"><ele>601.0</ele><time>2026-04-05T07:43:37Z</time></trkpt><trkpt lat="43.85719647912686" lon="12.00166013689985"><ele>601.0</ele><time>2026-04-05T07:43:38Z</time></trkpt><trkpt lat="43.85724129309252" lon="12.001734551672879"><ele>602.2</ele><time>2026-04-05T07:43:39Z</time></trkpt><trkpt lat="43.85728532629176" lon="12.001809154107816"><ele>603.4000000000001</ele><time>2026-04-05T07:43:40Z</time></trkpt><trkpt lat="43.85733391881164" lon="12.00189411319966"><ele>604.6</ele><time>2026-04-05T07:43:41Z</time></trkpt><trkpt lat="43.85738910049803" lon="12.001997201002787"><ele>605.8000000000001</ele><time>2026-04-05T07:43:42Z</time></trkpt><trkpt lat="43.857452512751806" lon="12.002118429501547"><ele>607.0</ele><time>2026-04-05T07:43:43Z</time></trkpt><trkpt lat="43.85752082002752" lon="12.002256052204014"><ele>607.0</ele><time>2026-04-05T07:43:44Z</time></trkpt><trkpt lat="43.85758432606373" lon="12.002402343230193"><ele>607.0</ele><time>2026-04-05T07:43:45Z</time></trkpt><trkpt lat="43.85764896049937" lon="12.002569917267625"><ele>607.0</ele><time>2026-04-05T07:43:46Z</time></trkpt><trkpt lat="43.857715730864534" lon="12.002751795635756"><ele>607.0</ele><time>2026-04-05T07:43:47Z</time></trkpt><trkpt lat="43.85778031197409" lon="12.002937596587405"><ele>607.25</ele><time>2026-04-05T07:43:48Z</time></trkpt><trkpt lat="43.857839371878434" lon="12.003113111439735"><ele>607.5</ele><time>2026-04-05T07:43:49Z</time></trkpt><trkpt lat="43.85789561879975" lon="12.003280582137076"><ele>607.75</ele><time>2026-04-05T07:43:50Z</time></trkpt><trkpt lat="43.857949350499204" lon="12.00343044483091"><ele>608.0</ele><time>2026-04-05T07:43:51Z</time></trkpt><trkpt lat="43.85801374859256" lon="12.003567704016511"><ele>608.0</ele><time>2026-04-05T07:43:52Z</time></trkpt><trkpt lat="43.85809984632808" lon="12.003693094024598"><ele>608.0</ele><time>2026-04-05T07:43:53Z</time></trkpt><trkpt lat="43.85821724875355" lon="12.003793897067139"><ele>608.0</ele><time>2026-04-05T07:43:54Z</time></trkpt><trkpt lat="43.85834925279801" lon="12.003873606121505"><ele>608.0</ele><time>2026-04-05T07:43:55Z</time></trkpt><trkpt lat="43.858516939586565" lon="12.00396029410145"><ele>606.6666666666666</ele><time>2026-04-05T07:43:56Z</time></trkpt><trkpt lat="43.858708987261366" lon="12.004095801223821"><ele>605.3333333333334</ele><time>2026-04-05T07:43:57Z</time></trkpt><trkpt lat="43.85890604227716" lon="12.004214047053368"><ele>604.0</ele><time>2026-04-05T07:43:58Z</time></trkpt><trkpt lat="43.85906003532172" lon="12.004305010352219"><ele>606.25</ele><time>2026-04-05T07:43:59Z</time></trkpt><trkpt lat="43.85919955949606" lon="12.004357574195739"><ele>608.5</ele><time>2026-04-05T07:44:00Z</time></trkpt><trkpt lat="43.85933246426178" lon="12.004436129381402"><ele>610.75</ele><time>2026-04-05T07:44:01Z</time></trkpt><trkpt lat="43.85947615177256" lon="12.004501890459194"><ele>613.0</ele><time>2026-04-05T07:44:02Z</time></trkpt><trkpt lat="43.85960215469912" lon="12.004569606386035"><ele>613.0</ele><time>2026-04-05T07:44:03Z</time></trkpt><trkpt lat="43.85970706433729" lon="12.00465763223396"><ele>613.0</ele><time>2026-04-05T07:44:04Z</time></trkpt><trkpt lat="43.85978065704386" lon="12.004767236852846"><ele>613.0</ele><time>2026-04-05T07:44:05Z</time></trkpt><trkpt lat="43.85981783832396" lon="12.00494067731784"><ele>613.0</ele><time>2026-04-05T07:44:06Z</time></trkpt><trkpt lat="43.85984515451513" lon="12.00516123812429"><ele>617.0</ele><time>2026-04-05T07:44:07Z</time></trkpt><trkpt lat="43.859886192732596" lon="12.005440928627376"><ele>621.0</ele><time>2026-04-05T07:44:08Z</time></trkpt><trkpt lat="43.85993684222342" lon="12.005757367961376"><ele>625.0</ele><time>2026-04-05T07:44:09Z</time></trkpt><trkpt lat="43.86001268124988" lon="12.006084447668828"><ele>628.5</ele><time>2026-04-05T07:44:10Z</time></trkpt><trkpt lat="43.86009931473509" lon="12.006401451452296"><ele>632.0</ele><time>2026-04-05T07:44:11Z</time></trkpt><trkpt lat="43.86018142292791" lon="12.006664730674611"><ele>632.0</ele><time>2026-04-05T07:44:12Z</time></trkpt><trkpt lat="43.86027759074722" lon="12.006857736784353"><ele>632.0</ele><time>2026-04-05T07:44:13Z</time></trkpt><trkpt lat="43.860416989128595" lon="12.006970764137508"><ele>632.0</ele><time>2026-04-05T07:44:14Z</time></trkpt><trkpt lat="43.86055979830273" lon="12.007089100967235"><ele>632.0</ele><time>2026-04-05T07:44:15Z</time></trkpt><trkpt lat="43.86074197301124" lon="12.007212002536708"><ele>632.0</ele><time>2026-04-05T07:44:16Z</time></trkpt><trkpt lat="43.86090852169731" lon="12.007340863104899"><ele>632.0</ele><time>2026-04-05T07:44:17Z</time></trkpt><trkpt lat="43.86104000855947" lon="12.007533836209978"><ele>631.3333333333333</ele><time>2026-04-05T07:44:18Z</time></trkpt><trkpt lat="43.86117373656236" lon="12.007733844739032"><ele>630.6666666666666</ele><time>2026-04-05T07:44:19Z</time></trkpt><trkpt lat="43.86127650393478" lon="12.007912473956733"><ele>630.0</ele><time>2026-04-05T07:44:20Z</time></trkpt><trkpt lat="43.86131505385008" lon="12.008057819125023"><ele>630.0</ele><time>2026-04-05T07:44:21Z</time></trkpt><trkpt lat="43.86131199889522" lon="12.008188857152865"><ele>630.0</ele><time>2026-04-05T07:44:22Z</time></trkpt><trkpt lat="43.86123191943045" lon="12.008226904616967"><ele>630.0</ele><time>2026-04-05T07:44:23Z</time></trkpt><trkpt lat="43.86115910498552" lon="12.008381897022844"><ele>630.0</ele><time>2026-04-05T07:44:24Z</time></trkpt><trkpt lat="43.86109187346521" lon="12.008602676956222"><ele>632.6666666666666</ele><time>2026-04-05T07:44:25Z</time></trkpt><trkpt lat="43.86108161807619" lon="12.008851415994082"><ele>635.3333333333333</ele><time>2026-04-05T07:44:26Z</time></trkpt><trkpt lat="43.8611494965576" lon="12.009084788585799"><ele>638.0</ele><time>2026-04-05T07:44:27Z</time></trkpt><trkpt lat="43.86121844172871" lon="12.009333867424083"><ele>638.0</ele><time>2026-04-05T07:44:28Z</time></trkpt><trkpt lat="43.861291286380066" lon="12.009603690069174"><ele>638.0</ele><time>2026-04-05T07:44:29Z</time></trkpt><trkpt lat="43.86135842555678" lon="12.009867211858397"><ele>638.0</ele><time>2026-04-05T07:44:30Z</time></trkpt><trkpt lat="43.86137798149794" lon="12.010074036435176"><ele>639.75</ele><time>2026-04-05T07:44:31Z</time></trkpt><trkpt lat="43.86135822099682" lon="12.010253221833464"><ele>641.5</ele><time>2026-04-05T07:44:32Z</time></trkpt><trkpt lat="43.861302061110145" lon="12.010384034615326"><ele>643.25</ele><time>2026-04-05T07:44:33Z</time></trkpt><trkpt lat="43.861207599229814" lon="12.010513437242814"><ele>645.0</ele><time>2026-04-05T07:44:34Z</time></trkpt><trkpt lat="43.86106298737146" lon="12.010657571644035"><ele>651.3333333333334</ele><time>2026-04-05T07:44:35Z</time></trkpt><trkpt lat="43.86090497048608" lon="12.010830189540494"><ele>657.6666666666667</ele><time>2026-04-05T07:44:36Z</time></trkpt><trkpt lat="43.86075358257383" lon="12.010965507036804"><ele>664.0</ele><time>2026-04-05T07:44:37Z</time></trkpt><trkpt lat="43.860648336572496" lon="12.011125839444754"><ele>664.0</ele><time>2026-04-05T07:44:38Z</time></trkpt><trkpt lat="43.86063870887945" lon="12.011338926944248"><ele>664.0</ele><time>2026-04-05T07:44:39Z</time></trkpt><trkpt lat="43.86064228353623" lon="12.011577654429125"><ele>664.0</ele><time>2026-04-05T07:44:40Z</time></trkpt><trkpt lat="43.860591989104485" lon="12.011788769869485"><ele>663.6666666666667</ele><time>2026-04-05T07:44:41Z</time></trkpt><trkpt lat="43.86050679397091" lon="12.011959669401714"><ele>663.3333333333334</ele><time>2026-04-05T07:44:42Z</time></trkpt><trkpt lat="43.86039255420455" lon="12.01214363006564"><ele>663.0</ele><time>2026-04-05T07:44:43Z</time></trkpt><trkpt lat="43.86027339722718" lon="12.012359100134296"><ele>662.0</ele><time>2026-04-05T07:44:44Z</time></trkpt><trkpt lat="43.86011997816209" lon="12.0125753623818"><ele>661.0</ele><time>2026-04-05T07:44:45Z</time></trkpt><trkpt lat="43.85997475618694" lon="12.012802584463119"><ele>660.0</ele><time>2026-04-05T07:44:46Z</time></trkpt><trkpt lat="43.85984870317559" lon="12.013017324148192"><ele>664.0</ele><time>2026-04-05T07:44:47Z</time></trkpt><trkpt lat="43.85973989598259" lon="12.013255189905612"><ele>668.0</ele><time>2026-04-05T07:44:48Z</time></trkpt><trkpt lat="43.8596418061434" lon="12.013514490100349"><ele>672.0</ele><time>2026-04-05T07:44:49Z</time></trkpt><trkpt lat="43.85955127784616" lon="12.013787817859154"><ele>672.0</ele><time>2026-04-05T07:44:50Z</time></trkpt><trkpt lat="43.85945527885186" lon="12.01407825372616"><ele>672.0</ele><time>2026-04-05T07:44:51Z</time></trkpt><trkpt lat="43.85936519188997" lon="12.014349779174886"><ele>672.0</ele><time>2026-04-05T07:44:52Z</time></trkpt><trkpt lat="43.8592752880051" lon="12.014606250602716"><ele>672.3333333333334</ele><time>2026-04-05T07:44:53Z</time></trkpt><trkpt lat="43.859185847112464" lon="12.014855606993574"><ele>672.6666666666667</ele><time>2026-04-05T07:44:54Z</time></trkpt><trkpt lat="43.85911026676834" lon="12.015110628809731"><ele>673.0</ele><time>2026-04-05T07:44:55Z</time></trkpt><trkpt lat="43.859062255600605" lon="12.015373625744916"><ele>673.0</ele><time>2026-04-05T07:44:56Z</time></trkpt><trkpt lat="43.8590395717293" lon="12.015656256423767"><ele>673.0</ele><time>2026-04-05T07:44:57Z</time></trkpt><trkpt lat="43.85903260209803" lon="12.015908100528492"><ele>673.0</ele><time>2026-04-05T07:44:58Z</time></trkpt><trkpt lat="43.8590032087616" lon="12.016115550435106"><ele>671.75</ele><time>2026-04-05T07:44:59Z</time></trkpt><trkpt lat="43.85895677405648" lon="12.016296293784432"><ele>670.5</ele><time>2026-04-05T07:45:00Z</time></trkpt><trkpt lat="43.85890094230428" lon="12.016460191393994"><ele>669.25</ele><time>2026-04-05T07:45:01Z</time></trkpt><trkpt lat="43.858809350160215" lon="12.016631651042612"><ele>668.0</ele><time>2026-04-05T07:45:02Z</time></trkpt><trkpt lat="43.85870100798575" lon="12.016828331440033"><ele>667.6666666666666</ele><time>2026-04-05T07:45:03Z</time></trkpt><trkpt lat="43.858583726883154" lon="12.017026200163226"><ele>667.3333333333334</ele><time>2026-04-05T07:45:04Z</time></trkpt><trkpt lat="43.85845620896233" lon="12.017189972958244"><ele>667.0</ele><time>2026-04-05T07:45:05Z</time></trkpt><trkpt lat="43.85829039465419" lon="12.017308309081045"><ele>671.6666666666667</ele><time>2026-04-05T07:45:06Z</time></trkpt><trkpt lat="43.85810534052102" lon="12.017388085790275"><ele>676.3333333333334</ele><time>2026-04-05T07:45:07Z</time></trkpt><trkpt lat="43.857894444178015" lon="12.017432929740895"><ele>681.0</ele><time>2026-04-05T07:45:08Z</time></trkpt><trkpt lat="43.85767572172893" lon="12.017502773409898"><ele>684.3333333333334</ele><time>2026-04-05T07:45:09Z</time></trkpt><trkpt lat="43.85747547250651" lon="12.017604452272083"><ele>687.6666666666667</ele><time>2026-04-05T07:45:10Z</time></trkpt><trkpt lat="43.857291345862706" lon="12.017691805009799"><ele>691.0</ele><time>2026-04-05T07:45:11Z</time></trkpt><trkpt lat="43.8571417987946" lon="12.017836267584357"><ele>691.0</ele><time>2026-04-05T07:45:12Z</time></trkpt><trkpt lat="43.857018904404256" lon="12.01801619129467"><ele>691.0</ele><time>2026-04-05T07:45:13Z</time></trkpt><trkpt lat="43.85692779076639" lon="12.018191956074375"><ele>691.0</ele><time>2026-04-05T07:45:14Z</time></trkpt><trkpt lat="43.85689495432631" lon="12.018386892085916"><ele>689.25</ele><time>2026-04-05T07:45:15Z</time></trkpt><trkpt lat="43.8569099962208" lon="12.01859918743432"><ele>687.5</ele><time>2026-04-05T07:45:16Z</time></trkpt><trkpt lat="43.85697545287244" lon="12.018773680256263"><ele>685.75</ele><time>2026-04-05T07:45:17Z</time></trkpt><trkpt lat="43.85707424517306" lon="12.018889795456621"><ele>684.0</ele><time>2026-04-05T07:45:18Z</time></trkpt><trkpt lat="43.85721241941447" lon="12.018953958368296"><ele>684.0</ele><time>2026-04-05T07:45:19Z</time></trkpt><trkpt lat="43.85735777727654" lon="12.018976533060211"><ele>684.0</ele><time>2026-04-05T07:45:20Z</time></trkpt><trkpt lat="43.85751933872442" lon="12.018902958286239"><ele>684.0</ele><time>2026-04-05T07:45:21Z</time></trkpt><trkpt lat="43.85769822031821" lon="12.018806386503549"><ele>683.3333333333334</ele><time>2026-04-05T07:45:22Z</time></trkpt><trkpt lat="43.85789311608865" lon="12.01872194664959"><ele>682.6666666666667</ele><time>2026-04-05T07:45:23Z</time></trkpt><trkpt lat="43.85808410010836" lon="12.0187116368862"><ele>682.0</ele><time>2026-04-05T07:45:24Z</time></trkpt><trkpt lat="43.85823272070001" lon="12.018758463631134"><ele>682.0</ele><time>2026-04-05T07:45:25Z</time></trkpt><trkpt lat="43.858361339783976" lon="12.01885982823613"><ele>682.0</ele><time>2026-04-05T07:45:26Z</time></trkpt><trkpt lat="43.85849944335476" lon="12.018994753002376"><ele>682.0</ele><time>2026-04-05T07:45:27Z</time></trkpt><trkpt lat="43.85866210282904" lon="12.019176366058836"><ele>685.0</ele><time>2026-04-05T07:45:28Z</time></trkpt><trkpt lat="43.85880627464401" lon="12.019375380493608"><ele>688.0</ele><time>2026-04-05T07:45:29Z</time></trkpt><trkpt lat="43.858943563885624" lon="12.019515042819547"><ele>691.0</ele><time>2026-04-05T07:45:30Z</time></trkpt><trkpt lat="43.85908345993521" lon="12.019571359412243"><ele>691.0</ele><time>2026-04-05T07:45:31Z</time></trkpt><trkpt lat="43.859250370413875" lon="12.019549298856605"><ele>691.0</ele><time>2026-04-05T07:45:32Z</time></trkpt><trkpt lat="43.85939722047204" lon="12.01947397689612"><ele>691.0</ele><time>2026-04-05T07:45:33Z</time></trkpt><trkpt lat="43.85956318160399" lon="12.01937048813016"><ele>691.6666666666667</ele><time>2026-04-05T07:45:34Z</time></trkpt><trkpt lat="43.85973412224303" lon="12.019300237077163"><ele>692.3333333333334</ele><time>2026-04-05T07:45:35Z</time></trkpt><trkpt lat="43.859893931791696" lon="12.0193057163527"><ele>693.0</ele><time>2026-04-05T07:45:36Z</time></trkpt><trkpt lat="43.86000801924446" lon="12.019395671614797"><ele>693.3333333333334</ele><time>2026-04-05T07:45:37Z</time></trkpt><trkpt lat="43.860151451339554" lon="12.019530388208825"><ele>693.6666666666667</ele><time>2026-04-05T07:45:38Z</time></trkpt><trkpt lat="43.86030754564206" lon="12.0196781751746"><ele>694.0</ele><time>2026-04-05T07:45:39Z</time></trkpt><trkpt lat="43.86048336152852" lon="12.01977019945622"><ele>694.0</ele><time>2026-04-05T07:45:40Z</time></trkpt><trkpt lat="43.86064070726201" lon="12.019797643624184"><ele>694.0</ele><time>2026-04-05T07:45:41Z</time></trkpt><trkpt lat="43.86082840656607" lon="12.01974556338059"><ele>694.0</ele><time>2026-04-05T07:45:42Z</time></trkpt><trkpt lat="43.86101497331363" lon="12.019643319180311"><ele>703.0</ele><time>2026-04-05T07:45:43Z</time></trkpt><trkpt lat="43.86121409730627" lon="12.019531318448857"><ele>712.0</ele><time>2026-04-05T07:45:44Z</time></trkpt><trkpt lat="43.86143569306511" lon="12.01940907072907"><ele>712.0</ele><time>2026-04-05T07:45:45Z</time></trkpt><trkpt lat="43.86165299688638" lon="12.01926850872756"><ele>712.0</ele><time>2026-04-05T07:45:46Z</time></trkpt><trkpt lat="43.86182175431049" lon="12.019009138537905"><ele>711.5</ele><time>2026-04-05T07:45:47Z</time></trkpt><trkpt lat="43.86200382408192" lon="12.018818118670893"><ele>711.0</ele><time>2026-04-05T07:45:48Z</time></trkpt><trkpt lat="43.86221145153732" lon="12.018699923704412"><ele>711.0</ele><time>2026-04-05T07:45:49Z</time></trkpt><trkpt lat="43.86242251475413" lon="12.018565424628862"><ele>711.0</ele><time>2026-04-05T07:45:50Z</time></trkpt><trkpt lat="43.862610463756475" lon="12.018412783907536"><ele>706.0</ele><time>2026-04-05T07:45:51Z</time></trkpt><trkpt lat="43.86279826396351" lon="12.018216864744627"><ele>701.0</ele><time>2026-04-05T07:45:52Z</time></trkpt><trkpt lat="43.862967153740875" lon="12.018070291655626"><ele>696.0</ele><time>2026-04-05T07:45:53Z</time></trkpt><trkpt lat="43.86310702921631" lon="12.017982636668284"><ele>696.0</ele><time>2026-04-05T07:45:54Z</time></trkpt><trkpt lat="43.863197707087494" lon="12.017965099678536"><ele>696.0</ele><time>2026-04-05T07:45:55Z</time></trkpt><trkpt lat="43.863282896919955" lon="12.017993269489159"><ele>696.0</ele><time>2026-04-05T07:45:56Z</time></trkpt><trkpt lat="43.86339239510465" lon="12.018078863447991"><ele>696.0</ele><time>2026-04-05T07:45:57Z</time></trkpt><trkpt lat="43.8634755544996" lon="12.018301223341542"><ele>702.0</ele><time>2026-04-05T07:45:58Z</time></trkpt><trkpt lat="43.8636207075998" lon="12.018473535148749"><ele>708.0</ele><time>2026-04-05T07:45:59Z</time></trkpt><trkpt lat="43.863789551349434" lon="12.018669872596341"><ele>714.0</ele><time>2026-04-05T07:46:00Z</time></trkpt><trkpt lat="43.86399626841684" lon="12.01877509143447"><ele>714.0</ele><time>2026-04-05T07:46:01Z</time></trkpt><trkpt lat="43.864153428822114" lon="12.018871636425914"><ele>714.0</ele><time>2026-04-05T07:46:02Z</time></trkpt><trkpt lat="43.86427931856092" lon="12.019030358623443"><ele>714.0</ele><time>2026-04-05T07:46:03Z</time></trkpt><trkpt lat="43.86439241718136" lon="12.019237319989001"><ele>715.6666666666666</ele><time>2026-04-05T07:46:04Z</time></trkpt><trkpt lat="43.86450902729406" lon="12.019483115799583"><ele>717.3333333333333</ele><time>2026-04-05T07:46:05Z</time></trkpt><trkpt lat="43.86460284620351" lon="12.0197134262928"><ele>719.0</ele><time>2026-04-05T07:46:06Z</time></trkpt><trkpt lat="43.86464985613715" lon="12.019913482130526"><ele>722.6666666666666</ele><time>2026-04-05T07:46:07Z</time></trkpt><trkpt lat="43.864643671648935" lon="12.02010633467074"><ele>726.3333333333334</ele><time>2026-04-05T07:46:08Z</time></trkpt><trkpt lat="43.86459071328109" lon="12.020318007089209"><ele>730.0</ele><time>2026-04-05T07:46:09Z</time></trkpt><trkpt lat="43.86450281140634" lon="12.020553498906967"><ele>730.0</ele><time>2026-04-05T07:46:10Z</time></trkpt><trkpt lat="43.86439442306839" lon="12.020799129935083"><ele>730.0</ele><time>2026-04-05T07:46:11Z</time></trkpt><trkpt lat="43.86427149179638" lon="12.02097876355191"><ele>730.0</ele><time>2026-04-05T07:46:12Z</time></trkpt><trkpt lat="43.86415048290986" lon="12.021129712958123"><ele>732.6666666666667</ele><time>2026-04-05T07:46:13Z</time></trkpt><trkpt lat="43.864072667173" lon="12.021291625903487"><ele>735.3333333333334</ele><time>2026-04-05T07:46:14Z</time></trkpt><trkpt lat="43.86405682092999" lon="12.02151815631978"><ele>738.0</ele><time>2026-04-05T07:46:15Z</time></trkpt><trkpt lat="43.864065985521854" lon="12.02176529849028"><ele>738.0</ele><time>2026-04-05T07:46:16Z</time></trkpt><trkpt lat="43.86402215601346" lon="12.021982217972068"><ele>738.0</ele><time>2026-04-05T07:46:17Z</time></trkpt><trkpt lat="43.863917733059516" lon="12.022136903249914"><ele>738.0</ele><time>2026-04-05T07:46:18Z</time></trkpt><trkpt lat="43.86375082088657" lon="12.022208460299366"><ele>738.0</ele><time>2026-04-05T07:46:19Z</time></trkpt><trkpt lat="43.863590606534714" lon="12.022336338503685"><ele>738.0</ele><time>2026-04-05T07:46:20Z</time></trkpt><trkpt lat="43.863411652320266" lon="12.022484964675723"><ele>738.0</ele><time>2026-04-05T07:46:21Z</time></trkpt><trkpt lat="43.86320341970234" lon="12.022666243481003"><ele>744.5</ele><time>2026-04-05T07:46:22Z</time></trkpt><trkpt lat="43.86296785960171" lon="12.022832545260988"><ele>751.0</ele><time>2026-04-05T07:46:23Z</time></trkpt><trkpt lat="43.862770373658236" lon="12.023005909459417"><ele>751.6666666666667</ele><time>2026-04-05T07:46:24Z</time></trkpt><trkpt lat="43.862587054304704" lon="12.02313808732381"><ele>752.3333333333334</ele><time>2026-04-05T07:46:25Z</time></trkpt><trkpt lat="43.86242339473134" lon="12.023258854000497"><ele>753.0</ele><time>2026-04-05T07:46:26Z</time></trkpt><trkpt lat="43.862293131697626" lon="12.0233656432999"><ele>754.25</ele><time>2026-04-05T07:46:27Z</time></trkpt><trkpt lat="43.86221279961424" lon="12.023484342910269"><ele>755.5</ele><time>2026-04-05T07:46:28Z</time></trkpt><trkpt lat="43.8621803889377" lon="12.023631347671706"><ele>756.75</ele><time>2026-04-05T07:46:29Z</time></trkpt><trkpt lat="43.86221406958615" lon="12.023780871406542"><ele>758.0</ele><time>2026-04-05T07:46:30Z</time></trkpt><trkpt lat="43.8622893244659" lon="12.023889886744028"><ele>758.0</ele><time>2026-04-05T07:46:31Z</time></trkpt><trkpt lat="43.86238360404623" lon="12.023952541536058"><ele>758.0</ele><time>2026-04-05T07:46:32Z</time></trkpt><trkpt lat="43.86249513065512" lon="12.023946958170436"><ele>758.0</ele><time>2026-04-05T07:46:33Z</time></trkpt><trkpt lat="43.862627285339386" lon="12.023874621126497"><ele>758.0</ele><time>2026-04-05T07:46:34Z</time></trkpt><trkpt lat="43.86275502471935" lon="12.023829156881485"><ele>758.5</ele><time>2026-04-05T07:46:35Z</time></trkpt><trkpt lat="43.862895931088254" lon="12.023803659037652"><ele>759.0</ele><time>2026-04-05T07:46:36Z</time></trkpt><trkpt lat="43.8630378134286" lon="12.02377804147363"><ele>759.5</ele><time>2026-04-05T07:46:37Z</time></trkpt><trkpt lat="43.863172948599974" lon="12.023759729627"><ele>760.0</ele><time>2026-04-05T07:46:38Z</time></trkpt><trkpt lat="43.86329888762862" lon="12.023775701823519"><ele>760.0</ele><time>2026-04-05T07:46:39Z</time></trkpt><trkpt lat="43.86341277416292" lon="12.023844412828486"><ele>760.0</ele><time>2026-04-05T07:46:40Z</time></trkpt><trkpt lat="43.863516281296285" lon="12.02395590555207"><ele>760.0</ele><time>2026-04-05T07:46:41Z</time></trkpt><trkpt lat="43.86361512649033" lon="12.024102193575104"><ele>760.0</ele><time>2026-04-05T07:46:42Z</time></trkpt><trkpt lat="43.86371557631088" lon="12.024268525159885"><ele>761.0</ele><time>2026-04-05T07:46:43Z</time></trkpt><trkpt lat="43.86381941692375" lon="12.024417103858932"><ele>762.0</ele><time>2026-04-05T07:46:44Z</time></trkpt><trkpt lat="43.863915903570714" lon="12.02455336225588"><ele>763.0</ele><time>2026-04-05T07:46:45Z</time></trkpt><trkpt lat="43.86401353966611" lon="12.024701537787896"><ele>764.0</ele><time>2026-04-05T07:46:46Z</time></trkpt><trkpt lat="43.86411216078444" lon="12.024853454316734"><ele>762.0</ele><time>2026-04-05T07:46:47Z</time></trkpt><trkpt lat="43.86421103600042" lon="12.024997454401118"><ele>760.0</ele><time>2026-04-05T07:46:48Z</time></trkpt><trkpt lat="43.864319229938594" lon="12.0251333334295"><ele>758.0</ele><time>2026-04-05T07:46:49Z</time></trkpt><trkpt lat="43.86443595191561" lon="12.025259617204298"><ele>756.0</ele><time>2026-04-05T07:46:50Z</time></trkpt><trkpt lat="43.8645646390411" lon="12.025377315928186"><ele>755.75</ele><time>2026-04-05T07:46:51Z</time></trkpt><trkpt lat="43.864698108726834" lon="12.025487764962952"><ele>755.5</ele><time>2026-04-05T07:46:52Z</time></trkpt><trkpt lat="43.86482365252645" lon="12.025588065758107"><ele>755.25</ele><time>2026-04-05T07:46:53Z</time></trkpt><trkpt lat="43.8649391410541" lon="12.025702335756618"><ele>755.0</ele><time>2026-04-05T07:46:54Z</time></trkpt><trkpt lat="43.86502317761899" lon="12.02586586363982"><ele>756.0</ele><time>2026-04-05T07:46:55Z</time></trkpt><trkpt lat="43.86512276234302" lon="12.026019333136984"><ele>757.0</ele><time>2026-04-05T07:46:56Z</time></trkpt><trkpt lat="43.865197888942035" lon="12.026205441427289"><ele>758.0</ele><time>2026-04-05T07:46:57Z</time></trkpt><trkpt lat="43.86527679588442" lon="12.026396435671225"><ele>758.0</ele><time>2026-04-05T07:46:58Z</time></trkpt><trkpt lat="43.86536320829439" lon="12.026585379155188"><ele>758.0</ele><time>2026-04-05T07:46:59Z</time></trkpt><trkpt lat="43.86545145453206" lon="12.026764682325531"><ele>758.0</ele><time>2026-04-05T07:47:00Z</time></trkpt><trkpt lat="43.86554152500036" lon="12.026932392745566"><ele>757.25</ele><time>2026-04-05T07:47:01Z</time></trkpt><trkpt lat="43.86562851928272" lon="12.027087692169523"><ele>756.5</ele><time>2026-04-05T07:47:02Z</time></trkpt><trkpt lat="43.865720722881434" lon="12.027214204549008"><ele>755.75</ele><time>2026-04-05T07:47:03Z</time></trkpt><trkpt lat="43.86581033845675" lon="12.027326982192129"><ele>755.0</ele><time>2026-04-05T07:47:04Z</time></trkpt><trkpt lat="43.865872795291544" lon="12.027454303351053"><ele>754.75</ele><time>2026-04-05T07:47:05Z</time></trkpt><trkpt lat="43.86589615727577" lon="12.0276025539227"><ele>754.5</ele><time>2026-04-05T07:47:06Z</time></trkpt><trkpt lat="43.865928331380964" lon="12.027761378546215"><ele>754.25</ele><time>2026-04-05T07:47:07Z</time></trkpt><trkpt lat="43.86601198816513" lon="12.02792512141573"><ele>754.0</ele><time>2026-04-05T07:47:08Z</time></trkpt><trkpt lat="43.866135838907326" lon="12.028148175422588"><ele>758.0</ele><time>2026-04-05T07:47:09Z</time></trkpt><trkpt lat="43.866259718931595" lon="12.028456194710097"><ele>762.0</ele><time>2026-04-05T07:47:10Z</time></trkpt><trkpt lat="43.8663824286647" lon="12.02875509840614"><ele>762.0</ele><time>2026-04-05T07:47:11Z</time></trkpt><trkpt lat="43.86650098614042" lon="12.029031742850826"><ele>762.0</ele><time>2026-04-05T07:47:12Z</time></trkpt><trkpt lat="43.866575515223374" lon="12.029281967168625"><ele>762.0</ele><time>2026-04-05T07:47:13Z</time></trkpt><trkpt lat="43.86660797105991" lon="12.029538550140568"><ele>763.3333333333334</ele><time>2026-04-05T07:47:14Z</time></trkpt><trkpt lat="43.86661235036339" lon="12.029824306934765"><ele>764.6666666666667</ele><time>2026-04-05T07:47:15Z</time></trkpt><trkpt lat="43.86662485864522" lon="12.030124664438276"><ele>766.0</ele><time>2026-04-05T07:47:16Z</time></trkpt><trkpt lat="43.866635457888734" lon="12.030425736436017"><ele>766.0</ele><time>2026-04-05T07:47:17Z</time></trkpt><trkpt lat="43.866619756916634" lon="12.03066234340411"><ele>766.0</ele><time>2026-04-05T07:47:18Z</time></trkpt><trkpt lat="43.86655828753422" lon="12.030847531203424"><ele>766.0</ele><time>2026-04-05T07:47:19Z</time></trkpt><trkpt lat="43.86643487690303" lon="12.030951530292004"><ele>767.6666666666667</ele><time>2026-04-05T07:47:20Z</time></trkpt><trkpt lat="43.866297192105506" lon="12.031082258331482"><ele>769.3333333333334</ele><time>2026-04-05T07:47:21Z</time></trkpt><trkpt lat="43.86612457638444" lon="12.031198942272312"><ele>771.0</ele><time>2026-04-05T07:47:22Z</time></trkpt><trkpt lat="43.86593781092902" lon="12.031339874158563"><ele>771.6666666666667</ele><time>2026-04-05T07:47:23Z</time></trkpt><trkpt lat="43.86574652972263" lon="12.03149224771397"><ele>772.3333333333334</ele><time>2026-04-05T07:47:24Z</time></trkpt><trkpt lat="43.86559411311918" lon="12.031650792879377"><ele>773.0</ele><time>2026-04-05T07:47:25Z</time></trkpt><trkpt lat="43.86548670320713" lon="12.031850257014664"><ele>773.6666666666667</ele><time>2026-04-05T07:47:26Z</time></trkpt><trkpt lat="43.86540561884855" lon="12.032095745415779"><ele>774.3333333333333</ele><time>2026-04-05T07:47:27Z</time></trkpt><trkpt lat="43.865348816907755" lon="12.032376836865332"><ele>775.0</ele><time>2026-04-05T07:47:28Z</time></trkpt><trkpt lat="43.86530439425925" lon="12.032690151665323"><ele>775.0</ele><time>2026-04-05T07:47:29Z</time></trkpt><trkpt lat="43.86526329164075" lon="12.033029621947803"><ele>775.0</ele><time>2026-04-05T07:47:30Z</time></trkpt><trkpt lat="43.8652162940663" lon="12.03337966733208"><ele>771.0</ele><time>2026-04-05T07:47:31Z</time></trkpt><trkpt lat="43.86516182262905" lon="12.033723068212218"><ele>767.0</ele><time>2026-04-05T07:47:32Z</time></trkpt><trkpt lat="43.86511422694617" lon="12.034014843400948"><ele>764.0</ele><time>2026-04-05T07:47:33Z</time></trkpt><trkpt lat="43.865092924971464" lon="12.034276692172364"><ele>761.0</ele><time>2026-04-05T07:47:34Z</time></trkpt><trkpt lat="43.86511389978491" lon="12.034526393297359"><ele>758.0</ele><time>2026-04-05T07:47:35Z</time></trkpt><trkpt lat="43.865170109796935" lon="12.034756846393751"><ele>759.5</ele><time>2026-04-05T07:47:36Z</time></trkpt><trkpt lat="43.86523432235914" lon="12.034971923606085"><ele>761.0</ele><time>2026-04-05T07:47:37Z</time></trkpt><trkpt lat="43.86527032412365" lon="12.035136414973183"><ele>762.5</ele><time>2026-04-05T07:47:38Z</time></trkpt><trkpt lat="43.86525154365173" lon="12.035259433048068"><ele>764.0</ele><time>2026-04-05T07:47:39Z</time></trkpt><trkpt lat="43.8651802444498" lon="12.035335139847586"><ele>769.75</ele><time>2026-04-05T07:47:40Z</time></trkpt><trkpt lat="43.8650895922964" lon="12.035354003896"><ele>775.5</ele><time>2026-04-05T07:47:41Z</time></trkpt><trkpt lat="43.86498478731443" lon="12.035319030261773"><ele>781.25</ele><time>2026-04-05T07:47:42Z</time></trkpt><trkpt lat="43.8648912522455" lon="12.035202402721104"><ele>787.0</ele><time>2026-04-05T07:47:43Z</time></trkpt><trkpt lat="43.864765031907" lon="12.035106084696508"><ele>787.0</ele><time>2026-04-05T07:47:44Z</time></trkpt><trkpt lat="43.86463509424318" lon="12.034999425168564"><ele>787.0</ele><time>2026-04-05T07:47:45Z</time></trkpt><trkpt lat="43.86447116396202" lon="12.034846787302243"><ele>787.0</ele><time>2026-04-05T07:47:46Z</time></trkpt><trkpt lat="43.864302146442185" lon="12.034671209196071"><ele>791.3333333333333</ele><time>2026-04-05T07:47:47Z</time></trkpt><trkpt lat="43.86412676458851" lon="12.034484664277304"><ele>795.6666666666667</ele><time>2026-04-05T07:47:48Z</time></trkpt><trkpt lat="43.86394935176211" lon="12.034330854818394"><ele>800.0</ele><time>2026-04-05T07:47:49Z</time></trkpt><trkpt lat="43.86374313415612" lon="12.034273521383696"><ele>800.0</ele><time>2026-04-05T07:47:50Z</time></trkpt><trkpt lat="43.86353706011525" lon="12.034310517065943"><ele>800.0</ele><time>2026-04-05T07:47:51Z</time></trkpt><trkpt lat="43.86334173887617" lon="12.034325497542937"><ele>800.0</ele><time>2026-04-05T07:47:52Z</time></trkpt><trkpt lat="43.86310778581747" lon="12.034358692196294"><ele>803.0</ele><time>2026-04-05T07:47:53Z</time></trkpt><trkpt lat="43.86291123538704" lon="12.03438957834152"><ele>806.0</ele><time>2026-04-05T07:47:54Z</time></trkpt><trkpt lat="43.8627415239724" lon="12.034417372086727"><ele>809.0</ele><time>2026-04-05T07:47:55Z</time></trkpt><trkpt lat="43.86255471055492" lon="12.034440633723342"><ele>812.0</ele><time>2026-04-05T07:47:56Z</time></trkpt><trkpt lat="43.86236753124939" lon="12.03444474187471"><ele>815.0</ele><time>2026-04-05T07:47:57Z</time></trkpt><trkpt lat="43.862024932925856" lon="12.034426879725725"><ele>815.0</ele><time>2026-04-05T07:47:58Z</time></trkpt><trkpt lat="43.861828369000136" lon="12.03447298887463"><ele>815.0</ele><time>2026-04-05T07:47:59Z</time></trkpt><trkpt lat="43.86162572554195" lon="12.03456707939621"><ele>815.0</ele><time>2026-04-05T07:48:00Z</time></trkpt><trkpt lat="43.86134896114888" lon="12.034600052305969"><ele>818.5</ele><time>2026-04-05T07:48:01Z</time></trkpt><trkpt lat="43.861098258010834" lon="12.034566281602052"><ele>822.0</ele><time>2026-04-05T07:48:02Z</time></trkpt><trkpt lat="43.860895469513544" lon="12.034484381568681"><ele>823.6666666666667</ele><time>2026-04-05T07:48:03Z</time></trkpt><trkpt lat="43.86074151007057" lon="12.034352501721207"><ele>825.3333333333334</ele><time>2026-04-05T07:48:04Z</time></trkpt><trkpt lat="43.86056143907247" lon="12.034244630951859"><ele>827.0</ele><time>2026-04-05T07:48:05Z</time></trkpt><trkpt lat="43.860407742117296" lon="12.034117126810996"><ele>834.6666666666667</ele><time>2026-04-05T07:48:06Z</time></trkpt><trkpt lat="43.86022955938854" lon="12.034072462979257"><ele>842.3333333333333</ele><time>2026-04-05T07:48:07Z</time></trkpt><trkpt lat="43.86003838157057" lon="12.034082559941425"><ele>850.0</ele><time>2026-04-05T07:48:08Z</time></trkpt><trkpt lat="43.859854092713434" lon="12.034103886307715"><ele>842.25</ele><time>2026-04-05T07:48:09Z</time></trkpt><trkpt lat="43.859717250448746" lon="12.034173650175347"><ele>834.5</ele><time>2026-04-05T07:48:10Z</time></trkpt><trkpt lat="43.859620814280866" lon="12.0342915744791"><ele>826.75</ele><time>2026-04-05T07:48:11Z</time></trkpt><trkpt lat="43.85954863428433" lon="12.034439941236759"><ele>819.0</ele><time>2026-04-05T07:48:12Z</time></trkpt><trkpt lat="43.85949368258418" lon="12.034630037763877"><ele>819.0</ele><time>2026-04-05T07:48:13Z</time></trkpt><trkpt lat="43.859442109757964" lon="12.034861897544896"><ele>819.0</ele><time>2026-04-05T07:48:14Z</time></trkpt><trkpt lat="43.859384291229" lon="12.035151753919125"><ele>819.0</ele><time>2026-04-05T07:48:15Z</time></trkpt><trkpt lat="43.85932019890989" lon="12.035465317564812"><ele>820.5</ele><time>2026-04-05T07:48:16Z</time></trkpt><trkpt lat="43.859247847473256" lon="12.03581953039336"><ele>822.0</ele><time>2026-04-05T07:48:17Z</time></trkpt><trkpt lat="43.85918722230618" lon="12.036126837568796"><ele>822.0</ele><time>2026-04-05T07:48:18Z</time></trkpt><trkpt lat="43.85912405594084" lon="12.036444957521027"><ele>822.0</ele><time>2026-04-05T07:48:19Z</time></trkpt><trkpt lat="43.85906265369074" lon="12.036755381656436"><ele>819.6666666666667</ele><time>2026-04-05T07:48:20Z</time></trkpt><trkpt lat="43.859017449045915" lon="12.037052847434891"><ele>817.3333333333334</ele><time>2026-04-05T07:48:21Z</time></trkpt><trkpt lat="43.85899350631266" lon="12.037335570203082"><ele>815.0</ele><time>2026-04-05T07:48:22Z</time></trkpt><trkpt lat="43.85898590375794" lon="12.03766328004872"><ele>815.0</ele><time>2026-04-05T07:48:23Z</time></trkpt><trkpt lat="43.85901286757442" lon="12.037959082311493"><ele>815.0</ele><time>2026-04-05T07:48:24Z</time></trkpt><trkpt lat="43.85906414905905" lon="12.038225270788736"><ele>815.0</ele><time>2026-04-05T07:48:25Z</time></trkpt><trkpt lat="43.85914311744885" lon="12.038471317025143"><ele>814.3333333333334</ele><time>2026-04-05T07:48:26Z</time></trkpt><trkpt lat="43.859259393044" lon="12.038728602582907"><ele>813.6666666666667</ele><time>2026-04-05T07:48:27Z</time></trkpt><trkpt lat="43.85939202711594" lon="12.03897713199866"><ele>813.0</ele><time>2026-04-05T07:48:28Z</time></trkpt><trkpt lat="43.85950612121842" lon="12.03918695593286"><ele>813.0</ele><time>2026-04-05T07:48:29Z</time></trkpt><trkpt lat="43.85956779141554" lon="12.039341644281775"><ele>813.0</ele><time>2026-04-05T07:48:30Z</time></trkpt><trkpt lat="43.859610889974604" lon="12.039482724958848"><ele>813.0</ele><time>2026-04-05T07:48:31Z</time></trkpt><trkpt lat="43.85957553096131" lon="12.039626168292383"><ele>813.0</ele><time>2026-04-05T07:48:32Z</time></trkpt><trkpt lat="43.859507390921365" lon="12.039760375833133"><ele>813.0</ele><time>2026-04-05T07:48:33Z</time></trkpt><trkpt lat="43.859424282811084" lon="12.039953481394495"><ele>813.0</ele><time>2026-04-05T07:48:34Z</time></trkpt><trkpt lat="43.85933605356837" lon="12.040195855606955"><ele>813.0</ele><time>2026-04-05T07:48:35Z</time></trkpt><trkpt lat="43.859215375090635" lon="12.040448908323832"><ele>816.5</ele><time>2026-04-05T07:48:36Z</time></trkpt><trkpt lat="43.859094326096184" lon="12.040742317441708"><ele>820.0</ele><time>2026-04-05T07:48:37Z</time></trkpt><trkpt lat="43.85896081425767" lon="12.041052059790564"><ele>820.0</ele><time>2026-04-05T07:48:38Z</time></trkpt><trkpt lat="43.85882336028039" lon="12.041367387035871"><ele>820.0</ele><time>2026-04-05T07:48:39Z</time></trkpt><trkpt lat="43.85864020476117" lon="12.041599808310915"><ele>817.5</ele><time>2026-04-05T07:48:40Z</time></trkpt><trkpt lat="43.858491824899765" lon="12.041836654449872"><ele>815.0</ele><time>2026-04-05T07:48:41Z</time></trkpt><trkpt lat="43.858363273794154" lon="12.0421057490632"><ele>816.5</ele><time>2026-04-05T07:48:42Z</time></trkpt><trkpt lat="43.85825538925042" lon="12.042405575869292"><ele>818.0</ele><time>2026-04-05T07:48:43Z</time></trkpt><trkpt lat="43.85814896179995" lon="12.042713307147974"><ele>818.0</ele><time>2026-04-05T07:48:44Z</time></trkpt><trkpt lat="43.85806118548017" lon="12.042988749527842"><ele>818.0</ele><time>2026-04-05T07:48:45Z</time></trkpt><trkpt lat="43.858045144064704" lon="12.043226241564858"><ele>818.0</ele><time>2026-04-05T07:48:46Z</time></trkpt><trkpt lat="43.858041856849134" lon="12.043451997815346"><ele>816.6666666666667</ele><time>2026-04-05T07:48:47Z</time></trkpt><trkpt lat="43.858064239845035" lon="12.04372514808185"><ele>815.3333333333333</ele><time>2026-04-05T07:48:48Z</time></trkpt><trkpt lat="43.85809733381252" lon="12.044033121249699"><ele>814.0</ele><time>2026-04-05T07:48:49Z</time></trkpt><trkpt lat="43.8581313303925" lon="12.044372642215324"><ele>814.0</ele><time>2026-04-05T07:48:50Z</time></trkpt><trkpt lat="43.8581631240027" lon="12.044713988963442"><ele>814.0</ele><time>2026-04-05T07:48:51Z</time></trkpt><trkpt lat="43.858191030532836" lon="12.045025030897696"><ele>814.3333333333333</ele><time>2026-04-05T07:48:52Z</time></trkpt><trkpt lat="43.85821074781135" lon="12.045312491553327"><ele>814.6666666666667</ele><time>2026-04-05T07:48:53Z</time></trkpt><trkpt lat="43.858245868425385" lon="12.045571004148426"><ele>815.0</ele><time>2026-04-05T07:48:54Z</time></trkpt><trkpt lat="43.85831358713767" lon="12.045779877923808"><ele>817.6666666666667</ele><time>2026-04-05T07:48:55Z</time></trkpt><trkpt lat="43.85842941583192" lon="12.045968197689797"><ele>820.3333333333333</ele><time>2026-04-05T07:48:56Z</time></trkpt><trkpt lat="43.85856822526807" lon="12.046169689449748"><ele>823.0</ele><time>2026-04-05T07:48:57Z</time></trkpt><trkpt lat="43.858684958306384" lon="12.046345967045927"><ele>818.0</ele><time>2026-04-05T07:48:58Z</time></trkpt><trkpt lat="43.85876282125043" lon="12.046484874148407"><ele>813.0</ele><time>2026-04-05T07:48:59Z</time></trkpt><trkpt lat="43.858804892872314" lon="12.04661856557021"><ele>808.0</ele><time>2026-04-05T07:49:00Z</time></trkpt><trkpt lat="43.85879880174587" lon="12.04676749772578"><ele>803.0</ele><time>2026-04-05T07:49:01Z</time></trkpt><trkpt lat="43.85872398660244" lon="12.046894775643727"><ele>803.0</ele><time>2026-04-05T07:49:02Z</time></trkpt><trkpt lat="43.858661284566615" lon="12.04708325325472"><ele>803.0</ele><time>2026-04-05T07:49:03Z</time></trkpt><trkpt lat="43.858571364990745" lon="12.047259563371579"><ele>803.0</ele><time>2026-04-05T07:49:04Z</time></trkpt><trkpt lat="43.858514627170074" lon="12.047454627169815"><ele>801.6666666666667</ele><time>2026-04-05T07:49:05Z</time></trkpt><trkpt lat="43.858492909277764" lon="12.047679534077046"><ele>800.3333333333333</ele><time>2026-04-05T07:49:06Z</time></trkpt><trkpt lat="43.85849882861901" lon="12.047903804549813"><ele>799.0</ele><time>2026-04-05T07:49:07Z</time></trkpt><trkpt lat="43.85852395546434" lon="12.04814601702918"><ele>798.6666666666666</ele><time>2026-04-05T07:49:08Z</time></trkpt><trkpt lat="43.858563437146586" lon="12.048388888550644"><ele>798.3333333333333</ele><time>2026-04-05T07:49:09Z</time></trkpt><trkpt lat="43.858583596592645" lon="12.048606239294262"><ele>798.0</ele><time>2026-04-05T07:49:10Z</time></trkpt><trkpt lat="43.85857809418824" lon="12.048783722380014"><ele>798.0</ele><time>2026-04-05T07:49:11Z</time></trkpt><trkpt lat="43.85854061871409" lon="12.048943542292754"><ele>798.0</ele><time>2026-04-05T07:49:12Z</time></trkpt><trkpt lat="43.85849214308467" lon="12.049123042660879"><ele>798.0</ele><time>2026-04-05T07:49:13Z</time></trkpt><trkpt lat="43.858433791226496" lon="12.049340229079741"><ele>798.0</ele><time>2026-04-05T07:49:14Z</time></trkpt><trkpt lat="43.85836446763071" lon="12.049594343117146"><ele>806.6666666666667</ele><time>2026-04-05T07:49:15Z</time></trkpt><trkpt lat="43.85830305040689" lon="12.049850678359112"><ele>815.3333333333334</ele><time>2026-04-05T07:49:16Z</time></trkpt><trkpt lat="43.85826735649371" lon="12.050042740001679"><ele>824.0</ele><time>2026-04-05T07:49:17Z</time></trkpt><trkpt lat="43.85826265398337" lon="12.050237316303395"><ele>824.0</ele><time>2026-04-05T07:49:18Z</time></trkpt><trkpt lat="43.858308626700826" lon="12.050425481887315"><ele>824.0</ele><time>2026-04-05T07:49:19Z</time></trkpt><trkpt lat="43.858399352372764" lon="12.05061193236168"><ele>824.0</ele><time>2026-04-05T07:49:20Z</time></trkpt><trkpt lat="43.85850136359019" lon="12.050821069302858"><ele>824.75</ele><time>2026-04-05T07:49:21Z</time></trkpt><trkpt lat="43.85855638731426" lon="12.051002099160629"><ele>825.5</ele><time>2026-04-05T07:49:22Z</time></trkpt><trkpt lat="43.85853499169807" lon="12.051169820710276"><ele>826.25</ele><time>2026-04-05T07:49:23Z</time></trkpt><trkpt lat="43.85849419010629" lon="12.0513377053264"><ele>827.0</ele><time>2026-04-05T07:49:24Z</time></trkpt><trkpt lat="43.858435808781685" lon="12.051526348948233"><ele>825.3333333333334</ele><time>2026-04-05T07:49:25Z</time></trkpt><trkpt lat="43.858408980993666" lon="12.051750003965848"><ele>823.6666666666667</ele><time>2026-04-05T07:49:26Z</time></trkpt><trkpt lat="43.858384794888444" lon="12.051966540422917"><ele>822.0</ele><time>2026-04-05T07:49:27Z</time></trkpt><trkpt lat="43.858381733939645" lon="12.052192497454492"><ele>822.0</ele><time>2026-04-05T07:49:28Z</time></trkpt><trkpt lat="43.858371692710755" lon="12.052429370777281"><ele>822.0</ele><time>2026-04-05T07:49:29Z</time></trkpt><trkpt lat="43.858353905252194" lon="12.052671517443295"><ele>822.0</ele><time>2026-04-05T07:49:30Z</time></trkpt><trkpt lat="43.858341907566" lon="12.052906724912084"><ele>820.0</ele><time>2026-04-05T07:49:31Z</time></trkpt><trkpt lat="43.85834013874154" lon="12.053127764551453"><ele>818.0</ele><time>2026-04-05T07:49:32Z</time></trkpt><trkpt lat="43.85835136663393" lon="12.053334792445906"><ele>816.0</ele><time>2026-04-05T07:49:33Z</time></trkpt><trkpt lat="43.85838631012189" lon="12.053533630520146"><ele>817.3333333333333</ele><time>2026-04-05T07:49:34Z</time></trkpt><trkpt lat="43.85845698216071" lon="12.053733005775774"><ele>818.6666666666666</ele><time>2026-04-05T07:49:35Z</time></trkpt><trkpt lat="43.858554043458575" lon="12.05391252173278"><ele>820.0</ele><time>2026-04-05T07:49:36Z</time></trkpt><trkpt lat="43.858655249217996" lon="12.054039606340186"><ele>821.0</ele><time>2026-04-05T07:49:37Z</time></trkpt><trkpt lat="43.85872090078446" lon="12.054168546049056"><ele>822.0</ele><time>2026-04-05T07:49:38Z</time></trkpt><trkpt lat="43.858737658333794" lon="12.054284367478154"><ele>823.0</ele><time>2026-04-05T07:49:39Z</time></trkpt><trkpt lat="43.858704169055144" lon="12.054378159246854"><ele>824.0</ele><time>2026-04-05T07:49:40Z</time></trkpt><trkpt lat="43.858624977332944" lon="12.054418920473928"><ele>825.0</ele><time>2026-04-05T07:49:41Z</time></trkpt><trkpt lat="43.858530249766574" lon="12.054410252049891"><ele>821.3333333333333</ele><time>2026-04-05T07:49:42Z</time></trkpt><trkpt lat="43.85843376615359" lon="12.054299887321186"><ele>817.6666666666666</ele><time>2026-04-05T07:49:43Z</time></trkpt><trkpt lat="43.858289968343385" lon="12.054190966280474"><ele>814.0</ele><time>2026-04-05T07:49:44Z</time></trkpt><trkpt lat="43.85813521660438" lon="12.05410529340848"><ele>814.0</ele><time>2026-04-05T07:49:45Z</time></trkpt><trkpt lat="43.858018811898376" lon="12.053961958375613"><ele>814.0</ele><time>2026-04-05T07:49:46Z</time></trkpt><trkpt lat="43.85793830710445" lon="12.053779731616473"><ele>814.0</ele><time>2026-04-05T07:49:47Z</time></trkpt><trkpt lat="43.85790884301014" lon="12.053537841348584"><ele>814.6666666666666</ele><time>2026-04-05T07:49:48Z</time></trkpt><trkpt lat="43.8578483295032" lon="12.053286336880811"><ele>815.3333333333333</ele><time>2026-04-05T07:49:49Z</time></trkpt><trkpt lat="43.85777245371099" lon="12.05303946697269"><ele>816.0</ele><time>2026-04-05T07:49:50Z</time></trkpt><trkpt lat="43.85771948356624" lon="12.05280660511487"><ele>816.0</ele><time>2026-04-05T07:49:51Z</time></trkpt><trkpt lat="43.85766661761715" lon="12.052605339204895"><ele>816.0</ele><time>2026-04-05T07:49:52Z</time></trkpt><trkpt lat="43.85757798835661" lon="12.052435046621142"><ele>816.0</ele><time>2026-04-05T07:49:53Z</time></trkpt><trkpt lat="43.85746098671245" lon="12.052326535882251"><ele>816.0</ele><time>2026-04-05T07:49:54Z</time></trkpt><trkpt lat="43.8573120091625" lon="12.052293985316407"><ele>816.0</ele><time>2026-04-05T07:49:55Z</time></trkpt><trkpt lat="43.857128779892264" lon="12.052308924353888"><ele>816.0</ele><time>2026-04-05T07:49:56Z</time></trkpt><trkpt lat="43.85692544089329" lon="12.052327305609817"><ele>816.0</ele><time>2026-04-05T07:49:57Z</time></trkpt><trkpt lat="43.856753693889466" lon="12.052330125222264"><ele>816.0</ele><time>2026-04-05T07:49:58Z</time></trkpt><trkpt lat="43.85660401892489" lon="12.05242686777276"><ele>816.0</ele><time>2026-04-05T07:49:59Z</time></trkpt><trkpt lat="43.85650413886894" lon="12.05261924120837"><ele>816.0</ele><time>2026-04-05T07:50:00Z</time></trkpt><trkpt lat="43.85645113148526" lon="12.052798748448042"><ele>809.75</ele><time>2026-04-05T07:50:01Z</time></trkpt><trkpt lat="43.85639722574442" lon="12.052900718991918"><ele>803.5</ele><time>2026-04-05T07:50:02Z</time></trkpt><trkpt lat="43.85629274833925" lon="12.052938283306759"><ele>797.25</ele><time>2026-04-05T07:50:03Z</time></trkpt><trkpt lat="43.856171046219174" lon="12.052863191253918"><ele>791.0</ele><time>2026-04-05T07:50:04Z</time></trkpt><trkpt lat="43.856013628885364" lon="12.05279676989402"><ele>788.6666666666667</ele><time>2026-04-05T07:50:05Z</time></trkpt><trkpt lat="43.85585487082123" lon="12.052663447265083"><ele>786.3333333333333</ele><time>2026-04-05T07:50:06Z</time></trkpt><trkpt lat="43.85567782152502" lon="12.052564249162284"><ele>784.0</ele><time>2026-04-05T07:50:07Z</time></trkpt><trkpt lat="43.8555053562796" lon="12.052522313346955"><ele>784.0</ele><time>2026-04-05T07:50:08Z</time></trkpt><trkpt lat="43.85532266655479" lon="12.05252236780059"><ele>784.0</ele><time>2026-04-05T07:50:09Z</time></trkpt><trkpt lat="43.855154399701235" lon="12.05253950874194"><ele>784.0</ele><time>2026-04-05T07:50:10Z</time></trkpt><trkpt lat="43.85498720383902" lon="12.05253666288076"><ele>780.0</ele><time>2026-04-05T07:50:11Z</time></trkpt><trkpt lat="43.85481308856143" lon="12.052503250452913"><ele>776.0</ele><time>2026-04-05T07:50:12Z</time></trkpt><trkpt lat="43.85464140668106" lon="12.052434489554527"><ele>772.0</ele><time>2026-04-05T07:50:13Z</time></trkpt><trkpt lat="43.85447116203055" lon="12.052340010406096"><ele>778.0</ele><time>2026-04-05T07:50:14Z</time></trkpt><trkpt lat="43.85429933702532" lon="12.052252167722544"><ele>784.0</ele><time>2026-04-05T07:50:15Z</time></trkpt><trkpt lat="43.85410624475065" lon="12.052196838376053"><ele>790.0</ele><time>2026-04-05T07:50:16Z</time></trkpt><trkpt lat="43.85391980584412" lon="12.052166926885118"><ele>790.0</ele><time>2026-04-05T07:50:17Z</time></trkpt><trkpt lat="43.85374588962135" lon="12.052126221817575"><ele>790.0</ele><time>2026-04-05T07:50:18Z</time></trkpt><trkpt lat="43.85358785539526" lon="12.052058265751812"><ele>790.0</ele><time>2026-04-05T07:50:19Z</time></trkpt><trkpt lat="43.8534360885525" lon="12.051976827376174"><ele>786.6666666666666</ele><time>2026-04-05T07:50:20Z</time></trkpt><trkpt lat="43.85328353219895" lon="12.051947598341362"><ele>783.3333333333333</ele><time>2026-04-05T07:50:21Z</time></trkpt><trkpt lat="43.853131087042996" lon="12.0519540810106"><ele>780.0</ele><time>2026-04-05T07:50:22Z</time></trkpt><trkpt lat="43.85298495866959" lon="12.051978181789803"><ele>780.0</ele><time>2026-04-05T07:50:23Z</time></trkpt><trkpt lat="43.85285605791977" lon="12.052020679707743"><ele>780.0</ele><time>2026-04-05T07:50:24Z</time></trkpt><trkpt lat="43.85275659070057" lon="12.05206609651784"><ele>780.0</ele><time>2026-04-05T07:50:25Z</time></trkpt><trkpt lat="43.85266407017589" lon="12.052101320616563"><ele>780.0</ele><time>2026-04-05T07:50:26Z</time></trkpt><trkpt lat="43.85258369247014" lon="12.052135638342792"><ele>780.0</ele><time>2026-04-05T07:50:27Z</time></trkpt><trkpt lat="43.85252502796585" lon="12.05218243358846"><ele>780.0</ele><time>2026-04-05T07:50:28Z</time></trkpt><trkpt lat="43.85260083427092" lon="12.052393809959382"><ele>780.0</ele><time>2026-04-05T07:50:31Z</time></trkpt><trkpt lat="43.852658304248735" lon="12.052437531959647"><ele>780.0</ele><time>2026-04-05T07:50:32Z</time></trkpt><trkpt lat="43.852731933340436" lon="12.052506069576962"><ele>780.0</ele><time>2026-04-05T07:50:33Z</time></trkpt><trkpt lat="43.85284141308427" lon="12.05255139250632"><ele>780.0</ele><time>2026-04-05T07:50:34Z</time></trkpt><trkpt lat="43.85294578522201" lon="12.05260026051782"><ele>776.6</ele><time>2026-04-05T07:50:35Z</time></trkpt><trkpt lat="43.85304460597243" lon="12.052649198295457"><ele>773.2</ele><time>2026-04-05T07:50:36Z</time></trkpt><trkpt lat="43.85313924600542" lon="12.05269654543779"><ele>769.8</ele><time>2026-04-05T07:50:37Z</time></trkpt><trkpt lat="43.8532210295123" lon="12.052749959888041"><ele>766.4</ele><time>2026-04-05T07:50:38Z</time></trkpt><trkpt lat="43.85333605676582" lon="12.052808464995126"><ele>763.0</ele><time>2026-04-05T07:50:39Z</time></trkpt><trkpt lat="43.85347720611678" lon="12.052881429577566"><ele>763.0</ele><time>2026-04-05T07:50:40Z</time></trkpt><trkpt lat="43.85359920240327" lon="12.052939451213488"><ele>763.0</ele><time>2026-04-05T07:50:41Z</time></trkpt><trkpt lat="43.85371827159129" lon="12.05301398785244"><ele>763.0</ele><time>2026-04-05T07:50:42Z</time></trkpt><trkpt lat="43.853841946158354" lon="12.053088831771818"><ele>763.0</ele><time>2026-04-05T07:50:43Z</time></trkpt><trkpt lat="43.853952128322696" lon="12.053157450564617"><ele>763.0</ele><time>2026-04-05T07:50:44Z</time></trkpt><trkpt lat="43.85406600432841" lon="12.053220513765933"><ele>763.0</ele><time>2026-04-05T07:50:45Z</time></trkpt><trkpt lat="43.854174442473756" lon="12.053271257420821"><ele>763.0</ele><time>2026-04-05T07:50:46Z</time></trkpt><trkpt lat="43.85428630044105" lon="12.05332696631707"><ele>763.0</ele><time>2026-04-05T07:50:47Z</time></trkpt><trkpt lat="43.85437161117315" lon="12.053406713759124"><ele>760.8</ele><time>2026-04-05T07:50:48Z</time></trkpt><trkpt lat="43.854430952862394" lon="12.053508928937493"><ele>758.5999999999999</ele><time>2026-04-05T07:50:49Z</time></trkpt><trkpt lat="43.854461043550685" lon="12.053635261519211"><ele>756.4000000000001</ele><time>2026-04-05T07:50:50Z</time></trkpt><trkpt lat="43.85444250324997" lon="12.053778629452411"><ele>754.2</ele><time>2026-04-05T07:50:51Z</time></trkpt><trkpt lat="43.85438930962691" lon="12.053890467107529"><ele>752.0</ele><time>2026-04-05T07:50:52Z</time></trkpt><trkpt lat="43.854313543880686" lon="12.053980353751115"><ele>749.75</ele><time>2026-04-05T07:50:53Z</time></trkpt><trkpt lat="43.85421258614185" lon="12.054013740569307"><ele>747.5</ele><time>2026-04-05T07:50:54Z</time></trkpt><trkpt lat="43.85410488503043" lon="12.054006577731734"><ele>745.25</ele><time>2026-04-05T07:50:55Z</time></trkpt><trkpt lat="43.853997902077964" lon="12.05393636668181"><ele>743.0</ele><time>2026-04-05T07:50:56Z</time></trkpt><trkpt lat="43.85387054112587" lon="12.053863832719047"><ele>743.0</ele><time>2026-04-05T07:50:57Z</time></trkpt><trkpt lat="43.85373821818188" lon="12.053789686545796"><ele>743.0</ele><time>2026-04-05T07:50:58Z</time></trkpt><trkpt lat="43.85361162949655" lon="12.053727944476641"><ele>743.0</ele><time>2026-04-05T07:50:59Z</time></trkpt><trkpt lat="43.85346899841108" lon="12.053681939934203"><ele>743.0</ele><time>2026-04-05T07:51:00Z</time></trkpt><trkpt lat="43.85331238284228" lon="12.053666653419713"><ele>740.6666666666666</ele><time>2026-04-05T07:51:01Z</time></trkpt><trkpt lat="43.853139917578524" lon="12.053651741349404"><ele>738.3333333333334</ele><time>2026-04-05T07:51:02Z</time></trkpt><trkpt lat="43.85297526124881" lon="12.05366683056406"><ele>736.0</ele><time>2026-04-05T07:51:03Z</time></trkpt><trkpt lat="43.85281914944554" lon="12.053682926933034"><ele>736.0</ele><time>2026-04-05T07:51:04Z</time></trkpt><trkpt lat="43.85267111359777" lon="12.053710776544964"><ele>736.0</ele><time>2026-04-05T07:51:05Z</time></trkpt><trkpt lat="43.85252940641719" lon="12.053777482067353"><ele>736.0</ele><time>2026-04-05T07:51:06Z</time></trkpt><trkpt lat="43.852401838591234" lon="12.053884368955545"><ele>736.0</ele><time>2026-04-05T07:51:07Z</time></trkpt><trkpt lat="43.85229884094722" lon="12.053988257420691"><ele>735.25</ele><time>2026-04-05T07:51:08Z</time></trkpt><trkpt lat="43.85218307471387" lon="12.054019268529501"><ele>734.5</ele><time>2026-04-05T07:51:09Z</time></trkpt><trkpt lat="43.852067000147755" lon="12.053999140584104"><ele>733.75</ele><time>2026-04-05T07:51:10Z</time></trkpt><trkpt lat="43.85197175333613" lon="12.053886805177388"><ele>733.0</ele><time>2026-04-05T07:51:11Z</time></trkpt><trkpt lat="43.851854412245665" lon="12.053760292116392"><ele>730.0</ele><time>2026-04-05T07:51:12Z</time></trkpt><trkpt lat="43.851723313258226" lon="12.05362088376948"><ele>727.0</ele><time>2026-04-05T07:51:13Z</time></trkpt><trkpt lat="43.85157377749761" lon="12.053519828968872"><ele>724.0</ele><time>2026-04-05T07:51:14Z</time></trkpt><trkpt lat="43.85142550617335" lon="12.05342571910336"><ele>724.0</ele><time>2026-04-05T07:51:15Z</time></trkpt><trkpt lat="43.851261574070094" lon="12.053349379259197"><ele>724.0</ele><time>2026-04-05T07:51:16Z</time></trkpt><trkpt lat="43.85110453313124" lon="12.053284480080048"><ele>724.0</ele><time>2026-04-05T07:51:17Z</time></trkpt><trkpt lat="43.85095046711442" lon="12.053233137863923"><ele>729.3333333333334</ele><time>2026-04-05T07:51:18Z</time></trkpt><trkpt lat="43.85079813267647" lon="12.053177665931996"><ele>734.6666666666666</ele><time>2026-04-05T07:51:19Z</time></trkpt><trkpt lat="43.85064359042347" lon="12.053204469828762"><ele>740.0</ele><time>2026-04-05T07:51:20Z</time></trkpt><trkpt lat="43.85049768794438" lon="12.053248941701577"><ele>731.3333333333333</ele><time>2026-04-05T07:51:21Z</time></trkpt><trkpt lat="43.850360471151184" lon="12.053333017683485"><ele>722.6666666666666</ele><time>2026-04-05T07:51:22Z</time></trkpt><trkpt lat="43.85021994013573" lon="12.053434778859266"><ele>714.0</ele><time>2026-04-05T07:51:23Z</time></trkpt><trkpt lat="43.85008724650353" lon="12.053537394217473"><ele>712.75</ele><time>2026-04-05T07:51:24Z</time></trkpt><trkpt lat="43.84995597894043" lon="12.053635177643324"><ele>711.5</ele><time>2026-04-05T07:51:25Z</time></trkpt><trkpt lat="43.84982726830371" lon="12.053723944210395"><ele>710.25</ele><time>2026-04-05T07:51:26Z</time></trkpt><trkpt lat="43.84970192452666" lon="12.053814474950588"><ele>709.0</ele><time>2026-04-05T07:51:27Z</time></trkpt><trkpt lat="43.84958931403735" lon="12.053926452679926"><ele>709.0</ele><time>2026-04-05T07:51:28Z</time></trkpt><trkpt lat="43.84949840700572" lon="12.054067587280288"><ele>709.0</ele><time>2026-04-05T07:51:29Z</time></trkpt><trkpt lat="43.84941626883236" lon="12.054224911097034"><ele>709.0</ele><time>2026-04-05T07:51:30Z</time></trkpt><trkpt lat="43.84933662598537" lon="12.054389633044444"><ele>709.0</ele><time>2026-04-05T07:51:31Z</time></trkpt><trkpt lat="43.84926237035357" lon="12.054559916185678"><ele>706.5</ele><time>2026-04-05T07:51:32Z</time></trkpt><trkpt lat="43.84920104553628" lon="12.05473180301551"><ele>704.0</ele><time>2026-04-05T07:51:33Z</time></trkpt><trkpt lat="43.84916744151639" lon="12.054913650715347"><ele>701.5</ele><time>2026-04-05T07:51:34Z</time></trkpt><trkpt lat="43.84915724130758" lon="12.05509594205675"><ele>699.0</ele><time>2026-04-05T07:51:35Z</time></trkpt><trkpt lat="43.84916317260853" lon="12.055279741606755"><ele>696.6</ele><time>2026-04-05T07:51:36Z</time></trkpt><trkpt lat="43.84917330633304" lon="12.055460370874542"><ele>694.2</ele><time>2026-04-05T07:51:37Z</time></trkpt><trkpt lat="43.84918404729994" lon="12.055628008041197"><ele>691.8000000000001</ele><time>2026-04-05T07:51:38Z</time></trkpt><trkpt lat="43.84918741848497" lon="12.055765265545222"><ele>689.4000000000001</ele><time>2026-04-05T07:51:39Z</time></trkpt><trkpt lat="43.84918495556839" lon="12.055885534154145"><ele>687.0</ele><time>2026-04-05T07:51:40Z</time></trkpt><trkpt lat="43.84919143853233" lon="12.055978735190058"><ele>685.8333333333334</ele><time>2026-04-05T07:51:41Z</time></trkpt><trkpt lat="43.84913933761817" lon="12.056069639994979"><ele>684.6666666666666</ele><time>2026-04-05T07:51:42Z</time></trkpt><trkpt lat="43.84908147145252" lon="12.056139124930162"><ele>683.5</ele><time>2026-04-05T07:51:43Z</time></trkpt><trkpt lat="43.84900766880969" lon="12.056183488815167"><ele>682.3333333333333</ele><time>2026-04-05T07:51:44Z</time></trkpt><trkpt lat="43.848926221112194" lon="12.056205729813064"><ele>681.1666666666666</ele><time>2026-04-05T07:51:45Z</time></trkpt><trkpt lat="43.848842228262434" lon="12.05618379501487"><ele>680.0</ele><time>2026-04-05T07:51:46Z</time></trkpt><trkpt lat="43.848765600298115" lon="12.056177978199813"><ele>680.0</ele><time>2026-04-05T07:51:47Z</time></trkpt><trkpt lat="43.8486897840831" lon="12.056171795011572"><ele>680.0</ele><time>2026-04-05T07:51:48Z</time></trkpt><trkpt lat="43.84862031721798" lon="12.056172824790297"><ele>680.0</ele><time>2026-04-05T07:51:49Z</time></trkpt><trkpt lat="43.848508658640775" lon="12.056205973087511"><ele>680.0</ele><time>2026-04-05T07:51:51Z</time></trkpt><trkpt lat="43.84844433376209" lon="12.056191650598294"><ele>680.0</ele><time>2026-04-05T07:51:52Z</time></trkpt><trkpt lat="43.84837213053499" lon="12.056201155418167"><ele>680.0</ele><time>2026-04-05T07:51:53Z</time></trkpt><trkpt lat="43.84830338918123" lon="12.056210204358337"><ele>679.5</ele><time>2026-04-05T07:51:54Z</time></trkpt><trkpt lat="43.84823895810865" lon="12.056250835530815"><ele>679.0</ele><time>2026-04-05T07:51:55Z</time></trkpt><trkpt lat="43.848167796083" lon="12.056261968473612"><ele>678.5</ele><time>2026-04-05T07:51:56Z</time></trkpt><trkpt lat="43.8480784216261" lon="12.056252792077302"><ele>678.0</ele><time>2026-04-05T07:51:57Z</time></trkpt><trkpt lat="43.84798769700399" lon="12.056250301741516"><ele>677.5</ele><time>2026-04-05T07:51:58Z</time></trkpt><trkpt lat="43.84791289629843" lon="12.056260212175351"><ele>677.0</ele><time>2026-04-05T07:51:59Z</time></trkpt><trkpt lat="43.8478429618784" lon="12.056238402516497"><ele>677.0</ele><time>2026-04-05T07:52:00Z</time></trkpt><trkpt lat="43.84776676218236" lon="12.056238402515701"><ele>677.0</ele><time>2026-04-05T07:52:01Z</time></trkpt><trkpt lat="43.847702730259215" lon="12.056267830495417"><ele>677.0</ele><time>2026-04-05T07:52:02Z</time></trkpt><trkpt lat="43.84758347761186" lon="12.05629746703124"><ele>677.0</ele><time>2026-04-05T07:52:04Z</time></trkpt><trkpt lat="43.847498255117955" lon="12.056356885601215"><ele>677.0</ele><time>2026-04-05T07:52:06Z</time></trkpt><trkpt lat="43.84741040252659" lon="12.05643838711384"><ele>676.6666666666666</ele><time>2026-04-05T07:52:08Z</time></trkpt><trkpt lat="43.847354533085344" lon="12.056503182851918"><ele>676.3333333333333</ele><time>2026-04-05T07:52:09Z</time></trkpt><trkpt lat="43.84728880386425" lon="12.056562486981209"><ele>676.0</ele><time>2026-04-05T07:52:10Z</time></trkpt><trkpt lat="43.847229789216776" lon="12.05662933865846"><ele>675.6666666666666</ele><time>2026-04-05T07:52:11Z</time></trkpt><trkpt lat="43.84717053930781" lon="12.056691699357797"><ele>675.3333333333334</ele><time>2026-04-05T07:52:12Z</time></trkpt><trkpt lat="43.84710949925764" lon="12.056759504172932"><ele>675.0</ele><time>2026-04-05T07:52:13Z</time></trkpt><trkpt lat="43.847039685635515" lon="12.056833278544884"><ele>674.0</ele><time>2026-04-05T07:52:14Z</time></trkpt><trkpt lat="43.84697632022028" lon="12.056896409208138"><ele>673.0</ele><time>2026-04-05T07:52:15Z</time></trkpt><trkpt lat="43.84691708287174" lon="12.056963412301986"><ele>672.0</ele><time>2026-04-05T07:52:16Z</time></trkpt><trkpt lat="43.84685322530686" lon="12.05703436566997"><ele>671.0</ele><time>2026-04-05T07:52:17Z</time></trkpt><trkpt lat="43.84679031712431" lon="12.05710624584181"><ele>670.0</ele><time>2026-04-05T07:52:18Z</time></trkpt><trkpt lat="43.84672743612766" lon="12.057172293960829"><ele>669.0</ele><time>2026-04-05T07:52:19Z</time></trkpt><trkpt lat="43.84666386531805" lon="12.057241857277045"><ele>669.0</ele><time>2026-04-05T07:52:20Z</time></trkpt><trkpt lat="43.84659723873612" lon="12.057331463553544"><ele>669.0</ele><time>2026-04-05T07:52:21Z</time></trkpt><trkpt lat="43.846520636103925" lon="12.057425089517666"><ele>669.0</ele><time>2026-04-05T07:52:22Z</time></trkpt><trkpt lat="43.84643936142443" lon="12.057521724470963"><ele>669.0</ele><time>2026-04-05T07:52:23Z</time></trkpt><trkpt lat="43.84636133864882" lon="12.057616015520352"><ele>669.0</ele><time>2026-04-05T07:52:24Z</time></trkpt><trkpt lat="43.84629797315966" lon="12.05769626080059"><ele>668.6</ele><time>2026-04-05T07:52:25Z</time></trkpt><trkpt lat="43.846246944381086" lon="12.057755498362448"><ele>668.2</ele><time>2026-04-05T07:52:26Z</time></trkpt><trkpt lat="43.846174646790764" lon="12.05780974500659"><ele>667.8000000000001</ele><time>2026-04-05T07:52:28Z</time></trkpt><trkpt lat="43.84603810381609" lon="12.057789608588662"><ele>667.4000000000001</ele><time>2026-04-05T07:52:30Z</time></trkpt><trkpt lat="43.84593566739379" lon="12.057778940837292"><ele>667.0</ele><time>2026-04-05T07:52:31Z</time></trkpt><trkpt lat="43.84582957040635" lon="12.057772222754663"><ele>667.0</ele><time>2026-04-05T07:52:32Z</time></trkpt><trkpt lat="43.845734998429826" lon="12.057795054674747"><ele>667.0</ele><time>2026-04-05T07:52:33Z</time></trkpt><trkpt lat="43.845661288315256" lon="12.057856088477422"><ele>667.0</ele><time>2026-04-05T07:52:34Z</time></trkpt><trkpt lat="43.8456067243832" lon="12.057951658725042"><ele>667.0</ele><time>2026-04-05T07:52:35Z</time></trkpt><trkpt lat="43.845549178827525" lon="12.058084822346876"><ele>667.0</ele><time>2026-04-05T07:52:36Z</time></trkpt><trkpt lat="43.84547665066826" lon="12.058236392996122"><ele>666.25</ele><time>2026-04-05T07:52:37Z</time></trkpt><trkpt lat="43.84539007425999" lon="12.058395554437404"><ele>665.5</ele><time>2026-04-05T07:52:38Z</time></trkpt><trkpt lat="43.8452993523749" lon="12.058566968706234"><ele>664.75</ele><time>2026-04-05T07:52:39Z</time></trkpt><trkpt lat="43.84522196100615" lon="12.058716277682668"><ele>664.0</ele><time>2026-04-05T07:52:40Z</time></trkpt><trkpt lat="43.84516568446221" lon="12.058818884076642"><ele>663.0</ele><time>2026-04-05T07:52:41Z</time></trkpt><trkpt lat="43.845110346088475" lon="12.058912053114854"><ele>662.0</ele><time>2026-04-05T07:52:42Z</time></trkpt><trkpt lat="43.84503557440542" lon="12.059013489173575"><ele>661.0</ele><time>2026-04-05T07:52:43Z</time></trkpt><trkpt lat="43.84494789011679" lon="12.059132802610314"><ele>660.0</ele><time>2026-04-05T07:52:44Z</time></trkpt><trkpt lat="43.844856213735916" lon="12.059258831341"><ele>659.0</ele><time>2026-04-05T07:52:45Z</time></trkpt><trkpt lat="43.844777286909206" lon="12.059383359624816"><ele>658.8000000000001</ele><time>2026-04-05T07:52:46Z</time></trkpt><trkpt lat="43.84470828092083" lon="12.059502061614547"><ele>658.6</ele><time>2026-04-05T07:52:47Z</time></trkpt><trkpt lat="43.84465649644089" lon="12.059614755931822"><ele>658.4</ele><time>2026-04-05T07:52:48Z</time></trkpt><trkpt lat="43.84462501997197" lon="12.059739840465916"><ele>658.2</ele><time>2026-04-05T07:52:49Z</time></trkpt><trkpt lat="43.84460667740974" lon="12.059885417256947"><ele>658.0</ele><time>2026-04-05T07:52:50Z</time></trkpt><trkpt lat="43.8445952112447" lon="12.060054082825006"><ele>659.0</ele><time>2026-04-05T07:52:51Z</time></trkpt><trkpt lat="43.8445863462541" lon="12.0602246438469"><ele>660.0</ele><time>2026-04-05T07:52:52Z</time></trkpt><trkpt lat="43.844580976339536" lon="12.060409371879352"><ele>661.0</ele><time>2026-04-05T07:52:53Z</time></trkpt><trkpt lat="43.84457428889961" lon="12.060603012427043"><ele>662.0</ele><time>2026-04-05T07:52:54Z</time></trkpt><trkpt lat="43.8445609190801" lon="12.060807946996553"><ele>662.3333333333333</ele><time>2026-04-05T07:52:55Z</time></trkpt><trkpt lat="43.84455356783835" lon="12.061035629864952"><ele>662.6666666666666</ele><time>2026-04-05T07:52:56Z</time></trkpt><trkpt lat="43.844554794998146" lon="12.06128487670803"><ele>663.0</ele><time>2026-04-05T07:52:57Z</time></trkpt><trkpt lat="43.84457157882681" lon="12.061565239281503"><ele>664.0</ele><time>2026-04-05T07:52:58Z</time></trkpt><trkpt lat="43.84461062210684" lon="12.06189184943834"><ele>665.0</ele><time>2026-04-05T07:52:59Z</time></trkpt><trkpt lat="43.844659199715636" lon="12.06224552001254"><ele>668.0</ele><time>2026-04-05T07:53:00Z</time></trkpt><trkpt lat="43.844697114918155" lon="12.0626024271236"><ele>671.0</ele><time>2026-04-05T07:53:01Z</time></trkpt><trkpt lat="43.84473337579838" lon="12.062929297452653"><ele>671.0</ele><time>2026-04-05T07:53:02Z</time></trkpt><trkpt lat="43.84475463042385" lon="12.063215413711752"><ele>671.0</ele><time>2026-04-05T07:53:03Z</time></trkpt><trkpt lat="43.84475757217564" lon="12.063478868108312"><ele>671.0</ele><time>2026-04-05T07:53:04Z</time></trkpt><trkpt lat="43.844731120707095" lon="12.063724277326456"><ele>671.0</ele><time>2026-04-05T07:53:05Z</time></trkpt><trkpt lat="43.84471011993166" lon="12.0638829288485"><ele>671.0</ele><time>2026-04-05T07:53:06Z</time></trkpt><trkpt lat="43.844663640484576" lon="12.0640184144715"><ele>671.0</ele><time>2026-04-05T07:53:08Z</time></trkpt><trkpt lat="43.84459211912955" lon="12.063816283076394"><ele>671.0</ele><time>2026-04-05T07:53:11Z</time></trkpt><trkpt lat="43.844531465151626" lon="12.063742315605493"><ele>671.0</ele><time>2026-04-05T07:53:12Z</time></trkpt><trkpt lat="43.844483422623235" lon="12.063589502259719"><ele>671.0</ele><time>2026-04-05T07:53:13Z</time></trkpt><trkpt lat="43.84441197752492" lon="12.063425444135524"><ele>671.0</ele><time>2026-04-05T07:53:14Z</time></trkpt><trkpt lat="43.84434199601783" lon="12.063257704152146"><ele>671.0</ele><time>2026-04-05T07:53:15Z</time></trkpt><trkpt lat="43.84427927655659" lon="12.063104146956325"><ele>674.0</ele><time>2026-04-05T07:53:16Z</time></trkpt><trkpt lat="43.844197817087014" lon="12.06293715707459"><ele>677.0</ele><time>2026-04-05T07:53:17Z</time></trkpt><trkpt lat="43.844130540777996" lon="12.062774730559745"><ele>680.0</ele><time>2026-04-05T07:53:18Z</time></trkpt><trkpt lat="43.8440416390461" lon="12.062628525458138"><ele>683.0</ele><time>2026-04-05T07:53:19Z</time></trkpt><trkpt lat="43.84394206755023" lon="12.062510228358999"><ele>681.3333333333333</ele><time>2026-04-05T07:53:20Z</time></trkpt><trkpt lat="43.843832382695105" lon="12.062403169875504"><ele>679.6666666666666</ele><time>2026-04-05T07:53:21Z</time></trkpt><trkpt lat="43.84367787285483" lon="12.062280860835543"><ele>678.0</ele><time>2026-04-05T07:53:22Z</time></trkpt><trkpt lat="43.843495810260585" lon="12.062122263761596"><ele>682.0</ele><time>2026-04-05T07:53:23Z</time></trkpt><trkpt lat="43.84333038141782" lon="12.06193880562655"><ele>686.0</ele><time>2026-04-05T07:53:24Z</time></trkpt><trkpt lat="43.8431945451072" lon="12.061748711274904"><ele>690.0</ele><time>2026-04-05T07:53:25Z</time></trkpt><trkpt lat="43.84305894911431" lon="12.06154815318449"><ele>690.0</ele><time>2026-04-05T07:53:26Z</time></trkpt><trkpt lat="43.8429175246969" lon="12.061342775284427"><ele>690.0</ele><time>2026-04-05T07:53:27Z</time></trkpt><trkpt lat="43.842775944902804" lon="12.061146412095564"><ele>690.0</ele><time>2026-04-05T07:53:28Z</time></trkpt><trkpt lat="43.84264964440494" lon="12.060965072155215"><ele>693.3333333333334</ele><time>2026-04-05T07:53:29Z</time></trkpt><trkpt lat="43.84254166329341" lon="12.060799828371765"><ele>696.6666666666667</ele><time>2026-04-05T07:53:30Z</time></trkpt><trkpt lat="43.84244126172458" lon="12.060615711749042"><ele>700.0</ele><time>2026-04-05T07:53:31Z</time></trkpt><trkpt lat="43.84236791807834" lon="12.06041779151661"><ele>700.0</ele><time>2026-04-05T07:53:32Z</time></trkpt><trkpt lat="43.84231325361424" lon="12.060204108423267"><ele>700.0</ele><time>2026-04-05T07:53:33Z</time></trkpt><trkpt lat="43.84227817593822" lon="12.059983647638342"><ele>700.0</ele><time>2026-04-05T07:53:34Z</time></trkpt><trkpt lat="43.84225503961997" lon="12.0597540248163"><ele>700.6666666666667</ele><time>2026-04-05T07:53:35Z</time></trkpt><trkpt lat="43.842222965074235" lon="12.059524295255173"><ele>701.3333333333334</ele><time>2026-04-05T07:53:36Z</time></trkpt><trkpt lat="43.842184859666816" lon="12.059298665925041"><ele>702.0</ele><time>2026-04-05T07:53:37Z</time></trkpt><trkpt lat="43.84214279818181" lon="12.059086316880956"><ele>702.6666666666666</ele><time>2026-04-05T07:53:38Z</time></trkpt><trkpt lat="43.842097738141774" lon="12.058866142922568"><ele>703.3333333333333</ele><time>2026-04-05T07:53:39Z</time></trkpt><trkpt lat="43.842049624006" lon="12.058648419673947"><ele>704.0</ele><time>2026-04-05T07:53:40Z</time></trkpt><trkpt lat="43.8419954952534" lon="12.058435000998578"><ele>704.6666666666666</ele><time>2026-04-05T07:53:41Z</time></trkpt><trkpt lat="43.84193263757849" lon="12.058226479105752"><ele>705.3333333333334</ele><time>2026-04-05T07:53:42Z</time></trkpt><trkpt lat="43.84187521102498" lon="12.058025808817199"><ele>706.0</ele><time>2026-04-05T07:53:43Z</time></trkpt><trkpt lat="43.84182928861945" lon="12.057825965676425"><ele>706.0</ele><time>2026-04-05T07:53:44Z</time></trkpt><trkpt lat="43.841832209139184" lon="12.057639005360269"><ele>706.0</ele><time>2026-04-05T07:53:45Z</time></trkpt><trkpt lat="43.84183166551429" lon="12.057471169666966"><ele>706.0</ele><time>2026-04-05T07:53:46Z</time></trkpt><trkpt lat="43.84181778713644" lon="12.057332507390539"><ele>706.0</ele><time>2026-04-05T07:53:47Z</time></trkpt><trkpt lat="43.84178926931671" lon="12.05720253729877"><ele>708.5999999999999</ele><time>2026-04-05T07:53:48Z</time></trkpt><trkpt lat="43.841732998538895" lon="12.057075107367831"><ele>711.2</ele><time>2026-04-05T07:53:49Z</time></trkpt><trkpt lat="43.84168747467016" lon="12.056948886001393"><ele>713.8</ele><time>2026-04-05T07:53:50Z</time></trkpt><trkpt lat="43.841628588750815" lon="12.056834790825667"><ele>716.4000000000001</ele><time>2026-04-05T07:53:51Z</time></trkpt><trkpt lat="43.84155794486118" lon="12.056729521944641"><ele>719.0</ele><time>2026-04-05T07:53:52Z</time></trkpt><trkpt lat="43.84148906116835" lon="12.056623250108998"><ele>718.5</ele><time>2026-04-05T07:53:53Z</time></trkpt><trkpt lat="43.84140064353211" lon="12.056538616276528"><ele>718.0</ele><time>2026-04-05T07:53:54Z</time></trkpt><trkpt lat="43.84131380421651" lon="12.05647744699171"><ele>717.5</ele><time>2026-04-05T07:53:55Z</time></trkpt><trkpt lat="43.841246247158175" lon="12.056440352527021"><ele>717.0</ele><time>2026-04-05T07:53:56Z</time></trkpt><trkpt lat="43.84116937726073" lon="12.056426966676288"><ele>716.5</ele><time>2026-04-05T07:53:57Z</time></trkpt><trkpt lat="43.84107853700091" lon="12.056436640159282"><ele>716.0</ele><time>2026-04-05T07:53:58Z</time></trkpt><trkpt lat="43.84097336403636" lon="12.056476028953801"><ele>717.0</ele><time>2026-04-05T07:53:59Z</time></trkpt><trkpt lat="43.84085297280842" lon="12.056499020529856"><ele>718.0</ele><time>2026-04-05T07:54:00Z</time></trkpt><trkpt lat="43.84071848224072" lon="12.05651924859794"><ele>719.0</ele><time>2026-04-05T07:54:01Z</time></trkpt><trkpt lat="43.84056875960474" lon="12.05652944168679"><ele>720.0</ele><time>2026-04-05T07:54:02Z</time></trkpt><trkpt lat="43.84041697068816" lon="12.056521264287372"><ele>720.0</ele><time>2026-04-05T07:54:03Z</time></trkpt><trkpt lat="43.84027354833808" lon="12.056504032464035"><ele>720.0</ele><time>2026-04-05T07:54:04Z</time></trkpt><trkpt lat="43.84012410252708" lon="12.056455335332785"><ele>720.0</ele><time>2026-04-05T07:54:05Z</time></trkpt><trkpt lat="43.83997139230717" lon="12.056424116643699"><ele>721.6666666666666</ele><time>2026-04-05T07:54:06Z</time></trkpt><trkpt lat="43.83981259192188" lon="12.056410732460064"><ele>723.3333333333333</ele><time>2026-04-05T07:54:07Z</time></trkpt><trkpt lat="43.83965293809744" lon="12.056392870412907"><ele>725.0</ele><time>2026-04-05T07:54:08Z</time></trkpt><trkpt lat="43.83951129561816" lon="12.056394231440947"><ele>725.0</ele><time>2026-04-05T07:54:09Z</time></trkpt><trkpt lat="43.83938831396308" lon="12.056360551683472"><ele>725.0</ele><time>2026-04-05T07:54:10Z</time></trkpt><trkpt lat="43.839272448137955" lon="12.056308935556034"><ele>725.0</ele><time>2026-04-05T07:54:11Z</time></trkpt><trkpt lat="43.83916734020686" lon="12.0562200215303"><ele>725.0</ele><time>2026-04-05T07:54:12Z</time></trkpt><trkpt lat="43.839059782595015" lon="12.056147291654403"><ele>726.25</ele><time>2026-04-05T07:54:13Z</time></trkpt><trkpt lat="43.838940348508736" lon="12.056112018196066"><ele>727.5</ele><time>2026-04-05T07:54:14Z</time></trkpt><trkpt lat="43.83880699636976" lon="12.05610074923652"><ele>728.75</ele><time>2026-04-05T07:54:15Z</time></trkpt><trkpt lat="43.83866880004893" lon="12.056097554464724"><ele>730.0</ele><time>2026-04-05T07:54:16Z</time></trkpt><trkpt lat="43.83853285576953" lon="12.0560529500089"><ele>732.0</ele><time>2026-04-05T07:54:17Z</time></trkpt><trkpt lat="43.83839743010947" lon="12.055972823472025"><ele>734.0</ele><time>2026-04-05T07:54:18Z</time></trkpt><trkpt lat="43.83825090177983" lon="12.055875193949046"><ele>736.0</ele><time>2026-04-05T07:54:19Z</time></trkpt><trkpt lat="43.83809340916156" lon="12.055758475298532"><ele>736.0</ele><time>2026-04-05T07:54:20Z</time></trkpt><trkpt lat="43.83790173680216" lon="12.05571118297895"><ele>736.0</ele><time>2026-04-05T07:54:21Z</time></trkpt><trkpt lat="43.837746838939616" lon="12.055657251576264"><ele>736.0</ele><time>2026-04-05T07:54:22Z</time></trkpt><trkpt lat="43.83762522357557" lon="12.055583616906125"><ele>737.75</ele><time>2026-04-05T07:54:23Z</time></trkpt><trkpt lat="43.83751675071661" lon="12.055489978899981"><ele>739.5</ele><time>2026-04-05T07:54:24Z</time></trkpt><trkpt lat="43.83743784356604" lon="12.055337563358819"><ele>741.25</ele><time>2026-04-05T07:54:25Z</time></trkpt><trkpt lat="43.837332546551515" lon="12.05520695657698"><ele>743.0</ele><time>2026-04-05T07:54:26Z</time></trkpt><trkpt lat="43.83724875084563" lon="12.055112067820911"><ele>743.0</ele><time>2026-04-05T07:54:27Z</time></trkpt><trkpt lat="43.83718011806538" lon="12.055054906108529"><ele>743.0</ele><time>2026-04-05T07:54:28Z</time></trkpt><trkpt lat="43.83712467096001" lon="12.055001386541438"><ele>743.0</ele><time>2026-04-05T07:54:31Z</time></trkpt><trkpt lat="43.837121960270764" lon="12.055257632693237"><ele>743.0</ele><time>2026-04-05T07:54:34Z</time></trkpt><trkpt lat="43.83718748950439" lon="12.055391585357368"><ele>743.0</ele><time>2026-04-05T07:54:35Z</time></trkpt><trkpt lat="43.837292783961914" lon="12.055524561282535"><ele>743.0</ele><time>2026-04-05T07:54:36Z</time></trkpt><trkpt lat="43.837392544236074" lon="12.055676110455886"><ele>743.0</ele><time>2026-04-05T07:54:37Z</time></trkpt><trkpt lat="43.837508082404895" lon="12.055862934081361"><ele>743.0</ele><time>2026-04-05T07:54:38Z</time></trkpt><trkpt lat="43.83761835024351" lon="12.056045423973698"><ele>742.0</ele><time>2026-04-05T07:54:39Z</time></trkpt><trkpt lat="43.83774614684037" lon="12.056228717447647"><ele>741.0</ele><time>2026-04-05T07:54:40Z</time></trkpt><trkpt lat="43.83785045829871" lon="12.056414263494899"><ele>740.0</ele><time>2026-04-05T07:54:41Z</time></trkpt><trkpt lat="43.83798234086854" lon="12.05657826044389"><ele>747.6666666666666</ele><time>2026-04-05T07:54:42Z</time></trkpt><trkpt lat="43.83811389556433" lon="12.05670260868255"><ele>755.3333333333334</ele><time>2026-04-05T07:54:43Z</time></trkpt><trkpt lat="43.838253404112585" lon="12.056753883669442"><ele>763.0</ele><time>2026-04-05T07:54:44Z</time></trkpt><trkpt lat="43.83843102578795" lon="12.056789671110948"><ele>758.25</ele><time>2026-04-05T07:54:45Z</time></trkpt><trkpt lat="43.83856588345952" lon="12.056879773681823"><ele>753.5</ele><time>2026-04-05T07:54:46Z</time></trkpt><trkpt lat="43.83870574206131" lon="12.05696515626251"><ele>748.75</ele><time>2026-04-05T07:54:47Z</time></trkpt><trkpt lat="43.83875772987982" lon="12.057072684597243"><ele>744.0</ele><time>2026-04-05T07:54:48Z</time></trkpt><trkpt lat="43.838782832457035" lon="12.057218032983197"><ele>744.0</ele><time>2026-04-05T07:54:49Z</time></trkpt><trkpt lat="43.83872426317547" lon="12.057397044628297"><ele>744.0</ele><time>2026-04-05T07:54:50Z</time></trkpt><trkpt lat="43.83868234950185" lon="12.0576033280842"><ele>744.0</ele><time>2026-04-05T07:54:51Z</time></trkpt><trkpt lat="43.83869532466973" lon="12.057793411776723"><ele>744.0</ele><time>2026-04-05T07:54:52Z</time></trkpt><trkpt lat="43.838776968554804" lon="12.057927092529559"><ele>748.6666666666666</ele><time>2026-04-05T07:54:53Z</time></trkpt><trkpt lat="43.83889635426476" lon="12.058016370959296"><ele>753.3333333333333</ele><time>2026-04-05T07:54:54Z</time></trkpt><trkpt lat="43.839046202006564" lon="12.058162233223182"><ele>758.0</ele><time>2026-04-05T07:54:55Z</time></trkpt><trkpt lat="43.83916153888196" lon="12.05829321199857"><ele>762.5</ele><time>2026-04-05T07:54:56Z</time></trkpt><trkpt lat="43.839227178413005" lon="12.05841520191743"><ele>767.0</ele><time>2026-04-05T07:54:57Z</time></trkpt><trkpt lat="43.839193664619465" lon="12.058582519541662"><ele>771.5</ele><time>2026-04-05T07:54:58Z</time></trkpt><trkpt lat="43.83914844758128" lon="12.058743684434903"><ele>776.0</ele><time>2026-04-05T07:54:59Z</time></trkpt><trkpt lat="43.83910011660724" lon="12.058998968210693"><ele>778.5</ele><time>2026-04-05T07:55:00Z</time></trkpt><trkpt lat="43.839035495514246" lon="12.05931236759312"><ele>781.0</ele><time>2026-04-05T07:55:01Z</time></trkpt><trkpt lat="43.83892461686151" lon="12.059624007715275"><ele>781.0</ele><time>2026-04-05T07:55:02Z</time></trkpt><trkpt lat="43.83883611036363" lon="12.059840163714133"><ele>781.0</ele><time>2026-04-05T07:55:03Z</time></trkpt><trkpt lat="43.83879026719254" lon="12.060059635402153"><ele>781.0</ele><time>2026-04-05T07:55:04Z</time></trkpt><trkpt lat="43.8388058541997" lon="12.060249456742744"><ele>781.0</ele><time>2026-04-05T07:55:05Z</time></trkpt><trkpt lat="43.83887261361767" lon="12.060428228554862"><ele>781.0</ele><time>2026-04-05T07:55:06Z</time></trkpt><trkpt lat="43.83897538543589" lon="12.060601524018068"><ele>781.0</ele><time>2026-04-05T07:55:07Z</time></trkpt><trkpt lat="43.83903185954416" lon="12.060815279414937"><ele>783.3333333333333</ele><time>2026-04-05T07:55:08Z</time></trkpt><trkpt lat="43.83904002771118" lon="12.060975808651163"><ele>785.6666666666667</ele><time>2026-04-05T07:55:09Z</time></trkpt><trkpt lat="43.83900150229161" lon="12.061155063439701"><ele>788.0</ele><time>2026-04-05T07:55:10Z</time></trkpt><trkpt lat="43.83893356298228" lon="12.061419000375547"><ele>788.0</ele><time>2026-04-05T07:55:11Z</time></trkpt><trkpt lat="43.83885612958128" lon="12.061698805090938"><ele>788.0</ele><time>2026-04-05T07:55:12Z</time></trkpt><trkpt lat="43.838783847940746" lon="12.062094241253522"><ele>788.5</ele><time>2026-04-05T07:55:13Z</time></trkpt><trkpt lat="43.83874431291454" lon="12.062488296354767"><ele>789.0</ele><time>2026-04-05T07:55:14Z</time></trkpt><trkpt lat="43.838727064462226" lon="12.062838641105476"><ele>789.0</ele><time>2026-04-05T07:55:15Z</time></trkpt><trkpt lat="43.838686722293424" lon="12.063130392088683"><ele>789.0</ele><time>2026-04-05T07:55:16Z</time></trkpt><trkpt lat="43.8386324919353" lon="12.063366255449283"><ele>789.0</ele><time>2026-04-05T07:55:17Z</time></trkpt><trkpt lat="43.83854278763592" lon="12.063605377518765"><ele>797.3333333333333</ele><time>2026-04-05T07:55:18Z</time></trkpt><trkpt lat="43.8384363656831" lon="12.06386236281978"><ele>805.6666666666666</ele><time>2026-04-05T07:55:19Z</time></trkpt><trkpt lat="43.8383236351005" lon="12.064144363438354"><ele>814.0</ele><time>2026-04-05T07:55:20Z</time></trkpt><trkpt lat="43.838217909004115" lon="12.064392095002763"><ele>814.0</ele><time>2026-04-05T07:55:21Z</time></trkpt><trkpt lat="43.83812872594845" lon="12.06461596244204"><ele>814.0</ele><time>2026-04-05T07:55:22Z</time></trkpt><trkpt lat="43.83803511809689" lon="12.064847267683264"><ele>814.0</ele><time>2026-04-05T07:55:23Z</time></trkpt><trkpt lat="43.837850861785995" lon="12.065317773119654"><ele>814.0</ele><time>2026-04-05T07:55:25Z</time></trkpt><trkpt lat="43.837750581276865" lon="12.065546940858527"><ele>814.0</ele><time>2026-04-05T07:55:26Z</time></trkpt><trkpt lat="43.83766160245612" lon="12.065745903171402"><ele>814.0</ele><time>2026-04-05T07:55:27Z</time></trkpt><trkpt lat="43.837558271428506" lon="12.065912327707224"><ele>815.25</ele><time>2026-04-05T07:55:28Z</time></trkpt><trkpt lat="43.83745672685414" lon="12.066043463745869"><ele>816.5</ele><time>2026-04-05T07:55:29Z</time></trkpt><trkpt lat="43.83735906523265" lon="12.066149845368697"><ele>817.75</ele><time>2026-04-05T07:55:30Z</time></trkpt><trkpt lat="43.83725850007747" lon="12.06625204885892"><ele>819.0</ele><time>2026-04-05T07:55:31Z</time></trkpt><trkpt lat="43.837154999371016" lon="12.066367480254442"><ele>819.0</ele><time>2026-04-05T07:55:32Z</time></trkpt><trkpt lat="43.837064737004034" lon="12.06648862597777"><ele>819.0</ele><time>2026-04-05T07:55:33Z</time></trkpt><trkpt lat="43.83698959715571" lon="12.066614125458027"><ele>819.0</ele><time>2026-04-05T07:55:34Z</time></trkpt><trkpt lat="43.83692446740467" lon="12.066739527701847"><ele>819.0</ele><time>2026-04-05T07:55:35Z</time></trkpt><trkpt lat="43.83685015688541" lon="12.06686770758099"><ele>821.0</ele><time>2026-04-05T07:55:36Z</time></trkpt><trkpt lat="43.836775671696365" lon="12.066974039901377"><ele>823.0</ele><time>2026-04-05T07:55:37Z</time></trkpt><trkpt lat="43.83669843170258" lon="12.067061290860561"><ele>825.0</ele><time>2026-04-05T07:55:38Z</time></trkpt><trkpt lat="43.83661133082154" lon="12.067135724906503"><ele>827.0</ele><time>2026-04-05T07:55:39Z</time></trkpt><trkpt lat="43.83652062001219" lon="12.067192439438285"><ele>829.0</ele><time>2026-04-05T07:55:40Z</time></trkpt><trkpt lat="43.83642045435061" lon="12.067239328631326"><ele>829.0</ele><time>2026-04-05T07:55:41Z</time></trkpt><trkpt lat="43.83631323414254" lon="12.067285860899537"><ele>829.0</ele><time>2026-04-05T07:55:42Z</time></trkpt><trkpt lat="43.8362046444469" lon="12.067336894761754"><ele>829.0</ele><time>2026-04-05T07:55:43Z</time></trkpt><trkpt lat="43.83610235776345" lon="12.06738495838796"><ele>829.0</ele><time>2026-04-05T07:55:44Z</time></trkpt><trkpt lat="43.836010470518055" lon="12.067427720820056"><ele>829.0</ele><time>2026-04-05T07:55:45Z</time></trkpt><trkpt lat="43.835920500371344" lon="12.067454310061496"><ele>829.3333333333333</ele><time>2026-04-05T07:55:46Z</time></trkpt><trkpt lat="43.83582767119655" lon="12.067473986167595"><ele>829.6666666666666</ele><time>2026-04-05T07:55:47Z</time></trkpt><trkpt lat="43.83574444155797" lon="12.067428194166917"><ele>830.0</ele><time>2026-04-05T07:55:48Z</time></trkpt><trkpt lat="43.835669690883485" lon="12.067374835203676"><ele>830.3333333333333</ele><time>2026-04-05T07:55:49Z</time></trkpt><trkpt lat="43.83560360984823" lon="12.067300118035869"><ele>830.6666666666666</ele><time>2026-04-05T07:55:50Z</time></trkpt><trkpt lat="43.835578115790774" lon="12.067209123342405"><ele>831.0</ele><time>2026-04-05T07:55:51Z</time></trkpt><trkpt lat="43.83554259520237" lon="12.067115818629633"><ele>831.4</ele><time>2026-04-05T07:55:52Z</time></trkpt><trkpt lat="43.835507211860104" lon="12.06701469806145"><ele>831.8</ele><time>2026-04-05T07:55:53Z</time></trkpt><trkpt lat="43.835469426281314" lon="12.06690610648475"><ele>832.1999999999999</ele><time>2026-04-05T07:55:54Z</time></trkpt><trkpt lat="43.83542823921055" lon="12.06678675486021"><ele>832.5999999999999</ele><time>2026-04-05T07:55:55Z</time></trkpt><trkpt lat="43.83538510690803" lon="12.06666176634537"><ele>833.0</ele><time>2026-04-05T07:55:56Z</time></trkpt><trkpt lat="43.835340845576056" lon="12.066533506187323"><ele>833.8333333333334</ele><time>2026-04-05T07:55:57Z</time></trkpt><trkpt lat="43.835297681205915" lon="12.066407606991204"><ele>834.6666666666667</ele><time>2026-04-05T07:55:58Z</time></trkpt><trkpt lat="43.83526392343057" lon="12.066307553428869"><ele>835.5</ele><time>2026-04-05T07:55:59Z</time></trkpt><trkpt lat="43.83523208114805" lon="12.066213177153239"><ele>836.3333333333333</ele><time>2026-04-05T07:56:00Z</time></trkpt><trkpt lat="43.835198816832516" lon="12.066114586228334"><ele>837.1666666666666</ele><time>2026-04-05T07:56:01Z</time></trkpt><trkpt lat="43.83516555838469" lon="12.066019497177102"><ele>838.0</ele><time>2026-04-05T07:56:02Z</time></trkpt><trkpt lat="43.83513295362637" lon="12.065928770701596"><ele>838.2</ele><time>2026-04-05T07:56:03Z</time></trkpt><trkpt lat="43.83509776082642" lon="12.065835985170786"><ele>838.4</ele><time>2026-04-05T07:56:04Z</time></trkpt><trkpt lat="43.83505355140813" lon="12.065723391965928"><ele>838.6</ele><time>2026-04-05T07:56:05Z</time></trkpt><trkpt lat="43.83500292974062" lon="12.065607491091864"><ele>838.8000000000001</ele><time>2026-04-05T07:56:06Z</time></trkpt><trkpt lat="43.83493414228628" lon="12.06547211885675"><ele>839.0</ele><time>2026-04-05T07:56:07Z</time></trkpt><trkpt lat="43.83475505630475" lon="12.06550410963835"><ele>842.3333333333334</ele><time>2026-04-05T07:56:08Z</time></trkpt><trkpt lat="43.83461952113808" lon="12.065467547952993"><ele>845.6666666666667</ele><time>2026-04-05T07:56:09Z</time></trkpt><trkpt lat="43.83446271442129" lon="12.065434369874596"><ele>849.0</ele><time>2026-04-05T07:56:10Z</time></trkpt><trkpt lat="43.83429489652813" lon="12.065408031733295"><ele>849.0</ele><time>2026-04-05T07:56:11Z</time></trkpt><trkpt lat="43.8341381840007" lon="12.065413149028398"><ele>849.0</ele><time>2026-04-05T07:56:12Z</time></trkpt><trkpt lat="43.833962581564386" lon="12.065462339075479"><ele>849.0</ele><time>2026-04-05T07:56:13Z</time></trkpt><trkpt lat="43.833760652189966" lon="12.065537483781858"><ele>849.0</ele><time>2026-04-05T07:56:14Z</time></trkpt><trkpt lat="43.833533429076326" lon="12.065632297096228"><ele>849.0</ele><time>2026-04-05T07:56:15Z</time></trkpt><trkpt lat="43.833313240268055" lon="12.065734960884237"><ele>846.3333333333333</ele><time>2026-04-05T07:56:16Z</time></trkpt><trkpt lat="43.83311930897981" lon="12.065818772126756"><ele>843.6666666666666</ele><time>2026-04-05T07:56:17Z</time></trkpt><trkpt lat="43.832902768378084" lon="12.06591885649027"><ele>841.0</ele><time>2026-04-05T07:56:18Z</time></trkpt><trkpt lat="43.83270651910428" lon="12.065992111084773"><ele>843.0</ele><time>2026-04-05T07:56:19Z</time></trkpt><trkpt lat="43.832524025285544" lon="12.066034689358919"><ele>845.0</ele><time>2026-04-05T07:56:20Z</time></trkpt><trkpt lat="43.83233238715635" lon="12.066030689292498"><ele>847.0</ele><time>2026-04-05T07:56:21Z</time></trkpt><trkpt lat="43.83212512174534" lon="12.066014704399487"><ele>847.0</ele><time>2026-04-05T07:56:22Z</time></trkpt><trkpt lat="43.83189567917517" lon="12.06598897605712"><ele>847.0</ele><time>2026-04-05T07:56:23Z</time></trkpt><trkpt lat="43.83166805397081" lon="12.065966064647233"><ele>849.3333333333333</ele><time>2026-04-05T07:56:24Z</time></trkpt><trkpt lat="43.8314697906182" lon="12.065951853796967"><ele>851.6666666666667</ele><time>2026-04-05T07:56:25Z</time></trkpt><trkpt lat="43.83129401698121" lon="12.065927003299846"><ele>854.0</ele><time>2026-04-05T07:56:26Z</time></trkpt><trkpt lat="43.831134391950194" lon="12.065844885457329"><ele>855.6666666666667</ele><time>2026-04-05T07:56:27Z</time></trkpt><trkpt lat="43.830970043720534" lon="12.065743203405715"><ele>857.3333333333333</ele><time>2026-04-05T07:56:28Z</time></trkpt><trkpt lat="43.83079483188564" lon="12.065633238844987"><ele>859.0</ele><time>2026-04-05T07:56:29Z</time></trkpt><trkpt lat="43.830652265696074" lon="12.065548376309584"><ele>859.0</ele><time>2026-04-05T07:56:30Z</time></trkpt><trkpt lat="43.83052296121386" lon="12.065500159135599"><ele>859.0</ele><time>2026-04-05T07:56:31Z</time></trkpt><trkpt lat="43.83039652581374" lon="12.065519542366527"><ele>859.0</ele><time>2026-04-05T07:56:32Z</time></trkpt><trkpt lat="43.83028211853034" lon="12.065636605889193"><ele>859.0</ele><time>2026-04-05T07:56:33Z</time></trkpt><trkpt lat="43.83016399563038" lon="12.065791978433476"><ele>857.5</ele><time>2026-04-05T07:56:34Z</time></trkpt><trkpt lat="43.83005578101317" lon="12.06597242568738"><ele>856.0</ele><time>2026-04-05T07:56:35Z</time></trkpt><trkpt lat="43.82999390226595" lon="12.066138383542894"><ele>854.5</ele><time>2026-04-05T07:56:36Z</time></trkpt><trkpt lat="43.82996811151409" lon="12.06631376320893"><ele>853.0</ele><time>2026-04-05T07:56:37Z</time></trkpt><trkpt lat="43.830014218521015" lon="12.066535820003848"><ele>854.0</ele><time>2026-04-05T07:56:38Z</time></trkpt><trkpt lat="43.83004076427889" lon="12.066789397826213"><ele>855.0</ele><time>2026-04-05T07:56:39Z</time></trkpt><trkpt lat="43.83010866162363" lon="12.067068552638348"><ele>856.0</ele><time>2026-04-05T07:56:40Z</time></trkpt><trkpt lat="43.830186657413144" lon="12.067328064048418"><ele>849.3333333333333</ele><time>2026-04-05T07:56:41Z</time></trkpt><trkpt lat="43.83027217359036" lon="12.067518993047443"><ele>842.6666666666667</ele><time>2026-04-05T07:56:42Z</time></trkpt><trkpt lat="43.83031042494691" lon="12.067740546626096"><ele>836.0</ele><time>2026-04-05T07:56:43Z</time></trkpt><trkpt lat="43.83034997955174" lon="12.067996407646488"><ele>836.0</ele><time>2026-04-05T07:56:44Z</time></trkpt><trkpt lat="43.830366550852816" lon="12.068218030920745"><ele>836.0</ele><time>2026-04-05T07:56:45Z</time></trkpt><trkpt lat="43.83034717200018" lon="12.06841532857281"><ele>836.0</ele><time>2026-04-05T07:56:46Z</time></trkpt><trkpt lat="43.83030275507089" lon="12.068597927946879"><ele>836.0</ele><time>2026-04-05T07:56:47Z</time></trkpt><trkpt lat="43.83022073841923" lon="12.068807914104294"><ele>847.6666666666667</ele><time>2026-04-05T07:56:48Z</time></trkpt><trkpt lat="43.830135955528654" lon="12.069044127386558"><ele>859.3333333333333</ele><time>2026-04-05T07:56:49Z</time></trkpt><trkpt lat="43.830038653667586" lon="12.069318436964261"><ele>871.0</ele><time>2026-04-05T07:56:50Z</time></trkpt><trkpt lat="43.829955995835896" lon="12.069550231134638"><ele>871.3333333333333</ele><time>2026-04-05T07:56:51Z</time></trkpt><trkpt lat="43.829860572716335" lon="12.069753428977743"><ele>871.6666666666667</ele><time>2026-04-05T07:56:52Z</time></trkpt><trkpt lat="43.82977227073592" lon="12.069971702696208"><ele>872.0</ele><time>2026-04-05T07:56:53Z</time></trkpt><trkpt lat="43.829638734850974" lon="12.070146459170681"><ele>869.3333333333334</ele><time>2026-04-05T07:56:54Z</time></trkpt><trkpt lat="43.82952738255776" lon="12.070261955600357"><ele>866.6666666666667</ele><time>2026-04-05T07:56:55Z</time></trkpt><trkpt lat="43.82938358953558" lon="12.07037511690294"><ele>864.0</ele><time>2026-04-05T07:56:56Z</time></trkpt><trkpt lat="43.82920950062296" lon="12.070511518896327"><ele>864.3333333333333</ele><time>2026-04-05T07:56:57Z</time></trkpt><trkpt lat="43.8290123119413" lon="12.070659122229674"><ele>864.6666666666666</ele><time>2026-04-05T07:56:58Z</time></trkpt><trkpt lat="43.82885534384992" lon="12.070780887511864"><ele>865.0</ele><time>2026-04-05T07:56:59Z</time></trkpt><trkpt lat="43.8287404679143" lon="12.070924632391916"><ele>865.0</ele><time>2026-04-05T07:57:00Z</time></trkpt><trkpt lat="43.82867064192048" lon="12.071113712016105"><ele>865.0</ele><time>2026-04-05T07:57:01Z</time></trkpt><trkpt lat="43.828609144847" lon="12.071328074171547"><ele>865.0</ele><time>2026-04-05T07:57:02Z</time></trkpt><trkpt lat="43.8285517828612" lon="12.071600655956429"><ele>872.0</ele><time>2026-04-05T07:57:03Z</time></trkpt><trkpt lat="43.82842441904555" lon="12.071868308426156"><ele>879.0</ele><time>2026-04-05T07:57:04Z</time></trkpt><trkpt lat="43.828315055178976" lon="12.072145356742128"><ele>879.0</ele><time>2026-04-05T07:57:05Z</time></trkpt><trkpt lat="43.82822896752746" lon="12.072383306181337"><ele>879.0</ele><time>2026-04-05T07:57:06Z</time></trkpt><trkpt lat="43.82816549825261" lon="12.072639418520545"><ele>879.0</ele><time>2026-04-05T07:57:07Z</time></trkpt><trkpt lat="43.82814340271155" lon="12.072884811982867"><ele>876.0</ele><time>2026-04-05T07:57:08Z</time></trkpt><trkpt lat="43.828133158422254" lon="12.073106448881635"><ele>873.0</ele><time>2026-04-05T07:57:09Z</time></trkpt><trkpt lat="43.82809890522539" lon="12.07327500757118"><ele>870.0</ele><time>2026-04-05T07:57:10Z</time></trkpt><trkpt lat="43.82801020589281" lon="12.073370713193365"><ele>867.0</ele><time>2026-04-05T07:57:11Z</time></trkpt><trkpt lat="43.82788281206112" lon="12.073456577061735"><ele>863.0</ele><time>2026-04-05T07:57:12Z</time></trkpt><trkpt lat="43.827758693290676" lon="12.073595602621134"><ele>859.0</ele><time>2026-04-05T07:57:13Z</time></trkpt><trkpt lat="43.827648863753225" lon="12.073725242877627"><ele>855.0</ele><time>2026-04-05T07:57:14Z</time></trkpt><trkpt lat="43.82757178931185" lon="12.073942683746624"><ele>860.0</ele><time>2026-04-05T07:57:15Z</time></trkpt><trkpt lat="43.82755022694567" lon="12.07414922546223"><ele>865.0</ele><time>2026-04-05T07:57:16Z</time></trkpt><trkpt lat="43.827562828869596" lon="12.074370016238397"><ele>870.0</ele><time>2026-04-05T07:57:17Z</time></trkpt><trkpt lat="43.82761686415624" lon="12.074595136435471"><ele>860.3333333333333</ele><time>2026-04-05T07:57:18Z</time></trkpt><trkpt lat="43.82769846724287" lon="12.074856934051546"><ele>850.6666666666666</ele><time>2026-04-05T07:57:19Z</time></trkpt><trkpt lat="43.82776482886007" lon="12.07505642023122"><ele>841.0</ele><time>2026-04-05T07:57:20Z</time></trkpt><trkpt lat="43.82778704079594" lon="12.07525632517617"><ele>840.75</ele><time>2026-04-05T07:57:21Z</time></trkpt><trkpt lat="43.82775276475121" lon="12.075440992900862"><ele>840.5</ele><time>2026-04-05T07:57:22Z</time></trkpt><trkpt lat="43.82772683570678" lon="12.075612740164624"><ele>840.25</ele><time>2026-04-05T07:57:23Z</time></trkpt><trkpt lat="43.827699444017505" lon="12.075790237568233"><ele>840.0</ele><time>2026-04-05T07:57:24Z</time></trkpt><trkpt lat="43.82763474525164" lon="12.075941154399851"><ele>844.75</ele><time>2026-04-05T07:57:25Z</time></trkpt><trkpt lat="43.82755094320907" lon="12.076057334605963"><ele>849.5</ele><time>2026-04-05T07:57:26Z</time></trkpt><trkpt lat="43.82744502720729" lon="12.076162043626693"><ele>854.25</ele><time>2026-04-05T07:57:27Z</time></trkpt><trkpt lat="43.827296733204584" lon="12.076221133075544"><ele>859.0</ele><time>2026-04-05T07:57:28Z</time></trkpt><trkpt lat="43.827133959813565" lon="12.076296911201217"><ele>859.0</ele><time>2026-04-05T07:57:29Z</time></trkpt><trkpt lat="43.82695602221157" lon="12.076392731042487"><ele>859.0</ele><time>2026-04-05T07:57:30Z</time></trkpt><trkpt lat="43.82675717928192" lon="12.076469122179045"><ele>859.0</ele><time>2026-04-05T07:57:31Z</time></trkpt><trkpt lat="43.82658468470281" lon="12.076532735050721"><ele>858.75</ele><time>2026-04-05T07:57:32Z</time></trkpt><trkpt lat="43.82643811106188" lon="12.07659841680098"><ele>858.5</ele><time>2026-04-05T07:57:33Z</time></trkpt><trkpt lat="43.826321421888764" lon="12.07670058083193"><ele>858.25</ele><time>2026-04-05T07:57:34Z</time></trkpt><trkpt lat="43.82621921469443" lon="12.076796033342266"><ele>858.0</ele><time>2026-04-05T07:57:35Z</time></trkpt><trkpt lat="43.82617216389087" lon="12.077024773120037"><ele>858.0</ele><time>2026-04-05T07:57:36Z</time></trkpt><trkpt lat="43.82613162074641" lon="12.077244154098427"><ele>858.0</ele><time>2026-04-05T07:57:37Z</time></trkpt><trkpt lat="43.826097231854945" lon="12.077490702125363"><ele>858.0</ele><time>2026-04-05T07:57:38Z</time></trkpt><trkpt lat="43.82608523760171" lon="12.077746972218605"><ele>860.5</ele><time>2026-04-05T07:57:39Z</time></trkpt><trkpt lat="43.82605952754222" lon="12.07793450222175"><ele>863.0</ele><time>2026-04-05T07:57:40Z</time></trkpt><trkpt lat="43.82600176138523" lon="12.07807746032828"><ele>865.5</ele><time>2026-04-05T07:57:41Z</time></trkpt><trkpt lat="43.82592644515381" lon="12.078155355562915"><ele>868.0</ele><time>2026-04-05T07:57:42Z</time></trkpt><trkpt lat="43.82582038065225" lon="12.078249188968256"><ele>864.5</ele><time>2026-04-05T07:57:43Z</time></trkpt><trkpt lat="43.82569982059506" lon="12.078336662428038"><ele>861.0</ele><time>2026-04-05T07:57:44Z</time></trkpt><trkpt lat="43.825569217191465" lon="12.078431081596701"><ele>857.5</ele><time>2026-04-05T07:57:45Z</time></trkpt><trkpt lat="43.82542004250239" lon="12.078513169641232"><ele>854.0</ele><time>2026-04-05T07:57:46Z</time></trkpt><trkpt lat="43.82528806479584" lon="12.078565196393592"><ele>854.0</ele><time>2026-04-05T07:57:47Z</time></trkpt><trkpt lat="43.825166695112465" lon="12.078621245702802"><ele>854.0</ele><time>2026-04-05T07:57:48Z</time></trkpt><trkpt lat="43.82503291107149" lon="12.078616775715911"><ele>854.0</ele><time>2026-04-05T07:57:49Z</time></trkpt><trkpt lat="43.824887672579564" lon="12.078606223641753"><ele>854.0</ele><time>2026-04-05T07:57:50Z</time></trkpt><trkpt lat="43.824725096633195" lon="12.078552742689137"><ele>861.0</ele><time>2026-04-05T07:57:51Z</time></trkpt><trkpt lat="43.82455062704461" lon="12.078468063676414"><ele>868.0</ele><time>2026-04-05T07:57:52Z</time></trkpt><trkpt lat="43.82434158680627" lon="12.078407927158809"><ele>875.0</ele><time>2026-04-05T07:57:53Z</time></trkpt><trkpt lat="43.82416455559429" lon="12.078350641869227"><ele>878.3333333333334</ele><time>2026-04-05T07:57:54Z</time></trkpt><trkpt lat="43.824011196082886" lon="12.078325677040466"><ele>881.6666666666667</ele><time>2026-04-05T07:57:55Z</time></trkpt><trkpt lat="43.82387880762817" lon="12.078357546743211"><ele>885.0</ele><time>2026-04-05T07:57:56Z</time></trkpt><trkpt lat="43.82373781594691" lon="12.078469925477014"><ele>885.0</ele><time>2026-04-05T07:57:57Z</time></trkpt><trkpt lat="43.82359643298887" lon="12.078637230016918"><ele>885.0</ele><time>2026-04-05T07:57:58Z</time></trkpt><trkpt lat="43.823466383570555" lon="12.078772778435646"><ele>885.0</ele><time>2026-04-05T07:57:59Z</time></trkpt><trkpt lat="43.82333456041913" lon="12.07884746178053"><ele>885.25</ele><time>2026-04-05T07:58:00Z</time></trkpt><trkpt lat="43.82317318117661" lon="12.07885042066778"><ele>885.5</ele><time>2026-04-05T07:58:01Z</time></trkpt><trkpt lat="43.82306463894915" lon="12.078894825162278"><ele>885.75</ele><time>2026-04-05T07:58:02Z</time></trkpt><trkpt lat="43.82297681048659" lon="12.078982867131606"><ele>886.0</ele><time>2026-04-05T07:58:03Z</time></trkpt><trkpt lat="43.822925888873534" lon="12.0791541449127"><ele>886.0</ele><time>2026-04-05T07:58:04Z</time></trkpt><trkpt lat="43.82289070754927" lon="12.079334331848866"><ele>886.0</ele><time>2026-04-05T07:58:05Z</time></trkpt><trkpt lat="43.82289211181726" lon="12.079551683776808"><ele>886.0</ele><time>2026-04-05T07:58:06Z</time></trkpt><trkpt lat="43.82287177773182" lon="12.079763895040202"><ele>886.0</ele><time>2026-04-05T07:58:07Z</time></trkpt><trkpt lat="43.82280858421783" lon="12.079936301359897"><ele>885.6666666666666</ele><time>2026-04-05T07:58:08Z</time></trkpt><trkpt lat="43.82270637301015" lon="12.080081412629918"><ele>885.3333333333333</ele><time>2026-04-05T07:58:09Z</time></trkpt><trkpt lat="43.822575193726465" lon="12.080231331666473"><ele>885.0</ele><time>2026-04-05T07:58:10Z</time></trkpt><trkpt lat="43.822418345899464" lon="12.080388451694482"><ele>888.0</ele><time>2026-04-05T07:58:11Z</time></trkpt><trkpt lat="43.82226279696948" lon="12.080558635047998"><ele>891.0</ele><time>2026-04-05T07:58:12Z</time></trkpt><trkpt lat="43.82215721240764" lon="12.080706339862859"><ele>894.0</ele><time>2026-04-05T07:58:13Z</time></trkpt><trkpt lat="43.8220637657825" lon="12.080809312536205"><ele>894.0</ele><time>2026-04-05T07:58:14Z</time></trkpt><trkpt lat="43.8219586179295" lon="12.080878475189504"><ele>894.0000000000001</ele><time>2026-04-05T07:58:15Z</time></trkpt><trkpt lat="43.82186505251266" lon="12.080896563925313"><ele>894.0000000000001</ele><time>2026-04-05T07:58:16Z</time></trkpt><trkpt lat="43.821778315793246" lon="12.08088134573509"><ele>894.0</ele><time>2026-04-05T07:58:17Z</time></trkpt><trkpt lat="43.82171282112458" lon="12.080797918348251"><ele>894.0</ele><time>2026-04-05T07:58:18Z</time></trkpt><trkpt lat="43.82168902509309" lon="12.080673416730463"><ele>895.8333333333334</ele><time>2026-04-05T07:58:19Z</time></trkpt><trkpt lat="43.82168272245425" lon="12.080553517471822"><ele>897.6666666666667</ele><time>2026-04-05T07:58:20Z</time></trkpt><trkpt lat="43.821712545931646" lon="12.080439175253968"><ele>899.5</ele><time>2026-04-05T07:58:21Z</time></trkpt><trkpt lat="43.82176486631996" lon="12.080351218974211"><ele>901.3333333333334</ele><time>2026-04-05T07:58:22Z</time></trkpt><trkpt lat="43.82184886662179" lon="12.080313565825715"><ele>903.1666666666667</ele><time>2026-04-05T07:58:23Z</time></trkpt><trkpt lat="43.82191820504518" lon="12.08027045857173"><ele>905.0</ele><time>2026-04-05T07:58:24Z</time></trkpt><trkpt lat="43.82201798964145" lon="12.080230918198827"><ele>905.0</ele><time>2026-04-05T07:58:26Z</time></trkpt><trkpt lat="43.822364126728004" lon="12.080079070265242"><ele>905.0</ele><time>2026-04-05T07:58:27Z</time></trkpt><trkpt lat="43.822419806920905" lon="12.080019281259679"><ele>905.0</ele><time>2026-04-05T07:58:30Z</time></trkpt><trkpt lat="43.82243430231998" lon="12.079871590592012"><ele>905.4285714285713</ele><time>2026-04-05T07:58:31Z</time></trkpt><trkpt lat="43.82238737460068" lon="12.079791536031314"><ele>905.8571428571428</ele><time>2026-04-05T07:58:32Z</time></trkpt><trkpt lat="43.82233989131757" lon="12.079706467967128"><ele>906.2857142857142</ele><time>2026-04-05T07:58:34Z</time></trkpt><trkpt lat="43.82227634353004" lon="12.079681022112215"><ele>906.7142857142858</ele><time>2026-04-05T07:58:36Z</time></trkpt><trkpt lat="43.82218277522053" lon="12.079727759109845"><ele>907.1428571428572</ele><time>2026-04-05T07:58:38Z</time></trkpt><trkpt lat="43.82212421615717" lon="12.079765861102405"><ele>907.5714285714287</ele><time>2026-04-05T07:58:39Z</time></trkpt><trkpt lat="43.8220659432796" lon="12.079805738211748"><ele>908.0</ele><time>2026-04-05T07:58:40Z</time></trkpt><trkpt lat="43.822001580602794" lon="12.079862029305882"><ele>908.0000000000001</ele><time>2026-04-05T07:58:41Z</time></trkpt><trkpt lat="43.82191911188209" lon="12.07990268031356"><ele>908.0</ele><time>2026-04-05T07:58:43Z</time></trkpt><trkpt lat="43.82195099053261" lon="12.0799917180666"><ele>908.0</ele><time>2026-04-05T07:58:47Z</time></trkpt><trkpt lat="43.82201068950489" lon="12.079935071879275"><ele>908.0</ele><time>2026-04-05T07:58:51Z</time></trkpt><trkpt lat="43.82208601181085" lon="12.079826385760763"><ele>908.0000000000001</ele><time>2026-04-05T07:58:53Z</time></trkpt><trkpt lat="43.82216642488571" lon="12.079751705053635"><ele>908.0</ele><time>2026-04-05T07:58:55Z</time></trkpt><trkpt lat="43.82225004580318" lon="12.079735058807223"><ele>908.0</ele><time>2026-04-05T07:59:34Z</time></trkpt><trkpt lat="43.822303734039075" lon="12.079802477483113"><ele>908.0000000000001</ele><time>2026-04-05T08:06:03.999Z</time></trkpt><trkpt lat="43.82234609065858" lon="12.07987829269807"><ele>908.0</ele><time>2026-04-05T08:06:05.999Z</time></trkpt><trkpt lat="43.82235808056878" lon="12.079978289649524"><ele>908.0</ele><time>2026-04-05T08:06:07.999Z</time></trkpt><trkpt lat="43.822317401760216" lon="12.080059047443257"><ele>908.0000000000001</ele><time>2026-04-05T08:06:09.999Z</time></trkpt><trkpt lat="43.82225073959506" lon="12.080111978129533"><ele>908.0</ele><time>2026-04-05T08:06:11.999Z</time></trkpt><trkpt lat="43.82218710220986" lon="12.080137549580416"><ele>908.0</ele><time>2026-04-05T08:06:13.999Z</time></trkpt><trkpt lat="43.82210555382133" lon="12.080168542784877"><ele>907.5000000000001</ele><time>2026-04-05T08:06:16.999Z</time></trkpt><trkpt lat="43.822060559140496" lon="12.080234295977093"><ele>907.0</ele><time>2026-04-05T08:06:19.999Z</time></trkpt><trkpt lat="43.82212663448256" lon="12.080196623648472"><ele>906.5</ele><time>2026-04-05T08:06:22.999Z</time></trkpt><trkpt lat="43.822251454264254" lon="12.080185851973885"><ele>906.0</ele><time>2026-04-05T08:06:24.999Z</time></trkpt><trkpt lat="43.822318798106565" lon="12.080140198224376"><ele>905.5000000000001</ele><time>2026-04-05T08:06:25.999Z</time></trkpt><trkpt lat="43.82238493709376" lon="12.080075169482647"><ele>905.0</ele><time>2026-04-05T08:06:26.999Z</time></trkpt><trkpt lat="43.82242135591696" lon="12.080000791793646"><ele>905.6</ele><time>2026-04-05T08:06:27.999Z</time></trkpt><trkpt lat="43.82238918560089" lon="12.079853812370946"><ele>906.2</ele><time>2026-04-05T08:06:29.999Z</time></trkpt><trkpt lat="43.82234304556847" lon="12.079774352812649"><ele>906.8</ele><time>2026-04-05T08:06:30.999Z</time></trkpt><trkpt lat="43.8222620054139" lon="12.079735886386073"><ele>907.4</ele><time>2026-04-05T08:06:31.999Z</time></trkpt><trkpt lat="43.82215788091161" lon="12.079771299481108"><ele>908.0</ele><time>2026-04-05T08:06:32.999Z</time></trkpt><trkpt lat="43.82206019527725" lon="12.07984893237451"><ele>908.0</ele><time>2026-04-05T08:06:33.999Z</time></trkpt><trkpt lat="43.82194943079193" lon="12.079921387424063"><ele>908.0</ele><time>2026-04-05T08:06:34.999Z</time></trkpt><trkpt lat="43.82182563698348" lon="12.0800023653998"><ele>908.0</ele><time>2026-04-05T08:06:35.999Z</time></trkpt><trkpt lat="43.82169667329774" lon="12.080086725132265"><ele>908.0</ele><time>2026-04-05T08:06:36.999Z</time></trkpt><trkpt lat="43.82158188277395" lon="12.080180103095213"><ele>913.0</ele><time>2026-04-05T08:06:37.999Z</time></trkpt><trkpt lat="43.82148928234228" lon="12.080254276953042"><ele>918.0</ele><time>2026-04-05T08:06:38.999Z</time></trkpt><trkpt lat="43.821420525222976" lon="12.080362106439683"><ele>923.0</ele><time>2026-04-05T08:06:39.999Z</time></trkpt><trkpt lat="43.82137155219263" lon="12.080512850559701"><ele>928.0</ele><time>2026-04-05T08:06:40.999Z</time></trkpt><trkpt lat="43.82134383374309" lon="12.080695236235648"><ele>923.6666666666666</ele><time>2026-04-05T08:06:41.999Z</time></trkpt><trkpt lat="43.8213227507422" lon="12.080918086763269"><ele>919.3333333333333</ele><time>2026-04-05T08:06:42.999Z</time></trkpt><trkpt lat="43.821295688467046" lon="12.081189527394743"><ele>915.0</ele><time>2026-04-05T08:06:43.999Z</time></trkpt><trkpt lat="43.821288084667735" lon="12.081396889970184"><ele>915.0</ele><time>2026-04-05T08:06:44.999Z</time></trkpt><trkpt lat="43.82125357984821" lon="12.081557653303578"><ele>915.0</ele><time>2026-04-05T08:06:45.999Z</time></trkpt><trkpt lat="43.821180952612636" lon="12.081686558200637"><ele>915.0</ele><time>2026-04-05T08:06:46.999Z</time></trkpt><trkpt lat="43.821075055854934" lon="12.081818174469664"><ele>915.0</ele><time>2026-04-05T08:06:47.999Z</time></trkpt><trkpt lat="43.82094993318702" lon="12.081982167386998"><ele>920.3333333333333</ele><time>2026-04-05T08:06:48.999Z</time></trkpt><trkpt lat="43.82079708842897" lon="12.082133115543945"><ele>925.6666666666666</ele><time>2026-04-05T08:06:49.999Z</time></trkpt><trkpt lat="43.820608637506794" lon="12.082298622522652"><ele>931.0</ele><time>2026-04-05T08:06:50.999Z</time></trkpt><trkpt lat="43.820449038431995" lon="12.082480558014199"><ele>931.0</ele><time>2026-04-05T08:06:51.999Z</time></trkpt><trkpt lat="43.82033313120023" lon="12.082672891796635"><ele>931.0</ele><time>2026-04-05T08:06:52.999Z</time></trkpt><trkpt lat="43.820203363976546" lon="12.082868684060859"><ele>931.0</ele><time>2026-04-05T08:06:53.999Z</time></trkpt><trkpt lat="43.820137740826375" lon="12.083058685495397"><ele>930.75</ele><time>2026-04-05T08:06:54.999Z</time></trkpt><trkpt lat="43.82007962786031" lon="12.083231842110276"><ele>930.5</ele><time>2026-04-05T08:06:55.999Z</time></trkpt><trkpt lat="43.820072981784044" lon="12.083419515673022"><ele>930.25</ele><time>2026-04-05T08:06:56.999Z</time></trkpt><trkpt lat="43.82012113033699" lon="12.083592095553911"><ele>930.0</ele><time>2026-04-05T08:06:57.999Z</time></trkpt><trkpt lat="43.820191477904245" lon="12.083746820604212"><ele>930.0</ele><time>2026-04-05T08:06:58.999Z</time></trkpt><trkpt lat="43.820259146582536" lon="12.083925361892632"><ele>930.0</ele><time>2026-04-05T08:06:59.999Z</time></trkpt><trkpt lat="43.8202759072844" lon="12.084110754420093"><ele>930.0</ele><time>2026-04-05T08:07:00.999Z</time></trkpt><trkpt lat="43.82028938794761" lon="12.084304095919775"><ele>930.0</ele><time>2026-04-05T08:07:01.999Z</time></trkpt><trkpt lat="43.820287019949106" lon="12.084510464388268"><ele>930.0</ele><time>2026-04-05T08:07:02.999Z</time></trkpt><trkpt lat="43.82025836925748" lon="12.084703048469905"><ele>930.0</ele><time>2026-04-05T08:07:03.999Z</time></trkpt><trkpt lat="43.82018631918951" lon="12.084819932455451"><ele>930.0</ele><time>2026-04-05T08:07:04.999Z</time></trkpt><trkpt lat="43.82010823392226" lon="12.084932743361506"><ele>930.0</ele><time>2026-04-05T08:07:05.999Z</time></trkpt><trkpt lat="43.819986603684825" lon="12.084992084551505"><ele>936.25</ele><time>2026-04-05T08:07:06.999Z</time></trkpt><trkpt lat="43.81985007079961" lon="12.085012222581673"><ele>942.5</ele><time>2026-04-05T08:07:07.999Z</time></trkpt><trkpt lat="43.819714801033236" lon="12.08503560378833"><ele>948.75</ele><time>2026-04-05T08:07:08.999Z</time></trkpt><trkpt lat="43.81957841438947" lon="12.085113230702433"><ele>955.0</ele><time>2026-04-05T08:07:09.999Z</time></trkpt><trkpt lat="43.819490462524485" lon="12.085200967679203"><ele>955.0</ele><time>2026-04-05T08:07:10.999Z</time></trkpt><trkpt lat="43.81943804893795" lon="12.085330720849715"><ele>955.0</ele><time>2026-04-05T08:07:11.999Z</time></trkpt><trkpt lat="43.819411487543256" lon="12.085498805089152"><ele>955.0</ele><time>2026-04-05T08:07:12.999Z</time></trkpt><trkpt lat="43.81942669773812" lon="12.085683535604264"><ele>955.0</ele><time>2026-04-05T08:07:13.999Z</time></trkpt><trkpt lat="43.81946281408708" lon="12.085932376660324"><ele>952.25</ele><time>2026-04-05T08:07:14.999Z</time></trkpt><trkpt lat="43.819516859241276" lon="12.086118101876812"><ele>949.5</ele><time>2026-04-05T08:07:15.999Z</time></trkpt><trkpt lat="43.81957280606208" lon="12.086255732482437"><ele>946.75</ele><time>2026-04-05T08:07:16.999Z</time></trkpt><trkpt lat="43.81961896274424" lon="12.086335634986154"><ele>944.0</ele><time>2026-04-05T08:07:17.999Z</time></trkpt><trkpt lat="43.81973746738944" lon="12.086406372295254"><ele>944.0</ele><time>2026-04-05T08:07:18.999Z</time></trkpt><trkpt lat="43.81991462792863" lon="12.086536996772418"><ele>944.0</ele><time>2026-04-05T08:07:19.999Z</time></trkpt><trkpt lat="43.819995850567416" lon="12.086665514731768"><ele>944.0</ele><time>2026-04-05T08:07:20.999Z</time></trkpt><trkpt lat="43.82002940033518" lon="12.08680261621286"><ele>944.0</ele><time>2026-04-05T08:07:21.999Z</time></trkpt><trkpt lat="43.82002543292835" lon="12.086996218065313"><ele>944.25</ele><time>2026-04-05T08:07:22.999Z</time></trkpt><trkpt lat="43.819952110180814" lon="12.087149859778268"><ele>944.5</ele><time>2026-04-05T08:07:23.999Z</time></trkpt><trkpt lat="43.819867802541324" lon="12.087268501846722"><ele>944.75</ele><time>2026-04-05T08:07:24.999Z</time></trkpt><trkpt lat="43.819747871849636" lon="12.087356821526807"><ele>945.0</ele><time>2026-04-05T08:07:25.999Z</time></trkpt><trkpt lat="43.819618983427745" lon="12.08741529565539"><ele>943.5</ele><time>2026-04-05T08:07:26.999Z</time></trkpt><trkpt lat="43.81948488053352" lon="12.087501309842018"><ele>942.0</ele><time>2026-04-05T08:07:27.999Z</time></trkpt><trkpt lat="43.81940932120084" lon="12.087653598764568"><ele>940.5</ele><time>2026-04-05T08:07:28.999Z</time></trkpt><trkpt lat="43.81935367408989" lon="12.087814905442508"><ele>939.0</ele><time>2026-04-05T08:07:29.999Z</time></trkpt><trkpt lat="43.81934311053401" lon="12.087993843907679"><ele>939.0</ele><time>2026-04-05T08:07:30.999Z</time></trkpt><trkpt lat="43.81937181441297" lon="12.088191922137133"><ele>939.0</ele><time>2026-04-05T08:07:31.999Z</time></trkpt><trkpt lat="43.81945905160859" lon="12.088384943688473"><ele>939.0</ele><time>2026-04-05T08:07:32.999Z</time></trkpt><trkpt lat="43.81958623935542" lon="12.088540185730356"><ele>940.0</ele><time>2026-04-05T08:07:33.999Z</time></trkpt><trkpt lat="43.81972722584295" lon="12.088741609774871"><ele>941.0</ele><time>2026-04-05T08:07:34.999Z</time></trkpt><trkpt lat="43.81979013025793" lon="12.088910439012754"><ele>942.0</ele><time>2026-04-05T08:07:35.999Z</time></trkpt><trkpt lat="43.819838492952776" lon="12.089088237610994"><ele>942.75</ele><time>2026-04-05T08:07:36.999Z</time></trkpt><trkpt lat="43.81983795214936" lon="12.089257387009699"><ele>943.5</ele><time>2026-04-05T08:07:37.999Z</time></trkpt><trkpt lat="43.81980095277764" lon="12.089433454888365"><ele>944.25</ele><time>2026-04-05T08:07:38.999Z</time></trkpt><trkpt lat="43.81976560547978" lon="12.089656065301213"><ele>945.0</ele><time>2026-04-05T08:07:39.999Z</time></trkpt><trkpt lat="43.81972638798296" lon="12.089913981572623"><ele>944.6666666666667</ele><time>2026-04-05T08:07:40.999Z</time></trkpt><trkpt lat="43.81969887786716" lon="12.090176312175597"><ele>944.3333333333334</ele><time>2026-04-05T08:07:41.999Z</time></trkpt><trkpt lat="43.81970537096487" lon="12.090430431555523"><ele>944.0</ele><time>2026-04-05T08:07:42.999Z</time></trkpt><trkpt lat="43.81972724355509" lon="12.090725220770532"><ele>945.3333333333334</ele><time>2026-04-05T08:07:43.999Z</time></trkpt><trkpt lat="43.819752120621395" lon="12.091060164105102"><ele>946.6666666666667</ele><time>2026-04-05T08:07:44.999Z</time></trkpt><trkpt lat="43.81976694307401" lon="12.091337069398469"><ele>948.0</ele><time>2026-04-05T08:07:45.999Z</time></trkpt><trkpt lat="43.819767642352076" lon="12.091573346829232"><ele>948.6666666666667</ele><time>2026-04-05T08:07:46.999Z</time></trkpt><trkpt lat="43.81973544443211" lon="12.09179781812155"><ele>949.3333333333334</ele><time>2026-04-05T08:07:47.999Z</time></trkpt><trkpt lat="43.81968533791503" lon="12.092053791802615"><ele>950.0</ele><time>2026-04-05T08:07:48.999Z</time></trkpt><trkpt lat="43.8196302395682" lon="12.092317889107083"><ele>947.5</ele><time>2026-04-05T08:07:49.999Z</time></trkpt><trkpt lat="43.81956605432391" lon="12.092619842477099"><ele>945.0</ele><time>2026-04-05T08:07:50.999Z</time></trkpt><trkpt lat="43.81949628647976" lon="12.092962160927097"><ele>942.0</ele><time>2026-04-05T08:07:51.999Z</time></trkpt><trkpt lat="43.81942532818287" lon="12.093312558974597"><ele>939.0</ele><time>2026-04-05T08:07:52.999Z</time></trkpt><trkpt lat="43.81936063778636" lon="12.093625471108645"><ele>948.3333333333333</ele><time>2026-04-05T08:07:53.999Z</time></trkpt><trkpt lat="43.819298643191644" lon="12.093901188155368"><ele>957.6666666666666</ele><time>2026-04-05T08:07:54.999Z</time></trkpt><trkpt lat="43.81923497884918" lon="12.094151313490196"><ele>967.0</ele><time>2026-04-05T08:07:55.999Z</time></trkpt><trkpt lat="43.81914104889867" lon="12.094363326809336"><ele>967.0</ele><time>2026-04-05T08:07:56.999Z</time></trkpt><trkpt lat="43.8190364736559" lon="12.0945789061305"><ele>967.0</ele><time>2026-04-05T08:07:57.999Z</time></trkpt><trkpt lat="43.81895848565224" lon="12.094767427432378"><ele>967.0</ele><time>2026-04-05T08:07:58.999Z</time></trkpt><trkpt lat="43.8189133862797" lon="12.094958513907427"><ele>966.25</ele><time>2026-04-05T08:07:59.999Z</time></trkpt><trkpt lat="43.81892408050205" lon="12.095168247528228"><ele>965.5</ele><time>2026-04-05T08:08:00.999Z</time></trkpt><trkpt lat="43.818969959874444" lon="12.095332800259783"><ele>964.75</ele><time>2026-04-05T08:08:01.999Z</time></trkpt><trkpt lat="43.819054034300265" lon="12.095454061504244"><ele>964.0</ele><time>2026-04-05T08:08:02.999Z</time></trkpt><trkpt lat="43.819144662648874" lon="12.095550995632232"><ele>964.0</ele><time>2026-04-05T08:08:03.999Z</time></trkpt><trkpt lat="43.819252237289824" lon="12.0955940206113"><ele>964.0</ele><time>2026-04-05T08:08:04.999Z</time></trkpt><trkpt lat="43.81936835436219" lon="12.095598649999912"><ele>964.0</ele><time>2026-04-05T08:08:05.999Z</time></trkpt><trkpt lat="43.81953701595806" lon="12.095560759352084"><ele>964.0</ele><time>2026-04-05T08:08:06.999Z</time></trkpt><trkpt lat="43.81970003582802" lon="12.095520834751756"><ele>963.5</ele><time>2026-04-05T08:08:07.999Z</time></trkpt><trkpt lat="43.819843392746726" lon="12.09550262302329"><ele>963.0</ele><time>2026-04-05T08:08:08.999Z</time></trkpt><trkpt lat="43.81994712454231" lon="12.09554911325934"><ele>962.5</ele><time>2026-04-05T08:08:09.999Z</time></trkpt><trkpt lat="43.819979105658454" lon="12.095712971090808"><ele>962.0</ele><time>2026-04-05T08:08:10.999Z</time></trkpt><trkpt lat="43.819995609405375" lon="12.095871330406895"><ele>962.0</ele><time>2026-04-05T08:08:11.999Z</time></trkpt><trkpt lat="43.81999809563381" lon="12.09605948990726"><ele>962.0</ele><time>2026-04-05T08:08:13Z</time></trkpt><trkpt lat="43.819907526182185" lon="12.096268325739123"><ele>962.0</ele><time>2026-04-05T08:08:14Z</time></trkpt><trkpt lat="43.81985181595354" lon="12.096568805713842"><ele>960.5</ele><time>2026-04-05T08:08:15Z</time></trkpt><trkpt lat="43.81980243909431" lon="12.096879155120257"><ele>959.0</ele><time>2026-04-05T08:08:16Z</time></trkpt><trkpt lat="43.81977938220857" lon="12.097257135043279"><ele>960.5</ele><time>2026-04-05T08:08:17Z</time></trkpt><trkpt lat="43.81978021788673" lon="12.097651537700704"><ele>962.0</ele><time>2026-04-05T08:08:18Z</time></trkpt><trkpt lat="43.81977897353908" lon="12.098004174292564"><ele>962.6666666666667</ele><time>2026-04-05T08:08:19Z</time></trkpt><trkpt lat="43.81977040473674" lon="12.098293245701244"><ele>963.3333333333333</ele><time>2026-04-05T08:08:20Z</time></trkpt><trkpt lat="43.819770354480525" lon="12.098526128033953"><ele>964.0</ele><time>2026-04-05T08:08:21Z</time></trkpt><trkpt lat="43.81977209165162" lon="12.098726935685598"><ele>964.0</ele><time>2026-04-05T08:08:22Z</time></trkpt><trkpt lat="43.819812839803724" lon="12.098891414464314"><ele>964.0</ele><time>2026-04-05T08:08:23Z</time></trkpt><trkpt lat="43.81988956099951" lon="12.099026192508433"><ele>964.0</ele><time>2026-04-05T08:08:24Z</time></trkpt><trkpt lat="43.820004527060576" lon="12.09909120624874"><ele>964.0</ele><time>2026-04-05T08:08:25Z</time></trkpt><trkpt lat="43.82013932824843" lon="12.099171465775909"><ele>960.0</ele><time>2026-04-05T08:08:26Z</time></trkpt><trkpt lat="43.82028644816398" lon="12.099259800916506"><ele>956.0</ele><time>2026-04-05T08:08:27Z</time></trkpt><trkpt lat="43.82046153079913" lon="12.099359245543113"><ele>952.0</ele><time>2026-04-05T08:08:28Z</time></trkpt><trkpt lat="43.820579786545565" lon="12.099470716526925"><ele>952.0</ele><time>2026-04-05T08:08:29Z</time></trkpt><trkpt lat="43.82062194103194" lon="12.099546206724927"><ele>952.0</ele><time>2026-04-05T08:08:30Z</time></trkpt><trkpt lat="43.8206388442011" lon="12.099654148705866"><ele>952.0</ele><time>2026-04-05T08:08:31Z</time></trkpt><trkpt lat="43.820567913694035" lon="12.099785849154532"><ele>952.0</ele><time>2026-04-05T08:08:32Z</time></trkpt><trkpt lat="43.82056730559305" lon="12.09993291970459"><ele>952.0</ele><time>2026-04-05T08:08:33Z</time></trkpt><trkpt lat="43.820589978708156" lon="12.100062217751715"><ele>956.75</ele><time>2026-04-05T08:08:34Z</time></trkpt><trkpt lat="43.82064977806961" lon="12.10018388548633"><ele>961.5</ele><time>2026-04-05T08:08:35Z</time></trkpt><trkpt lat="43.820762174047196" lon="12.100303850001643"><ele>966.25</ele><time>2026-04-05T08:08:36Z</time></trkpt><trkpt lat="43.82087681683976" lon="12.100408700407298"><ele>971.0</ele><time>2026-04-05T08:08:37Z</time></trkpt><trkpt lat="43.820947515300816" lon="12.100528125508376"><ele>971.0</ele><time>2026-04-05T08:08:38Z</time></trkpt><trkpt lat="43.82095063949971" lon="12.100653341363639"><ele>970.9999999999999</ele><time>2026-04-05T08:08:39Z</time></trkpt><trkpt lat="43.82090450079057" lon="12.100774585773767"><ele>970.9999999999999</ele><time>2026-04-05T08:08:40Z</time></trkpt><trkpt lat="43.820867459033444" lon="12.100904239292902"><ele>971.0</ele><time>2026-04-05T08:08:41Z</time></trkpt><trkpt lat="43.820784451669475" lon="12.10097796893414"><ele>971.0</ele><time>2026-04-05T08:08:42Z</time></trkpt><trkpt lat="43.820687094804164" lon="12.101040305792905"><ele>970.75</ele><time>2026-04-05T08:08:43Z</time></trkpt><trkpt lat="43.820578086094734" lon="12.10106549586986"><ele>970.5</ele><time>2026-04-05T08:08:44Z</time></trkpt><trkpt lat="43.82045329370284" lon="12.101115175867491"><ele>970.25</ele><time>2026-04-05T08:08:45Z</time></trkpt><trkpt lat="43.82032220153903" lon="12.101194062494876"><ele>970.0</ele><time>2026-04-05T08:08:46Z</time></trkpt><trkpt lat="43.82020148792524" lon="12.101345573484913"><ele>970.5</ele><time>2026-04-05T08:08:47Z</time></trkpt><trkpt lat="43.82006503297056" lon="12.101502227295464"><ele>971.0</ele><time>2026-04-05T08:08:48Z</time></trkpt><trkpt lat="43.819949791088554" lon="12.101620751615608"><ele>971.5</ele><time>2026-04-05T08:08:49Z</time></trkpt><trkpt lat="43.81984265254373" lon="12.10168739470051"><ele>972.0</ele><time>2026-04-05T08:08:50Z</time></trkpt><trkpt lat="43.819739042990726" lon="12.10165950661641"><ele>972.0</ele><time>2026-04-05T08:08:51Z</time></trkpt><trkpt lat="43.81964254657441" lon="12.101635472321641"><ele>972.0</ele><time>2026-04-05T08:08:52Z</time></trkpt><trkpt lat="43.81954758051502" lon="12.101554514874811"><ele>972.0</ele><time>2026-04-05T08:08:53Z</time></trkpt><trkpt lat="43.819399750170085" lon="12.10146307518135"><ele>972.0</ele><time>2026-04-05T08:08:54Z</time></trkpt><trkpt lat="43.81924708099362" lon="12.101425034967253"><ele>973.8</ele><time>2026-04-05T08:08:55Z</time></trkpt><trkpt lat="43.81915128845943" lon="12.101469477044935"><ele>975.6</ele><time>2026-04-05T08:08:56Z</time></trkpt><trkpt lat="43.81907283543104" lon="12.10155328342225"><ele>977.3999999999999</ele><time>2026-04-05T08:08:57Z</time></trkpt><trkpt lat="43.818999584687255" lon="12.101590655834073"><ele>979.1999999999999</ele><time>2026-04-05T08:08:58Z</time></trkpt><trkpt lat="43.81891023978778" lon="12.101661122441369"><ele>981.0</ele><time>2026-04-05T08:09:00Z</time></trkpt><trkpt lat="43.818958304018864" lon="12.101791618835646"><ele>981.0</ele><time>2026-04-05T08:09:01Z</time></trkpt><trkpt lat="43.81904821007732" lon="12.10180041069924"><ele>980.9999999999999</ele><time>2026-04-05T08:09:04Z</time></trkpt><trkpt lat="43.81913167112624" lon="12.101751290341394"><ele>980.9999999999999</ele><time>2026-04-05T08:09:05Z</time></trkpt><trkpt lat="43.819210769235085" lon="12.101709764428678"><ele>981.0</ele><time>2026-04-05T08:09:06Z</time></trkpt><trkpt lat="43.81930337787894" lon="12.101685776730724"><ele>981.0</ele><time>2026-04-05T08:09:07Z</time></trkpt><trkpt lat="43.819391238109205" lon="12.101750784639036"><ele>978.75</ele><time>2026-04-05T08:09:08Z</time></trkpt><trkpt lat="43.819502441035986" lon="12.101838529676535"><ele>976.5</ele><time>2026-04-05T08:09:09Z</time></trkpt><trkpt lat="43.81961693107729" lon="12.101927778895584"><ele>974.25</ele><time>2026-04-05T08:09:10Z</time></trkpt><trkpt lat="43.819725490523" lon="12.102014151180681"><ele>972.0</ele><time>2026-04-05T08:09:11Z</time></trkpt><trkpt lat="43.819823852673075" lon="12.102068665372922"><ele>972.0</ele><time>2026-04-05T08:09:12Z</time></trkpt><trkpt lat="43.819916847461215" lon="12.102074910917077"><ele>972.0</ele><time>2026-04-05T08:09:13Z</time></trkpt><trkpt lat="43.82000694776378" lon="12.101993282717556"><ele>972.0</ele><time>2026-04-05T08:09:14Z</time></trkpt><trkpt lat="43.82008960880466" lon="12.101925110705052"><ele>972.0</ele><time>2026-04-05T08:09:15Z</time></trkpt><trkpt lat="43.82015749734968" lon="12.101845388628895"><ele>972.0</ele><time>2026-04-05T08:09:16Z</time></trkpt><trkpt lat="43.820243490373265" lon="12.101733593210914"><ele>971.5</ele><time>2026-04-05T08:09:17Z</time></trkpt><trkpt lat="43.82033027981215" lon="12.10162919398988"><ele>971.0</ele><time>2026-04-05T08:09:18Z</time></trkpt><trkpt lat="43.820422500489315" lon="12.101544374503154"><ele>970.5</ele><time>2026-04-05T08:09:19Z</time></trkpt><trkpt lat="43.82053181622791" lon="12.10149908084375"><ele>970.0</ele><time>2026-04-05T08:09:20Z</time></trkpt><trkpt lat="43.82065091662452" lon="12.101468270325155"><ele>970.0</ele><time>2026-04-05T08:09:21Z</time></trkpt><trkpt lat="43.82076674949494" lon="12.101442583689783"><ele>970.0</ele><time>2026-04-05T08:09:22Z</time></trkpt><trkpt lat="43.820879810990924" lon="12.101459296383867"><ele>970.0</ele><time>2026-04-05T08:09:23Z</time></trkpt><trkpt lat="43.82098579643521" lon="12.101517500959242"><ele>970.0</ele><time>2026-04-05T08:09:24Z</time></trkpt><trkpt lat="43.821069806614005" lon="12.101604130425526"><ele>966.4</ele><time>2026-04-05T08:09:25Z</time></trkpt><trkpt lat="43.82112636439033" lon="12.101684253599112"><ele>962.8</ele><time>2026-04-05T08:09:26Z</time></trkpt><trkpt lat="43.82115202926261" lon="12.101852459788006"><ele>959.2</ele><time>2026-04-05T08:09:28Z</time></trkpt><trkpt lat="43.821134849995026" lon="12.101984618771938"><ele>955.6</ele><time>2026-04-05T08:09:29Z</time></trkpt><trkpt lat="43.8211329693633" lon="12.10215714554796"><ele>952.0</ele><time>2026-04-05T08:09:30Z</time></trkpt><trkpt lat="43.82114490620708" lon="12.102274804571827"><ele>952.0</ele><time>2026-04-05T08:09:31Z</time></trkpt><trkpt lat="43.82118067791168" lon="12.102393881891242"><ele>952.0</ele><time>2026-04-05T08:09:32Z</time></trkpt><trkpt lat="43.821287716681184" lon="12.102481959785134"><ele>952.0</ele><time>2026-04-05T08:09:33Z</time></trkpt><trkpt lat="43.821337682282724" lon="12.102579812279677"><ele>952.0</ele><time>2026-04-05T08:09:34Z</time></trkpt><trkpt lat="43.821334516222436" lon="12.102670100817297"><ele>952.0</ele><time>2026-04-05T08:09:35Z</time></trkpt><trkpt lat="43.82128418851647" lon="12.102759465223636"><ele>953.3333333333333</ele><time>2026-04-05T08:09:36Z</time></trkpt><trkpt lat="43.82120106076229" lon="12.10281455553642"><ele>954.6666666666666</ele><time>2026-04-05T08:09:37Z</time></trkpt><trkpt lat="43.82112275084628" lon="12.10291532275858"><ele>956.0</ele><time>2026-04-05T08:09:38Z</time></trkpt><trkpt lat="43.82105126003671" lon="12.10301609801586"><ele>957.3333333333333</ele><time>2026-04-05T08:09:39Z</time></trkpt><trkpt lat="43.82101455429889" lon="12.103098161785871"><ele>958.6666666666666</ele><time>2026-04-05T08:09:40Z</time></trkpt><trkpt lat="43.82100557091535" lon="12.103189007246474"><ele>960.0</ele><time>2026-04-05T08:09:41Z</time></trkpt><trkpt lat="43.82103334179707" lon="12.103287459849206"><ele>960.0</ele><time>2026-04-05T08:09:42Z</time></trkpt><trkpt lat="43.821081555798315" lon="12.103365872261378"><ele>960.0</ele><time>2026-04-05T08:09:43Z</time></trkpt><trkpt lat="43.82116256713074" lon="12.103445690575652"><ele>960.0</ele><time>2026-04-05T08:09:44Z</time></trkpt><trkpt lat="43.82126591816536" lon="12.103513449125034"><ele>960.0</ele><time>2026-04-05T08:09:45Z</time></trkpt><trkpt lat="43.8213602469857" lon="12.103542352680261"><ele>960.0</ele><time>2026-04-05T08:09:46Z</time></trkpt><trkpt lat="43.821402398313104" lon="12.103634186429423"><ele>960.0</ele><time>2026-04-05T08:09:47Z</time></trkpt><trkpt lat="43.82140706931101" lon="12.103731768881998"><ele>960.0</ele><time>2026-04-05T08:09:48Z</time></trkpt><trkpt lat="43.82138876180787" lon="12.10382222024091"><ele>960.0</ele><time>2026-04-05T08:09:49Z</time></trkpt><trkpt lat="43.82134658716881" lon="12.103895938827241"><ele>960.0</ele><time>2026-04-05T08:09:50Z</time></trkpt><trkpt lat="43.821268619731775" lon="12.103949341985805"><ele>960.0</ele><time>2026-04-05T08:09:51Z</time></trkpt><trkpt lat="43.82119148373196" lon="12.103984196190225"><ele>960.0</ele><time>2026-04-05T08:09:52Z</time></trkpt><trkpt lat="43.821097894557006" lon="12.104065510979916"><ele>960.4</ele><time>2026-04-05T08:09:53Z</time></trkpt><trkpt lat="43.8210032918888" lon="12.104098738903852"><ele>960.8</ele><time>2026-04-05T08:09:54Z</time></trkpt><trkpt lat="43.82091328490002" lon="12.104121899811714"><ele>961.2</ele><time>2026-04-05T08:09:55Z</time></trkpt><trkpt lat="43.82083916511751" lon="12.104206950322789"><ele>961.6</ele><time>2026-04-05T08:09:56Z</time></trkpt><trkpt lat="43.820743514963375" lon="12.104223922979418"><ele>962.0</ele><time>2026-04-05T08:09:57Z</time></trkpt><trkpt lat="43.82067088686393" lon="12.104244424885861"><ele>957.3333333333334</ele><time>2026-04-05T08:09:58Z</time></trkpt><trkpt lat="43.82059777322846" lon="12.10429534803536"><ele>952.6666666666667</ele><time>2026-04-05T08:09:59Z</time></trkpt><trkpt lat="43.82055695820745" lon="12.104365474902721"><ele>948.0</ele><time>2026-04-05T08:10:00Z</time></trkpt><trkpt lat="43.82054161380698" lon="12.104459954550467"><ele>943.3333333333333</ele><time>2026-04-05T08:10:01Z</time></trkpt><trkpt lat="43.820550213591645" lon="12.104579099968053"><ele>938.6666666666666</ele><time>2026-04-05T08:10:02Z</time></trkpt><trkpt lat="43.82055383626107" lon="12.104718745393702"><ele>934.0</ele><time>2026-04-05T08:10:03Z</time></trkpt><trkpt lat="43.820537841255494" lon="12.104846809421133"><ele>937.2</ele><time>2026-04-05T08:10:04Z</time></trkpt><trkpt lat="43.82046836221097" lon="12.104937613185937"><ele>940.4000000000001</ele><time>2026-04-05T08:10:05Z</time></trkpt><trkpt lat="43.82043293860455" lon="12.105060536471013"><ele>943.6</ele><time>2026-04-05T08:10:06Z</time></trkpt><trkpt lat="43.8204135640797" lon="12.105165379280589"><ele>946.8</ele><time>2026-04-05T08:10:07Z</time></trkpt><trkpt lat="43.82043472952109" lon="12.105290496037439"><ele>950.0</ele><time>2026-04-05T08:10:08Z</time></trkpt><trkpt lat="43.820468456752124" lon="12.10542285148657"><ele>950.0</ele><time>2026-04-05T08:10:09Z</time></trkpt><trkpt lat="43.82049233673952" lon="12.105563541115622"><ele>950.0</ele><time>2026-04-05T08:10:10Z</time></trkpt><trkpt lat="43.82048860882629" lon="12.105689317195933"><ele>950.0</ele><time>2026-04-05T08:10:11Z</time></trkpt><trkpt lat="43.8204434273141" lon="12.105797109757669"><ele>950.0</ele><time>2026-04-05T08:10:12Z</time></trkpt><trkpt lat="43.820385169997266" lon="12.105888086531694"><ele>950.0</ele><time>2026-04-05T08:10:13Z</time></trkpt><trkpt lat="43.82030721453419" lon="12.105959226164646"><ele>953.0</ele><time>2026-04-05T08:10:14Z</time></trkpt><trkpt lat="43.82021535127996" lon="12.105994337354856"><ele>956.0</ele><time>2026-04-05T08:10:15Z</time></trkpt><trkpt lat="43.82010854238817" lon="12.106044755691833"><ele>959.0</ele><time>2026-04-05T08:10:16Z</time></trkpt><trkpt lat="43.81999848946666" lon="12.10609671259363"><ele>962.0</ele><time>2026-04-05T08:10:17Z</time></trkpt><trkpt lat="43.81990334311454" lon="12.106142243592346"><ele>965.0</ele><time>2026-04-05T08:10:18Z</time></trkpt><trkpt lat="43.81982074373026" lon="12.106187133175649"><ele>958.8</ele><time>2026-04-05T08:10:19Z</time></trkpt><trkpt lat="43.81975237902501" lon="12.106256742363863"><ele>952.6</ele><time>2026-04-05T08:10:20Z</time></trkpt><trkpt lat="43.81971056879979" lon="12.106359671726107"><ele>946.4000000000001</ele><time>2026-04-05T08:10:21Z</time></trkpt><trkpt lat="43.81972052747851" lon="12.106480510847724"><ele>940.2</ele><time>2026-04-05T08:10:22Z</time></trkpt><trkpt lat="43.819752252688275" lon="12.106602468218885"><ele>934.0</ele><time>2026-04-05T08:10:23Z</time></trkpt><trkpt lat="43.81981360813867" lon="12.106713567675381"><ele>934.0</ele><time>2026-04-05T08:10:24Z</time></trkpt><trkpt lat="43.81988505593875" lon="12.106851021429506"><ele>934.0</ele><time>2026-04-05T08:10:25Z</time></trkpt><trkpt lat="43.81996561821809" lon="12.10701053578676"><ele>934.0</ele><time>2026-04-05T08:10:26Z</time></trkpt><trkpt lat="43.820042813732556" lon="12.107160806029958"><ele>934.0</ele><time>2026-04-05T08:10:27Z</time></trkpt><trkpt lat="43.8200932430077" lon="12.107296993476801"><ele>932.5</ele><time>2026-04-05T08:10:28Z</time></trkpt><trkpt lat="43.82011185803716" lon="12.107430578533359"><ele>931.0</ele><time>2026-04-05T08:10:29Z</time></trkpt><trkpt lat="43.82010959846916" lon="12.107586870148936"><ele>929.5</ele><time>2026-04-05T08:10:30Z</time></trkpt><trkpt lat="43.82008130684642" lon="12.107767944626623"><ele>928.0</ele><time>2026-04-05T08:10:31Z</time></trkpt><trkpt lat="43.82004291574935" lon="12.107964359444225"><ele>928.0</ele><time>2026-04-05T08:10:32Z</time></trkpt><trkpt lat="43.82000692401363" lon="12.108147827723599"><ele>928.0</ele><time>2026-04-05T08:10:33Z</time></trkpt><trkpt lat="43.819969129791794" lon="12.108305488765117"><ele>928.0</ele><time>2026-04-05T08:10:34Z</time></trkpt><trkpt lat="43.81995151003674" lon="12.108423857060085"><ele>928.0</ele><time>2026-04-05T08:10:35Z</time></trkpt><trkpt lat="43.819997279829394" lon="12.108567782562156"><ele>926.8333333333333</ele><time>2026-04-05T08:10:37Z</time></trkpt><trkpt lat="43.82005722827055" lon="12.108601657247819"><ele>925.6666666666666</ele><time>2026-04-05T08:10:38Z</time></trkpt><trkpt lat="43.82013405593885" lon="12.108605066739571"><ele>924.5</ele><time>2026-04-05T08:10:39Z</time></trkpt><trkpt lat="43.82021235925966" lon="12.108575698740445"><ele>923.3333333333333</ele><time>2026-04-05T08:10:40Z</time></trkpt><trkpt lat="43.82030880411827" lon="12.108525132930703"><ele>922.1666666666666</ele><time>2026-04-05T08:10:41Z</time></trkpt><trkpt lat="43.8204060449368" lon="12.108454253210606"><ele>921.0</ele><time>2026-04-05T08:10:42Z</time></trkpt><trkpt lat="43.82049172429809" lon="12.10835352707003"><ele>925.4</ele><time>2026-04-05T08:10:43Z</time></trkpt><trkpt lat="43.82057195559053" lon="12.108241303437289"><ele>929.8</ele><time>2026-04-05T08:10:44Z</time></trkpt><trkpt lat="43.820636923191266" lon="12.108126055826919"><ele>934.1999999999999</ele><time>2026-04-05T08:10:45Z</time></trkpt><trkpt lat="43.820720357597644" lon="12.108042143204571"><ele>938.5999999999999</ele><time>2026-04-05T08:10:46Z</time></trkpt><trkpt lat="43.82080327330469" lon="12.107972344226123"><ele>943.0</ele><time>2026-04-05T08:10:47Z</time></trkpt><trkpt lat="43.8209012470871" lon="12.107875213869416"><ele>941.5</ele><time>2026-04-05T08:10:48Z</time></trkpt><trkpt lat="43.82099705545402" lon="12.107783594065799"><ele>940.0</ele><time>2026-04-05T08:10:49Z</time></trkpt><trkpt lat="43.82110111300223" lon="12.107722438919712"><ele>938.5</ele><time>2026-04-05T08:10:50Z</time></trkpt><trkpt lat="43.82120884065481" lon="12.10768986438371"><ele>937.0</ele><time>2026-04-05T08:10:51Z</time></trkpt><trkpt lat="43.821323904477936" lon="12.107731610047006"><ele>937.0</ele><time>2026-04-05T08:10:52Z</time></trkpt><trkpt lat="43.82145148017675" lon="12.107784156987087"><ele>937.0</ele><time>2026-04-05T08:10:53Z</time></trkpt><trkpt lat="43.82157857699786" lon="12.107851560051962"><ele>937.0</ele><time>2026-04-05T08:10:54Z</time></trkpt><trkpt lat="43.82170307241275" lon="12.10792789900096"><ele>937.0</ele><time>2026-04-05T08:10:55Z</time></trkpt><trkpt lat="43.82184857840458" lon="12.108019201114404"><ele>933.75</ele><time>2026-04-05T08:10:56Z</time></trkpt><trkpt lat="43.82195119934684" lon="12.108102449232387"><ele>930.5</ele><time>2026-04-05T08:10:57Z</time></trkpt><trkpt lat="43.82200189431185" lon="12.108216728702967"><ele>927.25</ele><time>2026-04-05T08:10:58Z</time></trkpt><trkpt lat="43.82204855685459" lon="12.108363635537806"><ele>924.0</ele><time>2026-04-05T08:10:59Z</time></trkpt><trkpt lat="43.822057860153905" lon="12.108552239809223"><ele>915.6666666666667</ele><time>2026-04-05T08:11:00Z</time></trkpt><trkpt lat="43.822079353911136" lon="12.108796564169117"><ele>907.3333333333334</ele><time>2026-04-05T08:11:01Z</time></trkpt><trkpt lat="43.822147944707886" lon="12.108998548132227"><ele>899.0</ele><time>2026-04-05T08:11:02Z</time></trkpt><trkpt lat="43.82218582672033" lon="12.109219556096168"><ele>893.75</ele><time>2026-04-05T08:11:03Z</time></trkpt><trkpt lat="43.82219551336584" lon="12.109367368616448"><ele>888.5</ele><time>2026-04-05T08:11:04Z</time></trkpt><trkpt lat="43.82218641663117" lon="12.109529701665798"><ele>883.25</ele><time>2026-04-05T08:11:05Z</time></trkpt><trkpt lat="43.82209807713548" lon="12.1096610205994"><ele>878.0</ele><time>2026-04-05T08:11:06Z</time></trkpt><trkpt lat="43.82194937894151" lon="12.109805743887257"><ele>874.0</ele><time>2026-04-05T08:11:07Z</time></trkpt><trkpt lat="43.821827620228134" lon="12.109963692125147"><ele>870.0</ele><time>2026-04-05T08:11:08Z</time></trkpt><trkpt lat="43.82173182504788" lon="12.110140112871246"><ele>866.0</ele><time>2026-04-05T08:11:09Z</time></trkpt><trkpt lat="43.82164525157092" lon="12.110362347586847"><ele>874.3333333333334</ele><time>2026-04-05T08:11:10Z</time></trkpt><trkpt lat="43.821547942055325" lon="12.110615723949264"><ele>882.6666666666667</ele><time>2026-04-05T08:11:11Z</time></trkpt><trkpt lat="43.82143826836084" lon="12.110869399548701"><ele>891.0</ele><time>2026-04-05T08:11:12Z</time></trkpt><trkpt lat="43.82133580561916" lon="12.111110204240685"><ele>892.6666666666667</ele><time>2026-04-05T08:11:13Z</time></trkpt><trkpt lat="43.82124591349208" lon="12.111344263878074"><ele>894.3333333333334</ele><time>2026-04-05T08:11:14Z</time></trkpt><trkpt lat="43.82117002950941" lon="12.111548138872795"><ele>896.0</ele><time>2026-04-05T08:11:15Z</time></trkpt><trkpt lat="43.821087770502935" lon="12.111708396418443"><ele>895.5</ele><time>2026-04-05T08:11:16Z</time></trkpt><trkpt lat="43.82099334685353" lon="12.11184217336333"><ele>895.0</ele><time>2026-04-05T08:11:17Z</time></trkpt><trkpt lat="43.82087899373974" lon="12.111936000568285"><ele>894.5</ele><time>2026-04-05T08:11:18Z</time></trkpt><trkpt lat="43.8207683705458" lon="12.11201716509635"><ele>894.0</ele><time>2026-04-05T08:11:19Z</time></trkpt><trkpt lat="43.82069507437486" lon="12.112103988818005"><ele>894.0</ele><time>2026-04-05T08:11:20Z</time></trkpt><trkpt lat="43.820661103971865" lon="12.11219995471066"><ele>894.0000000000001</ele><time>2026-04-05T08:11:21Z</time></trkpt><trkpt lat="43.820642666874555" lon="12.112333514582215"><ele>894.0000000000001</ele><time>2026-04-05T08:11:22Z</time></trkpt><trkpt lat="43.820625006259746" lon="12.112486361361512"><ele>894.0</ele><time>2026-04-05T08:11:23Z</time></trkpt><trkpt lat="43.820578012725626" lon="12.112630137983896"><ele>894.0</ele><time>2026-04-05T08:11:24Z</time></trkpt><trkpt lat="43.820507282238346" lon="12.112732857960673"><ele>896.3333333333334</ele><time>2026-04-05T08:11:25Z</time></trkpt><trkpt lat="43.82042334788957" lon="12.112795702810907"><ele>898.6666666666667</ele><time>2026-04-05T08:11:26Z</time></trkpt><trkpt lat="43.82034728636544" lon="12.112853318531071"><ele>901.0</ele><time>2026-04-05T08:11:27Z</time></trkpt><trkpt lat="43.82031618443049" lon="12.112932457563192"><ele>903.3333333333334</ele><time>2026-04-05T08:11:28Z</time></trkpt><trkpt lat="43.820319000592086" lon="12.113050157285757"><ele>905.6666666666667</ele><time>2026-04-05T08:11:29Z</time></trkpt><trkpt lat="43.82034768297688" lon="12.113189423091681"><ele>908.0</ele><time>2026-04-05T08:11:30Z</time></trkpt><trkpt lat="43.820387660931274" lon="12.113299619492734"><ele>908.0000000000001</ele><time>2026-04-05T08:11:31Z</time></trkpt><trkpt lat="43.820447618772114" lon="12.113362326248277"><ele>908.0</ele><time>2026-04-05T08:11:32Z</time></trkpt><trkpt lat="43.82051848246335" lon="12.113387801178645"><ele>908.0</ele><time>2026-04-05T08:11:33Z</time></trkpt><trkpt lat="43.82059466250286" lon="12.113370359562687"><ele>908.0</ele><time>2026-04-05T08:11:34Z</time></trkpt><trkpt lat="43.820672704268546" lon="12.113344871451828"><ele>908.0000000000001</ele><time>2026-04-05T08:11:35Z</time></trkpt><trkpt lat="43.82077800795474" lon="12.113348905552304"><ele>908.0</ele><time>2026-04-05T08:11:36Z</time></trkpt><trkpt lat="43.82085768058268" lon="12.113390022713036"><ele>908.0000000000001</ele><time>2026-04-05T08:11:37Z</time></trkpt><trkpt lat="43.82091448752958" lon="12.113473692528366"><ele>908.0</ele><time>2026-04-05T08:11:38Z</time></trkpt><trkpt lat="43.82094164432038" lon="12.113581364697547"><ele>908.0</ele><time>2026-04-05T08:11:39Z</time></trkpt><trkpt lat="43.820948395012415" lon="12.113690249859355"><ele>908.0</ele><time>2026-04-05T08:11:40Z</time></trkpt><trkpt lat="43.82094469167354" lon="12.113823917800904"><ele>908.0000000000001</ele><time>2026-04-05T08:11:41Z</time></trkpt><trkpt lat="43.82095276607438" lon="12.1139648299035"><ele>908.0</ele><time>2026-04-05T08:11:42Z</time></trkpt><trkpt lat="43.82096650076308" lon="12.114129923854005"><ele>905.5</ele><time>2026-04-05T08:11:43Z</time></trkpt><trkpt lat="43.82098128219037" lon="12.11428278774891"><ele>903.0</ele><time>2026-04-05T08:11:44Z</time></trkpt><trkpt lat="43.82098384272135" lon="12.114458594080176"><ele>900.5</ele><time>2026-04-05T08:11:45Z</time></trkpt><trkpt lat="43.82097082910255" lon="12.11460861813827"><ele>898.0</ele><time>2026-04-05T08:11:46Z</time></trkpt><trkpt lat="43.820936997509165" lon="12.114746271140497"><ele>897.8</ele><time>2026-04-05T08:11:47Z</time></trkpt><trkpt lat="43.82088634071367" lon="12.114869913823439"><ele>897.5999999999999</ele><time>2026-04-05T08:11:48Z</time></trkpt><trkpt lat="43.82083457737232" lon="12.114990312675458"><ele>897.4000000000001</ele><time>2026-04-05T08:11:49Z</time></trkpt><trkpt lat="43.820797873673456" lon="12.115117046629274"><ele>897.2</ele><time>2026-04-05T08:11:50Z</time></trkpt><trkpt lat="43.820793190277435" lon="12.115237174430074"><ele>897.0</ele><time>2026-04-05T08:11:51Z</time></trkpt><trkpt lat="43.82082859069361" lon="12.115349378050118"><ele>896.0</ele><time>2026-04-05T08:11:52Z</time></trkpt><trkpt lat="43.82088434941311" lon="12.115459939277399"><ele>895.0</ele><time>2026-04-05T08:11:53Z</time></trkpt><trkpt lat="43.820941452048686" lon="12.115589863287965"><ele>894.0</ele><time>2026-04-05T08:11:54Z</time></trkpt><trkpt lat="43.820975173203415" lon="12.115733126612454"><ele>893.0</ele><time>2026-04-05T08:11:55Z</time></trkpt><trkpt lat="43.8209737290849" lon="12.115875720999904"><ele>892.0</ele><time>2026-04-05T08:11:56Z</time></trkpt><trkpt lat="43.82094081111006" lon="12.116012208921932"><ele>892.0</ele><time>2026-04-05T08:11:57Z</time></trkpt><trkpt lat="43.82088114808775" lon="12.11615733450979"><ele>892.0</ele><time>2026-04-05T08:11:58Z</time></trkpt><trkpt lat="43.82079965869156" lon="12.116294748374848"><ele>892.0</ele><time>2026-04-05T08:11:59Z</time></trkpt><trkpt lat="43.82069739087895" lon="12.11642416802865"><ele>892.0</ele><time>2026-04-05T08:12:00Z</time></trkpt><trkpt lat="43.82057324868201" lon="12.116546558447585"><ele>892.0</ele><time>2026-04-05T08:12:01Z</time></trkpt><trkpt lat="43.82045204094006" lon="12.116663675964222"><ele>892.0</ele><time>2026-04-05T08:12:02Z</time></trkpt><trkpt lat="43.82035097025496" lon="12.11679489295259"><ele>892.0</ele><time>2026-04-05T08:12:03Z</time></trkpt><trkpt lat="43.820271787438585" lon="12.116927413940928"><ele>892.0</ele><time>2026-04-05T08:12:04Z</time></trkpt><trkpt lat="43.820199473496885" lon="12.117027470260892"><ele>889.8</ele><time>2026-04-05T08:12:05Z</time></trkpt><trkpt lat="43.82011696466816" lon="12.117089485252476"><ele>887.6</ele><time>2026-04-05T08:12:06Z</time></trkpt><trkpt lat="43.82001611588778" lon="12.117108093141555"><ele>885.3999999999999</ele><time>2026-04-05T08:12:07Z</time></trkpt><trkpt lat="43.81989396444329" lon="12.117083992227172"><ele>883.1999999999999</ele><time>2026-04-05T08:12:08Z</time></trkpt><trkpt lat="43.819779915919646" lon="12.117070374497134"><ele>881.0</ele><time>2026-04-05T08:12:09Z</time></trkpt><trkpt lat="43.81970952533445" lon="12.117071792102893"><ele>881.0000000000001</ele><time>2026-04-05T08:12:10Z</time></trkpt><trkpt lat="43.819638110788226" lon="12.117195540726676"><ele>881.0</ele><time>2026-04-05T08:12:12Z</time></trkpt><trkpt lat="43.81964573081129" lon="12.117288602542155"><ele>881.0</ele><time>2026-04-05T08:12:13Z</time></trkpt><trkpt lat="43.81969133668421" lon="12.117363330074161"><ele>881.0</ele><time>2026-04-05T08:12:14Z</time></trkpt><trkpt lat="43.8197614034739" lon="12.117416324957205"><ele>881.0000000000001</ele><time>2026-04-05T08:12:15Z</time></trkpt><trkpt lat="43.81985200938695" lon="12.117475524657902"><ele>881.0</ele><time>2026-04-05T08:12:16Z</time></trkpt><trkpt lat="43.81994912618399" lon="12.11755397718129"><ele>879.5999999999999</ele><time>2026-04-05T08:12:17Z</time></trkpt><trkpt lat="43.8200469571047" lon="12.11763741269793"><ele>878.1999999999999</ele><time>2026-04-05T08:12:18Z</time></trkpt><trkpt lat="43.820144426988854" lon="12.117717599017995"><ele>876.8000000000001</ele><time>2026-04-05T08:12:19Z</time></trkpt><trkpt lat="43.82023138070165" lon="12.117777730738649"><ele>875.4000000000001</ele><time>2026-04-05T08:12:20Z</time></trkpt><trkpt lat="43.82030385251363" lon="12.117787283679514"><ele>874.0</ele><time>2026-04-05T08:12:21Z</time></trkpt><trkpt lat="43.82037810127108" lon="12.117730116722312"><ele>873.6666666666666</ele><time>2026-04-05T08:12:22Z</time></trkpt><trkpt lat="43.820459198379446" lon="12.117650937451609"><ele>873.3333333333333</ele><time>2026-04-05T08:12:23Z</time></trkpt><trkpt lat="43.82054386091717" lon="12.117578033121582"><ele>873.0</ele><time>2026-04-05T08:12:24Z</time></trkpt><trkpt lat="43.82062258013871" lon="12.117559213668876"><ele>872.6666666666667</ele><time>2026-04-05T08:12:25Z</time></trkpt><trkpt lat="43.82069400702644" lon="12.11758953459494"><ele>872.3333333333334</ele><time>2026-04-05T08:12:26Z</time></trkpt><trkpt lat="43.820771554484324" lon="12.117665783309922"><ele>872.0</ele><time>2026-04-05T08:12:27Z</time></trkpt><trkpt lat="43.82083547075058" lon="12.117785240171816"><ele>872.0</ele><time>2026-04-05T08:12:28Z</time></trkpt><trkpt lat="43.82090327796255" lon="12.117913085090802"><ele>872.0</ele><time>2026-04-05T08:12:29Z</time></trkpt><trkpt lat="43.82097216527876" lon="12.118026816335707"><ele>872.0</ele><time>2026-04-05T08:12:30Z</time></trkpt><trkpt lat="43.82103413125966" lon="12.118146682070547"><ele>872.0</ele><time>2026-04-05T08:12:31Z</time></trkpt><trkpt lat="43.82108078782381" lon="12.118277093898666"><ele>872.0</ele><time>2026-04-05T08:12:32Z</time></trkpt><trkpt lat="43.82111940520904" lon="12.118414227620573"><ele>870.0</ele><time>2026-04-05T08:12:33Z</time></trkpt><trkpt lat="43.82115691781081" lon="12.118551020836188"><ele>868.0</ele><time>2026-04-05T08:12:34Z</time></trkpt><trkpt lat="43.821196364108275" lon="12.118690853528811"><ele>866.0</ele><time>2026-04-05T08:12:35Z</time></trkpt><trkpt lat="43.821227574742146" lon="12.118823779419207"><ele>864.0</ele><time>2026-04-05T08:12:36Z</time></trkpt><trkpt lat="43.82125650166886" lon="12.1189220659366"><ele>862.0</ele><time>2026-04-05T08:12:37Z</time></trkpt><trkpt lat="43.82130251040907" lon="12.11898383578577"><ele>861.9999999999999</ele><time>2026-04-05T08:12:38Z</time></trkpt><trkpt lat="43.82136646158868" lon="12.119016264201411"><ele>862.0</ele><time>2026-04-05T08:12:39Z</time></trkpt><trkpt lat="43.821440619921816" lon="12.118997105618881"><ele>862.0</ele><time>2026-04-05T08:12:40Z</time></trkpt><trkpt lat="43.82152183170702" lon="12.11893730339254"><ele>862.0</ele><time>2026-04-05T08:12:41Z</time></trkpt><trkpt lat="43.82161095786708" lon="12.11887142761287"><ele>861.9999999999999</ele><time>2026-04-05T08:12:42Z</time></trkpt><trkpt lat="43.82169988714103" lon="12.118815657341555"><ele>862.0</ele><time>2026-04-05T08:12:43Z</time></trkpt><trkpt lat="43.821766556006914" lon="12.118781444690944"><ele>858.8</ele><time>2026-04-05T08:12:44Z</time></trkpt><trkpt lat="43.82186260321064" lon="12.118750535506898"><ele>855.6</ele><time>2026-04-05T08:12:46Z</time></trkpt><trkpt lat="43.82198965601984" lon="12.118780114357499"><ele>852.4</ele><time>2026-04-05T08:12:48Z</time></trkpt><trkpt lat="43.822074189518545" lon="12.118846472561831"><ele>849.1999999999999</ele><time>2026-04-05T08:12:49Z</time></trkpt><trkpt lat="43.82217130144948" lon="12.118941834190649"><ele>846.0</ele><time>2026-04-05T08:12:50Z</time></trkpt><trkpt lat="43.82225473701245" lon="12.119072234182598"><ele>842.75</ele><time>2026-04-05T08:12:51Z</time></trkpt><trkpt lat="43.82230602806935" lon="12.11920645027636"><ele>839.5</ele><time>2026-04-05T08:12:52Z</time></trkpt><trkpt lat="43.82233735540618" lon="12.119357151218537"><ele>836.25</ele><time>2026-04-05T08:12:53Z</time></trkpt><trkpt lat="43.822355659497966" lon="12.119514205242947"><ele>833.0</ele><time>2026-04-05T08:12:54Z</time></trkpt><trkpt lat="43.822372027306855" lon="12.119679148932683"><ele>833.0</ele><time>2026-04-05T08:12:55Z</time></trkpt><trkpt lat="43.822386998996095" lon="12.119836668009587"><ele>833.0</ele><time>2026-04-05T08:12:56Z</time></trkpt><trkpt lat="43.82238827078309" lon="12.119999707065732"><ele>833.0</ele><time>2026-04-05T08:12:57Z</time></trkpt><trkpt lat="43.82237066511611" lon="12.120161306788614"><ele>833.0</ele><time>2026-04-05T08:12:58Z</time></trkpt><trkpt lat="43.82233375405517" lon="12.120321914062377"><ele>833.3333333333334</ele><time>2026-04-05T08:12:59Z</time></trkpt><trkpt lat="43.82230615387618" lon="12.12045377250319"><ele>833.6666666666667</ele><time>2026-04-05T08:13:00Z</time></trkpt><trkpt lat="43.82229122936783" lon="12.12055210471542"><ele>834.0</ele><time>2026-04-05T08:13:01Z</time></trkpt><trkpt lat="43.82233712766857" lon="12.120695084710428"><ele>834.3333333333333</ele><time>2026-04-05T08:13:03Z</time></trkpt><trkpt lat="43.82241285722893" lon="12.120718332433412"><ele>834.6666666666666</ele><time>2026-04-05T08:13:04Z</time></trkpt><trkpt lat="43.82249408216007" lon="12.120715034722261"><ele>835.0</ele><time>2026-04-05T08:13:05Z</time></trkpt><trkpt lat="43.8225832504628" lon="12.120688813877106"><ele>833.9999999999999</ele><time>2026-04-05T08:13:06Z</time></trkpt><trkpt lat="43.82266622153306" lon="12.12067968907322"><ele>833.0</ele><time>2026-04-05T08:13:07Z</time></trkpt><trkpt lat="43.82273854134805" lon="12.120687463691713"><ele>832.0</ele><time>2026-04-05T08:13:08Z</time></trkpt><trkpt lat="43.82281274512568" lon="12.120722365174222"><ele>831.0</ele><time>2026-04-05T08:13:09Z</time></trkpt><trkpt lat="43.82288034472195" lon="12.120784531193465"><ele>829.9999999999999</ele><time>2026-04-05T08:13:10Z</time></trkpt><trkpt lat="43.82293715075711" lon="12.120877651639155"><ele>829.0</ele><time>2026-04-05T08:13:11Z</time></trkpt><trkpt lat="43.82295994497601" lon="12.12097920534613"><ele>829.0</ele><time>2026-04-05T08:13:12Z</time></trkpt><trkpt lat="43.82299036984354" lon="12.121099332755012"><ele>829.0</ele><time>2026-04-05T08:13:13Z</time></trkpt><trkpt lat="43.82300955781854" lon="12.121224207465811"><ele>829.0</ele><time>2026-04-05T08:13:14Z</time></trkpt><trkpt lat="43.82303516940103" lon="12.121364153797114"><ele>829.0</ele><time>2026-04-05T08:13:15Z</time></trkpt><trkpt lat="43.82306360855388" lon="12.121501649423635"><ele>829.0</ele><time>2026-04-05T08:13:16Z</time></trkpt><trkpt lat="43.82309571843496" lon="12.121642368222442"><ele>828.6</ele><time>2026-04-05T08:13:17Z</time></trkpt><trkpt lat="43.823125275909206" lon="12.121781964783631"><ele>828.2</ele><time>2026-04-05T08:13:18Z</time></trkpt><trkpt lat="43.823158604538904" lon="12.121929468501827"><ele>827.8000000000001</ele><time>2026-04-05T08:13:19Z</time></trkpt><trkpt lat="43.8232030273187" lon="12.122062488269387"><ele>827.4000000000001</ele><time>2026-04-05T08:13:20Z</time></trkpt><trkpt lat="43.82323361680971" lon="12.122206723751239"><ele>827.0</ele><time>2026-04-05T08:13:21Z</time></trkpt><trkpt lat="43.823263751813556" lon="12.12235169356335"><ele>824.8</ele><time>2026-04-05T08:13:22Z</time></trkpt><trkpt lat="43.823300911846886" lon="12.122496337958617"><ele>822.6</ele><time>2026-04-05T08:13:23Z</time></trkpt><trkpt lat="43.823342277884656" lon="12.12263961644442"><ele>820.4</ele><time>2026-04-05T08:13:24Z</time></trkpt><trkpt lat="43.823381177679956" lon="12.122782263971715"><ele>818.1999999999999</ele><time>2026-04-05T08:13:25Z</time></trkpt><trkpt lat="43.823413756671464" lon="12.122914888804033"><ele>816.0</ele><time>2026-04-05T08:13:26Z</time></trkpt><trkpt lat="43.82344380249702" lon="12.123054028197343"><ele>816.0</ele><time>2026-04-05T08:13:27Z</time></trkpt><trkpt lat="43.823475091053425" lon="12.123182266107959"><ele>816.0</ele><time>2026-04-05T08:13:28Z</time></trkpt><trkpt lat="43.82350913250547" lon="12.123323057653733"><ele>816.0</ele><time>2026-04-05T08:13:29Z</time></trkpt><trkpt lat="43.82355307333121" lon="12.123450936914407"><ele>816.0</ele><time>2026-04-05T08:13:30Z</time></trkpt><trkpt lat="43.82361390132574" lon="12.12355899030252"><ele>816.0</ele><time>2026-04-05T08:13:31Z</time></trkpt><trkpt lat="43.823667062527996" lon="12.123666161021488"><ele>814.5999999999999</ele><time>2026-04-05T08:13:32Z</time></trkpt><trkpt lat="43.82372002964697" lon="12.123787428916282"><ele>813.2</ele><time>2026-04-05T08:13:33Z</time></trkpt><trkpt lat="43.82377199860373" lon="12.12389063059685"><ele>811.8</ele><time>2026-04-05T08:13:34Z</time></trkpt><trkpt lat="43.823824410375536" lon="12.123988662245363"><ele>810.4000000000001</ele><time>2026-04-05T08:13:35Z</time></trkpt><trkpt lat="43.82388336835456" lon="12.124090535207989"><ele>809.0</ele><time>2026-04-05T08:13:36Z</time></trkpt><trkpt lat="43.82393493720624" lon="12.124193377314286"><ele>807.0000000000001</ele><time>2026-04-05T08:13:37Z</time></trkpt><trkpt lat="43.823984506514215" lon="12.124294063017123"><ele>805.0</ele><time>2026-04-05T08:13:38Z</time></trkpt><trkpt lat="43.82401274605564" lon="12.124399993309694"><ele>803.0</ele><time>2026-04-05T08:13:39Z</time></trkpt><trkpt lat="43.824016911703936" lon="12.12451003213235"><ele>801.0</ele><time>2026-04-05T08:13:40Z</time></trkpt><trkpt lat="43.82399175577375" lon="12.124614113109333"><ele>799.0000000000001</ele><time>2026-04-05T08:13:41Z</time></trkpt><trkpt lat="43.82394862909825" lon="12.124701708089248"><ele>797.0</ele><time>2026-04-05T08:13:42Z</time></trkpt><trkpt lat="43.82389156458209" lon="12.12478814887859"><ele>797.0000000000001</ele><time>2026-04-05T08:13:43Z</time></trkpt><trkpt lat="43.82382899304202" lon="12.12486191901944"><ele>797.0</ele><time>2026-04-05T08:13:44Z</time></trkpt><trkpt lat="43.823762246372" lon="12.124937522799968"><ele>797.0</ele><time>2026-04-05T08:13:45Z</time></trkpt><trkpt lat="43.82369787736178" lon="12.125020192280173"><ele>797.0</ele><time>2026-04-05T08:13:46Z</time></trkpt><trkpt lat="43.82363567430892" lon="12.125096748509149"><ele>797.0000000000001</ele><time>2026-04-05T08:13:47Z</time></trkpt><trkpt lat="43.82356822396104" lon="12.125170873304446"><ele>797.0</ele><time>2026-04-05T08:13:48Z</time></trkpt><trkpt lat="43.82350718354019" lon="12.125241686367698"><ele>795.6666666666667</ele><time>2026-04-05T08:13:49Z</time></trkpt><trkpt lat="43.82344652272228" lon="12.125321074486436"><ele>794.3333333333334</ele><time>2026-04-05T08:13:50Z</time></trkpt><trkpt lat="43.8233945452097" lon="12.125407660786474"><ele>793.0</ele><time>2026-04-05T08:13:51Z</time></trkpt><trkpt lat="43.82335108641666" lon="12.125501713631905"><ele>791.6666666666667</ele><time>2026-04-05T08:13:52Z</time></trkpt><trkpt lat="43.82331616971116" lon="12.125606784028237"><ele>790.3333333333334</ele><time>2026-04-05T08:13:53Z</time></trkpt><trkpt lat="43.8232986104246" lon="12.12571661430955"><ele>789.0</ele><time>2026-04-05T08:13:54Z</time></trkpt><trkpt lat="43.82329333818741" lon="12.125830740863085"><ele>787.5</ele><time>2026-04-05T08:13:55Z</time></trkpt><trkpt lat="43.823306997367226" lon="12.125940525728975"><ele>786.0</ele><time>2026-04-05T08:13:56Z</time></trkpt><trkpt lat="43.82333010444696" lon="12.126055101829"><ele>784.5</ele><time>2026-04-05T08:13:57Z</time></trkpt><trkpt lat="43.823355610487944" lon="12.126167407363347"><ele>783.0</ele><time>2026-04-05T08:13:58Z</time></trkpt><trkpt lat="43.82337632695056" lon="12.126283060522832"><ele>781.5</ele><time>2026-04-05T08:13:59Z</time></trkpt><trkpt lat="43.8233933494909" lon="12.126411506125502"><ele>780.0</ele><time>2026-04-05T08:14:00Z</time></trkpt><trkpt lat="43.82341350060498" lon="12.126524040270844"><ele>778.0</ele><time>2026-04-05T08:14:01Z</time></trkpt><trkpt lat="43.823452835220955" lon="12.126611758362973"><ele>776.0</ele><time>2026-04-05T08:14:02Z</time></trkpt><trkpt lat="43.82351824947657" lon="12.126677611697817"><ele>774.0</ele><time>2026-04-05T08:14:03Z</time></trkpt><trkpt lat="43.82359828928414" lon="12.1267184881497"><ele>772.0</ele><time>2026-04-05T08:14:04Z</time></trkpt><trkpt lat="43.823684179554704" lon="12.126728450697378"><ele>770.0</ele><time>2026-04-05T08:14:05Z</time></trkpt><trkpt lat="43.82376993301355" lon="12.126705200345135"><ele>768.0</ele><time>2026-04-05T08:14:06Z</time></trkpt><trkpt lat="43.823853665773115" lon="12.126663667036295"><ele>767.2</ele><time>2026-04-05T08:14:07Z</time></trkpt><trkpt lat="43.823935073836246" lon="12.126613387319765"><ele>766.4</ele><time>2026-04-05T08:14:08Z</time></trkpt><trkpt lat="43.82401688526785" lon="12.126569189066492"><ele>765.6</ele><time>2026-04-05T08:14:09Z</time></trkpt><trkpt lat="43.82410500169011" lon="12.126525585853685"><ele>764.8000000000001</ele><time>2026-04-05T08:14:10Z</time></trkpt><trkpt lat="43.824196057528916" lon="12.126494490503571"><ele>764.0</ele><time>2026-04-05T08:14:11Z</time></trkpt><trkpt lat="43.82428719587165" lon="12.12648490649652"><ele>764.0</ele><time>2026-04-05T08:14:12Z</time></trkpt><trkpt lat="43.82437535054323" lon="12.126487813932785"><ele>764.0</ele><time>2026-04-05T08:14:13Z</time></trkpt><trkpt lat="43.82444184004765" lon="12.126517793643925"><ele>764.0</ele><time>2026-04-05T08:14:14Z</time></trkpt><trkpt lat="43.824520022771665" lon="12.126549785177573"><ele>764.0</ele><time>2026-04-05T08:14:15Z</time></trkpt><trkpt lat="43.82460471229711" lon="12.126580551801023"><ele>764.0</ele><time>2026-04-05T08:14:16Z</time></trkpt><trkpt lat="43.82470378440661" lon="12.12661982705659"><ele>764.0</ele><time>2026-04-05T08:14:17Z</time></trkpt><trkpt lat="43.824789559276184" lon="12.126649106270893"><ele>764.0</ele><time>2026-04-05T08:14:18Z</time></trkpt><trkpt lat="43.824870953963504" lon="12.126671921084215"><ele>764.0</ele><time>2026-04-05T08:14:19Z</time></trkpt><trkpt lat="43.82497203922657" lon="12.126696334117161"><ele>764.0</ele><time>2026-04-05T08:14:20Z</time></trkpt><trkpt lat="43.82505847755401" lon="12.126739758285447"><ele>764.0</ele><time>2026-04-05T08:14:21Z</time></trkpt><trkpt lat="43.82512851731265" lon="12.126805508610008"><ele>764.0</ele><time>2026-04-05T08:14:22Z</time></trkpt><trkpt lat="43.82518996161468" lon="12.126906626186402"><ele>764.1666666666666</ele><time>2026-04-05T08:14:23Z</time></trkpt><trkpt lat="43.825237626426805" lon="12.127017881566681"><ele>764.3333333333333</ele><time>2026-04-05T08:14:24Z</time></trkpt><trkpt lat="43.82527721811654" lon="12.127120673346155"><ele>764.5</ele><time>2026-04-05T08:14:25Z</time></trkpt><trkpt lat="43.82531910675672" lon="12.127207076141485"><ele>764.6666666666666</ele><time>2026-04-05T08:14:26Z</time></trkpt><trkpt lat="43.825368348006975" lon="12.127277491137686"><ele>764.8333333333334</ele><time>2026-04-05T08:14:27Z</time></trkpt><trkpt lat="43.82543159830485" lon="12.127336964086851"><ele>765.0</ele><time>2026-04-05T08:14:28Z</time></trkpt><trkpt lat="43.82552235301605" lon="12.127384046994244"><ele>765.0</ele><time>2026-04-05T08:14:29Z</time></trkpt><trkpt lat="43.82560911195177" lon="12.127412323798278"><ele>765.0</ele><time>2026-04-05T08:14:30Z</time></trkpt><trkpt lat="43.82569238210517" lon="12.127419501700127"><ele>765.0</ele><time>2026-04-05T08:14:31Z</time></trkpt><trkpt lat="43.82577929284351" lon="12.127408273817798"><ele>765.0</ele><time>2026-04-05T08:14:32Z</time></trkpt><trkpt lat="43.82586860577567" lon="12.127373713072176"><ele>765.0</ele><time>2026-04-05T08:14:33Z</time></trkpt><trkpt lat="43.825968276174" lon="12.127304163560868"><ele>759.4</ele><time>2026-04-05T08:14:34Z</time></trkpt><trkpt lat="43.82605812811513" lon="12.127265760737956"><ele>753.8</ele><time>2026-04-05T08:14:35Z</time></trkpt><trkpt lat="43.826153397678496" lon="12.127233267407249"><ele>748.2</ele><time>2026-04-05T08:14:36Z</time></trkpt><trkpt lat="43.826243354814736" lon="12.127191014655818"><ele>742.6</ele><time>2026-04-05T08:14:37Z</time></trkpt><trkpt lat="43.82633877931428" lon="12.127146783384608"><ele>737.0</ele><time>2026-04-05T08:14:38Z</time></trkpt><trkpt lat="43.82642989166585" lon="12.127103821342672"><ele>737.0</ele><time>2026-04-05T08:14:39Z</time></trkpt><trkpt lat="43.82652087990173" lon="12.12706533354892"><ele>737.0</ele><time>2026-04-05T08:14:40Z</time></trkpt><trkpt lat="43.82659987062207" lon="12.127028337245507"><ele>737.0</ele><time>2026-04-05T08:14:41Z</time></trkpt><trkpt lat="43.826674352265556" lon="12.127008450243425"><ele>737.0</ele><time>2026-04-05T08:14:42Z</time></trkpt><trkpt lat="43.82675421727441" lon="12.126999389553555"><ele>737.0</ele><time>2026-04-05T08:14:43Z</time></trkpt><trkpt lat="43.826824123828935" lon="12.127022280798707"><ele>737.0</ele><time>2026-04-05T08:14:44Z</time></trkpt><trkpt lat="43.826868669573976" lon="12.127102213951455"><ele>735.3333333333333</ele><time>2026-04-05T08:14:45Z</time></trkpt><trkpt lat="43.826912423836" lon="12.127186570345472"><ele>733.6666666666666</ele><time>2026-04-05T08:14:46Z</time></trkpt><trkpt lat="43.82690684733612" lon="12.127289224354065"><ele>732.0</ele><time>2026-04-05T08:14:47Z</time></trkpt><trkpt lat="43.82686084938593" lon="12.127375882327785"><ele>730.3333333333334</ele><time>2026-04-05T08:14:48Z</time></trkpt><trkpt lat="43.82680148263087" lon="12.127459592749837"><ele>728.6666666666667</ele><time>2026-04-05T08:14:49Z</time></trkpt><trkpt lat="43.826718253144904" lon="12.127542325914652"><ele>727.0</ele><time>2026-04-05T08:14:50Z</time></trkpt><trkpt lat="43.82662520726862" lon="12.12762019102074"><ele>727.0</ele><time>2026-04-05T08:14:51Z</time></trkpt><trkpt lat="43.82653166844783" lon="12.127709315100294"><ele>727.0</ele><time>2026-04-05T08:14:52Z</time></trkpt><trkpt lat="43.82643740339276" lon="12.12782483183114"><ele>727.0</ele><time>2026-04-05T08:14:53Z</time></trkpt><trkpt lat="43.826360910158286" lon="12.127966453818459"><ele>727.0</ele><time>2026-04-05T08:14:54Z</time></trkpt><trkpt lat="43.8262810149404" lon="12.12808169263793"><ele>727.0</ele><time>2026-04-05T08:14:55Z</time></trkpt><trkpt lat="43.826198367322846" lon="12.128160161062356"><ele>727.0</ele><time>2026-04-05T08:14:56Z</time></trkpt><trkpt lat="43.826111958820285" lon="12.12818806105421"><ele>727.0</ele><time>2026-04-05T08:14:57Z</time></trkpt><trkpt lat="43.82599896289258" lon="12.128158603334821"><ele>727.0</ele><time>2026-04-05T08:14:58Z</time></trkpt><trkpt lat="43.82588398645512" lon="12.128107228248224"><ele>727.0</ele><time>2026-04-05T08:14:59Z</time></trkpt><trkpt lat="43.82574825473456" lon="12.128053941652231"><ele>729.3333333333334</ele><time>2026-04-05T08:15:00Z</time></trkpt><trkpt lat="43.82563990220163" lon="12.128008382123323"><ele>731.6666666666667</ele><time>2026-04-05T08:15:01Z</time></trkpt><trkpt lat="43.82555433347851" lon="12.127982044318568"><ele>734.0</ele><time>2026-04-05T08:15:02Z</time></trkpt><trkpt lat="43.82548756126407" lon="12.127973645333135"><ele>736.3333333333334</ele><time>2026-04-05T08:15:03Z</time></trkpt><trkpt lat="43.82543095887695" lon="12.128012740854583"><ele>738.6666666666666</ele><time>2026-04-05T08:15:04Z</time></trkpt><trkpt lat="43.82543177492517" lon="12.128146749420308"><ele>741.0</ele><time>2026-04-05T08:15:06Z</time></trkpt><trkpt lat="43.825493595712466" lon="12.128214916783277"><ele>737.0</ele><time>2026-04-05T08:15:07Z</time></trkpt><trkpt lat="43.82557212955638" lon="12.128293526790522"><ele>733.0</ele><time>2026-04-05T08:15:08Z</time></trkpt><trkpt lat="43.82567264934565" lon="12.128359963612093"><ele>729.0</ele><time>2026-04-05T08:15:09Z</time></trkpt><trkpt lat="43.82577851852547" lon="12.128426943216013"><ele>725.0</ele><time>2026-04-05T08:15:10Z</time></trkpt><trkpt lat="43.825877225532906" lon="12.128490499562234"><ele>721.0</ele><time>2026-04-05T08:15:11Z</time></trkpt><trkpt lat="43.8259796093859" lon="12.128582678543449"><ele>717.1999999999999</ele><time>2026-04-05T08:15:12Z</time></trkpt><trkpt lat="43.82606288308555" lon="12.128667130086264"><ele>713.4</ele><time>2026-04-05T08:15:13Z</time></trkpt><trkpt lat="43.8261480039844" lon="12.128709624662209"><ele>709.6</ele><time>2026-04-05T08:15:14Z</time></trkpt><trkpt lat="43.82623941742896" lon="12.128689881505517"><ele>705.8</ele><time>2026-04-05T08:15:15Z</time></trkpt><trkpt lat="43.826326571028524" lon="12.128634960724513"><ele>702.0</ele><time>2026-04-05T08:15:16Z</time></trkpt><trkpt lat="43.826411941865636" lon="12.128551746753919"><ele>702.0</ele><time>2026-04-05T08:15:17Z</time></trkpt><trkpt lat="43.82648530524303" lon="12.128424232672701"><ele>702.0</ele><time>2026-04-05T08:15:18Z</time></trkpt><trkpt lat="43.82659330732911" lon="12.12829439574039"><ele>702.0</ele><time>2026-04-05T08:15:19Z</time></trkpt><trkpt lat="43.826684962622295" lon="12.128202761861349"><ele>702.0</ele><time>2026-04-05T08:15:20Z</time></trkpt><trkpt lat="43.82678324250497" lon="12.128126755506095"><ele>700.6</ele><time>2026-04-05T08:15:21Z</time></trkpt><trkpt lat="43.82688238985222" lon="12.128073525985"><ele>699.2</ele><time>2026-04-05T08:15:22Z</time></trkpt><trkpt lat="43.82698785424821" lon="12.128002445890841"><ele>697.8</ele><time>2026-04-05T08:15:23Z</time></trkpt><trkpt lat="43.82708930953931" lon="12.127919764323064"><ele>696.4</ele><time>2026-04-05T08:15:24Z</time></trkpt><trkpt lat="43.8271842194319" lon="12.127849695180474"><ele>695.0</ele><time>2026-04-05T08:15:25Z</time></trkpt><trkpt lat="43.82726807974795" lon="12.127800489776488"><ele>695.0</ele><time>2026-04-05T08:15:26Z</time></trkpt><trkpt lat="43.82734126158939" lon="12.127727314615166"><ele>695.0</ele><time>2026-04-05T08:15:27Z</time></trkpt><trkpt lat="43.827460082701" lon="12.127651390264178"><ele>695.0</ele><time>2026-04-05T08:15:28Z</time></trkpt><trkpt lat="43.827551924387116" lon="12.127562826571038"><ele>695.0</ele><time>2026-04-05T08:15:29Z</time></trkpt><trkpt lat="43.827624210377294" lon="12.12748609572298"><ele>695.0</ele><time>2026-04-05T08:15:30Z</time></trkpt><trkpt lat="43.8276741373912" lon="12.127388124719886"><ele>686.6666666666666</ele><time>2026-04-05T08:15:31Z</time></trkpt><trkpt lat="43.82770354455862" lon="12.127295925850397"><ele>678.3333333333333</ele><time>2026-04-05T08:15:32Z</time></trkpt><trkpt lat="43.82772747201383" lon="12.12719673362798"><ele>670.0</ele><time>2026-04-05T08:15:33Z</time></trkpt><trkpt lat="43.82776807040862" lon="12.127105027737027"><ele>661.6666666666666</ele><time>2026-04-05T08:15:34Z</time></trkpt><trkpt lat="43.82775266318458" lon="12.126968662074063"><ele>653.3333333333334</ele><time>2026-04-05T08:15:35Z</time></trkpt><trkpt lat="43.82773279933329" lon="12.12683242724261"><ele>645.0</ele><time>2026-04-05T08:15:36Z</time></trkpt><trkpt lat="43.827693946233644" lon="12.126681302391823"><ele>644.75</ele><time>2026-04-05T08:15:37Z</time></trkpt><trkpt lat="43.82767674426728" lon="12.126523760274008"><ele>644.5</ele><time>2026-04-05T08:15:38Z</time></trkpt><trkpt lat="43.82765282305915" lon="12.1263751792393"><ele>644.25</ele><time>2026-04-05T08:15:39Z</time></trkpt><trkpt lat="43.827636136097375" lon="12.126214641137539"><ele>644.0</ele><time>2026-04-05T08:15:40Z</time></trkpt><trkpt lat="43.82761535056894" lon="12.126058405723334"><ele>652.2</ele><time>2026-04-05T08:15:41Z</time></trkpt><trkpt lat="43.82759109986685" lon="12.125911283879205"><ele>660.4000000000001</ele><time>2026-04-05T08:15:42Z</time></trkpt><trkpt lat="43.82756391929721" lon="12.125754983922615"><ele>668.6</ele><time>2026-04-05T08:15:43Z</time></trkpt><trkpt lat="43.827556246906255" lon="12.125602816309234"><ele>676.8</ele><time>2026-04-05T08:15:44Z</time></trkpt><trkpt lat="43.827544894450135" lon="12.125447337914641"><ele>685.0</ele><time>2026-04-05T08:15:45Z</time></trkpt><trkpt lat="43.82753615392097" lon="12.125290768569341"><ele>685.0</ele><time>2026-04-05T08:15:46Z</time></trkpt><trkpt lat="43.82752630733254" lon="12.125132203132845"><ele>685.0</ele><time>2026-04-05T08:15:47Z</time></trkpt><trkpt lat="43.82751638225861" lon="12.124974131117176"><ele>685.0</ele><time>2026-04-05T08:15:48Z</time></trkpt><trkpt lat="43.82750692670014" lon="12.124811918523045"><ele>685.0</ele><time>2026-04-05T08:15:49Z</time></trkpt><trkpt lat="43.827500276030484" lon="12.124651329065461"><ele>682.2</ele><time>2026-04-05T08:15:50Z</time></trkpt><trkpt lat="43.82748643966252" lon="12.12448807235669"><ele>679.4</ele><time>2026-04-05T08:15:51Z</time></trkpt><trkpt lat="43.827470468174965" lon="12.124329486554243"><ele>676.5999999999999</ele><time>2026-04-05T08:15:52Z</time></trkpt><trkpt lat="43.82745694012488" lon="12.124179627722048"><ele>673.8</ele><time>2026-04-05T08:15:53Z</time></trkpt><trkpt lat="43.82745719622262" lon="12.124043919841743"><ele>671.0</ele><time>2026-04-05T08:15:54Z</time></trkpt><trkpt lat="43.82742864249673" lon="12.123917738325014"><ele>667.4</ele><time>2026-04-05T08:15:55Z</time></trkpt><trkpt lat="43.82740358719272" lon="12.12380330980364"><ele>663.8</ele><time>2026-04-05T08:15:56Z</time></trkpt><trkpt lat="43.82738368205857" lon="12.123701095054118"><ele>660.1999999999999</ele><time>2026-04-05T08:15:57Z</time></trkpt><trkpt lat="43.82738019941762" lon="12.12357703125292"><ele>656.5999999999999</ele><time>2026-04-05T08:15:59Z</time></trkpt><trkpt lat="43.82748970145523" lon="12.12358450737859"><ele>653.0</ele><time>2026-04-05T08:16:02Z</time></trkpt><trkpt lat="43.82755257862559" lon="12.123752674071822"><ele>653.0</ele><time>2026-04-05T08:16:04Z</time></trkpt><trkpt lat="43.82759065942659" lon="12.12391132252096"><ele>653.0</ele><time>2026-04-05T08:16:05Z</time></trkpt><trkpt lat="43.82764586078366" lon="12.124125845074571"><ele>653.0</ele><time>2026-04-05T08:16:06Z</time></trkpt><trkpt lat="43.827714709178004" lon="12.124358766924054"><ele>648.6666666666666</ele><time>2026-04-05T08:16:07Z</time></trkpt><trkpt lat="43.827778438298914" lon="12.124599161665156"><ele>644.3333333333334</ele><time>2026-04-05T08:16:08Z</time></trkpt><trkpt lat="43.82784388426538" lon="12.124836208133567"><ele>640.0</ele><time>2026-04-05T08:16:09Z</time></trkpt><trkpt lat="43.82791746295238" lon="12.125086207174286"><ele>640.0</ele><time>2026-04-05T08:16:10Z</time></trkpt><trkpt lat="43.82800052875704" lon="12.125356659437251"><ele>640.0</ele><time>2026-04-05T08:16:11Z</time></trkpt><trkpt lat="43.82807931493349" lon="12.125606742357714"><ele>640.0</ele><time>2026-04-05T08:16:12Z</time></trkpt><trkpt lat="43.82817020226055" lon="12.12584485725333"><ele>641.3333333333334</ele><time>2026-04-05T08:16:13Z</time></trkpt><trkpt lat="43.82824115425478" lon="12.12608466061165"><ele>642.6666666666666</ele><time>2026-04-05T08:16:14Z</time></trkpt><trkpt lat="43.828323019580715" lon="12.126293860453618"><ele>644.0</ele><time>2026-04-05T08:16:15Z</time></trkpt><trkpt lat="43.82839642998669" lon="12.126464271587377"><ele>644.25</ele><time>2026-04-05T08:16:16Z</time></trkpt><trkpt lat="43.8284553881378" lon="12.126622585785142"><ele>644.5</ele><time>2026-04-05T08:16:17Z</time></trkpt><trkpt lat="43.8284914701544" lon="12.126794090577585"><ele>644.75</ele><time>2026-04-05T08:16:18Z</time></trkpt><trkpt lat="43.828489951323505" lon="12.126990143156343"><ele>645.0</ele><time>2026-04-05T08:16:19Z</time></trkpt><trkpt lat="43.82848058296648" lon="12.127204848584675"><ele>643.8</ele><time>2026-04-05T08:16:20Z</time></trkpt><trkpt lat="43.82847811738633" lon="12.12741447614873"><ele>642.6</ele><time>2026-04-05T08:16:21Z</time></trkpt><trkpt lat="43.82846642613199" lon="12.127560591012253"><ele>641.4</ele><time>2026-04-05T08:16:22Z</time></trkpt><trkpt lat="43.828450027346754" lon="12.127653721918943"><ele>640.2</ele><time>2026-04-05T08:16:23Z</time></trkpt><trkpt lat="43.828440790337666" lon="12.127749662227462"><ele>639.0</ele><time>2026-04-05T08:16:24Z</time></trkpt><trkpt lat="43.82842542980081" lon="12.12787999309698"><ele>639.0</ele><time>2026-04-05T08:16:25Z</time></trkpt><trkpt lat="43.82840802586581" lon="12.128029360308513"><ele>639.0</ele><time>2026-04-05T08:16:26Z</time></trkpt><trkpt lat="43.82839505688129" lon="12.128190325676552"><ele>639.0</ele><time>2026-04-05T08:16:27Z</time></trkpt><trkpt lat="43.828398311285056" lon="12.128369407327467"><ele>639.0</ele><time>2026-04-05T08:16:28Z</time></trkpt><trkpt lat="43.82843530500769" lon="12.128545394956134"><ele>637.25</ele><time>2026-04-05T08:16:29Z</time></trkpt><trkpt lat="43.828441709690814" lon="12.1287062061429"><ele>635.5</ele><time>2026-04-05T08:16:30Z</time></trkpt><trkpt lat="43.828465701520294" lon="12.128860166708659"><ele>633.75</ele><time>2026-04-05T08:16:31Z</time></trkpt><trkpt lat="43.82847739919663" lon="12.12901472870384"><ele>632.0</ele><time>2026-04-05T08:16:32Z</time></trkpt><trkpt lat="43.82848123614118" lon="12.129167861526351"><ele>632.4</ele><time>2026-04-05T08:16:33Z</time></trkpt><trkpt lat="43.82847408061696" lon="12.129316394988457"><ele>632.8000000000001</ele><time>2026-04-05T08:16:34Z</time></trkpt><trkpt lat="43.8284519918353" lon="12.12945636217824"><ele>633.2</ele><time>2026-04-05T08:16:35Z</time></trkpt><trkpt lat="43.82843268458392" lon="12.129591068762672"><ele>633.6</ele><time>2026-04-05T08:16:36Z</time></trkpt><trkpt lat="43.828417876351004" lon="12.129717891637187"><ele>634.0</ele><time>2026-04-05T08:16:37Z</time></trkpt><trkpt lat="43.828413308205945" lon="12.12984329864194"><ele>631.8333333333334</ele><time>2026-04-05T08:16:38Z</time></trkpt><trkpt lat="43.828420778227425" lon="12.129958613283272"><ele>629.6666666666667</ele><time>2026-04-05T08:16:39Z</time></trkpt><trkpt lat="43.82843296587112" lon="12.130062832612541"><ele>627.5</ele><time>2026-04-05T08:16:40Z</time></trkpt><trkpt lat="43.82845931972214" lon="12.1301470871786"><ele>625.3333333333334</ele><time>2026-04-05T08:16:41Z</time></trkpt><trkpt lat="43.828502753070325" lon="12.130287277049126"><ele>623.1666666666666</ele><time>2026-04-05T08:16:43Z</time></trkpt><trkpt lat="43.82854271564071" lon="12.130411467094897"><ele>621.0</ele><time>2026-04-05T08:16:45Z</time></trkpt><trkpt lat="43.828582948790874" lon="12.130538768749215"><ele>618.6</ele><time>2026-04-05T08:16:47Z</time></trkpt><trkpt lat="43.82863635775492" lon="12.130689251408018"><ele>616.2</ele><time>2026-04-05T08:16:49Z</time></trkpt><trkpt lat="43.82866684737094" lon="12.130784474014717"><ele>613.8</ele><time>2026-04-05T08:16:50Z</time></trkpt><trkpt lat="43.82869766028574" lon="12.130891019132081"><ele>611.4</ele><time>2026-04-05T08:16:51Z</time></trkpt><trkpt lat="43.82873697485878" lon="12.131008226303818"><ele>609.0</ele><time>2026-04-05T08:16:52Z</time></trkpt><trkpt lat="43.828777805683956" lon="12.131128841127028"><ele>609.0</ele><time>2026-04-05T08:16:53Z</time></trkpt><trkpt lat="43.82882287001256" lon="12.131254410658348"><ele>609.0</ele><time>2026-04-05T08:16:54Z</time></trkpt><trkpt lat="43.82887504281187" lon="12.131391881511973"><ele>609.0</ele><time>2026-04-05T08:16:55Z</time></trkpt><trkpt lat="43.82895198631379" lon="12.131547007340846"><ele>609.0</ele><time>2026-04-05T08:16:56Z</time></trkpt><trkpt lat="43.829029796623615" lon="12.131718706715743"><ele>612.6666666666666</ele><time>2026-04-05T08:16:57Z</time></trkpt><trkpt lat="43.82911491824245" lon="12.131910906362984"><ele>616.3333333333333</ele><time>2026-04-05T08:16:58Z</time></trkpt><trkpt lat="43.82920394141052" lon="12.132109475185352"><ele>620.0</ele><time>2026-04-05T08:16:59Z</time></trkpt><trkpt lat="43.82929496165587" lon="12.132312276544532"><ele>627.0</ele><time>2026-04-05T08:17:00Z</time></trkpt><trkpt lat="43.82939580139119" lon="12.132535205731383"><ele>634.0</ele><time>2026-04-05T08:17:01Z</time></trkpt><trkpt lat="43.829514358468806" lon="12.132788151519991"><ele>641.0</ele><time>2026-04-05T08:17:02Z</time></trkpt><trkpt lat="43.8296441922658" lon="12.133065210838318"><ele>642.0</ele><time>2026-04-05T08:17:03Z</time></trkpt><trkpt lat="43.829788387838995" lon="12.13334029493495"><ele>643.0</ele><time>2026-04-05T08:17:04Z</time></trkpt><trkpt lat="43.829955550203486" lon="12.133609743049059"><ele>643.0</ele><time>2026-04-05T08:17:05Z</time></trkpt><trkpt lat="43.830140798777" lon="12.133871810889802"><ele>643.0</ele><time>2026-04-05T08:17:06Z</time></trkpt><trkpt lat="43.83034842397719" lon="12.134128822751524"><ele>649.5</ele><time>2026-04-05T08:17:07Z</time></trkpt><trkpt lat="43.830562413989135" lon="12.134366992436998"><ele>656.0</ele><time>2026-04-05T08:17:08Z</time></trkpt><trkpt lat="43.830745332299614" lon="12.134569687053437"><ele>656.0</ele><time>2026-04-05T08:17:09Z</time></trkpt><trkpt lat="43.8309015983723" lon="12.134774266823575"><ele>656.0</ele><time>2026-04-05T08:17:10Z</time></trkpt><trkpt lat="43.831004897820456" lon="12.135002522493735"><ele>656.0</ele><time>2026-04-05T08:17:11Z</time></trkpt><trkpt lat="43.83109643619426" lon="12.13526443276205"><ele>663.6666666666666</ele><time>2026-04-05T08:17:12Z</time></trkpt><trkpt lat="43.831117494018564" lon="12.13554256529895"><ele>671.3333333333334</ele><time>2026-04-05T08:17:13Z</time></trkpt><trkpt lat="43.831133108814626" lon="12.135780508508063"><ele>679.0</ele><time>2026-04-05T08:17:14Z</time></trkpt><trkpt lat="43.83117508623544" lon="12.135983108302867"><ele>679.0</ele><time>2026-04-05T08:17:15Z</time></trkpt><trkpt lat="43.83123169566524" lon="12.136066259491262"><ele>679.0</ele><time>2026-04-05T08:17:16Z</time></trkpt><trkpt lat="43.83138808263779" lon="12.136019497641245"><ele>679.0</ele><time>2026-04-05T08:17:18Z</time></trkpt><trkpt lat="43.83141024809286" lon="12.135889163193637"><ele>679.0</ele><time>2026-04-05T08:17:19Z</time></trkpt><trkpt lat="43.83140842144522" lon="12.135779250199695"><ele>679.0</ele><time>2026-04-05T08:17:20Z</time></trkpt><trkpt lat="43.83139368959795" lon="12.13558016899458"><ele>682.0</ele><time>2026-04-05T08:17:21Z</time></trkpt><trkpt lat="43.831358944946636" lon="12.135292868309605"><ele>685.0</ele><time>2026-04-05T08:17:22Z</time></trkpt><trkpt lat="43.831299762716114" lon="12.135016732053666"><ele>688.0</ele><time>2026-04-05T08:17:23Z</time></trkpt><trkpt lat="43.83124479842945" lon="12.13471360818814"><ele>688.0</ele><time>2026-04-05T08:17:24Z</time></trkpt><trkpt lat="43.831190059381264" lon="12.134465480281001"><ele>688.0</ele><time>2026-04-05T08:17:25Z</time></trkpt><trkpt lat="43.831136844433644" lon="12.134229613484301"><ele>688.0</ele><time>2026-04-05T08:17:26Z</time></trkpt><trkpt lat="43.83118774522533" lon="12.134016271618199"><ele>686.3333333333334</ele><time>2026-04-05T08:17:27Z</time></trkpt><trkpt lat="43.83127292048955" lon="12.133829619903413"><ele>684.6666666666666</ele><time>2026-04-05T08:17:28Z</time></trkpt><trkpt lat="43.83138191854332" lon="12.133694700551322"><ele>683.0</ele><time>2026-04-05T08:17:29Z</time></trkpt><trkpt lat="43.83152742562341" lon="12.13354541582802"><ele>683.0</ele><time>2026-04-05T08:17:30Z</time></trkpt><trkpt lat="43.83169096386107" lon="12.133354212505028"><ele>683.0</ele><time>2026-04-05T08:17:31Z</time></trkpt><trkpt lat="43.83183034183881" lon="12.133205907066287"><ele>683.0</ele><time>2026-04-05T08:17:32Z</time></trkpt><trkpt lat="43.83197292158954" lon="12.133043394222158"><ele>689.5</ele><time>2026-04-05T08:17:33Z</time></trkpt><trkpt lat="43.83208389200077" lon="12.132930561713568"><ele>696.0</ele><time>2026-04-05T08:17:34Z</time></trkpt><trkpt lat="43.832140081894764" lon="12.132776235537921"><ele>702.5</ele><time>2026-04-05T08:17:35Z</time></trkpt><trkpt lat="43.83221565724393" lon="12.132591898260882"><ele>709.0</ele><time>2026-04-05T08:17:36Z</time></trkpt><trkpt lat="43.83224005036021" lon="12.132506583962945"><ele>708.0</ele><time>2026-04-05T08:17:37Z</time></trkpt><trkpt lat="43.83224253876974" lon="12.132225863198006"><ele>707.0</ele><time>2026-04-05T08:17:38Z</time></trkpt><trkpt lat="43.83220844583268" lon="12.131992443177017"><ele>706.0</ele><time>2026-04-05T08:17:39Z</time></trkpt><trkpt lat="43.83203750302102" lon="12.131716825440153"><ele>706.0</ele><time>2026-04-05T08:17:40Z</time></trkpt><trkpt lat="43.83206421905771" lon="12.131553864556867"><ele>706.0</ele><time>2026-04-05T08:17:41Z</time></trkpt><trkpt lat="43.83218860499327" lon="12.131588539977837"><ele>706.0</ele><time>2026-04-05T08:17:42Z</time></trkpt><trkpt lat="43.83227825750096" lon="12.131538260616937"><ele>706.0</ele><time>2026-04-05T08:17:43Z</time></trkpt><trkpt lat="43.83238766455168" lon="12.131474944167083"><ele>701.0</ele><time>2026-04-05T08:17:44Z</time></trkpt><trkpt lat="43.832628128069786" lon="12.13133205743908"><ele>696.0</ele><time>2026-04-05T08:17:45Z</time></trkpt><trkpt lat="43.832884478235314" lon="12.131165708895313"><ele>706.0</ele><time>2026-04-05T08:17:46Z</time></trkpt><trkpt lat="43.83310467767286" lon="12.131025010149498"><ele>716.0</ele><time>2026-04-05T08:17:47Z</time></trkpt><trkpt lat="43.83333279822937" lon="12.1308925877549"><ele>725.5</ele><time>2026-04-05T08:17:48Z</time></trkpt><trkpt lat="43.83355470999849" lon="12.130687213569527"><ele>735.0</ele><time>2026-04-05T08:17:49Z</time></trkpt><trkpt lat="43.833699855123065" lon="12.130489865917475"><ele>735.0</ele><time>2026-04-05T08:17:50Z</time></trkpt><trkpt lat="43.83383693956559" lon="12.130271872652877"><ele>735.0</ele><time>2026-04-05T08:17:51Z</time></trkpt><trkpt lat="43.833947513886784" lon="12.130069835751936"><ele>735.0</ele><time>2026-04-05T08:17:52Z</time></trkpt><trkpt lat="43.8340557142476" lon="12.129843909724313"><ele>734.3333333333334</ele><time>2026-04-05T08:17:53Z</time></trkpt><trkpt lat="43.83416179801266" lon="12.129578330818434"><ele>733.6666666666667</ele><time>2026-04-05T08:17:54Z</time></trkpt><trkpt lat="43.83422548587103" lon="12.129274574935874"><ele>733.0</ele><time>2026-04-05T08:17:55Z</time></trkpt><trkpt lat="43.83423280902213" lon="12.129024839888363"><ele>734.6666666666667</ele><time>2026-04-05T08:17:56Z</time></trkpt><trkpt lat="43.834247983893306" lon="12.12880187005131"><ele>736.3333333333334</ele><time>2026-04-05T08:17:57Z</time></trkpt><trkpt lat="43.83425394503669" lon="12.128524571346627"><ele>738.0</ele><time>2026-04-05T08:17:58Z</time></trkpt><trkpt lat="43.83426022893559" lon="12.128160770122031"><ele>744.0</ele><time>2026-04-05T08:17:59Z</time></trkpt><trkpt lat="43.83426271641663" lon="12.12780445181341"><ele>750.0</ele><time>2026-04-05T08:18:00Z</time></trkpt><trkpt lat="43.83416629174765" lon="12.127485720082117"><ele>754.6666666666666</ele><time>2026-04-05T08:18:01Z</time></trkpt><trkpt lat="43.83412125479165" lon="12.127193701461302"><ele>759.3333333333333</ele><time>2026-04-05T08:18:02Z</time></trkpt><trkpt lat="43.83404914071858" lon="12.126986198058379"><ele>764.0</ele><time>2026-04-05T08:18:03Z</time></trkpt><trkpt lat="43.833956037361716" lon="12.126907724980011"><ele>764.0</ele><time>2026-04-05T08:18:04Z</time></trkpt><trkpt lat="43.83387099432924" lon="12.126778519007235"><ele>764.0</ele><time>2026-04-05T08:18:05Z</time></trkpt><trkpt lat="43.83385928509984" lon="12.126688143591982"><ele>764.0</ele><time>2026-04-05T08:18:06Z</time></trkpt><trkpt lat="43.833926392417744" lon="12.126649509900824"><ele>764.0</ele><time>2026-04-05T08:18:08Z</time></trkpt><trkpt lat="43.83402851327277" lon="12.126693298673365"><ele>764.0</ele><time>2026-04-05T08:18:09Z</time></trkpt><trkpt lat="43.83408728756613" lon="12.126760479546375"><ele>764.0</ele><time>2026-04-05T08:18:10Z</time></trkpt><trkpt lat="43.83414208636199" lon="12.126902856261847"><ele>764.0</ele><time>2026-04-05T08:18:11Z</time></trkpt><trkpt lat="43.83420283497245" lon="12.127077642442819"><ele>764.0</ele><time>2026-04-05T08:18:12Z</time></trkpt><trkpt lat="43.83427649104482" lon="12.127333157609495"><ele>764.0</ele><time>2026-04-05T08:18:13Z</time></trkpt><trkpt lat="43.83437751455091" lon="12.127622713810386"><ele>777.0</ele><time>2026-04-05T08:18:14Z</time></trkpt><trkpt lat="43.834450409286966" lon="12.127927693783032"><ele>790.0</ele><time>2026-04-05T08:18:15Z</time></trkpt><trkpt lat="43.83453316797373" lon="12.128250721735697"><ele>790.0</ele><time>2026-04-05T08:18:16Z</time></trkpt><trkpt lat="43.83463000535052" lon="12.128582110746002"><ele>790.0</ele><time>2026-04-05T08:18:17Z</time></trkpt><trkpt lat="43.83473779339961" lon="12.128923320650255"><ele>786.5</ele><time>2026-04-05T08:18:18Z</time></trkpt><trkpt lat="43.83483165679735" lon="12.129364335499668"><ele>783.0</ele><time>2026-04-05T08:18:19Z</time></trkpt><trkpt lat="43.83486893886419" lon="12.12969396556297"><ele>780.3333333333333</ele><time>2026-04-05T08:18:20Z</time></trkpt><trkpt lat="43.834915086719256" lon="12.129987253686533"><ele>777.6666666666666</ele><time>2026-04-05T08:18:21Z</time></trkpt><trkpt lat="43.8349746758082" lon="12.130276762664154"><ele>775.0</ele><time>2026-04-05T08:18:22Z</time></trkpt><trkpt lat="43.83503933301303" lon="12.130580288429138"><ele>773.3333333333333</ele><time>2026-04-05T08:18:23Z</time></trkpt><trkpt lat="43.83511123193948" lon="12.130850186380512"><ele>771.6666666666667</ele><time>2026-04-05T08:18:24Z</time></trkpt><trkpt lat="43.835159118324185" lon="12.131055608534176"><ele>770.0</ele><time>2026-04-05T08:18:25Z</time></trkpt><trkpt lat="43.83523340112572" lon="12.131203970927503"><ele>774.25</ele><time>2026-04-05T08:18:26Z</time></trkpt><trkpt lat="43.835341453177605" lon="12.131304548385426"><ele>778.5</ele><time>2026-04-05T08:18:27Z</time></trkpt><trkpt lat="43.8354698128861" lon="12.131372252454813"><ele>782.75</ele><time>2026-04-05T08:18:28Z</time></trkpt><trkpt lat="43.835591686800335" lon="12.131461500729447"><ele>787.0</ele><time>2026-04-05T08:18:29Z</time></trkpt><trkpt lat="43.835724948124124" lon="12.131532892624197"><ele>784.6666666666666</ele><time>2026-04-05T08:18:30Z</time></trkpt><trkpt lat="43.83585270638528" lon="12.131637778394108"><ele>782.3333333333333</ele><time>2026-04-05T08:18:31Z</time></trkpt><trkpt lat="43.83599502713865" lon="12.131751394997474"><ele>780.0</ele><time>2026-04-05T08:18:32Z</time></trkpt><trkpt lat="43.83614739162968" lon="12.131870590128093"><ele>778.3333333333333</ele><time>2026-04-05T08:18:33Z</time></trkpt><trkpt lat="43.8362766914138" lon="12.131999338203876"><ele>776.6666666666666</ele><time>2026-04-05T08:18:34Z</time></trkpt><trkpt lat="43.83639041107482" lon="12.132160093994099"><ele>775.0</ele><time>2026-04-05T08:18:35Z</time></trkpt><trkpt lat="43.83650658070031" lon="12.132393473592222"><ele>774.3333333333333</ele><time>2026-04-05T08:18:36Z</time></trkpt><trkpt lat="43.8366503273696" lon="12.132605799113506"><ele>773.6666666666667</ele><time>2026-04-05T08:18:37Z</time></trkpt><trkpt lat="43.8367865193007" lon="12.132810751676919"><ele>773.0</ele><time>2026-04-05T08:18:38Z</time></trkpt><trkpt lat="43.83694090328159" lon="12.132989946606493"><ele>774.0</ele><time>2026-04-05T08:18:39Z</time></trkpt><trkpt lat="43.83705058571712" lon="12.133121890589718"><ele>775.0</ele><time>2026-04-05T08:18:40Z</time></trkpt><trkpt lat="43.83714165579508" lon="12.133210199623397"><ele>776.0</ele><time>2026-04-05T08:18:41Z</time></trkpt><trkpt lat="43.83723473913258" lon="12.133238645900432"><ele>777.0</ele><time>2026-04-05T08:18:42Z</time></trkpt><trkpt lat="43.83735396756813" lon="12.13315290755161"><ele>776.0</ele><time>2026-04-05T08:18:43Z</time></trkpt><trkpt lat="43.83749586765409" lon="12.133018348279808"><ele>775.0</ele><time>2026-04-05T08:18:44Z</time></trkpt><trkpt lat="43.83764222575782" lon="12.13287871587546"><ele>774.0</ele><time>2026-04-05T08:18:45Z</time></trkpt><trkpt lat="43.83777249737058" lon="12.132773666571913"><ele>774.0</ele><time>2026-04-05T08:18:46Z</time></trkpt><trkpt lat="43.83796133744575" lon="12.132708104215514"><ele>774.0</ele><time>2026-04-05T08:18:47Z</time></trkpt><trkpt lat="43.838169586676834" lon="12.132622143912076"><ele>774.0</ele><time>2026-04-05T08:18:48Z</time></trkpt><trkpt lat="43.83837351486377" lon="12.132535981937457"><ele>774.75</ele><time>2026-04-05T08:18:49Z</time></trkpt><trkpt lat="43.83854207350855" lon="12.132483425424239"><ele>775.5</ele><time>2026-04-05T08:18:50Z</time></trkpt><trkpt lat="43.838680987241865" lon="12.132422826685204"><ele>776.25</ele><time>2026-04-05T08:18:51Z</time></trkpt><trkpt lat="43.83876183231624" lon="12.132331904523888"><ele>777.0</ele><time>2026-04-05T08:18:52Z</time></trkpt><trkpt lat="43.83881733850808" lon="12.132182749643016"><ele>777.0</ele><time>2026-04-05T08:18:54Z</time></trkpt><trkpt lat="43.83887362793128" lon="12.132053103483116"><ele>777.0</ele><time>2026-04-05T08:18:55Z</time></trkpt><trkpt lat="43.83895190950537" lon="12.131941603480312"><ele>777.0</ele><time>2026-04-05T08:18:56Z</time></trkpt><trkpt lat="43.83905946283738" lon="12.131888191453514"><ele>777.0</ele><time>2026-04-05T08:18:57Z</time></trkpt><trkpt lat="43.839176279525425" lon="12.131845223340001"><ele>778.6666666666667</ele><time>2026-04-05T08:18:58Z</time></trkpt><trkpt lat="43.83932963260521" lon="12.131800328404399"><ele>780.3333333333334</ele><time>2026-04-05T08:18:59Z</time></trkpt><trkpt lat="43.83952826166267" lon="12.131855657404323"><ele>782.0</ele><time>2026-04-05T08:19:00Z</time></trkpt><trkpt lat="43.839690333355115" lon="12.131883498473126"><ele>782.0</ele><time>2026-04-05T08:19:01Z</time></trkpt><trkpt lat="43.83982207625996" lon="12.131948343230148"><ele>782.0</ele><time>2026-04-05T08:19:02Z</time></trkpt><trkpt lat="43.839936823562326" lon="12.132051406166806"><ele>782.0</ele><time>2026-04-05T08:19:03Z</time></trkpt><trkpt lat="43.84008298817299" lon="12.132211481297597"><ele>783.3333333333334</ele><time>2026-04-05T08:19:04Z</time></trkpt><trkpt lat="43.84021999437844" lon="12.132357129679178"><ele>784.6666666666667</ele><time>2026-04-05T08:19:05Z</time></trkpt><trkpt lat="43.840343076947235" lon="12.132492868763796"><ele>786.0</ele><time>2026-04-05T08:19:06Z</time></trkpt><trkpt lat="43.84044646491984" lon="12.132658998488322"><ele>786.0</ele><time>2026-04-05T08:19:07Z</time></trkpt><trkpt lat="43.84054010383398" lon="12.132871272613814"><ele>786.0</ele><time>2026-04-05T08:19:08Z</time></trkpt><trkpt lat="43.84063350463075" lon="12.133101790920085"><ele>786.0</ele><time>2026-04-05T08:19:09Z</time></trkpt><trkpt lat="43.84072823967105" lon="12.13334072336296"><ele>786.5</ele><time>2026-04-05T08:19:10Z</time></trkpt><trkpt lat="43.840814352625266" lon="12.133532233875824"><ele>787.0</ele><time>2026-04-05T08:19:11Z</time></trkpt><trkpt lat="43.840890456498016" lon="12.133660700656844"><ele>787.5</ele><time>2026-04-05T08:19:12Z</time></trkpt><trkpt lat="43.8409911135564" lon="12.133739836885722"><ele>788.0</ele><time>2026-04-05T08:19:13Z</time></trkpt><trkpt lat="43.841145859476946" lon="12.133795688242763"><ele>786.0</ele><time>2026-04-05T08:19:14Z</time></trkpt><trkpt lat="43.841346608981425" lon="12.13384127619718"><ele>784.0</ele><time>2026-04-05T08:19:15Z</time></trkpt><trkpt lat="43.84157060653646" lon="12.133855686030275"><ele>782.0</ele><time>2026-04-05T08:19:16Z</time></trkpt><trkpt lat="43.84176611340417" lon="12.133861692669258"><ele>782.5</ele><time>2026-04-05T08:19:17Z</time></trkpt><trkpt lat="43.84193131341745" lon="12.133888814563917"><ele>783.0</ele><time>2026-04-05T08:19:18Z</time></trkpt><trkpt lat="43.84207347128528" lon="12.133914360418506"><ele>783.5</ele><time>2026-04-05T08:19:19Z</time></trkpt><trkpt lat="43.84219621928006" lon="12.133979012885105"><ele>784.0</ele><time>2026-04-05T08:19:20Z</time></trkpt><trkpt lat="43.84226349598163" lon="12.134124884817755"><ele>784.0</ele><time>2026-04-05T08:19:21Z</time></trkpt><trkpt lat="43.842384821939305" lon="12.134313755681998"><ele>784.0</ele><time>2026-04-05T08:19:22Z</time></trkpt><trkpt lat="43.84252988948944" lon="12.134547062650217"><ele>784.0</ele><time>2026-04-05T08:19:23Z</time></trkpt><trkpt lat="43.84265044031355" lon="12.134738260510284"><ele>784.4000000000001</ele><time>2026-04-05T08:19:24Z</time></trkpt><trkpt lat="43.842750458069595" lon="12.134866239053109"><ele>784.8</ele><time>2026-04-05T08:19:25Z</time></trkpt><trkpt lat="43.842836765768595" lon="12.134932422072854"><ele>785.2</ele><time>2026-04-05T08:19:26Z</time></trkpt><trkpt lat="43.84292902530634" lon="12.134909540980564"><ele>785.5999999999999</ele><time>2026-04-05T08:19:27Z</time></trkpt><trkpt lat="43.8430062735105" lon="12.13482775801405"><ele>786.0</ele><time>2026-04-05T08:19:28Z</time></trkpt><trkpt lat="43.84305172062374" lon="12.134663593486923"><ele>786.0</ele><time>2026-04-05T08:19:29Z</time></trkpt><trkpt lat="43.843076736304845" lon="12.134452481664335"><ele>786.0</ele><time>2026-04-05T08:19:30Z</time></trkpt><trkpt lat="43.843076979434876" lon="12.134245219351325"><ele>786.0</ele><time>2026-04-05T08:19:31Z</time></trkpt><trkpt lat="43.84312052697319" lon="12.134110339242104"><ele>786.0</ele><time>2026-04-05T08:19:32Z</time></trkpt><trkpt lat="43.84319804450287" lon="12.134021597909184"><ele>786.75</ele><time>2026-04-05T08:19:33Z</time></trkpt><trkpt lat="43.843303352943096" lon="12.13399828506258"><ele>787.5</ele><time>2026-04-05T08:19:34Z</time></trkpt><trkpt lat="43.843449119435846" lon="12.13401553446806"><ele>788.25</ele><time>2026-04-05T08:19:35Z</time></trkpt><trkpt lat="43.84363375917828" lon="12.134034842120656"><ele>789.0</ele><time>2026-04-05T08:19:36Z</time></trkpt><trkpt lat="43.84385583694403" lon="12.134103955656299"><ele>789.0</ele><time>2026-04-05T08:19:37Z</time></trkpt><trkpt lat="43.84409370049158" lon="12.134177641395853"><ele>789.0</ele><time>2026-04-05T08:19:38Z</time></trkpt><trkpt lat="43.844320671955565" lon="12.134276684966343"><ele>790.0</ele><time>2026-04-05T08:19:39Z</time></trkpt><trkpt lat="43.84454328883469" lon="12.134355729730483"><ele>791.0</ele><time>2026-04-05T08:19:40Z</time></trkpt><trkpt lat="43.844766865164324" lon="12.134430804999123"><ele>791.0</ele><time>2026-04-05T08:19:41Z</time></trkpt><trkpt lat="43.84495356900583" lon="12.134494980206863"><ele>791.0</ele><time>2026-04-05T08:19:42Z</time></trkpt><trkpt lat="43.84509333045336" lon="12.134511340853429"><ele>791.0</ele><time>2026-04-05T08:19:43Z</time></trkpt><trkpt lat="43.84522895328847" lon="12.134505118520988"><ele>792.5</ele><time>2026-04-05T08:19:44Z</time></trkpt><trkpt lat="43.845356139865764" lon="12.134445800850406"><ele>794.0</ele><time>2026-04-05T08:19:45Z</time></trkpt><trkpt lat="43.84543256946562" lon="12.1343013756912"><ele>795.5</ele><time>2026-04-05T08:19:46Z</time></trkpt><trkpt lat="43.845478639669196" lon="12.134128874700412"><ele>797.0</ele><time>2026-04-05T08:19:47Z</time></trkpt><trkpt lat="43.84552576789688" lon="12.133924218614833"><ele>798.3333333333334</ele><time>2026-04-05T08:19:48Z</time></trkpt><trkpt lat="43.84552614369151" lon="12.133690922163048"><ele>799.6666666666667</ele><time>2026-04-05T08:19:49Z</time></trkpt><trkpt lat="43.8454559619094" lon="12.133492844231204"><ele>801.0</ele><time>2026-04-05T08:19:50Z</time></trkpt><trkpt lat="43.84536126480343" lon="12.133347384758986"><ele>803.1999999999999</ele><time>2026-04-05T08:19:51Z</time></trkpt><trkpt lat="43.84527179897527" lon="12.133201931550538"><ele>805.4</ele><time>2026-04-05T08:19:52Z</time></trkpt><trkpt lat="43.84523019483618" lon="12.133083278006554"><ele>807.6</ele><time>2026-04-05T08:19:53Z</time></trkpt><trkpt lat="43.845225453168794" lon="12.13299099676781"><ele>809.8</ele><time>2026-04-05T08:19:54Z</time></trkpt><trkpt lat="43.84530188868922" lon="12.132941038656442"><ele>812.0</ele><time>2026-04-05T08:19:55Z</time></trkpt><trkpt lat="43.84536069812215" lon="12.132882519016276"><ele>812.0</ele><time>2026-04-05T08:19:57Z</time></trkpt><trkpt lat="43.8453178523414" lon="12.132812223227033"><ele>812.0</ele><time>2026-04-05T08:19:59Z</time></trkpt><trkpt lat="43.845268686791044" lon="12.132900746384918"><ele>812.0</ele><time>2026-04-05T08:20:14Z</time></trkpt><trkpt lat="43.84522478877385" lon="12.132969790237352"><ele>812.0</ele><time>2026-04-05T08:20:53Z</time></trkpt><trkpt lat="43.84524210350333" lon="12.13308926143079"><ele>812.0</ele><time>2026-04-05T08:28:24.996Z</time></trkpt><trkpt lat="43.8452485844214" lon="12.133187092349312"><ele>812.0</ele><time>2026-04-05T08:28:26.996Z</time></trkpt><trkpt lat="43.845282373192106" lon="12.13328054760165"><ele>812.0</ele><time>2026-04-05T08:28:28.996Z</time></trkpt><trkpt lat="43.84534186000192" lon="12.13336410202572"><ele>810.4285714285714</ele><time>2026-04-05T08:28:30.997Z</time></trkpt><trkpt lat="43.84539047112196" lon="12.13344198777881"><ele>808.8571428571429</ele><time>2026-04-05T08:28:31.997Z</time></trkpt><trkpt lat="43.84543327696367" lon="12.133532450744973"><ele>807.2857142857142</ele><time>2026-04-05T08:28:32.997Z</time></trkpt><trkpt lat="43.84546572793712" lon="12.133616754357675"><ele>805.7142857142858</ele><time>2026-04-05T08:28:33.997Z</time></trkpt><trkpt lat="43.84548760898047" lon="12.133705168495812"><ele>804.1428571428571</ele><time>2026-04-05T08:28:34.997Z</time></trkpt><trkpt lat="43.84549948247635" lon="12.133799820676273"><ele>802.5714285714286</ele><time>2026-04-05T08:28:35.997Z</time></trkpt><trkpt lat="43.84550311064203" lon="12.133909168035833"><ele>801.0</ele><time>2026-04-05T08:28:36.997Z</time></trkpt><trkpt lat="43.84547855417879" lon="12.13402017909551"><ele>801.0</ele><time>2026-04-05T08:28:37.997Z</time></trkpt><trkpt lat="43.845452302430346" lon="12.13411302303503"><ele>801.0</ele><time>2026-04-05T08:28:38.997Z</time></trkpt><trkpt lat="43.845427498873484" lon="12.134200786987611"><ele>801.0</ele><time>2026-04-05T08:28:39.997Z</time></trkpt><trkpt lat="43.845385109364955" lon="12.134322669941335"><ele>801.0</ele><time>2026-04-05T08:28:41.997Z</time></trkpt><trkpt lat="43.84548921957647" lon="12.134253436504657"><ele>801.0</ele><time>2026-04-05T08:28:46.998Z</time></trkpt><trkpt lat="43.84549756911235" lon="12.134011741758195"><ele>801.0</ele><time>2026-04-05T08:28:47.998Z</time></trkpt><trkpt lat="43.84550646686542" lon="12.133797852057898"><ele>801.0</ele><time>2026-04-05T08:28:48.998Z</time></trkpt><trkpt lat="43.84547806165445" lon="12.133616640931328"><ele>801.0</ele><time>2026-04-05T08:28:49.998Z</time></trkpt><trkpt lat="43.84542273716751" lon="12.133458666037335"><ele>801.0</ele><time>2026-04-05T08:28:50.998Z</time></trkpt><trkpt lat="43.845313369372825" lon="12.13333074721848"><ele>801.0</ele><time>2026-04-05T08:28:51.998Z</time></trkpt><trkpt lat="43.845236002408235" lon="12.133236238029449"><ele>801.0</ele><time>2026-04-05T08:28:52.998Z</time></trkpt><trkpt lat="43.84521106258209" lon="12.133121652550173"><ele>801.0</ele><time>2026-04-05T08:28:53.998Z</time></trkpt><trkpt lat="43.84523799946528" lon="12.133004958387534"><ele>801.0</ele><time>2026-04-05T08:28:54.998Z</time></trkpt><trkpt lat="43.84530180322109" lon="12.132928863653802"><ele>801.0</ele><time>2026-04-05T08:28:55.998Z</time></trkpt><trkpt lat="43.845363138537536" lon="12.132863329045707"><ele>801.0</ele><time>2026-04-05T08:28:56.998Z</time></trkpt><trkpt lat="43.845494408639425" lon="12.132893624015425"><ele>804.3333333333333</ele><time>2026-04-05T08:28:57.998Z</time></trkpt><trkpt lat="43.84566448617058" lon="12.133058945482777"><ele>807.6666666666666</ele><time>2026-04-05T08:28:58.998Z</time></trkpt><trkpt lat="43.845868268742606" lon="12.133216071063849"><ele>811.0</ele><time>2026-04-05T08:28:59.998Z</time></trkpt><trkpt lat="43.846098531910584" lon="12.133374675244328"><ele>811.0</ele><time>2026-04-05T08:29:00.998Z</time></trkpt><trkpt lat="43.84630365312806" lon="12.13349489190738"><ele>811.0</ele><time>2026-04-05T08:29:01.998Z</time></trkpt><trkpt lat="43.846467726396206" lon="12.13359157290866"><ele>811.0</ele><time>2026-04-05T08:29:02.998Z</time></trkpt><trkpt lat="43.84660472655104" lon="12.13363817450557"><ele>811.0</ele><time>2026-04-05T08:29:03.998Z</time></trkpt><trkpt lat="43.84672385042772" lon="12.133628805779706"><ele>811.0</ele><time>2026-04-05T08:29:04.998Z</time></trkpt><trkpt lat="43.84682304529281" lon="12.133545852045458"><ele>811.0</ele><time>2026-04-05T08:29:05.998Z</time></trkpt><trkpt lat="43.84695392981511" lon="12.133416917917012"><ele>811.0</ele><time>2026-04-05T08:29:06.999Z</time></trkpt><trkpt lat="43.847112025290414" lon="12.133299382124294"><ele>811.3333333333333</ele><time>2026-04-05T08:29:07.999Z</time></trkpt><trkpt lat="43.84728747556192" lon="12.133150717572617"><ele>811.6666666666667</ele><time>2026-04-05T08:29:08.999Z</time></trkpt><trkpt lat="43.84745731338084" lon="12.133040380986131"><ele>812.0</ele><time>2026-04-05T08:29:09.999Z</time></trkpt><trkpt lat="43.84764198460074" lon="12.132965092586007"><ele>812.0</ele><time>2026-04-05T08:29:10.999Z</time></trkpt><trkpt lat="43.84782072732484" lon="12.132869026824212"><ele>812.0</ele><time>2026-04-05T08:29:11.999Z</time></trkpt><trkpt lat="43.84797058690173" lon="12.132726029487431"><ele>812.0</ele><time>2026-04-05T08:29:12.999Z</time></trkpt><trkpt lat="43.84811169924065" lon="12.132573257757425"><ele>812.0</ele><time>2026-04-05T08:29:13.999Z</time></trkpt><trkpt lat="43.84824022996828" lon="12.132489807061337"><ele>812.0</ele><time>2026-04-05T08:29:14.999Z</time></trkpt><trkpt lat="43.84842424963342" lon="12.13246882685453"><ele>812.0</ele><time>2026-04-05T08:29:15.999Z</time></trkpt><trkpt lat="43.84860045744596" lon="12.132413302329889"><ele>810.6666666666667</ele><time>2026-04-05T08:29:16.999Z</time></trkpt><trkpt lat="43.84879801065055" lon="12.132396500858418"><ele>809.3333333333333</ele><time>2026-04-05T08:29:17.999Z</time></trkpt><trkpt lat="43.84897753695978" lon="12.132359911844366"><ele>808.0</ele><time>2026-04-05T08:29:18.999Z</time></trkpt><trkpt lat="43.84915164592199" lon="12.132324426919304"><ele>809.6666666666666</ele><time>2026-04-05T08:29:19.999Z</time></trkpt><trkpt lat="43.84930225494054" lon="12.132291749855238"><ele>811.3333333333333</ele><time>2026-04-05T08:29:20.999Z</time></trkpt><trkpt lat="43.849463585035366" lon="12.132217469519013"><ele>813.0</ele><time>2026-04-05T08:29:21.999Z</time></trkpt><trkpt lat="43.849615988056286" lon="12.132090247264362"><ele>813.0</ele><time>2026-04-05T08:29:22.999Z</time></trkpt><trkpt lat="43.84979685054978" lon="12.131985836942201"><ele>813.0</ele><time>2026-04-05T08:29:23.999Z</time></trkpt><trkpt lat="43.84995209274846" lon="12.13188618150262"><ele>813.0</ele><time>2026-04-05T08:29:24.999Z</time></trkpt><trkpt lat="43.850114192667746" lon="12.131840066257487"><ele>809.6666666666667</ele><time>2026-04-05T08:29:25.999Z</time></trkpt><trkpt lat="43.850270147431566" lon="12.131802865550268"><ele>806.3333333333334</ele><time>2026-04-05T08:29:26.999Z</time></trkpt><trkpt lat="43.850420264838675" lon="12.131850678554398"><ele>803.0</ele><time>2026-04-05T08:29:27.999Z</time></trkpt><trkpt lat="43.85056388736786" lon="12.131927358851186"><ele>803.0</ele><time>2026-04-05T08:29:28.999Z</time></trkpt><trkpt lat="43.850720270712436" lon="12.132018804799827"><ele>803.0</ele><time>2026-04-05T08:29:29.999Z</time></trkpt><trkpt lat="43.85083570050977" lon="12.132060102653362"><ele>803.0</ele><time>2026-04-05T08:29:30.999Z</time></trkpt><trkpt lat="43.85090856311622" lon="12.132068388143566"><ele>803.0</ele><time>2026-04-05T08:29:31.999Z</time></trkpt><trkpt lat="43.850969262625355" lon="12.131999601735812"><ele>803.0</ele><time>2026-04-05T08:29:32.999Z</time></trkpt><trkpt lat="43.85099569043553" lon="12.131885706690753"><ele>794.75</ele><time>2026-04-05T08:29:33.999Z</time></trkpt><trkpt lat="43.850994809234855" lon="12.13174977304476"><ele>786.5</ele><time>2026-04-05T08:29:34.999Z</time></trkpt><trkpt lat="43.85099233175215" lon="12.131585339404179"><ele>778.25</ele><time>2026-04-05T08:29:35.999Z</time></trkpt><trkpt lat="43.85099298366632" lon="12.13133123864449"><ele>770.0</ele><time>2026-04-05T08:29:36.999Z</time></trkpt><trkpt lat="43.85100412793674" lon="12.131096691197717"><ele>769.25</ele><time>2026-04-05T08:29:37.999Z</time></trkpt><trkpt lat="43.85100909141618" lon="12.130891466614523"><ele>768.5</ele><time>2026-04-05T08:29:38.999Z</time></trkpt><trkpt lat="43.85102096159646" lon="12.130726499522066"><ele>767.75</ele><time>2026-04-05T08:29:39.999Z</time></trkpt><trkpt lat="43.8510474029732" lon="12.130592729934053"><ele>767.0</ele><time>2026-04-05T08:29:40.999Z</time></trkpt><trkpt lat="43.85110441293156" lon="12.130487288568755"><ele>768.8</ele><time>2026-04-05T08:29:41.999Z</time></trkpt><trkpt lat="43.85120848917262" lon="12.13050514266013"><ele>770.6</ele><time>2026-04-05T08:29:42.999Z</time></trkpt><trkpt lat="43.8513010172049" lon="12.130475528339868"><ele>772.4</ele><time>2026-04-05T08:29:43.999Z</time></trkpt><trkpt lat="43.85142333836433" lon="12.130431427681355"><ele>774.1999999999999</ele><time>2026-04-05T08:29:44.999Z</time></trkpt><trkpt lat="43.851524292192494" lon="12.130383288084353"><ele>776.0</ele><time>2026-04-05T08:29:45.999Z</time></trkpt><trkpt lat="43.851594390934665" lon="12.130288288258056"><ele>776.0</ele><time>2026-04-05T08:29:46.999Z</time></trkpt><trkpt lat="43.851627434527245" lon="12.13017648217309"><ele>776.0</ele><time>2026-04-05T08:29:47.999Z</time></trkpt><trkpt lat="43.85160238360998" lon="12.130030537267645"><ele>776.0</ele><time>2026-04-05T08:29:48.999Z</time></trkpt><trkpt lat="43.85159620143999" lon="12.129894516443656"><ele>776.0</ele><time>2026-04-05T08:29:49.999Z</time></trkpt><trkpt lat="43.85154800594702" lon="12.129722171037884"><ele>776.0</ele><time>2026-04-05T08:29:50.999Z</time></trkpt><trkpt lat="43.85151983013962" lon="12.129544033314792"><ele>773.25</ele><time>2026-04-05T08:29:51.999Z</time></trkpt><trkpt lat="43.8514865220783" lon="12.129387184565442"><ele>770.5</ele><time>2026-04-05T08:29:53Z</time></trkpt><trkpt lat="43.85142393291447" lon="12.129256288070538"><ele>767.75</ele><time>2026-04-05T08:29:54Z</time></trkpt><trkpt lat="43.85135147136073" lon="12.12910138735636"><ele>765.0</ele><time>2026-04-05T08:29:55Z</time></trkpt><trkpt lat="43.851272685617175" lon="12.128979788795549"><ele>763.0</ele><time>2026-04-05T08:29:56Z</time></trkpt><trkpt lat="43.85121820455058" lon="12.128877628960765"><ele>761.0</ele><time>2026-04-05T08:29:57Z</time></trkpt><trkpt lat="43.85119407838335" lon="12.12878698571171"><ele>759.0</ele><time>2026-04-05T08:29:58Z</time></trkpt><trkpt lat="43.85125420896766" lon="12.128651157046573"><ele>757.0</ele><time>2026-04-05T08:30:00Z</time></trkpt><trkpt lat="43.85132245774162" lon="12.128675642704055"><ele>755.0</ele><time>2026-04-05T08:30:01Z</time></trkpt><trkpt lat="43.85135331635259" lon="12.12883971566571"><ele>755.0</ele><time>2026-04-05T08:30:03Z</time></trkpt><trkpt lat="43.851389810100024" lon="12.12899402206755"><ele>755.0</ele><time>2026-04-05T08:30:04Z</time></trkpt><trkpt lat="43.851470243058" lon="12.129141828631642"><ele>755.0</ele><time>2026-04-05T08:30:05Z</time></trkpt><trkpt lat="43.8515658362587" lon="12.12926471151201"><ele>755.0</ele><time>2026-04-05T08:30:06Z</time></trkpt><trkpt lat="43.851647705025634" lon="12.129438240660505"><ele>757.5</ele><time>2026-04-05T08:30:07Z</time></trkpt><trkpt lat="43.851726110840794" lon="12.129592554111255"><ele>760.0</ele><time>2026-04-05T08:30:08Z</time></trkpt><trkpt lat="43.8518176623842" lon="12.129722129998418"><ele>762.5</ele><time>2026-04-05T08:30:09Z</time></trkpt><trkpt lat="43.851941572963945" lon="12.129806706782897"><ele>765.0</ele><time>2026-04-05T08:30:10Z</time></trkpt><trkpt lat="43.85209328259487" lon="12.129882399840861"><ele>760.6666666666666</ele><time>2026-04-05T08:30:11Z</time></trkpt><trkpt lat="43.852261037913145" lon="12.129923995059672"><ele>756.3333333333333</ele><time>2026-04-05T08:30:12Z</time></trkpt><trkpt lat="43.852447161293846" lon="12.129964669053592"><ele>752.0</ele><time>2026-04-05T08:30:13Z</time></trkpt><trkpt lat="43.8526620724465" lon="12.129997232295564"><ele>752.0</ele><time>2026-04-05T08:30:14Z</time></trkpt><trkpt lat="43.85288281809331" lon="12.129996764271642"><ele>752.0</ele><time>2026-04-05T08:30:15Z</time></trkpt><trkpt lat="43.85309781967894" lon="12.129987812944323"><ele>752.0</ele><time>2026-04-05T08:30:16Z</time></trkpt><trkpt lat="43.853294813267496" lon="12.129918433438482"><ele>756.0</ele><time>2026-04-05T08:30:17Z</time></trkpt><trkpt lat="43.853474395732306" lon="12.129819236905469"><ele>760.0</ele><time>2026-04-05T08:30:18Z</time></trkpt><trkpt lat="43.85359250730716" lon="12.129682226366425"><ele>764.0</ele><time>2026-04-05T08:30:19Z</time></trkpt><trkpt lat="43.853709616766615" lon="12.129476878880274"><ele>764.0</ele><time>2026-04-05T08:30:20Z</time></trkpt><trkpt lat="43.85381968127344" lon="12.129247287492278"><ele>764.0</ele><time>2026-04-05T08:30:21Z</time></trkpt><trkpt lat="43.853970457634475" lon="12.129108635313466"><ele>764.0</ele><time>2026-04-05T08:30:22Z</time></trkpt><trkpt lat="43.85412195909299" lon="12.128979683098429"><ele>764.3333333333333</ele><time>2026-04-05T08:30:23Z</time></trkpt><trkpt lat="43.85428216628455" lon="12.128879479195746"><ele>764.6666666666666</ele><time>2026-04-05T08:30:24Z</time></trkpt><trkpt lat="43.85443079762957" lon="12.128838635533418"><ele>765.0</ele><time>2026-04-05T08:30:25Z</time></trkpt><trkpt lat="43.854622698058854" lon="12.12879940169073"><ele>765.0</ele><time>2026-04-05T08:30:26Z</time></trkpt><trkpt lat="43.85482049177829" lon="12.128683277287477"><ele>765.0</ele><time>2026-04-05T08:30:26.999Z</time></trkpt><trkpt lat="43.854981231969354" lon="12.128526126498858"><ele>765.0</ele><time>2026-04-05T08:30:27.999Z</time></trkpt><trkpt lat="43.855178164417005" lon="12.128378873986778"><ele>766.0</ele><time>2026-04-05T08:30:28.999Z</time></trkpt><trkpt lat="43.8553788280471" lon="12.128228006754934"><ele>767.0</ele><time>2026-04-05T08:30:29.999Z</time></trkpt><trkpt lat="43.855535461682415" lon="12.128056731284538"><ele>768.0</ele><time>2026-04-05T08:30:30.999Z</time></trkpt><trkpt lat="43.85570598377571" lon="12.127901771912764"><ele>772.0</ele><time>2026-04-05T08:30:31.999Z</time></trkpt><trkpt lat="43.85596711565584" lon="12.12767478934858"><ele>776.0</ele><time>2026-04-05T08:30:32.999Z</time></trkpt><trkpt lat="43.85620120624907" lon="12.127381241998359"><ele>776.0</ele><time>2026-04-05T08:30:33.999Z</time></trkpt><trkpt lat="43.85642786880174" lon="12.127070460554243"><ele>776.0</ele><time>2026-04-05T08:30:34.999Z</time></trkpt><trkpt lat="43.85664929863618" lon="12.126739987626365"><ele>778.5</ele><time>2026-04-05T08:30:35.999Z</time></trkpt><trkpt lat="43.85685489646847" lon="12.126452328670824"><ele>781.0</ele><time>2026-04-05T08:30:36.999Z</time></trkpt><trkpt lat="43.8570022537811" lon="12.126191683312449"><ele>781.0</ele><time>2026-04-05T08:30:37.999Z</time></trkpt><trkpt lat="43.85714433175087" lon="12.12595856079623"><ele>781.0</ele><time>2026-04-05T08:30:38.999Z</time></trkpt><trkpt lat="43.85726273277442" lon="12.125784731131859"><ele>781.0</ele><time>2026-04-05T08:30:39.999Z</time></trkpt><trkpt lat="43.85736779082949" lon="12.125651699436862"><ele>782.3333333333333</ele><time>2026-04-05T08:30:40.999Z</time></trkpt><trkpt lat="43.85749929764835" lon="12.125588647705195"><ele>783.6666666666667</ele><time>2026-04-05T08:30:41.999Z</time></trkpt><trkpt lat="43.85767115635801" lon="12.125605596877987"><ele>785.0</ele><time>2026-04-05T08:30:42.999Z</time></trkpt><trkpt lat="43.85788257899328" lon="12.12563206781761"><ele>785.0</ele><time>2026-04-05T08:30:44Z</time></trkpt><trkpt lat="43.858084076071414" lon="12.125660229627835"><ele>785.0</ele><time>2026-04-05T08:30:45Z</time></trkpt><trkpt lat="43.85824896856813" lon="12.125675568479753"><ele>785.0</ele><time>2026-04-05T08:30:46Z</time></trkpt><trkpt lat="43.858371412579096" lon="12.12565766440834"><ele>779.0</ele><time>2026-04-05T08:30:47Z</time></trkpt><trkpt lat="43.858497444957855" lon="12.125579435158892"><ele>773.0</ele><time>2026-04-05T08:30:48Z</time></trkpt><trkpt lat="43.8585611366477" lon="12.125450638949921"><ele>767.0</ele><time>2026-04-05T08:30:49Z</time></trkpt><trkpt lat="43.85857564885598" lon="12.125291095798213"><ele>761.0</ele><time>2026-04-05T08:30:50Z</time></trkpt><trkpt lat="43.858572458118395" lon="12.125121168892283"><ele>766.25</ele><time>2026-04-05T08:30:51Z</time></trkpt><trkpt lat="43.85857531974795" lon="12.124883057109619"><ele>771.5</ele><time>2026-04-05T08:30:52Z</time></trkpt><trkpt lat="43.85857489086522" lon="12.124679233628006"><ele>776.75</ele><time>2026-04-05T08:30:53Z</time></trkpt><trkpt lat="43.85858048355214" lon="12.12458001021153"><ele>782.0</ele><time>2026-04-05T08:30:54Z</time></trkpt><trkpt lat="43.858573040455006" lon="12.124418397941216"><ele>782.0</ele><time>2026-04-05T08:30:55Z</time></trkpt><trkpt lat="43.858596216158034" lon="12.124103814743266"><ele>782.0</ele><time>2026-04-05T08:30:56Z</time></trkpt><trkpt lat="43.85869570532008" lon="12.123942806447989"><ele>782.0</ele><time>2026-04-05T08:30:57Z</time></trkpt><trkpt lat="43.8587898335741" lon="12.123884179189409"><ele>792.6666666666667</ele><time>2026-04-05T08:30:58Z</time></trkpt><trkpt lat="43.8588984902755" lon="12.123849283216448"><ele>803.3333333333333</ele><time>2026-04-05T08:30:59Z</time></trkpt><trkpt lat="43.859035954993146" lon="12.1240495629528"><ele>814.0</ele><time>2026-04-05T08:31:00Z</time></trkpt><trkpt lat="43.85917153312712" lon="12.123998455572844"><ele>812.25</ele><time>2026-04-05T08:31:01Z</time></trkpt><trkpt lat="43.85930218929792" lon="12.124003703548471"><ele>810.5</ele><time>2026-04-05T08:31:02Z</time></trkpt><trkpt lat="43.85940505821264" lon="12.124009043607291"><ele>808.75</ele><time>2026-04-05T08:31:03Z</time></trkpt><trkpt lat="43.859569785006464" lon="12.124157400749459"><ele>807.0</ele><time>2026-04-05T08:31:04Z</time></trkpt><trkpt lat="43.85972719872589" lon="12.124414688400918"><ele>807.0</ele><time>2026-04-05T08:31:05Z</time></trkpt><trkpt lat="43.85981879573571" lon="12.12468347334427"><ele>807.0</ele><time>2026-04-05T08:31:06Z</time></trkpt><trkpt lat="43.860019694347486" lon="12.12505665827553"><ele>802.25</ele><time>2026-04-05T08:31:07Z</time></trkpt><trkpt lat="43.86003219563965" lon="12.125299716738688"><ele>797.5</ele><time>2026-04-05T08:31:08Z</time></trkpt><trkpt lat="43.86006199638921" lon="12.125484450456176"><ele>792.75</ele><time>2026-04-05T08:31:09Z</time></trkpt><trkpt lat="43.860109036626156" lon="12.125583715349913"><ele>788.0</ele><time>2026-04-05T08:31:10Z</time></trkpt><trkpt lat="43.860183618222145" lon="12.125668448671577"><ele>788.0</ele><time>2026-04-05T08:31:11Z</time></trkpt><trkpt lat="43.860276710114654" lon="12.125635671236799"><ele>788.0</ele><time>2026-04-05T08:31:12Z</time></trkpt><trkpt lat="43.86039316064328" lon="12.125630108894589"><ele>788.0</ele><time>2026-04-05T08:31:13Z</time></trkpt><trkpt lat="43.86054249022207" lon="12.125568408690924"><ele>788.0</ele><time>2026-04-05T08:31:14Z</time></trkpt><trkpt lat="43.86067666054266" lon="12.12546525981466"><ele>788.0</ele><time>2026-04-05T08:31:15Z</time></trkpt><trkpt lat="43.860814727858276" lon="12.125283883833156"><ele>788.0</ele><time>2026-04-05T08:31:16Z</time></trkpt><trkpt lat="43.86100912449518" lon="12.125166865293773"><ele>788.0</ele><time>2026-04-05T08:31:17Z</time></trkpt><trkpt lat="43.861156446346335" lon="12.12511985972884"><ele>785.0</ele><time>2026-04-05T08:31:18Z</time></trkpt><trkpt lat="43.86140052732478" lon="12.124952354857134"><ele>782.0</ele><time>2026-04-05T08:31:19Z</time></trkpt><trkpt lat="43.861646452984395" lon="12.125031057395391"><ele>791.5</ele><time>2026-04-05T08:31:20Z</time></trkpt><trkpt lat="43.86188547939578" lon="12.125132261900978"><ele>801.0</ele><time>2026-04-05T08:31:21Z</time></trkpt><trkpt lat="43.862090217660985" lon="12.12522855596272"><ele>801.0</ele><time>2026-04-05T08:31:22Z</time></trkpt><trkpt lat="43.86227956699328" lon="12.125378340190952"><ele>801.0</ele><time>2026-04-05T08:31:23Z</time></trkpt><trkpt lat="43.862428475419804" lon="12.125579826091176"><ele>801.0</ele><time>2026-04-05T08:31:24Z</time></trkpt><trkpt lat="43.86259056351898" lon="12.125797561148744"><ele>796.6666666666667</ele><time>2026-04-05T08:31:25Z</time></trkpt><trkpt lat="43.86274107540507" lon="12.125990742614187"><ele>792.3333333333334</ele><time>2026-04-05T08:31:26Z</time></trkpt><trkpt lat="43.86289905178734" lon="12.126141654940655"><ele>788.0</ele><time>2026-04-05T08:31:27Z</time></trkpt><trkpt lat="43.86301684477708" lon="12.12618098106167"><ele>788.0</ele><time>2026-04-05T08:31:28Z</time></trkpt><trkpt lat="43.86316167415453" lon="12.126152413011937"><ele>788.0</ele><time>2026-04-05T08:31:29Z</time></trkpt><trkpt lat="43.86337157669616" lon="12.126096031721888"><ele>788.0</ele><time>2026-04-05T08:31:30Z</time></trkpt><trkpt lat="43.863594826854516" lon="12.12602154300607"><ele>781.5</ele><time>2026-04-05T08:31:31Z</time></trkpt><trkpt lat="43.863815439943814" lon="12.12596702580488"><ele>775.0</ele><time>2026-04-05T08:31:32Z</time></trkpt><trkpt lat="43.864051818576066" lon="12.125895144415134"><ele>775.0</ele><time>2026-04-05T08:31:33Z</time></trkpt><trkpt lat="43.864262862101526" lon="12.125900679766678"><ele>775.0</ele><time>2026-04-05T08:31:34.001Z</time></trkpt><trkpt lat="43.86443680614598" lon="12.1259503425069"><ele>775.0</ele><time>2026-04-05T08:31:35.001Z</time></trkpt><trkpt lat="43.864605473802214" lon="12.125999105274937"><ele>773.0</ele><time>2026-04-05T08:31:36.001Z</time></trkpt><trkpt lat="43.86478515443394" lon="12.125973882691893"><ele>771.0</ele><time>2026-04-05T08:31:37.001Z</time></trkpt><trkpt lat="43.864974093084506" lon="12.125895070201656"><ele>769.0</ele><time>2026-04-05T08:31:38.001Z</time></trkpt><trkpt lat="43.86520638540372" lon="12.125808502216714"><ele>762.5</ele><time>2026-04-05T08:31:39.001Z</time></trkpt><trkpt lat="43.865432014599676" lon="12.125717240397753"><ele>756.0</ele><time>2026-04-05T08:31:40.001Z</time></trkpt><trkpt lat="43.86565484010196" lon="12.12565098216887"><ele>756.0</ele><time>2026-04-05T08:31:41.001Z</time></trkpt><trkpt lat="43.865861943197174" lon="12.125628410606557"><ele>756.0</ele><time>2026-04-05T08:31:42.001Z</time></trkpt><trkpt lat="43.86605490497277" lon="12.125653007057739"><ele>756.0</ele><time>2026-04-05T08:31:43.001Z</time></trkpt><trkpt lat="43.86626932218619" lon="12.12570224094268"><ele>755.0</ele><time>2026-04-05T08:31:44.001Z</time></trkpt><trkpt lat="43.86652400505979" lon="12.125767442372046"><ele>754.0</ele><time>2026-04-05T08:31:45.001Z</time></trkpt><trkpt lat="43.86679915922639" lon="12.125827762161395"><ele>752.5</ele><time>2026-04-05T08:31:46.001Z</time></trkpt><trkpt lat="43.86704704324573" lon="12.125867923220667"><ele>751.0</ele><time>2026-04-05T08:31:47.001Z</time></trkpt><trkpt lat="43.867277054759285" lon="12.125938507383777"><ele>751.0</ele><time>2026-04-05T08:31:48.001Z</time></trkpt><trkpt lat="43.867499778593135" lon="12.125983335130124"><ele>751.0</ele><time>2026-04-05T08:31:49.001Z</time></trkpt><trkpt lat="43.86773912506115" lon="12.125969497992083"><ele>752.5</ele><time>2026-04-05T08:31:50.001Z</time></trkpt><trkpt lat="43.867985298734695" lon="12.125923163454079"><ele>754.0</ele><time>2026-04-05T08:31:51.001Z</time></trkpt><trkpt lat="43.86820388089877" lon="12.125879795005433"><ele>754.0</ele><time>2026-04-05T08:31:52.001Z</time></trkpt><trkpt lat="43.86843259768683" lon="12.125935843854196"><ele>754.0</ele><time>2026-04-05T08:31:53.001Z</time></trkpt><trkpt lat="43.868655695347215" lon="12.126007285711147"><ele>760.3333333333334</ele><time>2026-04-05T08:31:54.001Z</time></trkpt><trkpt lat="43.86883463870508" lon="12.126103931107812"><ele>766.6666666666667</ele><time>2026-04-05T08:31:55.001Z</time></trkpt><trkpt lat="43.86897693967412" lon="12.126229064805004"><ele>773.0</ele><time>2026-04-05T08:31:56.001Z</time></trkpt><trkpt lat="43.869094690841614" lon="12.126395918779172"><ele>769.0</ele><time>2026-04-05T08:31:57.001Z</time></trkpt><trkpt lat="43.869231620351876" lon="12.126607053418713"><ele>765.0</ele><time>2026-04-05T08:31:58.001Z</time></trkpt><trkpt lat="43.869352223686555" lon="12.126797140643948"><ele>761.0</ele><time>2026-04-05T08:31:59.001Z</time></trkpt><trkpt lat="43.86951988516679" lon="12.126896601291339"><ele>770.6666666666666</ele><time>2026-04-05T08:32:00.001Z</time></trkpt><trkpt lat="43.869698973282325" lon="12.126993164746468"><ele>780.3333333333333</ele><time>2026-04-05T08:32:01.001Z</time></trkpt><trkpt lat="43.86988816014669" lon="12.127122862319256"><ele>790.0</ele><time>2026-04-05T08:32:02.001Z</time></trkpt><trkpt lat="43.86998875617991" lon="12.127233433528517"><ele>786.0</ele><time>2026-04-05T08:32:03.001Z</time></trkpt><trkpt lat="43.870030883522354" lon="12.127394886694558"><ele>782.0</ele><time>2026-04-05T08:32:04.001Z</time></trkpt><trkpt lat="43.870102900592514" lon="12.127608416738616"><ele>778.0</ele><time>2026-04-05T08:32:05.001Z</time></trkpt><trkpt lat="43.870178284269635" lon="12.127876447817965"><ele>777.3333333333333</ele><time>2026-04-05T08:32:06.001Z</time></trkpt><trkpt lat="43.87019889561644" lon="12.128101584862746"><ele>776.6666666666667</ele><time>2026-04-05T08:32:07.001Z</time></trkpt><trkpt lat="43.87015164600864" lon="12.128296721584114"><ele>776.0</ele><time>2026-04-05T08:32:08.001Z</time></trkpt><trkpt lat="43.8700960765442" lon="12.12857042350038"><ele>776.0</ele><time>2026-04-05T08:32:09.001Z</time></trkpt><trkpt lat="43.87005609650718" lon="12.128825506334028"><ele>776.0</ele><time>2026-04-05T08:32:10.001Z</time></trkpt><trkpt lat="43.87004587174958" lon="12.129046941614249"><ele>776.0</ele><time>2026-04-05T08:32:11.001Z</time></trkpt><trkpt lat="43.87009848427258" lon="12.12921585596528"><ele>785.0</ele><time>2026-04-05T08:32:12.001Z</time></trkpt><trkpt lat="43.87019100227643" lon="12.129419147994371"><ele>794.0</ele><time>2026-04-05T08:32:13.001Z</time></trkpt><trkpt lat="43.870319497134716" lon="12.129599847318486"><ele>803.0</ele><time>2026-04-05T08:32:14.001Z</time></trkpt><trkpt lat="43.87042134060131" lon="12.129697753649033"><ele>803.0</ele><time>2026-04-05T08:32:15.001Z</time></trkpt><trkpt lat="43.87052602112624" lon="12.129694159148416"><ele>803.0</ele><time>2026-04-05T08:32:16.001Z</time></trkpt><trkpt lat="43.87102453033902" lon="12.129477448988037"><ele>802.6666666666667</ele><time>2026-04-05T08:32:19.001Z</time></trkpt><trkpt lat="43.87118873290024" lon="12.129459529081904"><ele>802.3333333333333</ele><time>2026-04-05T08:32:20.001Z</time></trkpt><trkpt lat="43.87134930338633" lon="12.1295811123083"><ele>802.0</ele><time>2026-04-05T08:32:21.001Z</time></trkpt><trkpt lat="43.871545297018876" lon="12.129536679346224"><ele>802.0</ele><time>2026-04-05T08:32:22.001Z</time></trkpt><trkpt lat="43.87172132105463" lon="12.129384246942127"><ele>802.0</ele><time>2026-04-05T08:32:23.001Z</time></trkpt><trkpt lat="43.871853577097" lon="12.129288578958041"><ele>802.0</ele><time>2026-04-05T08:32:24.001Z</time></trkpt><trkpt lat="43.87201179353051" lon="12.129273846833705"><ele>797.5</ele><time>2026-04-05T08:32:25.001Z</time></trkpt><trkpt lat="43.87222156472722" lon="12.129315525730892"><ele>793.0</ele><time>2026-04-05T08:32:26.001Z</time></trkpt><trkpt lat="43.87246238982885" lon="12.12939447674988"><ele>791.0</ele><time>2026-04-05T08:32:27.002Z</time></trkpt><trkpt lat="43.872714241725696" lon="12.129496249991337"><ele>789.0</ele><time>2026-04-05T08:32:28.002Z</time></trkpt><trkpt lat="43.872986894202846" lon="12.129565129758875"><ele>789.0</ele><time>2026-04-05T08:32:29.002Z</time></trkpt><trkpt lat="43.87329325118638" lon="12.129624211509565"><ele>789.0</ele><time>2026-04-05T08:32:30.002Z</time></trkpt><trkpt lat="43.873569730139806" lon="12.129663312605551"><ele>792.0</ele><time>2026-04-05T08:32:31.002Z</time></trkpt><trkpt lat="43.87387372482004" lon="12.129706305365733"><ele>795.0</ele><time>2026-04-05T08:32:32.002Z</time></trkpt><trkpt lat="43.87411619684549" lon="12.129738916109293"><ele>794.0</ele><time>2026-04-05T08:32:33.001Z</time></trkpt><trkpt lat="43.87436291203481" lon="12.129853979242096"><ele>793.0</ele><time>2026-04-05T08:32:34.001Z</time></trkpt><trkpt lat="43.87458195538471" lon="12.12998903869409"><ele>793.0</ele><time>2026-04-05T08:32:35.001Z</time></trkpt><trkpt lat="43.874817545333464" lon="12.130068245959267"><ele>793.0</ele><time>2026-04-05T08:32:36.001Z</time></trkpt><trkpt lat="43.87507961378242" lon="12.130112633361039"><ele>794.5</ele><time>2026-04-05T08:32:37.001Z</time></trkpt><trkpt lat="43.8753607287655" lon="12.130149873226104"><ele>796.0</ele><time>2026-04-05T08:32:38.001Z</time></trkpt><trkpt lat="43.875638890090976" lon="12.130139260881084"><ele>796.0</ele><time>2026-04-05T08:32:39.001Z</time></trkpt><trkpt lat="43.87586554324871" lon="12.130148366568276"><ele>796.0</ele><time>2026-04-05T08:32:40.001Z</time></trkpt><trkpt lat="43.87607215686227" lon="12.130205962737003"><ele>796.0</ele><time>2026-04-05T08:32:41.001Z</time></trkpt><trkpt lat="43.87627422142197" lon="12.130286377993864"><ele>791.6666666666666</ele><time>2026-04-05T08:32:42.001Z</time></trkpt><trkpt lat="43.87645951109223" lon="12.130367716960022"><ele>787.3333333333333</ele><time>2026-04-05T08:32:43.001Z</time></trkpt><trkpt lat="43.876625155751015" lon="12.1304518853132"><ele>783.0</ele><time>2026-04-05T08:32:44.002Z</time></trkpt><trkpt lat="43.87677425488714" lon="12.130541145252307"><ele>782.8333333333334</ele><time>2026-04-05T08:32:45.002Z</time></trkpt><trkpt lat="43.8768825643906" lon="12.130631942854894"><ele>782.6666666666667</ele><time>2026-04-05T08:32:46.002Z</time></trkpt><trkpt lat="43.8769611560144" lon="12.130706520455211"><ele>782.5</ele><time>2026-04-05T08:32:47.002Z</time></trkpt><trkpt lat="43.87701869950718" lon="12.130748692182214"><ele>782.3333333333334</ele><time>2026-04-05T08:32:48.002Z</time></trkpt><trkpt lat="43.87707481144939" lon="12.130704556773843"><ele>782.1666666666667</ele><time>2026-04-05T08:32:50.002Z</time></trkpt><trkpt lat="43.87706435175723" lon="12.130614968430077"><ele>782.0</ele><time>2026-04-05T08:32:51.002Z</time></trkpt><trkpt lat="43.87703456527705" lon="12.13049452787409"><ele>779.75</ele><time>2026-04-05T08:32:52.002Z</time></trkpt><trkpt lat="43.876980677871664" lon="12.130344005683465"><ele>777.5</ele><time>2026-04-05T08:32:53.002Z</time></trkpt><trkpt lat="43.87690271205996" lon="12.130183648527309"><ele>775.25</ele><time>2026-04-05T08:32:54.002Z</time></trkpt><trkpt lat="43.87681461257906" lon="12.130037197557261"><ele>773.0</ele><time>2026-04-05T08:32:55.002Z</time></trkpt><trkpt lat="43.87675740698012" lon="12.129876375281285"><ele>773.0</ele><time>2026-04-05T08:32:56.002Z</time></trkpt><trkpt lat="43.87671797378386" lon="12.129672654412158"><ele>773.0</ele><time>2026-04-05T08:32:57.002Z</time></trkpt><trkpt lat="43.87670605098346" lon="12.129490746599291"><ele>773.0</ele><time>2026-04-05T08:32:58.002Z</time></trkpt><trkpt lat="43.87669793042066" lon="12.129301374103427"><ele>773.0</ele><time>2026-04-05T08:32:59.002Z</time></trkpt><trkpt lat="43.87667789345088" lon="12.129140550954423"><ele>768.25</ele><time>2026-04-05T08:33:00.002Z</time></trkpt><trkpt lat="43.876621490058795" lon="12.128985964382425"><ele>763.5</ele><time>2026-04-05T08:33:01.002Z</time></trkpt><trkpt lat="43.87653576330869" lon="12.128842219971398"><ele>758.75</ele><time>2026-04-05T08:33:02.002Z</time></trkpt><trkpt lat="43.87643559811696" lon="12.128687211366591"><ele>754.0</ele><time>2026-04-05T08:33:03.002Z</time></trkpt><trkpt lat="43.87636133465415" lon="12.128490927358643"><ele>754.0</ele><time>2026-04-05T08:33:04.002Z</time></trkpt><trkpt lat="43.876290374780325" lon="12.128245328655888"><ele>754.0</ele><time>2026-04-05T08:33:05.002Z</time></trkpt><trkpt lat="43.87618777823266" lon="12.127992909490665"><ele>754.0</ele><time>2026-04-05T08:33:06.002Z</time></trkpt><trkpt lat="43.876084817728184" lon="12.127765004299132"><ele>758.0</ele><time>2026-04-05T08:33:07.002Z</time></trkpt><trkpt lat="43.8759771904316" lon="12.127482159688595"><ele>762.0</ele><time>2026-04-05T08:33:08.002Z</time></trkpt><trkpt lat="43.87587795573877" lon="12.127237770637825"><ele>766.0</ele><time>2026-04-05T08:33:09.002Z</time></trkpt><trkpt lat="43.875719047152565" lon="12.12699842386822"><ele>766.0</ele><time>2026-04-05T08:33:10.002Z</time></trkpt><trkpt lat="43.87558004687637" lon="12.126795633735894"><ele>766.0</ele><time>2026-04-05T08:33:11.002Z</time></trkpt><trkpt lat="43.87542798050981" lon="12.126591010513978"><ele>766.0</ele><time>2026-04-05T08:33:12.002Z</time></trkpt><trkpt lat="43.875260202631885" lon="12.126377572885852"><ele>763.6666666666667</ele><time>2026-04-05T08:33:13.002Z</time></trkpt><trkpt lat="43.87510981041495" lon="12.126173469959479"><ele>761.3333333333334</ele><time>2026-04-05T08:33:14.002Z</time></trkpt><trkpt lat="43.87496801211323" lon="12.125987482492377"><ele>759.0</ele><time>2026-04-05T08:33:15.002Z</time></trkpt><trkpt lat="43.87483803375602" lon="12.12581403250753"><ele>763.75</ele><time>2026-04-05T08:33:16.002Z</time></trkpt><trkpt lat="43.874721155377046" lon="12.125675514892013"><ele>768.5</ele><time>2026-04-05T08:33:17.002Z</time></trkpt><trkpt lat="43.87461829542537" lon="12.125587036372238"><ele>773.25</ele><time>2026-04-05T08:33:18.002Z</time></trkpt><trkpt lat="43.87450712571406" lon="12.125552208815039"><ele>778.0</ele><time>2026-04-05T08:33:19.002Z</time></trkpt><trkpt lat="43.874362880164085" lon="12.125584391736282"><ele>770.25</ele><time>2026-04-05T08:33:20.002Z</time></trkpt><trkpt lat="43.87421921446208" lon="12.12562134367665"><ele>762.5</ele><time>2026-04-05T08:33:21.002Z</time></trkpt><trkpt lat="43.874109933252235" lon="12.12559842073167"><ele>754.75</ele><time>2026-04-05T08:33:22.002Z</time></trkpt><trkpt lat="43.874008551258356" lon="12.125520556862694"><ele>747.0</ele><time>2026-04-05T08:33:23.002Z</time></trkpt><trkpt lat="43.873930183687236" lon="12.125397698836238"><ele>747.0</ele><time>2026-04-05T08:33:24.002Z</time></trkpt><trkpt lat="43.8738850021659" lon="12.125249587595034"><ele>747.0</ele><time>2026-04-05T08:33:25.002Z</time></trkpt><trkpt lat="43.87386826304978" lon="12.125066533266681"><ele>747.0</ele><time>2026-04-05T08:33:26.002Z</time></trkpt><trkpt lat="43.8738758119916" lon="12.124853792144286"><ele>747.0</ele><time>2026-04-05T08:33:27.002Z</time></trkpt><trkpt lat="43.87389372682062" lon="12.124631294938181"><ele>747.5</ele><time>2026-04-05T08:33:28.002Z</time></trkpt><trkpt lat="43.873907100760896" lon="12.124442297726096"><ele>748.0</ele><time>2026-04-05T08:33:29.002Z</time></trkpt><trkpt lat="43.87389006949253" lon="12.124292282292464"><ele>748.5</ele><time>2026-04-05T08:33:30.002Z</time></trkpt><trkpt lat="43.873830768354736" lon="12.124162078465382"><ele>749.0</ele><time>2026-04-05T08:33:31.002Z</time></trkpt><trkpt lat="43.873728531881426" lon="12.124075060399967"><ele>747.0</ele><time>2026-04-05T08:33:32.002Z</time></trkpt><trkpt lat="43.87359461801868" lon="12.124006996973552"><ele>745.0</ele><time>2026-04-05T08:33:33.002Z</time></trkpt><trkpt lat="43.87346050993327" lon="12.123941796801262"><ele>743.0</ele><time>2026-04-05T08:33:34.002Z</time></trkpt><trkpt lat="43.873316418793" lon="12.123840913387134"><ele>741.0</ele><time>2026-04-05T08:33:35.002Z</time></trkpt><trkpt lat="43.873200767142784" lon="12.123730098210254"><ele>741.0</ele><time>2026-04-05T08:33:36.002Z</time></trkpt><trkpt lat="43.87310855081597" lon="12.123588501178688"><ele>741.0</ele><time>2026-04-05T08:33:37.002Z</time></trkpt><trkpt lat="43.87301460528891" lon="12.123424384409605"><ele>741.0</ele><time>2026-04-05T08:33:38.002Z</time></trkpt><trkpt lat="43.87291517918558" lon="12.123248873770445"><ele>746.0</ele><time>2026-04-05T08:33:39.002Z</time></trkpt><trkpt lat="43.872781211931" lon="12.123123377279962"><ele>751.0</ele><time>2026-04-05T08:33:40.002Z</time></trkpt><trkpt lat="43.872649827853124" lon="12.123017787721656"><ele>756.0</ele><time>2026-04-05T08:33:41.002Z</time></trkpt><trkpt lat="43.87255681275617" lon="12.122870765869463"><ele>748.25</ele><time>2026-04-05T08:33:42.002Z</time></trkpt><trkpt lat="43.8724927793797" lon="12.122707508111077"><ele>740.5</ele><time>2026-04-05T08:33:43.002Z</time></trkpt><trkpt lat="43.87247323237961" lon="12.122533298357121"><ele>732.75</ele><time>2026-04-05T08:33:44.002Z</time></trkpt><trkpt lat="43.87247682322535" lon="12.122343163511822"><ele>725.0</ele><time>2026-04-05T08:33:45.002Z</time></trkpt><trkpt lat="43.87248260369044" lon="12.122124390101197"><ele>725.0</ele><time>2026-04-05T08:33:46.002Z</time></trkpt><trkpt lat="43.872487891977464" lon="12.121898840852548"><ele>725.0</ele><time>2026-04-05T08:33:47.002Z</time></trkpt><trkpt lat="43.872483718000765" lon="12.121680613634247"><ele>725.0</ele><time>2026-04-05T08:33:48.002Z</time></trkpt><trkpt lat="43.872469853693396" lon="12.121478877303417"><ele>726.5</ele><time>2026-04-05T08:33:49.002Z</time></trkpt><trkpt lat="43.87243589522046" lon="12.121291645719115"><ele>728.0</ele><time>2026-04-05T08:33:50.002Z</time></trkpt><trkpt lat="43.87238384837307" lon="12.121112926344757"><ele>729.5</ele><time>2026-04-05T08:33:51.002Z</time></trkpt><trkpt lat="43.87232293387273" lon="12.120938678268278"><ele>731.0</ele><time>2026-04-05T08:33:52.002Z</time></trkpt><trkpt lat="43.87225622176337" lon="12.120775632313984"><ele>732.0</ele><time>2026-04-05T08:33:53.002Z</time></trkpt><trkpt lat="43.872186542579335" lon="12.120638789265705"><ele>733.0</ele><time>2026-04-05T08:33:54.002Z</time></trkpt><trkpt lat="43.8721069325551" lon="12.120508053396268"><ele>734.0</ele><time>2026-04-05T08:33:55.002Z</time></trkpt><trkpt lat="43.87197855492595" lon="12.120413631731997"><ele>735.0</ele><time>2026-04-05T08:33:56.002Z</time></trkpt><trkpt lat="43.87188599926938" lon="12.120281566837454"><ele>731.0</ele><time>2026-04-05T08:33:57.002Z</time></trkpt><trkpt lat="43.8716941940024" lon="12.120356765957593"><ele>727.0</ele><time>2026-04-05T08:33:58.002Z</time></trkpt><trkpt lat="43.8715918291731" lon="12.12031635100487"><ele>723.0</ele><time>2026-04-05T08:33:59.002Z</time></trkpt><trkpt lat="43.871480904878545" lon="12.120267170368002"><ele>719.0</ele><time>2026-04-05T08:34:00.002Z</time></trkpt><trkpt lat="43.871394369435805" lon="12.120217710307571"><ele>719.0</ele><time>2026-04-05T08:34:01.002Z</time></trkpt><trkpt lat="43.87131240502929" lon="12.120180522530191"><ele>719.0</ele><time>2026-04-05T08:34:02.002Z</time></trkpt><trkpt lat="43.87123533425254" lon="12.120165623931472"><ele>719.0</ele><time>2026-04-05T08:34:03.002Z</time></trkpt><trkpt lat="43.871163898022225" lon="12.120166331278778"><ele>719.0</ele><time>2026-04-05T08:34:04.003Z</time></trkpt><trkpt lat="43.87109835847791" lon="12.120165558436648"><ele>719.0</ele><time>2026-04-05T08:34:05.003Z</time></trkpt><trkpt lat="43.87098560468561" lon="12.120151119790423"><ele>719.0</ele><time>2026-04-05T08:34:07.003Z</time></trkpt><trkpt lat="43.87090396805531" lon="12.120100185158048"><ele>719.0</ele><time>2026-04-05T08:34:09.003Z</time></trkpt><trkpt lat="43.870861166032554" lon="12.120000203237886"><ele>719.0</ele><time>2026-04-05T08:34:11.003Z</time></trkpt><trkpt lat="43.87080774105501" lon="12.119938652749674"><ele>719.0</ele><time>2026-04-05T08:34:13.003Z</time></trkpt><trkpt lat="43.8708055236544" lon="12.120035021512374"><ele>719.0</ele><time>2026-04-05T08:34:16.003Z</time></trkpt><trkpt lat="43.87086762815532" lon="12.120059973933918"><ele>719.0</ele><time>2026-04-05T08:34:17.003Z</time></trkpt><trkpt lat="43.87094361828671" lon="12.120111485705175"><ele>719.0</ele><time>2026-04-05T08:34:18.003Z</time></trkpt><trkpt lat="43.87102489719225" lon="12.12016720068313"><ele>719.0</ele><time>2026-04-05T08:34:19.003Z</time></trkpt><trkpt lat="43.871129953462194" lon="12.120181914210633"><ele>719.0</ele><time>2026-04-05T08:34:20.003Z</time></trkpt><trkpt lat="43.871220323988254" lon="12.120192170782698"><ele>719.0</ele><time>2026-04-05T08:34:21.003Z</time></trkpt><trkpt lat="43.87130598441984" lon="12.120210405370186"><ele>719.0</ele><time>2026-04-05T08:34:22.003Z</time></trkpt><trkpt lat="43.87139918633239" lon="12.120241297443288"><ele>719.0</ele><time>2026-04-05T08:34:23.003Z</time></trkpt><trkpt lat="43.87150855367563" lon="12.120322030381928"><ele>719.0</ele><time>2026-04-05T08:34:24.003Z</time></trkpt><trkpt lat="43.87164619546224" lon="12.1203840552423"><ele>719.0</ele><time>2026-04-05T08:34:25.003Z</time></trkpt><trkpt lat="43.87179895881731" lon="12.120440197969568"><ele>719.0</ele><time>2026-04-05T08:34:26.003Z</time></trkpt><trkpt lat="43.871940184744474" lon="12.120563408998468"><ele>722.0</ele><time>2026-04-05T08:34:27.003Z</time></trkpt><trkpt lat="43.8720849080761" lon="12.12068084260956"><ele>725.0</ele><time>2026-04-05T08:34:28.003Z</time></trkpt><trkpt lat="43.8722227169388" lon="12.120777512400243"><ele>728.0</ele><time>2026-04-05T08:34:29.003Z</time></trkpt><trkpt lat="43.87231141662796" lon="12.120899385066755"><ele>731.0</ele><time>2026-04-05T08:34:30.003Z</time></trkpt><trkpt lat="43.87233208439901" lon="12.121081334515463"><ele>731.0</ele><time>2026-04-05T08:34:31.003Z</time></trkpt><trkpt lat="43.87239116135758" lon="12.121318857343534"><ele>731.0</ele><time>2026-04-05T08:34:32.003Z</time></trkpt><trkpt lat="43.872434532910475" lon="12.121568979822603"><ele>731.0</ele><time>2026-04-05T08:34:33.003Z</time></trkpt><trkpt lat="43.8724569918482" lon="12.121810574277749"><ele>729.0</ele><time>2026-04-05T08:34:34.003Z</time></trkpt><trkpt lat="43.87246586551859" lon="12.122098694318337"><ele>727.0</ele><time>2026-04-05T08:34:35.003Z</time></trkpt><trkpt lat="43.87247337766032" lon="12.122385319181879"><ele>725.0</ele><time>2026-04-05T08:34:36.003Z</time></trkpt><trkpt lat="43.87248827650204" lon="12.12260539445556"><ele>724.75</ele><time>2026-04-05T08:34:37.003Z</time></trkpt><trkpt lat="43.87251355701851" lon="12.122772110918325"><ele>724.5</ele><time>2026-04-05T08:34:38.003Z</time></trkpt><trkpt lat="43.87256709079169" lon="12.122933216072159"><ele>724.25</ele><time>2026-04-05T08:34:39.003Z</time></trkpt><trkpt lat="43.87266321835308" lon="12.123084743927368"><ele>724.0</ele><time>2026-04-05T08:34:40.003Z</time></trkpt><trkpt lat="43.87278470362527" lon="12.123195828466287"><ele>728.25</ele><time>2026-04-05T08:34:41.003Z</time></trkpt><trkpt lat="43.87290310744543" lon="12.123326202239928"><ele>732.5</ele><time>2026-04-05T08:34:42.003Z</time></trkpt><trkpt lat="43.873006376025586" lon="12.12344984225003"><ele>736.75</ele><time>2026-04-05T08:34:43.003Z</time></trkpt><trkpt lat="43.87309527872995" lon="12.123589541382165"><ele>741.0</ele><time>2026-04-05T08:34:44.003Z</time></trkpt><trkpt lat="43.87319090559096" lon="12.123761246260656"><ele>741.0</ele><time>2026-04-05T08:34:45.003Z</time></trkpt><trkpt lat="43.873289250236496" lon="12.12386296463244"><ele>741.0</ele><time>2026-04-05T08:34:46.003Z</time></trkpt><trkpt lat="43.87341317896475" lon="12.123944583194026"><ele>741.0</ele><time>2026-04-05T08:34:47.003Z</time></trkpt><trkpt lat="43.87356015880973" lon="12.124027546932233"><ele>741.0</ele><time>2026-04-05T08:34:48.002Z</time></trkpt><trkpt lat="43.87369219994042" lon="12.124118983096098"><ele>742.5999999999999</ele><time>2026-04-05T08:34:49.002Z</time></trkpt><trkpt lat="43.87379912311456" lon="12.124213719064398"><ele>744.2</ele><time>2026-04-05T08:34:50.002Z</time></trkpt><trkpt lat="43.87387767693624" lon="12.124290567614263"><ele>745.8</ele><time>2026-04-05T08:34:51.002Z</time></trkpt><trkpt lat="43.87390543440691" lon="12.12441106339318"><ele>747.4000000000001</ele><time>2026-04-05T08:34:52.002Z</time></trkpt><trkpt lat="43.87386849108477" lon="12.124569058948158"><ele>749.0</ele><time>2026-04-05T08:34:53.002Z</time></trkpt><trkpt lat="43.873865478644284" lon="12.124760316136646"><ele>748.5</ele><time>2026-04-05T08:34:54.002Z</time></trkpt><trkpt lat="43.8738662162248" lon="12.124982219822051"><ele>748.0</ele><time>2026-04-05T08:34:55.002Z</time></trkpt><trkpt lat="43.873861921906" lon="12.125192464693654"><ele>747.5</ele><time>2026-04-05T08:34:56.002Z</time></trkpt><trkpt lat="43.87389421990697" lon="12.12533972662125"><ele>747.0</ele><time>2026-04-05T08:34:57.002Z</time></trkpt><trkpt lat="43.87395986218135" lon="12.125456700143067"><ele>747.0</ele><time>2026-04-05T08:34:58.002Z</time></trkpt><trkpt lat="43.87406109263065" lon="12.125564057609825"><ele>747.0</ele><time>2026-04-05T08:34:59.002Z</time></trkpt><trkpt lat="43.87416849068488" lon="12.125630223175705"><ele>747.0</ele><time>2026-04-05T08:35:00.002Z</time></trkpt><trkpt lat="43.87428597254304" lon="12.125635334675412"><ele>747.0</ele><time>2026-04-05T08:35:01.002Z</time></trkpt><trkpt lat="43.87443766900688" lon="12.125616367143797"><ele>750.0</ele><time>2026-04-05T08:35:02.002Z</time></trkpt><trkpt lat="43.8745525226262" lon="12.125605921395225"><ele>753.0</ele><time>2026-04-05T08:35:03.002Z</time></trkpt><trkpt lat="43.87465028656106" lon="12.12563422019692"><ele>756.0</ele><time>2026-04-05T08:35:04.002Z</time></trkpt><trkpt lat="43.874719490708074" lon="12.12572723096143"><ele>759.0</ele><time>2026-04-05T08:35:05.002Z</time></trkpt><trkpt lat="43.8748328191017" lon="12.125865966267988"><ele>759.0</ele><time>2026-04-05T08:35:06.002Z</time></trkpt><trkpt lat="43.87496683128308" lon="12.126044970100118"><ele>759.0</ele><time>2026-04-05T08:35:07.002Z</time></trkpt><trkpt lat="43.87510243730613" lon="12.126234997421667"><ele>759.0</ele><time>2026-04-05T08:35:08.002Z</time></trkpt><trkpt lat="43.875222307713514" lon="12.126404239289199"><ele>762.5</ele><time>2026-04-05T08:35:09.002Z</time></trkpt><trkpt lat="43.875390290689644" lon="12.126619555647684"><ele>766.0</ele><time>2026-04-05T08:35:10.002Z</time></trkpt><trkpt lat="43.87555933303707" lon="12.12683972542468"><ele>766.0</ele><time>2026-04-05T08:35:11.002Z</time></trkpt><trkpt lat="43.87572831293384" lon="12.127075871137569"><ele>766.0</ele><time>2026-04-05T08:35:12.002Z</time></trkpt><trkpt lat="43.87584778527911" lon="12.127366454292497"><ele>753.0</ele><time>2026-04-05T08:35:13.002Z</time></trkpt><trkpt lat="43.8759810324524" lon="12.127633340489387"><ele>740.0</ele><time>2026-04-05T08:35:14.002Z</time></trkpt><trkpt lat="43.87611819493304" lon="12.127898745091272"><ele>740.0</ele><time>2026-04-05T08:35:15.002Z</time></trkpt><trkpt lat="43.87623197435218" lon="12.128150346652257"><ele>740.0</ele><time>2026-04-05T08:35:16.002Z</time></trkpt><trkpt lat="43.87633109904908" lon="12.128378359829044"><ele>740.0</ele><time>2026-04-05T08:35:17.002Z</time></trkpt><trkpt lat="43.87637652143406" lon="12.128600115439717"><ele>744.6666666666666</ele><time>2026-04-05T08:35:18.002Z</time></trkpt><trkpt lat="43.87646735378757" lon="12.128804288451459"><ele>749.3333333333334</ele><time>2026-04-05T08:35:19.002Z</time></trkpt><trkpt lat="43.876580622423205" lon="12.128960236907515"><ele>754.0</ele><time>2026-04-05T08:35:20.002Z</time></trkpt><trkpt lat="43.87667476221918" lon="12.129067799157916"><ele>750.75</ele><time>2026-04-05T08:35:21.002Z</time></trkpt><trkpt lat="43.876725228066455" lon="12.129213349383479"><ele>747.5</ele><time>2026-04-05T08:35:22.002Z</time></trkpt><trkpt lat="43.87675849507392" lon="12.129379142959214"><ele>744.25</ele><time>2026-04-05T08:35:23.002Z</time></trkpt><trkpt lat="43.87681452029" lon="12.129556927512894"><ele>741.0</ele><time>2026-04-05T08:35:24.002Z</time></trkpt><trkpt lat="43.876800907372534" lon="12.129771878596083"><ele>747.5</ele><time>2026-04-05T08:35:25.002Z</time></trkpt><trkpt lat="43.87682741865983" lon="12.129963311412656"><ele>754.0</ele><time>2026-04-05T08:35:26.002Z</time></trkpt><trkpt lat="43.87689399288152" lon="12.130142039589359"><ele>760.5</ele><time>2026-04-05T08:35:27.002Z</time></trkpt><trkpt lat="43.87698401747942" lon="12.130316980785663"><ele>767.0</ele><time>2026-04-05T08:35:28.002Z</time></trkpt><trkpt lat="43.877065286478846" lon="12.13046659974539"><ele>767.0</ele><time>2026-04-05T08:35:29.002Z</time></trkpt><trkpt lat="43.87708343349173" lon="12.130591257587172"><ele>767.0</ele><time>2026-04-05T08:35:30.002Z</time></trkpt><trkpt lat="43.87710065566733" lon="12.13070020365487"><ele>767.0</ele><time>2026-04-05T08:35:32.002Z</time></trkpt><trkpt lat="43.87716049441292" lon="12.130813174057874"><ele>767.0</ele><time>2026-04-05T08:35:35.002Z</time></trkpt><trkpt lat="43.87722168986079" lon="12.130907045115066"><ele>767.0</ele><time>2026-04-05T08:35:36.002Z</time></trkpt><trkpt lat="43.8773163862393" lon="12.130992521197083"><ele>770.75</ele><time>2026-04-05T08:35:37.002Z</time></trkpt><trkpt lat="43.8774346494093" lon="12.131087068348563"><ele>774.5</ele><time>2026-04-05T08:35:38.002Z</time></trkpt><trkpt lat="43.877537270941204" lon="12.13119869204374"><ele>778.25</ele><time>2026-04-05T08:35:39.002Z</time></trkpt><trkpt lat="43.877627533380995" lon="12.131316574303588"><ele>782.0</ele><time>2026-04-05T08:35:40.002Z</time></trkpt><trkpt lat="43.87769810418654" lon="12.131445060487366"><ele>783.75</ele><time>2026-04-05T08:35:41.002Z</time></trkpt><trkpt lat="43.87773745046174" lon="12.131619774038134"><ele>785.5</ele><time>2026-04-05T08:35:42.002Z</time></trkpt><trkpt lat="43.87779357732383" lon="12.131790144881272"><ele>787.25</ele><time>2026-04-05T08:35:43.002Z</time></trkpt><trkpt lat="43.87783499614314" lon="12.131955191956243"><ele>789.0</ele><time>2026-04-05T08:35:44.002Z</time></trkpt><trkpt lat="43.877870058189615" lon="12.132127175012482"><ele>789.0</ele><time>2026-04-05T08:35:45.002Z</time></trkpt><trkpt lat="43.87789506657016" lon="12.132292168303817"><ele>789.0</ele><time>2026-04-05T08:35:46.002Z</time></trkpt><trkpt lat="43.877903106083274" lon="12.1324593820916"><ele>789.0</ele><time>2026-04-05T08:35:47.002Z</time></trkpt><trkpt lat="43.87788505551731" lon="12.132625938398164"><ele>789.0</ele><time>2026-04-05T08:35:48.002Z</time></trkpt><trkpt lat="43.87783452021859" lon="12.132792172146575"><ele>786.5</ele><time>2026-04-05T08:35:49.002Z</time></trkpt><trkpt lat="43.87780311611454" lon="12.132953967924697"><ele>784.0</ele><time>2026-04-05T08:35:50.002Z</time></trkpt><trkpt lat="43.8777652940583" lon="12.133109467362738"><ele>781.5</ele><time>2026-04-05T08:35:51.002Z</time></trkpt><trkpt lat="43.87777413557877" lon="12.133269598413925"><ele>779.0</ele><time>2026-04-05T08:35:52.002Z</time></trkpt><trkpt lat="43.8778057651685" lon="12.133433518086152"><ele>778.5</ele><time>2026-04-05T08:35:53.002Z</time></trkpt><trkpt lat="43.8778547247118" lon="12.133593857016283"><ele>778.0</ele><time>2026-04-05T08:35:54.002Z</time></trkpt><trkpt lat="43.87790079937754" lon="12.133742670119737"><ele>777.5</ele><time>2026-04-05T08:35:55.002Z</time></trkpt><trkpt lat="43.877934022358815" lon="12.133916690803373"><ele>777.0</ele><time>2026-04-05T08:35:56.002Z</time></trkpt><trkpt lat="43.87796573447776" lon="12.13407390283117"><ele>776.8</ele><time>2026-04-05T08:35:57.002Z</time></trkpt><trkpt lat="43.87798858793429" lon="12.134231692291266"><ele>776.6</ele><time>2026-04-05T08:35:58.002Z</time></trkpt><trkpt lat="43.878010714859855" lon="12.134376739038405"><ele>776.4</ele><time>2026-04-05T08:35:59.002Z</time></trkpt><trkpt lat="43.87805073453478" lon="12.13451023583886"><ele>776.1999999999999</ele><time>2026-04-05T08:36:00.002Z</time></trkpt><trkpt lat="43.87811496910218" lon="12.134624053101994"><ele>776.0</ele><time>2026-04-05T08:36:01.002Z</time></trkpt><trkpt lat="43.8781954041177" lon="12.134726041427056"><ele>776.0</ele><time>2026-04-05T08:36:02.002Z</time></trkpt><trkpt lat="43.87827657517418" lon="12.134845125667315"><ele>776.0</ele><time>2026-04-05T08:36:03.002Z</time></trkpt><trkpt lat="43.878330003486504" lon="12.13498420710756"><ele>776.0</ele><time>2026-04-05T08:36:04.002Z</time></trkpt><trkpt lat="43.87833061272998" lon="12.135144244692507"><ele>776.0</ele><time>2026-04-05T08:36:05.002Z</time></trkpt><trkpt lat="43.87834871832657" lon="12.135314162664104"><ele>775.25</ele><time>2026-04-05T08:36:06.003Z</time></trkpt><trkpt lat="43.878368174831486" lon="12.135479508271043"><ele>774.5</ele><time>2026-04-05T08:36:07.003Z</time></trkpt><trkpt lat="43.878397891369694" lon="12.135647092398754"><ele>773.75</ele><time>2026-04-05T08:36:08.003Z</time></trkpt><trkpt lat="43.87841013789556" lon="12.135817171299607"><ele>773.0</ele><time>2026-04-05T08:36:09.003Z</time></trkpt><trkpt lat="43.87842641878905" lon="12.135971814305409"><ele>770.5</ele><time>2026-04-05T08:36:10.003Z</time></trkpt><trkpt lat="43.878471016751384" lon="12.136083888165217"><ele>768.0</ele><time>2026-04-05T08:36:11.003Z</time></trkpt><trkpt lat="43.87854801689602" lon="12.136162536774783"><ele>765.5</ele><time>2026-04-05T08:36:12.003Z</time></trkpt><trkpt lat="43.87867566657092" lon="12.136207371216447"><ele>763.0</ele><time>2026-04-05T08:36:13.003Z</time></trkpt><trkpt lat="43.87880154777078" lon="12.136269725408662"><ele>763.0</ele><time>2026-04-05T08:36:14.003Z</time></trkpt><trkpt lat="43.878894886996875" lon="12.136321684318377"><ele>763.0</ele><time>2026-04-05T08:36:15.003Z</time></trkpt><trkpt lat="43.878973660748485" lon="12.136324032979521"><ele>763.0</ele><time>2026-04-05T08:36:16.003Z</time></trkpt><trkpt lat="43.879040941939884" lon="12.136294670561917"><ele>763.0</ele><time>2026-04-05T08:36:17.003Z</time></trkpt><trkpt lat="43.879074300161584" lon="12.136157242191596"><ele>763.0</ele><time>2026-04-05T08:36:18.003Z</time></trkpt><trkpt lat="43.87908573939601" lon="12.136006824818562"><ele>763.0</ele><time>2026-04-05T08:36:19.003Z</time></trkpt><trkpt lat="43.87913264073224" lon="12.135870998477458"><ele>763.0</ele><time>2026-04-05T08:36:20.003Z</time></trkpt><trkpt lat="43.87920292523874" lon="12.13574394787783"><ele>763.0</ele><time>2026-04-05T08:36:21.003Z</time></trkpt><trkpt lat="43.879301014082586" lon="12.135624541541445"><ele>763.0</ele><time>2026-04-05T08:36:22.003Z</time></trkpt><trkpt lat="43.87940140726914" lon="12.135489950924441"><ele>755.8</ele><time>2026-04-05T08:36:23.003Z</time></trkpt><trkpt lat="43.87948505440255" lon="12.13536686166539"><ele>748.5999999999999</ele><time>2026-04-05T08:36:24.003Z</time></trkpt><trkpt lat="43.87952470162415" lon="12.135244843689234"><ele>741.4000000000001</ele><time>2026-04-05T08:36:25.003Z</time></trkpt><trkpt lat="43.879531679506506" lon="12.135125158674672"><ele>734.2</ele><time>2026-04-05T08:36:26.003Z</time></trkpt><trkpt lat="43.87951293883396" lon="12.134975627900156"><ele>727.0</ele><time>2026-04-05T08:36:27.003Z</time></trkpt><trkpt lat="43.879500368043715" lon="12.134865680552274"><ele>732.0</ele><time>2026-04-05T08:36:28.003Z</time></trkpt><trkpt lat="43.87947889706192" lon="12.134738958674571"><ele>737.0</ele><time>2026-04-05T08:36:29.003Z</time></trkpt><trkpt lat="43.87940888296306" lon="12.134621887499842"><ele>742.0</ele><time>2026-04-05T08:36:30.003Z</time></trkpt><trkpt lat="43.87928597357603" lon="12.134573153638202"><ele>747.0</ele><time>2026-04-05T08:36:31.003Z</time></trkpt><trkpt lat="43.87916257038859" lon="12.134535054492426"><ele>747.0</ele><time>2026-04-05T08:36:32.003Z</time></trkpt><trkpt lat="43.879066416443095" lon="12.13448161877648"><ele>747.0</ele><time>2026-04-05T08:36:33.003Z</time></trkpt><trkpt lat="43.8790164802099" lon="12.134357359731265"><ele>747.0</ele><time>2026-04-05T08:36:34.003Z</time></trkpt><trkpt lat="43.87898891528837" lon="12.134180940370149"><ele>747.0</ele><time>2026-04-05T08:36:35.003Z</time></trkpt><trkpt lat="43.878955035267744" lon="12.133953553036857"><ele>743.25</ele><time>2026-04-05T08:36:36.003Z</time></trkpt><trkpt lat="43.87889677587797" lon="12.133717735091752"><ele>739.5</ele><time>2026-04-05T08:36:37.003Z</time></trkpt><trkpt lat="43.878826311809085" lon="12.133553829469284"><ele>735.75</ele><time>2026-04-05T08:36:38.003Z</time></trkpt><trkpt lat="43.878803933488896" lon="12.133418000370092"><ele>732.0</ele><time>2026-04-05T08:36:39.003Z</time></trkpt><trkpt lat="43.87883496243168" lon="12.13326660680439"><ele>733.0</ele><time>2026-04-05T08:36:40.003Z</time></trkpt><trkpt lat="43.878896884307245" lon="12.133125568290735"><ele>734.0</ele><time>2026-04-05T08:36:41.003Z</time></trkpt><trkpt lat="43.87897234663259" lon="12.132955302639479"><ele>735.0</ele><time>2026-04-05T08:36:42.003Z</time></trkpt><trkpt lat="43.879019581301804" lon="12.132764950234355"><ele>736.0</ele><time>2026-04-05T08:36:43.003Z</time></trkpt><trkpt lat="43.87900808982821" lon="12.13259212972086"><ele>736.0</ele><time>2026-04-05T08:36:44.003Z</time></trkpt><trkpt lat="43.879047381347775" lon="12.132428983152511"><ele>736.0</ele><time>2026-04-05T08:36:45.003Z</time></trkpt><trkpt lat="43.8791623107706" lon="12.132222730672645"><ele>736.0</ele><time>2026-04-05T08:36:46.003Z</time></trkpt><trkpt lat="43.87923348731762" lon="12.131987401271154"><ele>729.5</ele><time>2026-04-05T08:36:47.003Z</time></trkpt><trkpt lat="43.8793226585964" lon="12.13181995402837"><ele>723.0</ele><time>2026-04-05T08:36:48.003Z</time></trkpt><trkpt lat="43.879411278905685" lon="12.131731207080707"><ele>716.5</ele><time>2026-04-05T08:36:49.003Z</time></trkpt><trkpt lat="43.87951314865804" lon="12.13170748633128"><ele>710.0</ele><time>2026-04-05T08:36:50.003Z</time></trkpt><trkpt lat="43.8796714679431" lon="12.131661021854931"><ele>710.0</ele><time>2026-04-05T08:36:51.002Z</time></trkpt><trkpt lat="43.879813535358764" lon="12.131587379750147"><ele>710.0</ele><time>2026-04-05T08:36:52.002Z</time></trkpt><trkpt lat="43.87991440493281" lon="12.131515730429333"><ele>710.0</ele><time>2026-04-05T08:36:53.002Z</time></trkpt><trkpt lat="43.880015127266255" lon="12.131450560660744"><ele>710.0</ele><time>2026-04-05T08:36:54.002Z</time></trkpt><trkpt lat="43.8800685331875" lon="12.131320564966082"><ele>711.4</ele><time>2026-04-05T08:36:55.002Z</time></trkpt><trkpt lat="43.880073889830356" lon="12.131208293085852"><ele>712.8</ele><time>2026-04-05T08:36:56.002Z</time></trkpt><trkpt lat="43.88004065945072" lon="12.131045806648112"><ele>714.2</ele><time>2026-04-05T08:36:57.002Z</time></trkpt><trkpt lat="43.88003836513242" lon="12.130899828780496"><ele>715.6</ele><time>2026-04-05T08:36:58.002Z</time></trkpt><trkpt lat="43.88007221746818" lon="12.130771970278266"><ele>717.0</ele><time>2026-04-05T08:36:59.002Z</time></trkpt><trkpt lat="43.8801451075955" lon="12.130689016952138"><ele>717.0</ele><time>2026-04-05T08:37:00.002Z</time></trkpt><trkpt lat="43.88026816846623" lon="12.130658606448112"><ele>717.0</ele><time>2026-04-05T08:37:01.002Z</time></trkpt><trkpt lat="43.880405900923506" lon="12.130568666072342"><ele>717.0</ele><time>2026-04-05T08:37:02.002Z</time></trkpt><trkpt lat="43.880576351806255" lon="12.130455373481947"><ele>717.0</ele><time>2026-04-05T08:37:03.002Z</time></trkpt><trkpt lat="43.880742149009066" lon="12.130391310668026"><ele>717.0</ele><time>2026-04-05T08:37:04.002Z</time></trkpt><trkpt lat="43.880909330264934" lon="12.130391627629956"><ele>717.0</ele><time>2026-04-05T08:37:05.002Z</time></trkpt><trkpt lat="43.881091934001134" lon="12.130395276543014"><ele>708.6666666666666</ele><time>2026-04-05T08:37:06.002Z</time></trkpt><trkpt lat="43.88127395357895" lon="12.130427776678921"><ele>700.3333333333333</ele><time>2026-04-05T08:37:07.002Z</time></trkpt><trkpt lat="43.88143339736819" lon="12.130487985208125"><ele>692.0</ele><time>2026-04-05T08:37:08.002Z</time></trkpt><trkpt lat="43.88158508966433" lon="12.13049774021452"><ele>692.0</ele><time>2026-04-05T08:37:09.002Z</time></trkpt><trkpt lat="43.88174453443708" lon="12.130586037844708"><ele>692.0</ele><time>2026-04-05T08:37:10.002Z</time></trkpt><trkpt lat="43.88187577622156" lon="12.130708732762288"><ele>692.0</ele><time>2026-04-05T08:37:11.002Z</time></trkpt><trkpt lat="43.88201682922598" lon="12.130782650018316"><ele>690.0</ele><time>2026-04-05T08:37:12.002Z</time></trkpt><trkpt lat="43.88213938542273" lon="12.130817715662872"><ele>688.0</ele><time>2026-04-05T08:37:13.002Z</time></trkpt><trkpt lat="43.882278128062545" lon="12.130790315048099"><ele>686.0</ele><time>2026-04-05T08:37:14.002Z</time></trkpt><trkpt lat="43.88243305764189" lon="12.130749774816415"><ele>684.0</ele><time>2026-04-05T08:37:15.002Z</time></trkpt><trkpt lat="43.88258333356899" lon="12.130721937585918"><ele>680.0</ele><time>2026-04-05T08:37:16.002Z</time></trkpt><trkpt lat="43.88270313686166" lon="12.130697467762833"><ele>676.0</ele><time>2026-04-05T08:37:17.002Z</time></trkpt><trkpt lat="43.88281373071917" lon="12.130682444969842"><ele>672.0</ele><time>2026-04-05T08:37:18.002Z</time></trkpt><trkpt lat="43.88293710685016" lon="12.130716331669666"><ele>668.0</ele><time>2026-04-05T08:37:19.002Z</time></trkpt><trkpt lat="43.88304750788534" lon="12.13077591720281"><ele>668.0</ele><time>2026-04-05T08:37:20.002Z</time></trkpt><trkpt lat="43.883126441451004" lon="12.130887554096223"><ele>668.0</ele><time>2026-04-05T08:37:21.002Z</time></trkpt><trkpt lat="43.88318405845485" lon="12.131018194083602"><ele>668.0</ele><time>2026-04-05T08:37:22.002Z</time></trkpt><trkpt lat="43.88323620618137" lon="12.131082051618323"><ele>668.0</ele><time>2026-04-05T08:37:23.002Z</time></trkpt><trkpt lat="43.88330463206909" lon="12.131105473705421"><ele>668.0</ele><time>2026-04-05T08:37:24.002Z</time></trkpt><trkpt lat="43.883391331375485" lon="12.131018562101263"><ele>668.0</ele><time>2026-04-05T08:37:26.002Z</time></trkpt><trkpt lat="43.883342529809184" lon="12.130863072884814"><ele>668.0</ele><time>2026-04-05T08:37:28.002Z</time></trkpt><trkpt lat="43.883257393864795" lon="12.130780659378635"><ele>668.0</ele><time>2026-04-05T08:37:29.002Z</time></trkpt><trkpt lat="43.88315299121461" lon="12.130691097926753"><ele>668.0</ele><time>2026-04-05T08:37:30.002Z</time></trkpt><trkpt lat="43.88306037103213" lon="12.130587841608216"><ele>663.4</ele><time>2026-04-05T08:37:31.002Z</time></trkpt><trkpt lat="43.88298239941327" lon="12.130488484723822"><ele>658.8</ele><time>2026-04-05T08:37:32.002Z</time></trkpt><trkpt lat="43.88290593829453" lon="12.130387221684499"><ele>654.2</ele><time>2026-04-05T08:37:33.002Z</time></trkpt><trkpt lat="43.882828473199964" lon="12.130288820702054"><ele>649.6</ele><time>2026-04-05T08:37:34.002Z</time></trkpt><trkpt lat="43.88275064052617" lon="12.130189480959713"><ele>645.0</ele><time>2026-04-05T08:37:35.002Z</time></trkpt><trkpt lat="43.882690823751346" lon="12.130071363297896"><ele>645.0</ele><time>2026-04-05T08:37:36.002Z</time></trkpt><trkpt lat="43.88262192190175" lon="12.12997105511545"><ele>645.0</ele><time>2026-04-05T08:37:37.002Z</time></trkpt><trkpt lat="43.88256335723735" lon="12.129877199881467"><ele>645.0</ele><time>2026-04-05T08:37:38.002Z</time></trkpt><trkpt lat="43.88249629550509" lon="12.129797531517836"><ele>645.0</ele><time>2026-04-05T08:37:39.002Z</time></trkpt><trkpt lat="43.88245565720062" lon="12.129708313068152"><ele>645.0</ele><time>2026-04-05T08:37:40.002Z</time></trkpt><trkpt lat="43.88245833483361" lon="12.12956203300253"><ele>645.0</ele><time>2026-04-05T08:37:42.002Z</time></trkpt><trkpt lat="43.88253868517169" lon="12.12950424540901"><ele>645.0</ele><time>2026-04-05T08:37:44.002Z</time></trkpt><trkpt lat="43.88262059477829" lon="12.129637254004322"><ele>645.0</ele><time>2026-04-05T08:37:45.002Z</time></trkpt><trkpt lat="43.88265728903795" lon="12.129740500907628"><ele>645.0</ele><time>2026-04-05T08:37:46.002Z</time></trkpt><trkpt lat="43.88269361778746" lon="12.129846216745273"><ele>645.0</ele><time>2026-04-05T08:37:47.002Z</time></trkpt><trkpt lat="43.88273882660464" lon="12.129923159192522"><ele>645.0</ele><time>2026-04-05T08:37:48.002Z</time></trkpt><trkpt lat="43.88279999532906" lon="12.13000323038026"><ele>645.0</ele><time>2026-04-05T08:37:49.002Z</time></trkpt><trkpt lat="43.882863111351085" lon="12.130073356098693"><ele>645.0</ele><time>2026-04-05T08:37:50.002Z</time></trkpt><trkpt lat="43.88292787607695" lon="12.130126418767937"><ele>645.0</ele><time>2026-04-05T08:37:51.002Z</time></trkpt><trkpt lat="43.88300433930702" lon="12.130178787010172"><ele>645.0</ele><time>2026-04-05T08:37:52.002Z</time></trkpt><trkpt lat="43.88306569341119" lon="12.130242262824854"><ele>645.0</ele><time>2026-04-05T08:37:53.002Z</time></trkpt><trkpt lat="43.8831275387233" lon="12.130318311993138"><ele>645.0</ele><time>2026-04-05T08:37:54.002Z</time></trkpt><trkpt lat="43.88319647755815" lon="12.130378521266412"><ele>645.0</ele><time>2026-04-05T08:37:55.002Z</time></trkpt><trkpt lat="43.883275111719065" lon="12.130422761250482"><ele>645.0</ele><time>2026-04-05T08:37:56.002Z</time></trkpt><trkpt lat="43.8833570332767" lon="12.130457098424325"><ele>645.0</ele><time>2026-04-05T08:37:57.002Z</time></trkpt><trkpt lat="43.88344035222386" lon="12.130478463863682"><ele>645.0</ele><time>2026-04-05T08:37:58.002Z</time></trkpt><trkpt lat="43.883527091385226" lon="12.130448686363145"><ele>645.0</ele><time>2026-04-05T08:37:59.002Z</time></trkpt><trkpt lat="43.88359878346538" lon="12.130367288448863"><ele>638.6666666666666</ele><time>2026-04-05T08:38:00.002Z</time></trkpt><trkpt lat="43.88367195723057" lon="12.130314771504457"><ele>632.3333333333333</ele><time>2026-04-05T08:38:01.002Z</time></trkpt><trkpt lat="43.883809206568976" lon="12.130286188370379"><ele>626.0</ele><time>2026-04-05T08:38:03.002Z</time></trkpt><trkpt lat="43.88401640676565" lon="12.130524532822223"><ele>626.0</ele><time>2026-04-05T08:38:07.002Z</time></trkpt><trkpt lat="43.884071662380755" lon="12.13057276715382"><ele>626.0</ele><time>2026-04-05T08:38:08.002Z</time></trkpt><trkpt lat="43.88411973482717" lon="12.1306344727666"><ele>626.0</ele><time>2026-04-05T08:38:09.002Z</time></trkpt><trkpt lat="43.884166732861594" lon="12.130702272517846"><ele>626.0</ele><time>2026-04-05T08:38:10.002Z</time></trkpt><trkpt lat="43.88420950254615" lon="12.130770478589357"><ele>626.0</ele><time>2026-04-05T08:38:11.002Z</time></trkpt><trkpt lat="43.88429270597453" lon="12.1308810540504"><ele>626.0</ele><time>2026-04-05T08:38:13.002Z</time></trkpt><trkpt lat="43.88435054585814" lon="12.130939435894222"><ele>628.8</ele><time>2026-04-05T08:38:14.002Z</time></trkpt><trkpt lat="43.884410713046236" lon="12.130983271689969"><ele>631.6</ele><time>2026-04-05T08:38:15.002Z</time></trkpt><trkpt lat="43.88447303579355" lon="12.13099643172832"><ele>634.4</ele><time>2026-04-05T08:38:16.002Z</time></trkpt><trkpt lat="43.88460762647832" lon="12.130999838308702"><ele>637.2</ele><time>2026-04-05T08:38:18.002Z</time></trkpt><trkpt lat="43.88468954553362" lon="12.130974326922038"><ele>640.0</ele><time>2026-04-05T08:38:19.002Z</time></trkpt><trkpt lat="43.88478759477909" lon="12.130943197938693"><ele>640.0</ele><time>2026-04-05T08:38:20.002Z</time></trkpt><trkpt lat="43.88489351415309" lon="12.130907086979429"><ele>640.0</ele><time>2026-04-05T08:38:21.002Z</time></trkpt><trkpt lat="43.88500108929476" lon="12.13085070438869"><ele>640.0</ele><time>2026-04-05T08:38:22.002Z</time></trkpt><trkpt lat="43.88509167717696" lon="12.130785314295967"><ele>640.0</ele><time>2026-04-05T08:38:23.002Z</time></trkpt><trkpt lat="43.885170498381775" lon="12.130712138919279"><ele>640.0</ele><time>2026-04-05T08:38:24.002Z</time></trkpt><trkpt lat="43.885239953733866" lon="12.130639306918248"><ele>634.4</ele><time>2026-04-05T08:38:25.002Z</time></trkpt><trkpt lat="43.88532353343408" lon="12.130613235024624"><ele>628.8</ele><time>2026-04-05T08:38:26.002Z</time></trkpt><trkpt lat="43.88541771154723" lon="12.130619631199139"><ele>623.2</ele><time>2026-04-05T08:38:27.002Z</time></trkpt><trkpt lat="43.88550875209429" lon="12.13060076372919"><ele>617.6</ele><time>2026-04-05T08:38:28.002Z</time></trkpt><trkpt lat="43.88558838825153" lon="12.13052366990628"><ele>612.0</ele><time>2026-04-05T08:38:29.002Z</time></trkpt><trkpt lat="43.885656807972545" lon="12.130428979659111"><ele>612.0</ele><time>2026-04-05T08:38:30.002Z</time></trkpt><trkpt lat="43.88572233619416" lon="12.13033693135879"><ele>612.0</ele><time>2026-04-05T08:38:31.002Z</time></trkpt><trkpt lat="43.88579097965583" lon="12.130257041260172"><ele>612.0</ele><time>2026-04-05T08:38:32.002Z</time></trkpt><trkpt lat="43.88586184576902" lon="12.130195452219818"><ele>612.0</ele><time>2026-04-05T08:38:33.002Z</time></trkpt><trkpt lat="43.88593558567797" lon="12.1301906031511"><ele>612.0</ele><time>2026-04-05T08:38:34.002Z</time></trkpt><trkpt lat="43.88600762409186" lon="12.13026258678079"><ele>612.0</ele><time>2026-04-05T08:38:35.002Z</time></trkpt><trkpt lat="43.8860810670088" lon="12.130349237182672"><ele>612.0</ele><time>2026-04-05T08:38:36.002Z</time></trkpt><trkpt lat="43.88614900977963" lon="12.130402489071038"><ele>612.0</ele><time>2026-04-05T08:38:37.002Z</time></trkpt><trkpt lat="43.88626266660826" lon="12.130306104316823"><ele>612.0</ele><time>2026-04-05T08:38:38.002Z</time></trkpt><trkpt lat="43.88635573094712" lon="12.130256708897969"><ele>612.0</ele><time>2026-04-05T08:38:39.002Z</time></trkpt><trkpt lat="43.886436885236854" lon="12.130195347391583"><ele>612.0</ele><time>2026-04-05T08:38:40.002Z</time></trkpt><trkpt lat="43.88651532005406" lon="12.130131827811528"><ele>612.0</ele><time>2026-04-05T08:38:41.002Z</time></trkpt><trkpt lat="43.88662085512409" lon="12.130131193870183"><ele>612.0</ele><time>2026-04-05T08:38:42.002Z</time></trkpt><trkpt lat="43.88675347810629" lon="12.13021170210933"><ele>612.0</ele><time>2026-04-05T08:38:43.002Z</time></trkpt><trkpt lat="43.886872065431504" lon="12.130231424029319"><ele>612.0</ele><time>2026-04-05T08:38:44.002Z</time></trkpt><trkpt lat="43.88696722525589" lon="12.130301459434966"><ele>608.5</ele><time>2026-04-05T08:38:45.002Z</time></trkpt><trkpt lat="43.887042576751604" lon="12.130452257802736"><ele>605.0</ele><time>2026-04-05T08:38:46.002Z</time></trkpt><trkpt lat="43.88714186820357" lon="12.130533363547144"><ele>601.5</ele><time>2026-04-05T08:38:47.003Z</time></trkpt><trkpt lat="43.887235961241736" lon="12.130536584853582"><ele>598.0</ele><time>2026-04-05T08:38:48.003Z</time></trkpt><trkpt lat="43.8873573463015" lon="12.130408468817931"><ele>598.0</ele><time>2026-04-05T08:38:49.003Z</time></trkpt><trkpt lat="43.88751692602451" lon="12.130293353700704"><ele>598.0</ele><time>2026-04-05T08:38:50.002Z</time></trkpt><trkpt lat="43.88767225829954" lon="12.130193890210595"><ele>598.0</ele><time>2026-04-05T08:38:51.002Z</time></trkpt><trkpt lat="43.887816893694044" lon="12.130113804980487"><ele>597.6666666666667</ele><time>2026-04-05T08:38:52.002Z</time></trkpt><trkpt lat="43.88796481327915" lon="12.130068015888352"><ele>597.3333333333334</ele><time>2026-04-05T08:38:53.002Z</time></trkpt><trkpt lat="43.888113014259275" lon="12.12991375679427"><ele>597.0</ele><time>2026-04-05T08:38:54.002Z</time></trkpt><trkpt lat="43.8882464420891" lon="12.129747963929876"><ele>591.25</ele><time>2026-04-05T08:38:55.002Z</time></trkpt><trkpt lat="43.888368542420764" lon="12.129595230235696"><ele>585.5</ele><time>2026-04-05T08:38:56.002Z</time></trkpt><trkpt lat="43.888482346288335" lon="12.129472034126511"><ele>579.75</ele><time>2026-04-05T08:38:57.002Z</time></trkpt><trkpt lat="43.888584602997284" lon="12.129393444079742"><ele>574.0</ele><time>2026-04-05T08:38:58.002Z</time></trkpt><trkpt lat="43.888654331683064" lon="12.129327726464298"><ele>573.5</ele><time>2026-04-05T08:38:59.002Z</time></trkpt><trkpt lat="43.88874156507103" lon="12.12933433243453"><ele>573.0</ele><time>2026-04-05T08:39:00.002Z</time></trkpt><trkpt lat="43.88882770696889" lon="12.129431333367336"><ele>572.5</ele><time>2026-04-05T08:39:01.002Z</time></trkpt><trkpt lat="43.888955748440935" lon="12.129520583591674"><ele>572.0</ele><time>2026-04-05T08:39:02.001Z</time></trkpt><trkpt lat="43.889080609887145" lon="12.129658798872027"><ele>572.0</ele><time>2026-04-05T08:39:03.001Z</time></trkpt><trkpt lat="43.889200240966176" lon="12.12976254926449"><ele>572.0</ele><time>2026-04-05T08:39:04.001Z</time></trkpt><trkpt lat="43.88931075863882" lon="12.129833261537518"><ele>572.0</ele><time>2026-04-05T08:39:05.001Z</time></trkpt><trkpt lat="43.88942343743682" lon="12.129859801339753"><ele>572.0</ele><time>2026-04-05T08:39:06.001Z</time></trkpt><trkpt lat="43.889531618692764" lon="12.129849595035084"><ele>568.75</ele><time>2026-04-05T08:39:07.001Z</time></trkpt><trkpt lat="43.88964720812227" lon="12.129817864359671"><ele>565.5</ele><time>2026-04-05T08:39:08.001Z</time></trkpt><trkpt lat="43.88978688324899" lon="12.12980650768082"><ele>562.25</ele><time>2026-04-05T08:39:09.001Z</time></trkpt><trkpt lat="43.88992311082265" lon="12.129804604788452"><ele>559.0</ele><time>2026-04-05T08:39:10.001Z</time></trkpt><trkpt lat="43.89005750966015" lon="12.129830383204869"><ele>559.0</ele><time>2026-04-05T08:39:11.001Z</time></trkpt><trkpt lat="43.89020475220708" lon="12.129889742049395"><ele>559.0</ele><time>2026-04-05T08:39:12.001Z</time></trkpt><trkpt lat="43.89036060207228" lon="12.12997440735132"><ele>559.0</ele><time>2026-04-05T08:39:13.001Z</time></trkpt><trkpt lat="43.89051734696595" lon="12.130071364771405"><ele>564.3333333333334</ele><time>2026-04-05T08:39:14.001Z</time></trkpt><trkpt lat="43.89068263616688" lon="12.130181403582391"><ele>569.6666666666666</ele><time>2026-04-05T08:39:15.001Z</time></trkpt><trkpt lat="43.8908430429518" lon="12.130275355199576"><ele>575.0</ele><time>2026-04-05T08:39:16.001Z</time></trkpt><trkpt lat="43.8910064301157" lon="12.130350495252305"><ele>576.0</ele><time>2026-04-05T08:39:17.001Z</time></trkpt><trkpt lat="43.89117230255369" lon="12.130404501948036"><ele>577.0</ele><time>2026-04-05T08:39:18.001Z</time></trkpt><trkpt lat="43.8913358807367" lon="12.130447460866272"><ele>578.0</ele><time>2026-04-05T08:39:19.001Z</time></trkpt><trkpt lat="43.89149763041835" lon="12.130497519528003"><ele>578.0</ele><time>2026-04-05T08:39:20.001Z</time></trkpt><trkpt lat="43.89165283330268" lon="12.130567039781535"><ele>578.0</ele><time>2026-04-05T08:39:21.001Z</time></trkpt><trkpt lat="43.89180663130215" lon="12.130653593516103"><ele>578.0</ele><time>2026-04-05T08:39:22.001Z</time></trkpt><trkpt lat="43.89195186381571" lon="12.13075218905126"><ele>575.0</ele><time>2026-04-05T08:39:23.001Z</time></trkpt><trkpt lat="43.89208924722396" lon="12.130865235883565"><ele>572.0</ele><time>2026-04-05T08:39:24.001Z</time></trkpt><trkpt lat="43.89221502456814" lon="12.130993520241981"><ele>569.0</ele><time>2026-04-05T08:39:25.001Z</time></trkpt><trkpt lat="43.892337246428276" lon="12.131131075012231"><ele>569.0</ele><time>2026-04-05T08:39:26.001Z</time></trkpt><trkpt lat="43.89246251318754" lon="12.131250613588222"><ele>569.0</ele><time>2026-04-05T08:39:27.001Z</time></trkpt><trkpt lat="43.89258553142245" lon="12.131370630327343"><ele>569.0</ele><time>2026-04-05T08:39:28.001Z</time></trkpt><trkpt lat="43.89268662808741" lon="12.131507362314583"><ele>569.0</ele><time>2026-04-05T08:39:29.001Z</time></trkpt><trkpt lat="43.8927595177747" lon="12.131669341673529"><ele>567.0</ele><time>2026-04-05T08:39:30.001Z</time></trkpt><trkpt lat="43.89280000362172" lon="12.131851923206092"><ele>565.0</ele><time>2026-04-05T08:39:31.001Z</time></trkpt><trkpt lat="43.89284771475584" lon="12.132019422243602"><ele>563.0</ele><time>2026-04-05T08:39:32.001Z</time></trkpt><trkpt lat="43.89293943778975" lon="12.132149464699571"><ele>561.0</ele><time>2026-04-05T08:39:33.001Z</time></trkpt><trkpt lat="43.89305874032451" lon="12.132266606797634"><ele>561.0</ele><time>2026-04-05T08:39:34.001Z</time></trkpt><trkpt lat="43.8931906682941" lon="12.132343042690314"><ele>561.0</ele><time>2026-04-05T08:39:35.001Z</time></trkpt><trkpt lat="43.89334045819843" lon="12.132388745576842"><ele>561.0</ele><time>2026-04-05T08:39:36.001Z</time></trkpt><trkpt lat="43.89350612313915" lon="12.13242230056965"><ele>549.3333333333334</ele><time>2026-04-05T08:39:37.001Z</time></trkpt><trkpt lat="43.8936918000002" lon="12.132438332132581"><ele>537.6666666666667</ele><time>2026-04-05T08:39:38.001Z</time></trkpt><trkpt lat="43.89389433150786" lon="12.132440453987765"><ele>526.0</ele><time>2026-04-05T08:39:39.001Z</time></trkpt><trkpt lat="43.894095852584066" lon="12.13244543396693"><ele>525.6666666666667</ele><time>2026-04-05T08:39:40.001Z</time></trkpt><trkpt lat="43.89427181029381" lon="12.132467391092675"><ele>525.3333333333334</ele><time>2026-04-05T08:39:41.001Z</time></trkpt><trkpt lat="43.89443228981236" lon="12.13250889340336"><ele>525.0</ele><time>2026-04-05T08:39:42.001Z</time></trkpt><trkpt lat="43.894565891792084" lon="12.132630702050497"><ele>525.0</ele><time>2026-04-05T08:39:43.001Z</time></trkpt><trkpt lat="43.89471230557228" lon="12.132754447253955"><ele>525.0</ele><time>2026-04-05T08:39:44.001Z</time></trkpt><trkpt lat="43.89486477068606" lon="12.132836883820257"><ele>525.0</ele><time>2026-04-05T08:39:45.001Z</time></trkpt><trkpt lat="43.89501619271384" lon="12.132864311122752"><ele>519.6666666666666</ele><time>2026-04-05T08:39:46.001Z</time></trkpt><trkpt lat="43.8951949659243" lon="12.132865351824915"><ele>514.3333333333333</ele><time>2026-04-05T08:39:47.001Z</time></trkpt><trkpt lat="43.89534330608607" lon="12.132937211835916"><ele>509.0</ele><time>2026-04-05T08:39:48.001Z</time></trkpt><trkpt lat="43.89548589531327" lon="12.133030923260142"><ele>509.0</ele><time>2026-04-05T08:39:49.001Z</time></trkpt><trkpt lat="43.895616831404126" lon="12.13313639091061"><ele>509.0</ele><time>2026-04-05T08:39:50.001Z</time></trkpt><trkpt lat="43.89574728001723" lon="12.133234040786174"><ele>509.0</ele><time>2026-04-05T08:39:51.001Z</time></trkpt><trkpt lat="43.89585232594023" lon="12.133366412149183"><ele>509.0</ele><time>2026-04-05T08:39:52.001Z</time></trkpt><trkpt lat="43.89591503150957" lon="12.133538684070487"><ele>509.66666666666663</ele><time>2026-04-05T08:39:53.001Z</time></trkpt><trkpt lat="43.89595747366615" lon="12.13374988143474"><ele>510.33333333333337</ele><time>2026-04-05T08:39:54.001Z</time></trkpt><trkpt lat="43.89607151863496" lon="12.133931442937346"><ele>511.0</ele><time>2026-04-05T08:39:55.001Z</time></trkpt><trkpt lat="43.89618741514565" lon="12.1341095407425"><ele>511.0</ele><time>2026-04-05T08:39:56.001Z</time></trkpt><trkpt lat="43.89627259124463" lon="12.134267552151826"><ele>511.0</ele><time>2026-04-05T08:39:57.001Z</time></trkpt><trkpt lat="43.89631515724422" lon="12.134448317092014"><ele>511.0</ele><time>2026-04-05T08:39:58.001Z</time></trkpt><trkpt lat="43.8963051448516" lon="12.134633591413849"><ele>511.0</ele><time>2026-04-05T08:39:59.001Z</time></trkpt><trkpt lat="43.896328348030075" lon="12.134809388396295"><ele>507.5</ele><time>2026-04-05T08:40:00.001Z</time></trkpt><trkpt lat="43.8963657555918" lon="12.134953888251133"><ele>504.0</ele><time>2026-04-05T08:40:01.001Z</time></trkpt><trkpt lat="43.896444725355565" lon="12.135046728438185"><ele>500.5</ele><time>2026-04-05T08:40:02.001Z</time></trkpt><trkpt lat="43.89655243772528" lon="12.135092641781297"><ele>497.0</ele><time>2026-04-05T08:40:03.001Z</time></trkpt><trkpt lat="43.89667500004303" lon="12.135108693330011"><ele>496.0</ele><time>2026-04-05T08:40:04.001Z</time></trkpt><trkpt lat="43.89681832574433" lon="12.135115703215098"><ele>495.0</ele><time>2026-04-05T08:40:05.001Z</time></trkpt><trkpt lat="43.8969596984109" lon="12.135126679909513"><ele>494.0</ele><time>2026-04-05T08:40:06.001Z</time></trkpt><trkpt lat="43.897105469484444" lon="12.135185330621793"><ele>493.0</ele><time>2026-04-05T08:40:07.001Z</time></trkpt><trkpt lat="43.89721456485175" lon="12.13524097035964"><ele>493.0</ele><time>2026-04-05T08:40:08.001Z</time></trkpt><trkpt lat="43.897317645655335" lon="12.135317360011086"><ele>493.0</ele><time>2026-04-05T08:40:09.001Z</time></trkpt><trkpt lat="43.897397788057894" lon="12.135448535927509"><ele>493.0</ele><time>2026-04-05T08:40:10.002Z</time></trkpt><trkpt lat="43.89748923930806" lon="12.135581187240364"><ele>493.0</ele><time>2026-04-05T08:40:11.002Z</time></trkpt><trkpt lat="43.897587048054476" lon="12.135635724061869"><ele>489.75</ele><time>2026-04-05T08:40:12.002Z</time></trkpt><trkpt lat="43.89768412140827" lon="12.135639441627795"><ele>486.5</ele><time>2026-04-05T08:40:13.002Z</time></trkpt><trkpt lat="43.89779561653333" lon="12.135578368607677"><ele>483.25</ele><time>2026-04-05T08:40:14.002Z</time></trkpt><trkpt lat="43.897906108428806" lon="12.135483917458583"><ele>480.0</ele><time>2026-04-05T08:40:15.002Z</time></trkpt><trkpt lat="43.89804682652221" lon="12.135394902345464"><ele>480.0</ele><time>2026-04-05T08:40:16.002Z</time></trkpt><trkpt lat="43.89817555682109" lon="12.135362304426481"><ele>480.0</ele><time>2026-04-05T08:40:17.002Z</time></trkpt><trkpt lat="43.89830803912838" lon="12.135316883056875"><ele>480.0</ele><time>2026-04-05T08:40:18.002Z</time></trkpt><trkpt lat="43.89844627530583" lon="12.135346537108749"><ele>480.0</ele><time>2026-04-05T08:40:19.002Z</time></trkpt><trkpt lat="43.89859042091526" lon="12.135407997518154"><ele>476.33333333333337</ele><time>2026-04-05T08:40:20.002Z</time></trkpt><trkpt lat="43.89874345072211" lon="12.135479384674154"><ele>472.6666666666667</ele><time>2026-04-05T08:40:21.002Z</time></trkpt><trkpt lat="43.89888899291485" lon="12.13554799402524"><ele>469.0</ele><time>2026-04-05T08:40:22.002Z</time></trkpt><trkpt lat="43.89904257772575" lon="12.135633641334682"><ele>469.0</ele><time>2026-04-05T08:40:23.002Z</time></trkpt><trkpt lat="43.89918442229438" lon="12.135716665730595"><ele>469.0</ele><time>2026-04-05T08:40:24.002Z</time></trkpt><trkpt lat="43.899321276407875" lon="12.13580179363145"><ele>469.0</ele><time>2026-04-05T08:40:25.002Z</time></trkpt><trkpt lat="43.89945505938288" lon="12.135888556671068"><ele>465.75</ele><time>2026-04-05T08:40:26.002Z</time></trkpt><trkpt lat="43.89958551634055" lon="12.13597522464082"><ele>462.5</ele><time>2026-04-05T08:40:27.002Z</time></trkpt><trkpt lat="43.89971096014599" lon="12.136058354683078"><ele>459.25</ele><time>2026-04-05T08:40:28.002Z</time></trkpt><trkpt lat="43.899828141818695" lon="12.13614955415303"><ele>456.0</ele><time>2026-04-05T08:40:29.002Z</time></trkpt><trkpt lat="43.89992178966661" lon="12.136233019731744"><ele>456.0</ele><time>2026-04-05T08:40:30.002Z</time></trkpt><trkpt lat="43.899999913973915" lon="12.136289981114322"><ele>456.0</ele><time>2026-04-05T08:40:31.002Z</time></trkpt><trkpt lat="43.90006443082003" lon="12.136303096279317"><ele>456.0</ele><time>2026-04-05T08:40:32.002Z</time></trkpt><trkpt lat="43.90014309632769" lon="12.136235272137704"><ele>456.0</ele><time>2026-04-05T08:40:34.002Z</time></trkpt><trkpt lat="43.90021348886329" lon="12.136203629520546"><ele>456.0</ele><time>2026-04-05T08:40:37.002Z</time></trkpt><trkpt lat="43.900180107110046" lon="12.13604653863763"><ele>456.0</ele><time>2026-04-05T08:40:38.002Z</time></trkpt><trkpt lat="43.9001987710544" lon="12.13588617114512"><ele>454.2857142857143</ele><time>2026-04-05T08:40:40.002Z</time></trkpt><trkpt lat="43.90020759164051" lon="12.13579936876714"><ele>452.57142857142856</ele><time>2026-04-05T08:40:41.002Z</time></trkpt><trkpt lat="43.90023401472471" lon="12.13571278356211"><ele>450.85714285714283</ele><time>2026-04-05T08:40:42.002Z</time></trkpt><trkpt lat="43.90023718289722" lon="12.13562365463394"><ele>449.1428571428571</ele><time>2026-04-05T08:40:43.002Z</time></trkpt><trkpt lat="43.90023318234608" lon="12.135533808690454"><ele>447.42857142857144</ele><time>2026-04-05T08:40:44.002Z</time></trkpt><trkpt lat="43.90017250583963" lon="12.13545092402255"><ele>445.71428571428567</ele><time>2026-04-05T08:40:45.002Z</time></trkpt><trkpt lat="43.90012952133696" lon="12.135361199831054"><ele>444.0</ele><time>2026-04-05T08:40:46.002Z</time></trkpt><trkpt lat="43.900046489977335" lon="12.135293829344004"><ele>444.0</ele><time>2026-04-05T08:40:47.002Z</time></trkpt><trkpt lat="43.900007123776184" lon="12.135155282866574"><ele>444.0</ele><time>2026-04-05T08:40:48.002Z</time></trkpt><trkpt lat="43.89993336236714" lon="12.135012291073638"><ele>444.0</ele><time>2026-04-05T08:40:49.002Z</time></trkpt><trkpt lat="43.89984411790316" lon="12.134882240458461"><ele>444.0</ele><time>2026-04-05T08:40:50.002Z</time></trkpt><trkpt lat="43.89974322960533" lon="12.1347733177541"><ele>437.25</ele><time>2026-04-05T08:40:51.002Z</time></trkpt><trkpt lat="43.89965426208223" lon="12.134645617924477"><ele>430.5</ele><time>2026-04-05T08:40:52.002Z</time></trkpt><trkpt lat="43.89956659874004" lon="12.134516108902666"><ele>423.75</ele><time>2026-04-05T08:40:53.002Z</time></trkpt><trkpt lat="43.899477100678254" lon="12.134375176833348"><ele>417.0</ele><time>2026-04-05T08:40:54.002Z</time></trkpt><trkpt lat="43.8993894914289" lon="12.134252986651743"><ele>417.0</ele><time>2026-04-05T08:40:55.002Z</time></trkpt><trkpt lat="43.89929481916151" lon="12.134128722087041"><ele>417.0</ele><time>2026-04-05T08:40:56.002Z</time></trkpt><trkpt lat="43.899218457477275" lon="12.133982681810645"><ele>417.0</ele><time>2026-04-05T08:40:57.002Z</time></trkpt><trkpt lat="43.899115262924944" lon="12.133861932097012"><ele>417.0</ele><time>2026-04-05T08:40:58.002Z</time></trkpt><trkpt lat="43.89900270513212" lon="12.13378722330058"><ele>417.8333333333333</ele><time>2026-04-05T08:40:59.002Z</time></trkpt><trkpt lat="43.89891991442385" lon="12.133701375716567"><ele>418.66666666666663</ele><time>2026-04-05T08:41:00.002Z</time></trkpt><trkpt lat="43.898862321954184" lon="12.13364218001923"><ele>419.5</ele><time>2026-04-05T08:41:01.002Z</time></trkpt><trkpt lat="43.89885294784255" lon="12.133521888070954"><ele>420.3333333333333</ele><time>2026-04-05T08:41:03.001Z</time></trkpt><trkpt lat="43.89891651989162" lon="12.133486400709272"><ele>421.16666666666663</ele><time>2026-04-05T08:41:04.001Z</time></trkpt><trkpt lat="43.89898983031083" lon="12.133505274326055"><ele>422.0</ele><time>2026-04-05T08:41:05.001Z</time></trkpt><trkpt lat="43.899068365352555" lon="12.13362389025635"><ele>422.0</ele><time>2026-04-05T08:41:06.001Z</time></trkpt><trkpt lat="43.89918327502885" lon="12.133726945940767"><ele>422.0</ele><time>2026-04-05T08:41:07.001Z</time></trkpt><trkpt lat="43.8993213168688" lon="12.133853095559104"><ele>422.0</ele><time>2026-04-05T08:41:08.001Z</time></trkpt><trkpt lat="43.899463475162484" lon="12.13398024339691"><ele>420.3333333333333</ele><time>2026-04-05T08:41:09.001Z</time></trkpt><trkpt lat="43.89958866757658" lon="12.134120434268912"><ele>418.66666666666663</ele><time>2026-04-05T08:41:10.001Z</time></trkpt><trkpt lat="43.89972160944214" lon="12.134226254366382"><ele>417.0</ele><time>2026-04-05T08:41:11.001Z</time></trkpt><trkpt lat="43.89986718892416" lon="12.134291378268085"><ele>417.0</ele><time>2026-04-05T08:41:12.001Z</time></trkpt><trkpt lat="43.90000383095939" lon="12.134380348302578"><ele>417.0</ele><time>2026-04-05T08:41:13.001Z</time></trkpt><trkpt lat="43.900123106178924" lon="12.134496059897105"><ele>417.0</ele><time>2026-04-05T08:41:14.001Z</time></trkpt><trkpt lat="43.9002352987625" lon="12.134577155732128"><ele>417.0</ele><time>2026-04-05T08:41:15.001Z</time></trkpt><trkpt lat="43.90035866093582" lon="12.134586887363945"><ele>413.75</ele><time>2026-04-05T08:41:16.001Z</time></trkpt><trkpt lat="43.900479551165866" lon="12.134536586953969"><ele>410.5</ele><time>2026-04-05T08:41:17.001Z</time></trkpt><trkpt lat="43.90060931087332" lon="12.134444292974422"><ele>407.25</ele><time>2026-04-05T08:41:18.001Z</time></trkpt><trkpt lat="43.90074243532243" lon="12.134322257564987"><ele>404.0</ele><time>2026-04-05T08:41:19.001Z</time></trkpt><trkpt lat="43.90087615145713" lon="12.134195212654033"><ele>403.66666666666663</ele><time>2026-04-05T08:41:20.001Z</time></trkpt><trkpt lat="43.901015749094356" lon="12.134075733852548"><ele>403.33333333333337</ele><time>2026-04-05T08:41:21.001Z</time></trkpt><trkpt lat="43.90115891782028" lon="12.133968740740682"><ele>403.0</ele><time>2026-04-05T08:41:22.001Z</time></trkpt><trkpt lat="43.90129959811277" lon="12.133878845224455"><ele>403.0</ele><time>2026-04-05T08:41:23.001Z</time></trkpt><trkpt lat="43.90144493703333" lon="12.133797312672502"><ele>403.0</ele><time>2026-04-05T08:41:24.001Z</time></trkpt><trkpt lat="43.90158050930629" lon="12.133692377918534"><ele>403.0</ele><time>2026-04-05T08:41:25.001Z</time></trkpt><trkpt lat="43.901690537888854" lon="12.13354417493549"><ele>401.33333333333337</ele><time>2026-04-05T08:41:26.001Z</time></trkpt><trkpt lat="43.90179662985401" lon="12.133373270998748"><ele>399.66666666666663</ele><time>2026-04-05T08:41:27.001Z</time></trkpt><trkpt lat="43.901910173803216" lon="12.133207824274846"><ele>398.0</ele><time>2026-04-05T08:41:28.001Z</time></trkpt><trkpt lat="43.90204084621489" lon="12.13307228746148"><ele>398.0</ele><time>2026-04-05T08:41:29.001Z</time></trkpt><trkpt lat="43.902191720474185" lon="12.132986740021671"><ele>398.0</ele><time>2026-04-05T08:41:30.001Z</time></trkpt><trkpt lat="43.90234070134743" lon="12.132901743549661"><ele>398.0</ele><time>2026-04-05T08:41:31.001Z</time></trkpt><trkpt lat="43.90248720601245" lon="12.1328303197339"><ele>397.5</ele><time>2026-04-05T08:41:32.001Z</time></trkpt><trkpt lat="43.90262648861094" lon="12.132809546505518"><ele>397.0</ele><time>2026-04-05T08:41:33.001Z</time></trkpt><trkpt lat="43.902777555391815" lon="12.132825528442272"><ele>396.5</ele><time>2026-04-05T08:41:34.001Z</time></trkpt><trkpt lat="43.902919012504384" lon="12.132815257384578"><ele>396.0</ele><time>2026-04-05T08:41:35.001Z</time></trkpt><trkpt lat="43.903082557111155" lon="12.132779418675575"><ele>396.0</ele><time>2026-04-05T08:41:36.001Z</time></trkpt><trkpt lat="43.903244904595745" lon="12.132716631447328"><ele>396.0</ele><time>2026-04-05T08:41:37.001Z</time></trkpt><trkpt lat="43.90340205533222" lon="12.132654821332265"><ele>396.0</ele><time>2026-04-05T08:41:38.001Z</time></trkpt><trkpt lat="43.90355173851163" lon="12.132575363808924"><ele>397.75</ele><time>2026-04-05T08:41:39.001Z</time></trkpt><trkpt lat="43.90368830111352" lon="12.132466204374595"><ele>399.5</ele><time>2026-04-05T08:41:40.001Z</time></trkpt><trkpt lat="43.903812818292515" lon="12.132387488604797"><ele>401.25</ele><time>2026-04-05T08:41:41.001Z</time></trkpt><trkpt lat="43.90391119435628" lon="12.132235355187806"><ele>403.0</ele><time>2026-04-05T08:41:42.001Z</time></trkpt><trkpt lat="43.90398591834573" lon="12.132066383697135"><ele>403.0</ele><time>2026-04-05T08:41:43.001Z</time></trkpt><trkpt lat="43.90401010898532" lon="12.131837979757895"><ele>403.0</ele><time>2026-04-05T08:41:44.001Z</time></trkpt><trkpt lat="43.90401184054903" lon="12.131566945564417"><ele>403.0</ele><time>2026-04-05T08:41:45.001Z</time></trkpt><trkpt lat="43.90406217191655" lon="12.131322111305387"><ele>398.0</ele><time>2026-04-05T08:41:46.001Z</time></trkpt><trkpt lat="43.90413632802134" lon="12.131107574568802"><ele>393.0</ele><time>2026-04-05T08:41:47.001Z</time></trkpt><trkpt lat="43.904209355015894" lon="12.130870270897224"><ele>388.0</ele><time>2026-04-05T08:41:48.001Z</time></trkpt><trkpt lat="43.90423264039295" lon="12.130647407179353"><ele>384.0</ele><time>2026-04-05T08:41:49.001Z</time></trkpt><trkpt lat="43.90423096831944" lon="12.130415166987708"><ele>380.0</ele><time>2026-04-05T08:41:50.001Z</time></trkpt><trkpt lat="43.90418773141536" lon="12.130168547634362"><ele>376.0</ele><time>2026-04-05T08:41:51.001Z</time></trkpt><trkpt lat="43.904124265223" lon="12.129913991373927"><ele>374.66666666666663</ele><time>2026-04-05T08:41:52.001Z</time></trkpt><trkpt lat="43.90404982277459" lon="12.129688196108889"><ele>373.3333333333333</ele><time>2026-04-05T08:41:53.001Z</time></trkpt><trkpt lat="43.903942750918375" lon="12.129462539873815"><ele>372.0</ele><time>2026-04-05T08:41:54.001Z</time></trkpt><trkpt lat="43.903841013853544" lon="12.129247727368783"><ele>372.0</ele><time>2026-04-05T08:41:55.001Z</time></trkpt><trkpt lat="43.903761243597536" lon="12.12907164813405"><ele>372.0</ele><time>2026-04-05T08:41:56.001Z</time></trkpt><trkpt lat="43.9037036204349" lon="12.128906642518919"><ele>372.0</ele><time>2026-04-05T08:41:57.001Z</time></trkpt><trkpt lat="43.90367232599116" lon="12.128750963123364"><ele>372.0</ele><time>2026-04-05T08:41:58.001Z</time></trkpt><trkpt lat="43.90367448216354" lon="12.12859452266176"><ele>371.0</ele><time>2026-04-05T08:41:59.001Z</time></trkpt><trkpt lat="43.90370040704263" lon="12.128443085484141"><ele>370.0</ele><time>2026-04-05T08:42:00.001Z</time></trkpt><trkpt lat="43.903757759097054" lon="12.128306116458162"><ele>369.0</ele><time>2026-04-05T08:42:01.001Z</time></trkpt><trkpt lat="43.90381626457227" lon="12.128180291030624"><ele>368.0</ele><time>2026-04-05T08:42:02.001Z</time></trkpt><trkpt lat="43.90384937824332" lon="12.128081335532055"><ele>367.0</ele><time>2026-04-05T08:42:03.001Z</time></trkpt><trkpt lat="43.90387454881059" lon="12.127939702438406"><ele>359.0</ele><time>2026-04-05T08:42:05.001Z</time></trkpt><trkpt lat="43.90391579673218" lon="12.127852438143702"><ele>359.0</ele><time>2026-04-05T08:42:07.001Z</time></trkpt><trkpt lat="43.903979776513346" lon="12.1278305809678"><ele>359.0</ele><time>2026-04-05T08:42:10.001Z</time></trkpt><trkpt lat="43.9040156232267" lon="12.127752098257146"><ele>359.0</ele><time>2026-04-05T08:43:42.001Z</time></trkpt><trkpt lat="43.904061271015316" lon="12.12783863102038"><ele>359.0</ele><time>2026-04-05T08:44:16.001Z</time></trkpt><trkpt lat="43.90399501133087" lon="12.127858431345382"><ele>359.0</ele><time>2026-04-05T08:45:09.001Z</time></trkpt><trkpt lat="43.903933725986185" lon="12.127883016566221"><ele>359.0</ele><time>2026-04-05T08:45:22.001Z</time></trkpt></trkseg></trk></gpx>